<?xml version='1.0' encoding='UTF-8'?><gpx version="1.1" creator="JPX - https://github.com/jenetics/jpx" xmlns="http://www.topografix.com/GPX/1/1"><trk><trkseg><trkpt lat="45.6100083" lon="9.4271905"><ele>200.33333333333334</ele><time>2026-04-10T12:24:42.057Z</time></trkpt><trkpt lat="45.6099818" lon="9.4270922"><ele>200.66666666666669</ele><time>2026-04-10T12:28:23.056Z</time></trkpt><trkpt lat="45.609987" lon="9.4270008"><ele>201.0</ele><time>2026-04-10T12:28:25.057Z</time></trkpt><trkpt lat="45.6099891" lon="9.4268784"><ele>201.33333333333331</ele><time>2026-04-10T12:28:27.057Z</time></trkpt><trkpt lat="45.6099884" lon="9.4267499"><ele>201.66666666666666</ele><time>2026-04-10T12:28:29.057Z</time></trkpt><trkpt lat="45.6099814" lon="9.4266389"><ele>202.0</ele><time>2026-04-10T12:28:31.057Z</time></trkpt><trkpt lat="45.6099183" lon="9.4266023"><ele>201.99999999999997</ele><time>2026-04-10T12:28:33.057Z</time></trkpt><trkpt lat="45.6098374" lon="9.4265966"><ele>202.0</ele><time>2026-04-10T12:28:35.057Z</time></trkpt><trkpt lat="45.6097522" lon="9.42658"><ele>202.0</ele><time>2026-04-10T12:28:37.057Z</time></trkpt><trkpt lat="45.6097114" lon="9.4264966"><ele>202.0</ele><time>2026-04-10T12:28:39.057Z</time></trkpt><trkpt lat="45.6097252" lon="9.426382"><ele>201.99999999999997</ele><time>2026-04-10T12:28:41.057Z</time></trkpt><trkpt lat="45.6097405" lon="9.4262647"><ele>202.0</ele><time>2026-04-10T12:28:43.057Z</time></trkpt><trkpt lat="45.6097439" lon="9.4261488"><ele>201.99999999999997</ele><time>2026-04-10T12:28:45.057Z</time></trkpt><trkpt lat="45.6097229" lon="9.4260616"><ele>202.0</ele><time>2026-04-10T12:28:47.057Z</time></trkpt><trkpt lat="45.6096547" lon="9.4260387"><ele>202.0</ele><time>2026-04-10T12:28:57.057Z</time></trkpt><trkpt lat="45.6095829" lon="9.4260353"><ele>202.0</ele><time>2026-04-10T12:28:59.056Z</time></trkpt><trkpt lat="45.6095003" lon="9.4260344"><ele>201.99999999999997</ele><time>2026-04-10T12:29:01.057Z</time></trkpt><trkpt lat="45.6094102" lon="9.4260332"><ele>202.0</ele><time>2026-04-10T12:29:03.057Z</time></trkpt><trkpt lat="45.6093121" lon="9.4260221"><ele>201.39999999999998</ele><time>2026-04-10T12:29:05.057Z</time></trkpt><trkpt lat="45.6092142" lon="9.4260064"><ele>200.79999999999998</ele><time>2026-04-10T12:29:07.057Z</time></trkpt><trkpt lat="45.6091081" lon="9.4260085"><ele>200.2</ele><time>2026-04-10T12:29:09.057Z</time></trkpt><trkpt lat="45.6090033" lon="9.4260006"><ele>199.6</ele><time>2026-04-10T12:29:11.056Z</time></trkpt><trkpt lat="45.6089182" lon="9.426009"><ele>199.0</ele><time>2026-04-10T12:29:13.057Z</time></trkpt><trkpt lat="45.6088312" lon="9.4260092"><ele>199.0</ele><time>2026-04-10T12:29:15.057Z</time></trkpt><trkpt lat="45.6087323" lon="9.4260084"><ele>199.0</ele><time>2026-04-10T12:29:17.057Z</time></trkpt><trkpt lat="45.608625" lon="9.4260006"><ele>199.0</ele><time>2026-04-10T12:29:19.057Z</time></trkpt><trkpt lat="45.6085194" lon="9.4259969"><ele>199.0</ele><time>2026-04-10T12:29:21.056Z</time></trkpt><trkpt lat="45.6084103" lon="9.4259899"><ele>199.0</ele><time>2026-04-10T12:29:23.057Z</time></trkpt><trkpt lat="45.6083018" lon="9.425978"><ele>198.39999999999998</ele><time>2026-04-10T12:29:25.057Z</time></trkpt><trkpt lat="45.6081886" lon="9.4259702"><ele>197.8</ele><time>2026-04-10T12:29:27.057Z</time></trkpt><trkpt lat="45.6080728" lon="9.4259654"><ele>197.2</ele><time>2026-04-10T12:29:29.057Z</time></trkpt><trkpt lat="45.6079565" lon="9.4259692"><ele>196.60000000000002</ele><time>2026-04-10T12:29:31.057Z</time></trkpt><trkpt lat="45.607893" lon="9.4259689"><ele>196.0</ele><time>2026-04-10T12:29:32.057Z</time></trkpt><trkpt lat="45.6077781" lon="9.4259671"><ele>195.8</ele><time>2026-04-10T12:29:34.056Z</time></trkpt><trkpt lat="45.607667" lon="9.4259632"><ele>195.60000000000002</ele><time>2026-04-10T12:29:36.057Z</time></trkpt><trkpt lat="45.60756" lon="9.4259653"><ele>195.4</ele><time>2026-04-10T12:29:38.056Z</time></trkpt><trkpt lat="45.607467" lon="9.4259945"><ele>195.2</ele><time>2026-04-10T12:29:40.057Z</time></trkpt><trkpt lat="45.6074153" lon="9.4261064"><ele>195.0</ele><time>2026-04-10T12:29:42.057Z</time></trkpt><trkpt lat="45.6074145" lon="9.426242"><ele>195.0</ele><time>2026-04-10T12:29:44.056Z</time></trkpt><trkpt lat="45.6074151" lon="9.4263822"><ele>195.0</ele><time>2026-04-10T12:29:46.057Z</time></trkpt><trkpt lat="45.6074153" lon="9.42653"><ele>195.0</ele><time>2026-04-10T12:29:48.057Z</time></trkpt><trkpt lat="45.6074049" lon="9.4266774"><ele>195.0</ele><time>2026-04-10T12:29:50.056Z</time></trkpt><trkpt lat="45.6074093" lon="9.426827"><ele>195.0</ele><time>2026-04-10T12:29:52.057Z</time></trkpt><trkpt lat="45.6074076" lon="9.4269834"><ele>195.0</ele><time>2026-04-10T12:29:54.057Z</time></trkpt><trkpt lat="45.6074024" lon="9.4271445"><ele>195.0</ele><time>2026-04-10T12:29:56.057Z</time></trkpt><trkpt lat="45.6073908" lon="9.4272984"><ele>195.0</ele><time>2026-04-10T12:29:58.057Z</time></trkpt><trkpt lat="45.6073672" lon="9.4274543"><ele>195.0</ele><time>2026-04-10T12:30:00.057Z</time></trkpt><trkpt lat="45.6073432" lon="9.4276078"><ele>195.0</ele><time>2026-04-10T12:30:02.057Z</time></trkpt><trkpt lat="45.6073298" lon="9.4277656"><ele>195.0</ele><time>2026-04-10T12:30:04.057Z</time></trkpt><trkpt lat="45.6073247" lon="9.4279269"><ele>195.0</ele><time>2026-04-10T12:30:06.056Z</time></trkpt><trkpt lat="45.6073198" lon="9.428098"><ele>195.0</ele><time>2026-04-10T12:30:08.056Z</time></trkpt><trkpt lat="45.6073109" lon="9.4282669"><ele>195.0</ele><time>2026-04-10T12:30:10.057Z</time></trkpt><trkpt lat="45.6073032" lon="9.4284312"><ele>195.0</ele><time>2026-04-10T12:30:12.057Z</time></trkpt><trkpt lat="45.6073025" lon="9.428595"><ele>195.0</ele><time>2026-04-10T12:30:14.056Z</time></trkpt><trkpt lat="45.6073005" lon="9.4287566"><ele>195.0</ele><time>2026-04-10T12:30:16.056Z</time></trkpt><trkpt lat="45.6072971" lon="9.4289133"><ele>195.0</ele><time>2026-04-10T12:30:18.056Z</time></trkpt><trkpt lat="45.6072938" lon="9.4290763"><ele>195.0</ele><time>2026-04-10T12:30:20.057Z</time></trkpt><trkpt lat="45.6072962" lon="9.4292394"><ele>195.0</ele><time>2026-04-10T12:30:22.057Z</time></trkpt><trkpt lat="45.6072921" lon="9.4294029"><ele>195.0</ele><time>2026-04-10T12:30:24.057Z</time></trkpt><trkpt lat="45.607288" lon="9.4295668"><ele>195.0</ele><time>2026-04-10T12:30:26.057Z</time></trkpt><trkpt lat="45.6072766" lon="9.4297306"><ele>195.2</ele><time>2026-04-10T12:30:28.056Z</time></trkpt><trkpt lat="45.6072646" lon="9.4298884"><ele>195.4</ele><time>2026-04-10T12:30:30.057Z</time></trkpt><trkpt lat="45.6072289" lon="9.4300379"><ele>195.60000000000002</ele><time>2026-04-10T12:30:32.057Z</time></trkpt><trkpt lat="45.6071643" lon="9.4301647"><ele>195.8</ele><time>2026-04-10T12:30:34.057Z</time></trkpt><trkpt lat="45.6070714" lon="9.4302508"><ele>196.0</ele><time>2026-04-10T12:30:36.057Z</time></trkpt><trkpt lat="45.6070022" lon="9.4303993"><ele>196.20000000000002</ele><time>2026-04-10T12:30:38.057Z</time></trkpt><trkpt lat="45.6069887" lon="9.4304887"><ele>196.4</ele><time>2026-04-10T12:30:39.057Z</time></trkpt><trkpt lat="45.606983" lon="9.4305815"><ele>196.6</ele><time>2026-04-10T12:30:40.056Z</time></trkpt><trkpt lat="45.6069809" lon="9.4307608"><ele>196.8</ele><time>2026-04-10T12:30:42.057Z</time></trkpt><trkpt lat="45.6069557" lon="9.4309282"><ele>197.0</ele><time>2026-04-10T12:30:44.057Z</time></trkpt><trkpt lat="45.6069142" lon="9.4310822"><ele>197.0</ele><time>2026-04-10T12:30:46.057Z</time></trkpt><trkpt lat="45.6069365" lon="9.4312101"><ele>197.0</ele><time>2026-04-10T12:30:48.057Z</time></trkpt><trkpt lat="45.6070243" lon="9.4312833"><ele>197.0</ele><time>2026-04-10T12:30:50.057Z</time></trkpt><trkpt lat="45.6071192" lon="9.4313248"><ele>197.0</ele><time>2026-04-10T12:30:52.056Z</time></trkpt><trkpt lat="45.6072157" lon="9.4313607"><ele>197.0</ele><time>2026-04-10T12:30:54.057Z</time></trkpt><trkpt lat="45.6073045" lon="9.4314305"><ele>197.0</ele><time>2026-04-10T12:30:56.057Z</time></trkpt><trkpt lat="45.6073367" lon="9.4315643"><ele>197.0</ele><time>2026-04-10T12:30:58.057Z</time></trkpt><trkpt lat="45.6073352" lon="9.4317046"><ele>197.0</ele><time>2026-04-10T12:31:00.057Z</time></trkpt><trkpt lat="45.6073566" lon="9.4318383"><ele>197.0</ele><time>2026-04-10T12:31:02.057Z</time></trkpt><trkpt lat="45.6074072" lon="9.4319209"><ele>197.0</ele><time>2026-04-10T12:31:04.057Z</time></trkpt><trkpt lat="45.6075009" lon="9.4319528"><ele>197.0</ele><time>2026-04-10T12:31:06.057Z</time></trkpt><trkpt lat="45.6076009" lon="9.4319761"><ele>197.0</ele><time>2026-04-10T12:31:08.056Z</time></trkpt><trkpt lat="45.6077045" lon="9.4320093"><ele>197.0</ele><time>2026-04-10T12:31:10.057Z</time></trkpt><trkpt lat="45.6078138" lon="9.4320363"><ele>197.0</ele><time>2026-04-10T12:31:12.057Z</time></trkpt><trkpt lat="45.6079218" lon="9.4320625"><ele>197.0</ele><time>2026-04-10T12:31:14.057Z</time></trkpt><trkpt lat="45.6080284" lon="9.4320677"><ele>197.2</ele><time>2026-04-10T12:31:16.057Z</time></trkpt><trkpt lat="45.6081367" lon="9.4320206"><ele>197.39999999999998</ele><time>2026-04-10T12:31:18.057Z</time></trkpt><trkpt lat="45.6082401" lon="9.4319325"><ele>197.60000000000002</ele><time>2026-04-10T12:31:20.057Z</time></trkpt><trkpt lat="45.6082977" lon="9.4318909"><ele>197.8</ele><time>2026-04-10T12:31:21.056Z</time></trkpt><trkpt lat="45.6084278" lon="9.4318587"><ele>198.0</ele><time>2026-04-10T12:31:23.057Z</time></trkpt><trkpt lat="45.6084984" lon="9.4318648"><ele>198.0</ele><time>2026-04-10T12:31:24.057Z</time></trkpt><trkpt lat="45.6085672" lon="9.4318672"><ele>198.0</ele><time>2026-04-10T12:31:25.056Z</time></trkpt><trkpt lat="45.6086843" lon="9.4318869"><ele>198.0</ele><time>2026-04-10T12:31:27.057Z</time></trkpt><trkpt lat="45.608785" lon="9.4319455"><ele>198.0</ele><time>2026-04-10T12:31:29.057Z</time></trkpt><trkpt lat="45.6089017" lon="9.4319904"><ele>198.0</ele><time>2026-04-10T12:31:31.057Z</time></trkpt><trkpt lat="45.609024" lon="9.4320489"><ele>197.60000000000002</ele><time>2026-04-10T12:31:33.057Z</time></trkpt><trkpt lat="45.6091313" lon="9.4321079"><ele>197.20000000000002</ele><time>2026-04-10T12:31:35.056Z</time></trkpt><trkpt lat="45.6092468" lon="9.4321648"><ele>196.8</ele><time>2026-04-10T12:31:37.057Z</time></trkpt><trkpt lat="45.60931" lon="9.4321943"><ele>196.4</ele><time>2026-04-10T12:31:38.057Z</time></trkpt><trkpt lat="45.6094324" lon="9.4322381"><ele>196.0</ele><time>2026-04-10T12:31:40.056Z</time></trkpt><trkpt lat="45.6095544" lon="9.4322745"><ele>196.0</ele><time>2026-04-10T12:31:42.057Z</time></trkpt><trkpt lat="45.6096765" lon="9.432329"><ele>196.0</ele><time>2026-04-10T12:31:44.057Z</time></trkpt><trkpt lat="45.6097382" lon="9.4323506"><ele>196.0</ele><time>2026-04-10T12:31:45.057Z</time></trkpt><trkpt lat="45.6098518" lon="9.4323971"><ele>196.0</ele><time>2026-04-10T12:31:47.057Z</time></trkpt><trkpt lat="45.6099465" lon="9.4323694"><ele>196.0</ele><time>2026-04-10T12:31:49.057Z</time></trkpt><trkpt lat="45.6100397" lon="9.4323112"><ele>196.0</ele><time>2026-04-10T12:31:51.057Z</time></trkpt><trkpt lat="45.6101466" lon="9.4323105"><ele>196.0</ele><time>2026-04-10T12:31:53.057Z</time></trkpt><trkpt lat="45.6102603" lon="9.4323415"><ele>196.0</ele><time>2026-04-10T12:31:55.057Z</time></trkpt><trkpt lat="45.6103611" lon="9.4322999"><ele>196.0</ele><time>2026-04-10T12:31:57.057Z</time></trkpt><trkpt lat="45.6104511" lon="9.4322089"><ele>196.0</ele><time>2026-04-10T12:31:59.057Z</time></trkpt><trkpt lat="45.6105309" lon="9.432109"><ele>196.60000000000002</ele><time>2026-04-10T12:32:01.057Z</time></trkpt><trkpt lat="45.6106247" lon="9.432024"><ele>197.2</ele><time>2026-04-10T12:32:03.057Z</time></trkpt><trkpt lat="45.6107276" lon="9.4319807"><ele>197.8</ele><time>2026-04-10T12:32:05.057Z</time></trkpt><trkpt lat="45.6108397" lon="9.4319859"><ele>198.39999999999998</ele><time>2026-04-10T12:32:07.057Z</time></trkpt><trkpt lat="45.6109522" lon="9.4320067"><ele>199.0</ele><time>2026-04-10T12:32:09.057Z</time></trkpt><trkpt lat="45.6110633" lon="9.4320258"><ele>199.6</ele><time>2026-04-10T12:32:11.056Z</time></trkpt><trkpt lat="45.6111675" lon="9.4320309"><ele>200.2</ele><time>2026-04-10T12:32:13.057Z</time></trkpt><trkpt lat="45.6112757" lon="9.4320339"><ele>200.79999999999998</ele><time>2026-04-10T12:32:15.056Z</time></trkpt><trkpt lat="45.611393" lon="9.4320329"><ele>201.39999999999998</ele><time>2026-04-10T12:32:17.057Z</time></trkpt><trkpt lat="45.6115053" lon="9.4320561"><ele>202.0</ele><time>2026-04-10T12:32:19.057Z</time></trkpt><trkpt lat="45.6116159" lon="9.4320914"><ele>202.0</ele><time>2026-04-10T12:32:21.057Z</time></trkpt><trkpt lat="45.6117101" lon="9.432172"><ele>202.0</ele><time>2026-04-10T12:32:23.057Z</time></trkpt><trkpt lat="45.6117795" lon="9.4322893"><ele>202.0</ele><time>2026-04-10T12:32:25.056Z</time></trkpt><trkpt lat="45.6118818" lon="9.4323595"><ele>202.0</ele><time>2026-04-10T12:32:27.057Z</time></trkpt><trkpt lat="45.6119486" lon="9.4323622"><ele>202.0</ele><time>2026-04-10T12:32:28.057Z</time></trkpt><trkpt lat="45.6120693" lon="9.43237"><ele>202.2</ele><time>2026-04-10T12:32:30.057Z</time></trkpt><trkpt lat="45.6121337" lon="9.4323816"><ele>202.39999999999998</ele><time>2026-04-10T12:32:31.057Z</time></trkpt><trkpt lat="45.6122553" lon="9.432401"><ele>202.60000000000002</ele><time>2026-04-10T12:32:33.057Z</time></trkpt><trkpt lat="45.6123693" lon="9.4324253"><ele>202.8</ele><time>2026-04-10T12:32:35.057Z</time></trkpt><trkpt lat="45.6124948" lon="9.432443"><ele>203.0</ele><time>2026-04-10T12:32:37.057Z</time></trkpt><trkpt lat="45.6125615" lon="9.4324475"><ele>203.0</ele><time>2026-04-10T12:32:38.057Z</time></trkpt><trkpt lat="45.6126247" lon="9.432454"><ele>203.0</ele><time>2026-04-10T12:32:39.057Z</time></trkpt><trkpt lat="45.612743" lon="9.432485"><ele>203.0</ele><time>2026-04-10T12:32:41.057Z</time></trkpt><trkpt lat="45.612861" lon="9.4325182"><ele>203.0</ele><time>2026-04-10T12:32:43.057Z</time></trkpt><trkpt lat="45.6129245" lon="9.4325441"><ele>203.0</ele><time>2026-04-10T12:32:44.057Z</time></trkpt><trkpt lat="45.6130397" lon="9.4326009"><ele>203.0</ele><time>2026-04-10T12:32:46.057Z</time></trkpt><trkpt lat="45.6131536" lon="9.4326611"><ele>203.0</ele><time>2026-04-10T12:32:48.057Z</time></trkpt><trkpt lat="45.61327" lon="9.4327181"><ele>203.0</ele><time>2026-04-10T12:32:50.057Z</time></trkpt><trkpt lat="45.6133862" lon="9.4327758"><ele>203.0</ele><time>2026-04-10T12:32:52.056Z</time></trkpt><trkpt lat="45.6134483" lon="9.43281"><ele>203.0</ele><time>2026-04-10T12:32:53.057Z</time></trkpt><trkpt lat="45.6135144" lon="9.4328403"><ele>203.0</ele><time>2026-04-10T12:32:54.057Z</time></trkpt><trkpt lat="45.6135783" lon="9.4328664"><ele>203.0</ele><time>2026-04-10T12:32:55.057Z</time></trkpt><trkpt lat="45.6136958" lon="9.4329141"><ele>203.0</ele><time>2026-04-10T12:32:57.057Z</time></trkpt><trkpt lat="45.6138129" lon="9.4328912"><ele>203.0</ele><time>2026-04-10T12:32:59.056Z</time></trkpt><trkpt lat="45.6139145" lon="9.4328205"><ele>203.0</ele><time>2026-04-10T12:33:01.056Z</time></trkpt><trkpt lat="45.6140266" lon="9.4328209"><ele>203.0</ele><time>2026-04-10T12:33:03.056Z</time></trkpt><trkpt lat="45.6141348" lon="9.4328765"><ele>203.0</ele><time>2026-04-10T12:33:05.057Z</time></trkpt><trkpt lat="45.6142503" lon="9.4329285"><ele>203.0</ele><time>2026-04-10T12:33:07.057Z</time></trkpt><trkpt lat="45.6143656" lon="9.432986"><ele>203.0</ele><time>2026-04-10T12:33:09.057Z</time></trkpt><trkpt lat="45.614475" lon="9.4330489"><ele>203.4</ele><time>2026-04-10T12:33:11.056Z</time></trkpt><trkpt lat="45.6145389" lon="9.4330878"><ele>203.8</ele><time>2026-04-10T12:33:12.056Z</time></trkpt><trkpt lat="45.6146395" lon="9.4331367"><ele>204.2</ele><time>2026-04-10T12:33:14.056Z</time></trkpt><trkpt lat="45.6147433" lon="9.4331857"><ele>204.6</ele><time>2026-04-10T12:33:16.057Z</time></trkpt><trkpt lat="45.6148503" lon="9.4332394"><ele>205.0</ele><time>2026-04-10T12:33:18.056Z</time></trkpt><trkpt lat="45.6149547" lon="9.4332922"><ele>205.0</ele><time>2026-04-10T12:33:20.056Z</time></trkpt><trkpt lat="45.6150648" lon="9.4333393"><ele>205.0</ele><time>2026-04-10T12:33:22.057Z</time></trkpt><trkpt lat="45.6151789" lon="9.4333824"><ele>205.0</ele><time>2026-04-10T12:33:24.057Z</time></trkpt><trkpt lat="45.6152873" lon="9.4334353"><ele>205.0</ele><time>2026-04-10T12:33:26.057Z</time></trkpt><trkpt lat="45.6154022" lon="9.4334737"><ele>204.83333333333331</ele><time>2026-04-10T12:33:28.057Z</time></trkpt><trkpt lat="45.6154998" lon="9.4335208"><ele>204.66666666666666</ele><time>2026-04-10T12:33:30.056Z</time></trkpt><trkpt lat="45.6155673" lon="9.4335461"><ele>204.5</ele><time>2026-04-10T12:33:32.056Z</time></trkpt><trkpt lat="45.6156321" lon="9.4334796"><ele>204.33333333333331</ele><time>2026-04-10T12:33:35.056Z</time></trkpt><trkpt lat="45.6156289" lon="9.4333698"><ele>204.16666666666666</ele><time>2026-04-10T12:33:37.057Z</time></trkpt><trkpt lat="45.6156227" lon="9.4332432"><ele>204.0</ele><time>2026-04-10T12:33:39.057Z</time></trkpt><trkpt lat="45.6156187" lon="9.4331404"><ele>204.0</ele><time>2026-04-10T12:33:41.057Z</time></trkpt><trkpt lat="45.6156348" lon="9.4330496"><ele>204.0</ele><time>2026-04-10T12:33:43.056Z</time></trkpt><trkpt lat="45.6157026" lon="9.4329826"><ele>204.0</ele><time>2026-04-10T12:33:45.057Z</time></trkpt><trkpt lat="45.6158693" lon="9.4326564"><ele>204.0</ele><time>2026-04-10T12:33:54.061Z</time></trkpt><trkpt lat="45.6158983" lon="9.4325524"><ele>204.0</ele><time>2026-04-10T12:33:55.069Z</time></trkpt><trkpt lat="45.6159073" lon="9.4323963"><ele>204.0</ele><time>2026-04-10T12:33:57.065Z</time></trkpt><trkpt lat="45.6159282" lon="9.4322998"><ele>204.0</ele><time>2026-04-10T12:33:58.063Z</time></trkpt><trkpt lat="45.6159318" lon="9.4321784"><ele>204.0</ele><time>2026-04-10T12:34:00.068Z</time></trkpt><trkpt lat="45.615959" lon="9.4320678"><ele>204.0</ele><time>2026-04-10T12:34:02.069Z</time></trkpt><trkpt lat="45.6160271" lon="9.4320097"><ele>204.0</ele><time>2026-04-10T12:34:04.069Z</time></trkpt><trkpt lat="45.6161152" lon="9.4320448"><ele>204.16666666666666</ele><time>2026-04-10T12:34:06.069Z</time></trkpt><trkpt lat="45.6161694" lon="9.4321424"><ele>204.33333333333331</ele><time>2026-04-10T12:34:08.069Z</time></trkpt><trkpt lat="45.6161616" lon="9.4322651"><ele>204.5</ele><time>2026-04-10T12:34:10.069Z</time></trkpt><trkpt lat="45.6161635" lon="9.4323564"><ele>204.66666666666666</ele><time>2026-04-10T12:34:12.069Z</time></trkpt><trkpt lat="45.6161604" lon="9.4324772"><ele>204.83333333333331</ele><time>2026-04-10T12:34:14.069Z</time></trkpt><trkpt lat="45.616174" lon="9.432638"><ele>205.0</ele><time>2026-04-10T12:34:16.069Z</time></trkpt><trkpt lat="45.6161904" lon="9.4328038"><ele>205.0</ele><time>2026-04-10T12:34:18.069Z</time></trkpt><trkpt lat="45.6162068" lon="9.432973"><ele>205.0</ele><time>2026-04-10T12:34:20.069Z</time></trkpt><trkpt lat="45.6162235" lon="9.4331351"><ele>205.0</ele><time>2026-04-10T12:34:22.069Z</time></trkpt><trkpt lat="45.6162688" lon="9.4333681"><ele>205.0</ele><time>2026-04-10T12:34:24.069Z</time></trkpt><trkpt lat="45.6162949" lon="9.4334581"><ele>205.0</ele><time>2026-04-10T12:34:25.068Z</time></trkpt><trkpt lat="45.6163209" lon="9.433543"><ele>205.0</ele><time>2026-04-10T12:34:26.069Z</time></trkpt><trkpt lat="45.6163506" lon="9.4336229"><ele>205.0</ele><time>2026-04-10T12:34:27.068Z</time></trkpt><trkpt lat="45.6164126" lon="9.4337694"><ele>205.0</ele><time>2026-04-10T12:34:29.069Z</time></trkpt><trkpt lat="45.6164985" lon="9.4338832"><ele>205.0</ele><time>2026-04-10T12:34:31.069Z</time></trkpt><trkpt lat="45.6166057" lon="9.4339484"><ele>205.0</ele><time>2026-04-10T12:34:33.069Z</time></trkpt><trkpt lat="45.6167157" lon="9.4339143"><ele>205.0</ele><time>2026-04-10T12:34:35.068Z</time></trkpt><trkpt lat="45.6168057" lon="9.4338205"><ele>205.0</ele><time>2026-04-10T12:34:37.068Z</time></trkpt><trkpt lat="45.6168869" lon="9.4337037"><ele>205.0</ele><time>2026-04-10T12:34:39.068Z</time></trkpt><trkpt lat="45.6169707" lon="9.4335741"><ele>205.2</ele><time>2026-04-10T12:34:41.069Z</time></trkpt><trkpt lat="45.6170554" lon="9.433441"><ele>205.4</ele><time>2026-04-10T12:34:43.069Z</time></trkpt><trkpt lat="45.6170974" lon="9.433373"><ele>205.60000000000002</ele><time>2026-04-10T12:34:44.069Z</time></trkpt><trkpt lat="45.6171754" lon="9.4332402"><ele>205.8</ele><time>2026-04-10T12:34:46.068Z</time></trkpt><trkpt lat="45.6172539" lon="9.4331094"><ele>206.0</ele><time>2026-04-10T12:34:48.069Z</time></trkpt><trkpt lat="45.617295" lon="9.4330408"><ele>206.0</ele><time>2026-04-10T12:34:49.069Z</time></trkpt><trkpt lat="45.6173775" lon="9.4329168"><ele>206.0</ele><time>2026-04-10T12:34:51.069Z</time></trkpt><trkpt lat="45.6174559" lon="9.4327925"><ele>206.0</ele><time>2026-04-10T12:34:53.069Z</time></trkpt><trkpt lat="45.6175273" lon="9.432651"><ele>206.0</ele><time>2026-04-10T12:34:55.068Z</time></trkpt><trkpt lat="45.6175932" lon="9.4325038"><ele>206.00000000000003</ele><time>2026-04-10T12:34:57.069Z</time></trkpt><trkpt lat="45.6176542" lon="9.4323581"><ele>206.0</ele><time>2026-04-10T12:34:59.069Z</time></trkpt><trkpt lat="45.6176836" lon="9.4322753"><ele>206.0</ele><time>2026-04-10T12:35:00.069Z</time></trkpt><trkpt lat="45.6177112" lon="9.4321929"><ele>206.0</ele><time>2026-04-10T12:35:01.068Z</time></trkpt><trkpt lat="45.6177408" lon="9.4321085"><ele>206.00000000000003</ele><time>2026-04-10T12:35:02.068Z</time></trkpt><trkpt lat="45.6177682" lon="9.432022"><ele>206.0</ele><time>2026-04-10T12:35:03.069Z</time></trkpt><trkpt lat="45.6178208" lon="9.4318735"><ele>206.20000000000002</ele><time>2026-04-10T12:35:05.069Z</time></trkpt><trkpt lat="45.6178752" lon="9.4317154"><ele>206.4</ele><time>2026-04-10T12:35:07.069Z</time></trkpt><trkpt lat="45.6179066" lon="9.4316284"><ele>206.6</ele><time>2026-04-10T12:35:08.069Z</time></trkpt><trkpt lat="45.6179607" lon="9.4314646"><ele>206.8</ele><time>2026-04-10T12:35:10.069Z</time></trkpt><trkpt lat="45.6180197" lon="9.4313031"><ele>207.0</ele><time>2026-04-10T12:35:12.069Z</time></trkpt><trkpt lat="45.618048" lon="9.4312225"><ele>207.16666666666666</ele><time>2026-04-10T12:35:13.068Z</time></trkpt><trkpt lat="45.6180796" lon="9.4311417"><ele>207.33333333333331</ele><time>2026-04-10T12:35:14.068Z</time></trkpt><trkpt lat="45.6181153" lon="9.431064"><ele>207.5</ele><time>2026-04-10T12:35:15.069Z</time></trkpt><trkpt lat="45.6181916" lon="9.4309227"><ele>207.66666666666666</ele><time>2026-04-10T12:35:17.069Z</time></trkpt><trkpt lat="45.6182301" lon="9.4308484"><ele>207.83333333333331</ele><time>2026-04-10T12:35:18.069Z</time></trkpt><trkpt lat="45.6182753" lon="9.4307848"><ele>208.0</ele><time>2026-04-10T12:35:19.069Z</time></trkpt><trkpt lat="45.6183324" lon="9.4307283"><ele>208.0</ele><time>2026-04-10T12:35:20.068Z</time></trkpt><trkpt lat="45.6183962" lon="9.4306843"><ele>208.0</ele><time>2026-04-10T12:35:21.069Z</time></trkpt><trkpt lat="45.6184598" lon="9.4306576"><ele>208.0</ele><time>2026-04-10T12:35:22.069Z</time></trkpt><trkpt lat="45.6185264" lon="9.4306345"><ele>208.0</ele><time>2026-04-10T12:35:23.069Z</time></trkpt><trkpt lat="45.6185896" lon="9.4306123"><ele>208.0</ele><time>2026-04-10T12:35:24.069Z</time></trkpt><trkpt lat="45.6186516" lon="9.4305909"><ele>208.0</ele><time>2026-04-10T12:35:25.069Z</time></trkpt><trkpt lat="45.6187145" lon="9.4305612"><ele>208.0</ele><time>2026-04-10T12:35:26.069Z</time></trkpt><trkpt lat="45.6187756" lon="9.4305332"><ele>208.0</ele><time>2026-04-10T12:35:27.069Z</time></trkpt><trkpt lat="45.6188918" lon="9.430487"><ele>208.0</ele><time>2026-04-10T12:35:29.069Z</time></trkpt><trkpt lat="45.6189552" lon="9.4304608"><ele>208.0</ele><time>2026-04-10T12:35:30.068Z</time></trkpt><trkpt lat="45.6190745" lon="9.4304049"><ele>208.0</ele><time>2026-04-10T12:35:32.069Z</time></trkpt><trkpt lat="45.6191968" lon="9.430389"><ele>208.0</ele><time>2026-04-10T12:35:34.069Z</time></trkpt><trkpt lat="45.6193109" lon="9.4304085"><ele>208.0</ele><time>2026-04-10T12:35:36.069Z</time></trkpt><trkpt lat="45.6194262" lon="9.4304286"><ele>208.0</ele><time>2026-04-10T12:35:38.069Z</time></trkpt><trkpt lat="45.6195429" lon="9.4304512"><ele>208.0</ele><time>2026-04-10T12:35:40.069Z</time></trkpt><trkpt lat="45.6196538" lon="9.4304716"><ele>208.0</ele><time>2026-04-10T12:35:42.069Z</time></trkpt><trkpt lat="45.6197671" lon="9.4304917"><ele>208.75</ele><time>2026-04-10T12:35:44.069Z</time></trkpt><trkpt lat="45.6198819" lon="9.4305092"><ele>209.5</ele><time>2026-04-10T12:35:46.069Z</time></trkpt><trkpt lat="45.6199928" lon="9.430532"><ele>210.25</ele><time>2026-04-10T12:35:48.069Z</time></trkpt><trkpt lat="45.6201081" lon="9.4305531"><ele>211.0</ele><time>2026-04-10T12:35:50.069Z</time></trkpt><trkpt lat="45.6202243" lon="9.4305748"><ele>210.75</ele><time>2026-04-10T12:35:52.069Z</time></trkpt><trkpt lat="45.6203414" lon="9.430599"><ele>210.5</ele><time>2026-04-10T12:35:54.069Z</time></trkpt><trkpt lat="45.6204606" lon="9.430626"><ele>210.25</ele><time>2026-04-10T12:35:56.068Z</time></trkpt><trkpt lat="45.6205737" lon="9.4306448"><ele>210.0</ele><time>2026-04-10T12:35:58.069Z</time></trkpt><trkpt lat="45.6206866" lon="9.4306521"><ele>210.0</ele><time>2026-04-10T12:36:00.069Z</time></trkpt><trkpt lat="45.6208055" lon="9.430666"><ele>210.0</ele><time>2026-04-10T12:36:02.069Z</time></trkpt><trkpt lat="45.6208792" lon="9.4307622"><ele>210.0</ele><time>2026-04-10T12:36:04.069Z</time></trkpt><trkpt lat="45.6208774" lon="9.4309164"><ele>210.0</ele><time>2026-04-10T12:36:06.069Z</time></trkpt><trkpt lat="45.6208492" lon="9.4310749"><ele>210.0</ele><time>2026-04-10T12:36:08.069Z</time></trkpt><trkpt lat="45.6208318" lon="9.4312359"><ele>210.16666666666666</ele><time>2026-04-10T12:36:10.068Z</time></trkpt><trkpt lat="45.6208079" lon="9.4314055"><ele>210.33333333333331</ele><time>2026-04-10T12:36:12.069Z</time></trkpt><trkpt lat="45.6207875" lon="9.4315821"><ele>210.5</ele><time>2026-04-10T12:36:14.069Z</time></trkpt><trkpt lat="45.6207748" lon="9.4316808"><ele>210.66666666666666</ele><time>2026-04-10T12:36:15.069Z</time></trkpt><trkpt lat="45.6207614" lon="9.4317724"><ele>210.83333333333331</ele><time>2026-04-10T12:36:16.069Z</time></trkpt><trkpt lat="45.6207522" lon="9.4318648"><ele>211.0</ele><time>2026-04-10T12:36:17.069Z</time></trkpt><trkpt lat="45.6207394" lon="9.4319606"><ele>211.0</ele><time>2026-04-10T12:36:18.068Z</time></trkpt><trkpt lat="45.6207266" lon="9.4320559"><ele>211.0</ele><time>2026-04-10T12:36:19.069Z</time></trkpt><trkpt lat="45.6207154" lon="9.4321464"><ele>211.0</ele><time>2026-04-10T12:36:20.068Z</time></trkpt><trkpt lat="45.6207033" lon="9.4322457"><ele>211.0</ele><time>2026-04-10T12:36:21.069Z</time></trkpt><trkpt lat="45.6206882" lon="9.4323388"><ele>211.0</ele><time>2026-04-10T12:36:22.069Z</time></trkpt><trkpt lat="45.6206731" lon="9.4324383"><ele>211.0</ele><time>2026-04-10T12:36:23.069Z</time></trkpt><trkpt lat="45.6206569" lon="9.4325379"><ele>211.0</ele><time>2026-04-10T12:36:24.069Z</time></trkpt><trkpt lat="45.6206431" lon="9.4326385"><ele>211.14285714285714</ele><time>2026-04-10T12:36:25.069Z</time></trkpt><trkpt lat="45.6206278" lon="9.4327283"><ele>211.28571428571428</ele><time>2026-04-10T12:36:26.069Z</time></trkpt><trkpt lat="45.6206155" lon="9.432821"><ele>211.42857142857144</ele><time>2026-04-10T12:36:27.069Z</time></trkpt><trkpt lat="45.6205983" lon="9.4329124"><ele>211.57142857142856</ele><time>2026-04-10T12:36:28.069Z</time></trkpt><trkpt lat="45.6205854" lon="9.4330131"><ele>211.7142857142857</ele><time>2026-04-10T12:36:29.069Z</time></trkpt><trkpt lat="45.6205714" lon="9.4331123"><ele>211.85714285714286</ele><time>2026-04-10T12:36:30.069Z</time></trkpt><trkpt lat="45.6205525" lon="9.4332103"><ele>212.0</ele><time>2026-04-10T12:36:31.069Z</time></trkpt><trkpt lat="45.6205319" lon="9.4333127"><ele>212.0</ele><time>2026-04-10T12:36:32.068Z</time></trkpt><trkpt lat="45.6205111" lon="9.4334103"><ele>212.0</ele><time>2026-04-10T12:36:33.068Z</time></trkpt><trkpt lat="45.6204939" lon="9.4335078"><ele>212.0</ele><time>2026-04-10T12:36:34.069Z</time></trkpt><trkpt lat="45.6204738" lon="9.4336112"><ele>212.0</ele><time>2026-04-10T12:36:35.069Z</time></trkpt><trkpt lat="45.6204538" lon="9.4337099"><ele>212.0</ele><time>2026-04-10T12:36:36.069Z</time></trkpt><trkpt lat="45.6204379" lon="9.4338055"><ele>212.0</ele><time>2026-04-10T12:36:37.069Z</time></trkpt><trkpt lat="45.6204154" lon="9.4338904"><ele>212.0</ele><time>2026-04-10T12:36:38.069Z</time></trkpt><trkpt lat="45.6204027" lon="9.4339984"><ele>212.00000000000003</ele><time>2026-04-10T12:36:39.069Z</time></trkpt><trkpt lat="45.620386" lon="9.4340929"><ele>212.0</ele><time>2026-04-10T12:36:40.068Z</time></trkpt><trkpt lat="45.6203692" lon="9.4341832"><ele>212.0</ele><time>2026-04-10T12:36:41.068Z</time></trkpt><trkpt lat="45.6203545" lon="9.4342781"><ele>212.0</ele><time>2026-04-10T12:36:42.069Z</time></trkpt><trkpt lat="45.6203394" lon="9.4343721"><ele>212.00000000000003</ele><time>2026-04-10T12:36:43.069Z</time></trkpt><trkpt lat="45.62032" lon="9.4344624"><ele>212.0</ele><time>2026-04-10T12:36:44.068Z</time></trkpt><trkpt lat="45.6203091" lon="9.434634"><ele>212.5</ele><time>2026-04-10T12:36:46.069Z</time></trkpt><trkpt lat="45.6203457" lon="9.4347925"><ele>213.0</ele><time>2026-04-10T12:36:48.068Z</time></trkpt><trkpt lat="45.6204344" lon="9.434903"><ele>213.5</ele><time>2026-04-10T12:36:50.069Z</time></trkpt><trkpt lat="45.6205452" lon="9.4349686"><ele>214.0</ele><time>2026-04-10T12:36:52.069Z</time></trkpt><trkpt lat="45.6206655" lon="9.4350112"><ele>214.00000000000003</ele><time>2026-04-10T12:36:54.069Z</time></trkpt><trkpt lat="45.6207313" lon="9.4350315"><ele>214.0</ele><time>2026-04-10T12:36:55.069Z</time></trkpt><trkpt lat="45.6208009" lon="9.435057"><ele>214.0</ele><time>2026-04-10T12:36:56.069Z</time></trkpt><trkpt lat="45.6208633" lon="9.4350837"><ele>214.0</ele><time>2026-04-10T12:36:57.069Z</time></trkpt><trkpt lat="45.6209292" lon="9.4351057"><ele>214.0</ele><time>2026-04-10T12:36:58.068Z</time></trkpt><trkpt lat="45.6209981" lon="9.4351271"><ele>214.00000000000003</ele><time>2026-04-10T12:36:59.068Z</time></trkpt><trkpt lat="45.6210637" lon="9.435153"><ele>214.0</ele><time>2026-04-10T12:37:00.069Z</time></trkpt><trkpt lat="45.6211257" lon="9.4351761"><ele>213.39999999999998</ele><time>2026-04-10T12:37:01.069Z</time></trkpt><trkpt lat="45.6212471" lon="9.4352112"><ele>212.79999999999998</ele><time>2026-04-10T12:37:03.069Z</time></trkpt><trkpt lat="45.6213131" lon="9.4352272"><ele>212.2</ele><time>2026-04-10T12:37:04.069Z</time></trkpt><trkpt lat="45.6213784" lon="9.4352469"><ele>211.60000000000002</ele><time>2026-04-10T12:37:05.068Z</time></trkpt><trkpt lat="45.6215027" lon="9.4352951"><ele>211.0</ele><time>2026-04-10T12:37:07.069Z</time></trkpt><trkpt lat="45.6215709" lon="9.4353137"><ele>210.99999999999997</ele><time>2026-04-10T12:37:08.069Z</time></trkpt><trkpt lat="45.6216966" lon="9.4353515"><ele>211.0</ele><time>2026-04-10T12:37:10.069Z</time></trkpt><trkpt lat="45.6217581" lon="9.4353748"><ele>211.0</ele><time>2026-04-10T12:37:11.069Z</time></trkpt><trkpt lat="45.6218207" lon="9.4354009"><ele>211.0</ele><time>2026-04-10T12:37:12.069Z</time></trkpt><trkpt lat="45.6218835" lon="9.4354167"><ele>210.99999999999997</ele><time>2026-04-10T12:37:13.069Z</time></trkpt><trkpt lat="45.621946" lon="9.4354342"><ele>211.0</ele><time>2026-04-10T12:37:14.068Z</time></trkpt><trkpt lat="45.6220519" lon="9.4354936"><ele>211.75</ele><time>2026-04-10T12:37:16.069Z</time></trkpt><trkpt lat="45.6220976" lon="9.4356148"><ele>212.5</ele><time>2026-04-10T12:37:18.069Z</time></trkpt><trkpt lat="45.6220735" lon="9.4357654"><ele>213.25</ele><time>2026-04-10T12:37:20.069Z</time></trkpt><trkpt lat="45.6220399" lon="9.4359344"><ele>214.0</ele><time>2026-04-10T12:37:22.069Z</time></trkpt><trkpt lat="45.6220166" lon="9.4361109"><ele>213.99999999999997</ele><time>2026-04-10T12:37:24.069Z</time></trkpt><trkpt lat="45.6220033" lon="9.4362003"><ele>214.0</ele><time>2026-04-10T12:37:25.069Z</time></trkpt><trkpt lat="45.6219882" lon="9.4362905"><ele>214.0</ele><time>2026-04-10T12:37:26.069Z</time></trkpt><trkpt lat="45.6219604" lon="9.4364654"><ele>214.0</ele><time>2026-04-10T12:37:28.069Z</time></trkpt><trkpt lat="45.6219456" lon="9.4365578"><ele>213.99999999999997</ele><time>2026-04-10T12:37:29.069Z</time></trkpt><trkpt lat="45.6219308" lon="9.4366488"><ele>214.0</ele><time>2026-04-10T12:37:30.069Z</time></trkpt><trkpt lat="45.6219166" lon="9.4367422"><ele>213.49999999999997</ele><time>2026-04-10T12:37:31.069Z</time></trkpt><trkpt lat="45.6219018" lon="9.4368337"><ele>213.0</ele><time>2026-04-10T12:37:32.069Z</time></trkpt><trkpt lat="45.6218875" lon="9.4369215"><ele>212.5</ele><time>2026-04-10T12:37:33.069Z</time></trkpt><trkpt lat="45.6218721" lon="9.4370156"><ele>212.0</ele><time>2026-04-10T12:37:34.068Z</time></trkpt><trkpt lat="45.6218594" lon="9.4371125"><ele>211.49999999999997</ele><time>2026-04-10T12:37:35.068Z</time></trkpt><trkpt lat="45.6218413" lon="9.437207"><ele>211.0</ele><time>2026-04-10T12:37:36.069Z</time></trkpt><trkpt lat="45.6218108" lon="9.4373805"><ele>210.99999999999997</ele><time>2026-04-10T12:37:38.069Z</time></trkpt><trkpt lat="45.6217793" lon="9.4375561"><ele>211.0</ele><time>2026-04-10T12:37:40.068Z</time></trkpt><trkpt lat="45.621762" lon="9.4376481"><ele>211.0</ele><time>2026-04-10T12:37:41.069Z</time></trkpt><trkpt lat="45.6217491" lon="9.4377442"><ele>211.0</ele><time>2026-04-10T12:37:42.069Z</time></trkpt><trkpt lat="45.6217371" lon="9.4378385"><ele>210.99999999999997</ele><time>2026-04-10T12:37:43.069Z</time></trkpt><trkpt lat="45.6217269" lon="9.4379294"><ele>211.0</ele><time>2026-04-10T12:37:44.069Z</time></trkpt><trkpt lat="45.6217027" lon="9.4381014"><ele>211.20000000000002</ele><time>2026-04-10T12:37:46.069Z</time></trkpt><trkpt lat="45.6216698" lon="9.4382707"><ele>211.4</ele><time>2026-04-10T12:37:48.069Z</time></trkpt><trkpt lat="45.6216535" lon="9.4384351"><ele>211.6</ele><time>2026-04-10T12:37:50.068Z</time></trkpt><trkpt lat="45.6216858" lon="9.4385716"><ele>211.8</ele><time>2026-04-10T12:37:52.068Z</time></trkpt><trkpt lat="45.6217074" lon="9.4386748"><ele>212.0</ele><time>2026-04-10T12:37:54.068Z</time></trkpt><trkpt lat="45.6216812" lon="9.4387944"><ele>212.0</ele><time>2026-04-10T12:37:56.069Z</time></trkpt><trkpt lat="45.6216406" lon="9.4389356"><ele>212.0</ele><time>2026-04-10T12:37:58.069Z</time></trkpt><trkpt lat="45.6216071" lon="9.4390964"><ele>212.0</ele><time>2026-04-10T12:38:00.068Z</time></trkpt><trkpt lat="45.6215885" lon="9.4391874"><ele>212.0</ele><time>2026-04-10T12:38:01.069Z</time></trkpt><trkpt lat="45.6215554" lon="9.4393624"><ele>212.0</ele><time>2026-04-10T12:38:03.069Z</time></trkpt><trkpt lat="45.6215283" lon="9.4395403"><ele>212.00000000000003</ele><time>2026-04-10T12:38:05.069Z</time></trkpt><trkpt lat="45.6215128" lon="9.4396438"><ele>212.0</ele><time>2026-04-10T12:38:06.069Z</time></trkpt><trkpt lat="45.6214982" lon="9.4397357"><ele>212.0</ele><time>2026-04-10T12:38:07.069Z</time></trkpt><trkpt lat="45.6214557" lon="9.4399032"><ele>212.0</ele><time>2026-04-10T12:38:09.069Z</time></trkpt><trkpt lat="45.6214203" lon="9.4399828"><ele>212.00000000000003</ele><time>2026-04-10T12:38:10.069Z</time></trkpt><trkpt lat="45.6213849" lon="9.440064"><ele>212.0</ele><time>2026-04-10T12:38:11.069Z</time></trkpt><trkpt lat="45.6213751" lon="9.4402284"><ele>212.0</ele><time>2026-04-10T12:38:13.069Z</time></trkpt><trkpt lat="45.6214545" lon="9.4403029"><ele>212.0</ele><time>2026-04-10T12:38:15.069Z</time></trkpt><trkpt lat="45.6215633" lon="9.440281"><ele>212.0</ele><time>2026-04-10T12:38:17.069Z</time></trkpt><trkpt lat="45.6216739" lon="9.4402857"><ele>212.0</ele><time>2026-04-10T12:38:19.069Z</time></trkpt><trkpt lat="45.6217936" lon="9.4403306"><ele>212.0</ele><time>2026-04-10T12:38:21.069Z</time></trkpt><trkpt lat="45.6219181" lon="9.4403576"><ele>212.0</ele><time>2026-04-10T12:38:23.068Z</time></trkpt><trkpt lat="45.621984" lon="9.4403875"><ele>212.0</ele><time>2026-04-10T12:38:24.069Z</time></trkpt><trkpt lat="45.6221056" lon="9.4404305"><ele>212.0</ele><time>2026-04-10T12:38:26.069Z</time></trkpt><trkpt lat="45.6221678" lon="9.4404523"><ele>212.0</ele><time>2026-04-10T12:38:27.069Z</time></trkpt><trkpt lat="45.6222875" lon="9.4404896"><ele>212.0</ele><time>2026-04-10T12:38:29.068Z</time></trkpt><trkpt lat="45.6223587" lon="9.4405153"><ele>212.00000000000003</ele><time>2026-04-10T12:38:30.069Z</time></trkpt><trkpt lat="45.622482" lon="9.4405528"><ele>212.0</ele><time>2026-04-10T12:38:32.069Z</time></trkpt><trkpt lat="45.6225456" lon="9.4405737"><ele>212.0</ele><time>2026-04-10T12:38:33.069Z</time></trkpt><trkpt lat="45.6226089" lon="9.4405932"><ele>212.0</ele><time>2026-04-10T12:38:34.069Z</time></trkpt><trkpt lat="45.622678" lon="9.4406102"><ele>212.00000000000003</ele><time>2026-04-10T12:38:35.069Z</time></trkpt><trkpt lat="45.6227449" lon="9.4406274"><ele>212.0</ele><time>2026-04-10T12:38:36.069Z</time></trkpt><trkpt lat="45.6228179" lon="9.4406425"><ele>212.0</ele><time>2026-04-10T12:38:37.069Z</time></trkpt><trkpt lat="45.622884" lon="9.4406547"><ele>212.0</ele><time>2026-04-10T12:38:38.069Z</time></trkpt><trkpt lat="45.6229548" lon="9.4406857"><ele>212.0</ele><time>2026-04-10T12:38:39.069Z</time></trkpt><trkpt lat="45.6230272" lon="9.4406967"><ele>212.0</ele><time>2026-04-10T12:38:40.069Z</time></trkpt><trkpt lat="45.6230968" lon="9.4407258"><ele>212.0</ele><time>2026-04-10T12:38:41.068Z</time></trkpt><trkpt lat="45.6231648" lon="9.4407463"><ele>212.0</ele><time>2026-04-10T12:38:42.069Z</time></trkpt><trkpt lat="45.6232319" lon="9.4407763"><ele>212.0</ele><time>2026-04-10T12:38:43.068Z</time></trkpt><trkpt lat="45.6233039" lon="9.4407989"><ele>212.0</ele><time>2026-04-10T12:38:44.069Z</time></trkpt><trkpt lat="45.6233753" lon="9.4408089"><ele>212.0</ele><time>2026-04-10T12:38:45.069Z</time></trkpt><trkpt lat="45.6234438" lon="9.4408253"><ele>212.0</ele><time>2026-04-10T12:38:46.069Z</time></trkpt><trkpt lat="45.6235149" lon="9.4408471"><ele>212.0</ele><time>2026-04-10T12:38:47.069Z</time></trkpt><trkpt lat="45.6235825" lon="9.4408626"><ele>212.0</ele><time>2026-04-10T12:38:48.069Z</time></trkpt><trkpt lat="45.6236455" lon="9.440886"><ele>212.0</ele><time>2026-04-10T12:38:49.069Z</time></trkpt><trkpt lat="45.6237144" lon="9.4409035"><ele>212.0</ele><time>2026-04-10T12:38:50.068Z</time></trkpt><trkpt lat="45.6237809" lon="9.440925"><ele>212.2857142857143</ele><time>2026-04-10T12:38:51.069Z</time></trkpt><trkpt lat="45.6238467" lon="9.4409468"><ele>212.57142857142856</ele><time>2026-04-10T12:38:52.069Z</time></trkpt><trkpt lat="45.6239141" lon="9.4409739"><ele>212.85714285714286</ele><time>2026-04-10T12:38:53.069Z</time></trkpt><trkpt lat="45.6239848" lon="9.4409945"><ele>213.14285714285717</ele><time>2026-04-10T12:38:54.069Z</time></trkpt><trkpt lat="45.6240554" lon="9.4410099"><ele>213.42857142857144</ele><time>2026-04-10T12:38:55.069Z</time></trkpt><trkpt lat="45.6241248" lon="9.4410281"><ele>213.71428571428572</ele><time>2026-04-10T12:38:56.069Z</time></trkpt><trkpt lat="45.6241905" lon="9.4410456"><ele>214.0</ele><time>2026-04-10T12:38:57.069Z</time></trkpt><trkpt lat="45.6242612" lon="9.4410681"><ele>214.00000000000003</ele><time>2026-04-10T12:38:58.069Z</time></trkpt><trkpt lat="45.624327" lon="9.441099"><ele>214.0</ele><time>2026-04-10T12:38:59.069Z</time></trkpt><trkpt lat="45.6243946" lon="9.4411219"><ele>214.0</ele><time>2026-04-10T12:39:00.069Z</time></trkpt><trkpt lat="45.6244546" lon="9.4411537"><ele>214.0</ele><time>2026-04-10T12:39:01.069Z</time></trkpt><trkpt lat="45.6245184" lon="9.4411971"><ele>214.0</ele><time>2026-04-10T12:39:02.069Z</time></trkpt><trkpt lat="45.6245791" lon="9.4412484"><ele>214.00000000000003</ele><time>2026-04-10T12:39:03.069Z</time></trkpt><trkpt lat="45.6246318" lon="9.441307"><ele>214.0</ele><time>2026-04-10T12:39:04.069Z</time></trkpt><trkpt lat="45.6246868" lon="9.4413726"><ele>214.2857142857143</ele><time>2026-04-10T12:39:05.069Z</time></trkpt><trkpt lat="45.6247429" lon="9.4414303"><ele>214.57142857142858</ele><time>2026-04-10T12:39:06.069Z</time></trkpt><trkpt lat="45.6247961" lon="9.4414944"><ele>214.85714285714286</ele><time>2026-04-10T12:39:07.069Z</time></trkpt><trkpt lat="45.6248536" lon="9.4415547"><ele>215.14285714285717</ele><time>2026-04-10T12:39:08.068Z</time></trkpt><trkpt lat="45.6249136" lon="9.4416047"><ele>215.42857142857142</ele><time>2026-04-10T12:39:09.069Z</time></trkpt><trkpt lat="45.6249757" lon="9.4416532"><ele>215.71428571428572</ele><time>2026-04-10T12:39:10.068Z</time></trkpt><trkpt lat="45.6250427" lon="9.4416871"><ele>216.0</ele><time>2026-04-10T12:39:11.069Z</time></trkpt><trkpt lat="45.6251076" lon="9.4417133"><ele>216.0</ele><time>2026-04-10T12:39:12.069Z</time></trkpt><trkpt lat="45.6251745" lon="9.4417374"><ele>216.0</ele><time>2026-04-10T12:39:13.069Z</time></trkpt><trkpt lat="45.6252374" lon="9.4417593"><ele>216.0</ele><time>2026-04-10T12:39:14.069Z</time></trkpt><trkpt lat="45.6252995" lon="9.4417819"><ele>216.0</ele><time>2026-04-10T12:39:15.069Z</time></trkpt><trkpt lat="45.6253939" lon="9.4418693"><ele>216.0</ele><time>2026-04-10T12:39:17.069Z</time></trkpt><trkpt lat="45.625377" lon="9.442029"><ele>216.0</ele><time>2026-04-10T12:39:19.069Z</time></trkpt><trkpt lat="45.6253474" lon="9.4421871"><ele>216.0</ele><time>2026-04-10T12:39:21.069Z</time></trkpt><trkpt lat="45.6253215" lon="9.4423535"><ele>216.00000000000003</ele><time>2026-04-10T12:39:23.069Z</time></trkpt><trkpt lat="45.6252992" lon="9.442536"><ele>216.00000000000003</ele><time>2026-04-10T12:39:25.069Z</time></trkpt><trkpt lat="45.6252842" lon="9.4426285"><ele>216.0</ele><time>2026-04-10T12:39:26.068Z</time></trkpt><trkpt lat="45.625254" lon="9.442801"><ele>216.0</ele><time>2026-04-10T12:39:28.069Z</time></trkpt><trkpt lat="45.6252318" lon="9.4429766"><ele>216.0</ele><time>2026-04-10T12:39:30.069Z</time></trkpt><trkpt lat="45.6252137" lon="9.4430637"><ele>216.00000000000003</ele><time>2026-04-10T12:39:31.069Z</time></trkpt><trkpt lat="45.6251971" lon="9.4431576"><ele>216.00000000000003</ele><time>2026-04-10T12:39:32.068Z</time></trkpt><trkpt lat="45.6251718" lon="9.443332"><ele>216.0</ele><time>2026-04-10T12:39:34.068Z</time></trkpt><trkpt lat="45.6251977" lon="9.4435039"><ele>216.0</ele><time>2026-04-10T12:39:36.069Z</time></trkpt><trkpt lat="45.6253035" lon="9.4435885"><ele>216.4</ele><time>2026-04-10T12:39:38.069Z</time></trkpt><trkpt lat="45.6254261" lon="9.4436153"><ele>216.8</ele><time>2026-04-10T12:39:40.069Z</time></trkpt><trkpt lat="45.6254913" lon="9.4436434"><ele>217.20000000000002</ele><time>2026-04-10T12:39:41.069Z</time></trkpt><trkpt lat="45.6256146" lon="9.4436841"><ele>217.60000000000002</ele><time>2026-04-10T12:39:43.069Z</time></trkpt><trkpt lat="45.6256815" lon="9.4437012"><ele>218.0</ele><time>2026-04-10T12:39:44.068Z</time></trkpt><trkpt lat="45.6257475" lon="9.4437199"><ele>218.0</ele><time>2026-04-10T12:39:45.069Z</time></trkpt><trkpt lat="45.6258134" lon="9.4437296"><ele>218.0</ele><time>2026-04-10T12:39:46.068Z</time></trkpt><trkpt lat="45.6258754" lon="9.443749"><ele>218.0</ele><time>2026-04-10T12:39:47.068Z</time></trkpt><trkpt lat="45.6259401" lon="9.4437666"><ele>218.0</ele><time>2026-04-10T12:39:48.069Z</time></trkpt><trkpt lat="45.626003" lon="9.4437897"><ele>218.0</ele><time>2026-04-10T12:39:49.069Z</time></trkpt><trkpt lat="45.6260647" lon="9.443812"><ele>218.0</ele><time>2026-04-10T12:39:50.068Z</time></trkpt><trkpt lat="45.6261323" lon="9.4438314"><ele>218.0</ele><time>2026-04-10T12:39:51.069Z</time></trkpt><trkpt lat="45.6261978" lon="9.4438569"><ele>218.00000000000003</ele><time>2026-04-10T12:39:52.069Z</time></trkpt><trkpt lat="45.6262631" lon="9.4438771"><ele>218.0</ele><time>2026-04-10T12:39:53.068Z</time></trkpt><trkpt lat="45.6263264" lon="9.4438952"><ele>218.0</ele><time>2026-04-10T12:39:54.069Z</time></trkpt><trkpt lat="45.6263891" lon="9.4439174"><ele>218.0</ele><time>2026-04-10T12:39:55.069Z</time></trkpt><trkpt lat="45.6264928" lon="9.4439771"><ele>218.00000000000003</ele><time>2026-04-10T12:39:57.069Z</time></trkpt><trkpt lat="45.6264737" lon="9.4441216"><ele>218.0</ele><time>2026-04-10T12:39:59.069Z</time></trkpt><trkpt lat="45.6264498" lon="9.444273"><ele>218.00000000000003</ele><time>2026-04-10T12:40:01.069Z</time></trkpt><trkpt lat="45.6264235" lon="9.4444465"><ele>218.0</ele><time>2026-04-10T12:40:03.069Z</time></trkpt><trkpt lat="45.6264109" lon="9.4445355"><ele>218.0</ele><time>2026-04-10T12:40:04.068Z</time></trkpt><trkpt lat="45.6263971" lon="9.4446254"><ele>218.0</ele><time>2026-04-10T12:40:05.069Z</time></trkpt><trkpt lat="45.6263824" lon="9.4447139"><ele>218.00000000000003</ele><time>2026-04-10T12:40:06.069Z</time></trkpt><trkpt lat="45.6263698" lon="9.4448141"><ele>218.0</ele><time>2026-04-10T12:40:07.068Z</time></trkpt><trkpt lat="45.6263474" lon="9.4449923"><ele>218.0</ele><time>2026-04-10T12:40:09.069Z</time></trkpt><trkpt lat="45.626333" lon="9.4450864"><ele>218.0</ele><time>2026-04-10T12:40:10.069Z</time></trkpt><trkpt lat="45.626308" lon="9.4452621"><ele>218.0</ele><time>2026-04-10T12:40:12.069Z</time></trkpt><trkpt lat="45.6262847" lon="9.4454369"><ele>218.0</ele><time>2026-04-10T12:40:14.069Z</time></trkpt><trkpt lat="45.6262458" lon="9.4455696"><ele>218.0</ele><time>2026-04-10T12:40:16.069Z</time></trkpt><trkpt lat="45.626156" lon="9.4456104"><ele>217.8</ele><time>2026-04-10T12:40:18.069Z</time></trkpt><trkpt lat="45.6260536" lon="9.4455728"><ele>217.60000000000002</ele><time>2026-04-10T12:40:20.069Z</time></trkpt><trkpt lat="45.6259477" lon="9.4455511"><ele>217.39999999999998</ele><time>2026-04-10T12:40:22.069Z</time></trkpt><trkpt lat="45.625843" lon="9.4455116"><ele>217.2</ele><time>2026-04-10T12:40:24.069Z</time></trkpt><trkpt lat="45.6257388" lon="9.4454816"><ele>217.0</ele><time>2026-04-10T12:40:26.069Z</time></trkpt><trkpt lat="45.625633" lon="9.4454455"><ele>217.0</ele><time>2026-04-10T12:40:28.068Z</time></trkpt><trkpt lat="45.625524" lon="9.4454435"><ele>217.0</ele><time>2026-04-10T12:40:30.069Z</time></trkpt><trkpt lat="45.625455" lon="9.4455345"><ele>217.0</ele><time>2026-04-10T12:40:32.069Z</time></trkpt><trkpt lat="45.6254145" lon="9.4456636"><ele>217.0</ele><time>2026-04-10T12:40:34.069Z</time></trkpt><trkpt lat="45.6254045" lon="9.445815"><ele>217.0</ele><time>2026-04-10T12:40:36.069Z</time></trkpt><trkpt lat="45.6253938" lon="9.4459681"><ele>216.75</ele><time>2026-04-10T12:40:38.069Z</time></trkpt><trkpt lat="45.6253822" lon="9.4461367"><ele>216.5</ele><time>2026-04-10T12:40:40.069Z</time></trkpt><trkpt lat="45.6253681" lon="9.4463035"><ele>216.25</ele><time>2026-04-10T12:40:42.069Z</time></trkpt><trkpt lat="45.6253543" lon="9.4464645"><ele>216.0</ele><time>2026-04-10T12:40:44.069Z</time></trkpt><trkpt lat="45.6253381" lon="9.4466329"><ele>215.8</ele><time>2026-04-10T12:40:46.069Z</time></trkpt><trkpt lat="45.6253285" lon="9.4468032"><ele>215.60000000000002</ele><time>2026-04-10T12:40:48.068Z</time></trkpt><trkpt lat="45.6253116" lon="9.4469744"><ele>215.4</ele><time>2026-04-10T12:40:50.069Z</time></trkpt><trkpt lat="45.6253046" lon="9.4471506"><ele>215.2</ele><time>2026-04-10T12:40:52.069Z</time></trkpt><trkpt lat="45.6253015" lon="9.4472408"><ele>215.0</ele><time>2026-04-10T12:40:53.069Z</time></trkpt><trkpt lat="45.6252857" lon="9.4473994"><ele>215.0</ele><time>2026-04-10T12:40:55.069Z</time></trkpt><trkpt lat="45.6252714" lon="9.4475648"><ele>215.0</ele><time>2026-04-10T12:40:57.069Z</time></trkpt><trkpt lat="45.6252633" lon="9.4476638"><ele>215.0</ele><time>2026-04-10T12:40:58.068Z</time></trkpt><trkpt lat="45.6252616" lon="9.4478291"><ele>215.0</ele><time>2026-04-10T12:41:00.069Z</time></trkpt><trkpt lat="45.625246" lon="9.4479943"><ele>215.0</ele><time>2026-04-10T12:41:02.069Z</time></trkpt><trkpt lat="45.6252337" lon="9.4481639"><ele>215.25</ele><time>2026-04-10T12:41:04.069Z</time></trkpt><trkpt lat="45.6252184" lon="9.4483392"><ele>215.5</ele><time>2026-04-10T12:41:06.068Z</time></trkpt><trkpt lat="45.6252012" lon="9.4484978"><ele>215.75</ele><time>2026-04-10T12:41:08.069Z</time></trkpt><trkpt lat="45.6251892" lon="9.448649"><ele>216.0</ele><time>2026-04-10T12:41:10.069Z</time></trkpt><trkpt lat="45.6251755" lon="9.448812"><ele>216.0</ele><time>2026-04-10T12:41:12.069Z</time></trkpt><trkpt lat="45.625157" lon="9.4489737"><ele>216.00000000000003</ele><time>2026-04-10T12:41:14.069Z</time></trkpt><trkpt lat="45.6251446" lon="9.4491462"><ele>216.00000000000003</ele><time>2026-04-10T12:41:16.069Z</time></trkpt><trkpt lat="45.6251354" lon="9.4493151"><ele>216.0</ele><time>2026-04-10T12:41:18.068Z</time></trkpt><trkpt lat="45.6251312" lon="9.4494078"><ele>216.0</ele><time>2026-04-10T12:41:19.069Z</time></trkpt><trkpt lat="45.6251284" lon="9.4494994"><ele>216.0</ele><time>2026-04-10T12:41:20.069Z</time></trkpt><trkpt lat="45.6251318" lon="9.4495929"><ele>216.0</ele><time>2026-04-10T12:41:21.069Z</time></trkpt><trkpt lat="45.6251104" lon="9.4497607"><ele>216.0</ele><time>2026-04-10T12:41:23.069Z</time></trkpt><trkpt lat="45.6250917" lon="9.4498468"><ele>216.0</ele><time>2026-04-10T12:41:24.069Z</time></trkpt><trkpt lat="45.6250541" lon="9.4500146"><ele>216.0</ele><time>2026-04-10T12:41:26.068Z</time></trkpt><trkpt lat="45.6250445" lon="9.4501077"><ele>216.0</ele><time>2026-04-10T12:41:27.069Z</time></trkpt><trkpt lat="45.6250511" lon="9.4502007"><ele>215.66666666666666</ele><time>2026-04-10T12:41:28.068Z</time></trkpt><trkpt lat="45.6250778" lon="9.4502839"><ele>215.33333333333331</ele><time>2026-04-10T12:41:29.069Z</time></trkpt><trkpt lat="45.6251128" lon="9.4504599"><ele>215.0</ele><time>2026-04-10T12:41:31.069Z</time></trkpt><trkpt lat="45.6251105" lon="9.4506137"><ele>214.66666666666666</ele><time>2026-04-10T12:41:33.069Z</time></trkpt><trkpt lat="45.625162" lon="9.4506897"><ele>214.33333333333331</ele><time>2026-04-10T12:41:35.069Z</time></trkpt><trkpt lat="45.6252282" lon="9.4506614"><ele>214.0</ele><time>2026-04-10T12:41:37.069Z</time></trkpt><trkpt lat="45.6253018" lon="9.4506018"><ele>214.0</ele><time>2026-04-10T12:41:39.069Z</time></trkpt><trkpt lat="45.6253763" lon="9.450539"><ele>213.99999999999997</ele><time>2026-04-10T12:41:41.069Z</time></trkpt><trkpt lat="45.6254624" lon="9.4505124"><ele>213.99999999999997</ele><time>2026-04-10T12:41:43.069Z</time></trkpt><trkpt lat="45.6255583" lon="9.4504348"><ele>214.0</ele><time>2026-04-10T12:41:45.069Z</time></trkpt><trkpt lat="45.625643" lon="9.4504107"><ele>214.0</ele><time>2026-04-10T12:41:47.069Z</time></trkpt><trkpt lat="45.6257361" lon="9.4503564"><ele>214.0</ele><time>2026-04-10T12:41:49.068Z</time></trkpt><trkpt lat="45.6258273" lon="9.4503469"><ele>213.99999999999997</ele><time>2026-04-10T12:41:51.068Z</time></trkpt><trkpt lat="45.6259157" lon="9.4503141"><ele>213.99999999999997</ele><time>2026-04-10T12:41:53.069Z</time></trkpt><trkpt lat="45.626011" lon="9.4503288"><ele>214.0</ele><time>2026-04-10T12:41:55.069Z</time></trkpt><trkpt lat="45.6261" lon="9.4503447"><ele>214.0</ele><time>2026-04-10T12:41:57.069Z</time></trkpt><trkpt lat="45.6262006" lon="9.4503869"><ele>214.2</ele><time>2026-04-10T12:41:59.069Z</time></trkpt><trkpt lat="45.6262991" lon="9.4504265"><ele>214.39999999999998</ele><time>2026-04-10T12:42:01.069Z</time></trkpt><trkpt lat="45.6264022" lon="9.4504558"><ele>214.6</ele><time>2026-04-10T12:42:03.069Z</time></trkpt><trkpt lat="45.6264936" lon="9.4504865"><ele>214.8</ele><time>2026-04-10T12:42:05.069Z</time></trkpt><trkpt lat="45.6265934" lon="9.4505194"><ele>215.0</ele><time>2026-04-10T12:42:07.069Z</time></trkpt><trkpt lat="45.6266782" lon="9.4505544"><ele>215.00000000000003</ele><time>2026-04-10T12:42:09.069Z</time></trkpt><trkpt lat="45.6267607" lon="9.4505871"><ele>215.0</ele><time>2026-04-10T12:42:11.069Z</time></trkpt><trkpt lat="45.6268394" lon="9.4505969"><ele>215.0</ele><time>2026-04-10T12:42:14.068Z</time></trkpt><trkpt lat="45.6269071" lon="9.4506229"><ele>215.0</ele><time>2026-04-10T12:42:16.069Z</time></trkpt><trkpt lat="45.62699" lon="9.4506671"><ele>215.00000000000003</ele><time>2026-04-10T12:42:18.069Z</time></trkpt><trkpt lat="45.62708" lon="9.4507061"><ele>215.0</ele><time>2026-04-10T12:42:20.069Z</time></trkpt><trkpt lat="45.6271789" lon="9.450723"><ele>215.6</ele><time>2026-04-10T12:42:22.069Z</time></trkpt><trkpt lat="45.6272776" lon="9.4507735"><ele>216.2</ele><time>2026-04-10T12:42:24.069Z</time></trkpt><trkpt lat="45.6273836" lon="9.450825"><ele>216.8</ele><time>2026-04-10T12:42:26.068Z</time></trkpt><trkpt lat="45.6274947" lon="9.4508751"><ele>217.4</ele><time>2026-04-10T12:42:28.069Z</time></trkpt><trkpt lat="45.6276041" lon="9.4509282"><ele>218.0</ele><time>2026-04-10T12:42:30.069Z</time></trkpt><trkpt lat="45.6277155" lon="9.4509665"><ele>218.4</ele><time>2026-04-10T12:42:32.069Z</time></trkpt><trkpt lat="45.6278213" lon="9.4510181"><ele>218.8</ele><time>2026-04-10T12:42:34.068Z</time></trkpt><trkpt lat="45.6278912" lon="9.4511328"><ele>219.2</ele><time>2026-04-10T12:42:36.069Z</time></trkpt><trkpt lat="45.6279398" lon="9.4512767"><ele>219.6</ele><time>2026-04-10T12:42:38.068Z</time></trkpt><trkpt lat="45.6279713" lon="9.4513652"><ele>220.0</ele><time>2026-04-10T12:42:39.069Z</time></trkpt><trkpt lat="45.6280337" lon="9.4515055"><ele>219.99999999999997</ele><time>2026-04-10T12:42:41.069Z</time></trkpt><trkpt lat="45.6281078" lon="9.4515808"><ele>220.0</ele><time>2026-04-10T12:42:43.069Z</time></trkpt><trkpt lat="45.6281617" lon="9.451635"><ele>220.0</ele><time>2026-04-10T12:42:45.069Z</time></trkpt><trkpt lat="45.6282237" lon="9.4516551"><ele>220.0</ele><time>2026-04-10T12:42:47.069Z</time></trkpt><trkpt lat="45.6282882" lon="9.4516603"><ele>219.99999999999997</ele><time>2026-04-10T12:42:49.068Z</time></trkpt><trkpt lat="45.6283684" lon="9.451665"><ele>220.0</ele><time>2026-04-10T12:42:52.069Z</time></trkpt><trkpt lat="45.628451" lon="9.4516973"><ele>219.99999999999997</ele><time>2026-04-10T12:42:55.069Z</time></trkpt><trkpt lat="45.6285137" lon="9.4517135"><ele>220.0</ele><time>2026-04-10T12:42:57.069Z</time></trkpt><trkpt lat="45.6285827" lon="9.4517149"><ele>220.0</ele><time>2026-04-10T12:42:59.069Z</time></trkpt><trkpt lat="45.6286569" lon="9.45172"><ele>220.0</ele><time>2026-04-10T12:43:01.069Z</time></trkpt><trkpt lat="45.6287311" lon="9.45173"><ele>220.0</ele><time>2026-04-10T12:43:03.068Z</time></trkpt><trkpt lat="45.6288028" lon="9.4517328"><ele>219.99999999999997</ele><time>2026-04-10T12:43:05.068Z</time></trkpt><trkpt lat="45.628879" lon="9.4517332"><ele>220.0</ele><time>2026-04-10T12:43:07.069Z</time></trkpt><trkpt lat="45.6289589" lon="9.4517396"><ele>220.66666666666666</ele><time>2026-04-10T12:43:09.069Z</time></trkpt><trkpt lat="45.6290424" lon="9.4517529"><ele>221.33333333333331</ele><time>2026-04-10T12:43:11.069Z</time></trkpt><trkpt lat="45.629133" lon="9.4517652"><ele>222.0</ele><time>2026-04-10T12:43:13.068Z</time></trkpt><trkpt lat="45.6292205" lon="9.4517613"><ele>222.66666666666669</ele><time>2026-04-10T12:43:15.068Z</time></trkpt><trkpt lat="45.629308" lon="9.4517782"><ele>223.33333333333334</ele><time>2026-04-10T12:43:17.069Z</time></trkpt><trkpt lat="45.6293855" lon="9.4518015"><ele>224.0</ele><time>2026-04-10T12:43:19.068Z</time></trkpt><trkpt lat="45.6294616" lon="9.4518296"><ele>223.66666666666669</ele><time>2026-04-10T12:43:21.069Z</time></trkpt><trkpt lat="45.6295339" lon="9.4518558"><ele>223.33333333333334</ele><time>2026-04-10T12:43:23.069Z</time></trkpt><trkpt lat="45.6296124" lon="9.4518801"><ele>223.0</ele><time>2026-04-10T12:43:25.069Z</time></trkpt><trkpt lat="45.6297085" lon="9.451892"><ele>222.66666666666669</ele><time>2026-04-10T12:43:27.069Z</time></trkpt><trkpt lat="45.6297844" lon="9.4519402"><ele>222.33333333333334</ele><time>2026-04-10T12:43:29.069Z</time></trkpt><trkpt lat="45.6298602" lon="9.4519741"><ele>222.0</ele><time>2026-04-10T12:43:31.069Z</time></trkpt><trkpt lat="45.6299532" lon="9.4520051"><ele>222.0</ele><time>2026-04-10T12:43:33.069Z</time></trkpt><trkpt lat="45.6300546" lon="9.4520348"><ele>222.0</ele><time>2026-04-10T12:43:35.068Z</time></trkpt><trkpt lat="45.6301591" lon="9.4520713"><ele>222.0</ele><time>2026-04-10T12:43:37.068Z</time></trkpt><trkpt lat="45.6302704" lon="9.4520908"><ele>222.0</ele><time>2026-04-10T12:43:39.068Z</time></trkpt><trkpt lat="45.6303561" lon="9.4520977"><ele>222.0</ele><time>2026-04-10T12:43:41.069Z</time></trkpt><trkpt lat="45.6304328" lon="9.4521149"><ele>222.0</ele><time>2026-04-10T12:43:43.069Z</time></trkpt><trkpt lat="45.630472" lon="9.4521907"><ele>222.0</ele><time>2026-04-10T12:43:45.069Z</time></trkpt><trkpt lat="45.6304607" lon="9.4522819"><ele>222.0</ele><time>2026-04-10T12:43:48.069Z</time></trkpt><trkpt lat="45.6304605" lon="9.4524078"><ele>222.0</ele><time>2026-04-10T12:43:51.068Z</time></trkpt><trkpt lat="45.6304389" lon="9.4525579"><ele>222.0</ele><time>2026-04-10T12:43:54.069Z</time></trkpt><trkpt lat="45.6304199" lon="9.4526479"><ele>222.0</ele><time>2026-04-10T12:43:55.069Z</time></trkpt><trkpt lat="45.6304149" lon="9.4529996"><ele>222.0</ele><time>2026-04-10T12:43:56.069Z</time></trkpt><trkpt lat="45.6303675" lon="9.4530637"><ele>222.0</ele><time>2026-04-10T12:43:57.068Z</time></trkpt><trkpt lat="45.6303166" lon="9.4531818"><ele>222.0</ele><time>2026-04-10T12:43:59.068Z</time></trkpt><trkpt lat="45.6303433" lon="9.4532957"><ele>222.0</ele><time>2026-04-10T12:44:01.069Z</time></trkpt><trkpt lat="45.6303781" lon="9.4534096"><ele>222.0</ele><time>2026-04-10T12:44:03.069Z</time></trkpt><trkpt lat="45.6304227" lon="9.453534"><ele>222.0</ele><time>2026-04-10T12:44:05.069Z</time></trkpt><trkpt lat="45.6304884" lon="9.4536511"><ele>222.0</ele><time>2026-04-10T12:44:07.069Z</time></trkpt><trkpt lat="45.6305643" lon="9.4537537"><ele>222.0</ele><time>2026-04-10T12:44:09.068Z</time></trkpt><trkpt lat="45.630639" lon="9.4538435"><ele>222.0</ele><time>2026-04-10T12:44:11.068Z</time></trkpt><trkpt lat="45.6306418" lon="9.4539646"><ele>222.0</ele><time>2026-04-10T12:44:13.069Z</time></trkpt><trkpt lat="45.6306391" lon="9.4540799"><ele>222.0</ele><time>2026-04-10T12:44:15.069Z</time></trkpt><trkpt lat="45.6306274" lon="9.4541745"><ele>222.0</ele><time>2026-04-10T12:44:17.069Z</time></trkpt><trkpt lat="45.6306148" lon="9.4542787"><ele>221.83333333333334</ele><time>2026-04-10T12:44:20.068Z</time></trkpt><trkpt lat="45.6305844" lon="9.4543824"><ele>221.66666666666669</ele><time>2026-04-10T12:44:23.068Z</time></trkpt><trkpt lat="45.6305576" lon="9.4544893"><ele>221.5</ele><time>2026-04-10T12:44:26.069Z</time></trkpt><trkpt lat="45.6305524" lon="9.4546151"><ele>221.33333333333334</ele><time>2026-04-10T12:44:29.069Z</time></trkpt><trkpt lat="45.6305772" lon="9.4547109"><ele>221.16666666666669</ele><time>2026-04-10T12:44:31.069Z</time></trkpt><trkpt lat="45.6306379" lon="9.4547713"><ele>221.0</ele><time>2026-04-10T12:44:33.069Z</time></trkpt><trkpt lat="45.6307176" lon="9.4547938"><ele>221.33333333333334</ele><time>2026-04-10T12:44:35.069Z</time></trkpt><trkpt lat="45.6308006" lon="9.4548362"><ele>221.66666666666669</ele><time>2026-04-10T12:44:37.068Z</time></trkpt><trkpt lat="45.6308858" lon="9.4548823"><ele>222.0</ele><time>2026-04-10T12:44:39.068Z</time></trkpt><trkpt lat="45.6309617" lon="9.4549224"><ele>222.33333333333331</ele><time>2026-04-10T12:44:41.068Z</time></trkpt><trkpt lat="45.631032" lon="9.4549669"><ele>222.66666666666666</ele><time>2026-04-10T12:44:43.069Z</time></trkpt><trkpt lat="45.6310908" lon="9.4550427"><ele>223.0</ele><time>2026-04-10T12:44:45.068Z</time></trkpt><trkpt lat="45.6311816" lon="9.4551119"><ele>222.99999999999997</ele><time>2026-04-10T12:44:47.069Z</time></trkpt><trkpt lat="45.6312496" lon="9.4551684"><ele>223.0</ele><time>2026-04-10T12:44:49.069Z</time></trkpt><trkpt lat="45.6313148" lon="9.4552294"><ele>223.0</ele><time>2026-04-10T12:44:51.069Z</time></trkpt><trkpt lat="45.6313958" lon="9.4552757"><ele>223.0</ele><time>2026-04-10T12:44:53.069Z</time></trkpt><trkpt lat="45.6314782" lon="9.4553263"><ele>222.99999999999997</ele><time>2026-04-10T12:44:55.068Z</time></trkpt><trkpt lat="45.6315724" lon="9.4553732"><ele>223.0</ele><time>2026-04-10T12:44:57.068Z</time></trkpt><trkpt lat="45.6316627" lon="9.4554435"><ele>223.33333333333331</ele><time>2026-04-10T12:44:59.069Z</time></trkpt><trkpt lat="45.6317198" lon="9.4555344"><ele>223.66666666666666</ele><time>2026-04-10T12:45:01.068Z</time></trkpt><trkpt lat="45.6317307" lon="9.4556628"><ele>224.0</ele><time>2026-04-10T12:45:04.069Z</time></trkpt><trkpt lat="45.6317841" lon="9.4557347"><ele>224.33333333333331</ele><time>2026-04-10T12:45:06.069Z</time></trkpt><trkpt lat="45.631878" lon="9.4557819"><ele>224.66666666666666</ele><time>2026-04-10T12:45:09.068Z</time></trkpt><trkpt lat="45.6319567" lon="9.4558055"><ele>225.0</ele><time>2026-04-10T12:45:11.069Z</time></trkpt><trkpt lat="45.6320448" lon="9.4558265"><ele>225.0</ele><time>2026-04-10T12:45:13.069Z</time></trkpt><trkpt lat="45.6321292" lon="9.4558559"><ele>225.0</ele><time>2026-04-10T12:45:15.069Z</time></trkpt><trkpt lat="45.6322353" lon="9.4558746"><ele>225.0</ele><time>2026-04-10T12:45:17.068Z</time></trkpt><trkpt lat="45.6322973" lon="9.4558927"><ele>225.0</ele><time>2026-04-10T12:45:18.069Z</time></trkpt><trkpt lat="45.6324143" lon="9.4559273"><ele>225.0</ele><time>2026-04-10T12:45:20.069Z</time></trkpt><trkpt lat="45.632477" lon="9.4559497"><ele>225.0</ele><time>2026-04-10T12:45:21.069Z</time></trkpt><trkpt lat="45.6325547" lon="9.4559746"><ele>225.0</ele><time>2026-04-10T12:45:23.068Z</time></trkpt><trkpt lat="45.6326492" lon="9.4560069"><ele>225.0</ele><time>2026-04-10T12:45:25.068Z</time></trkpt><trkpt lat="45.632714" lon="9.4560315"><ele>225.0</ele><time>2026-04-10T12:45:26.068Z</time></trkpt><trkpt lat="45.6327787" lon="9.4560514"><ele>225.0</ele><time>2026-04-10T12:45:27.068Z</time></trkpt><trkpt lat="45.6328659" lon="9.4561156"><ele>225.0</ele><time>2026-04-10T12:45:29.068Z</time></trkpt><trkpt lat="45.632945" lon="9.4561953"><ele>225.0</ele><time>2026-04-10T12:45:31.069Z</time></trkpt><trkpt lat="45.6330519" lon="9.4562656"><ele>225.2</ele><time>2026-04-10T12:45:33.069Z</time></trkpt><trkpt lat="45.6331551" lon="9.4563414"><ele>225.4</ele><time>2026-04-10T12:45:35.069Z</time></trkpt><trkpt lat="45.6332488" lon="9.4564216"><ele>225.60000000000002</ele><time>2026-04-10T12:45:37.069Z</time></trkpt><trkpt lat="45.6333371" lon="9.4565114"><ele>225.8</ele><time>2026-04-10T12:45:39.068Z</time></trkpt><trkpt lat="45.6334308" lon="9.4565916"><ele>226.0</ele><time>2026-04-10T12:45:41.069Z</time></trkpt><trkpt lat="45.633514" lon="9.4566737"><ele>226.0</ele><time>2026-04-10T12:45:43.069Z</time></trkpt><trkpt lat="45.6336169" lon="9.456748"><ele>226.0</ele><time>2026-04-10T12:45:45.068Z</time></trkpt><trkpt lat="45.6337332" lon="9.4568127"><ele>226.0</ele><time>2026-04-10T12:45:47.068Z</time></trkpt><trkpt lat="45.6338437" lon="9.4568816"><ele>226.0</ele><time>2026-04-10T12:45:49.069Z</time></trkpt><trkpt lat="45.6339504" lon="9.4569476"><ele>226.20000000000002</ele><time>2026-04-10T12:45:51.069Z</time></trkpt><trkpt lat="45.6340542" lon="9.4570183"><ele>226.40000000000003</ele><time>2026-04-10T12:45:53.069Z</time></trkpt><trkpt lat="45.6341512" lon="9.457088"><ele>226.6</ele><time>2026-04-10T12:45:55.068Z</time></trkpt><trkpt lat="45.6342456" lon="9.4571612"><ele>226.8</ele><time>2026-04-10T12:45:57.068Z</time></trkpt><trkpt lat="45.6343317" lon="9.4572297"><ele>227.0</ele><time>2026-04-10T12:45:59.069Z</time></trkpt><trkpt lat="45.6344305" lon="9.457287"><ele>227.39999999999998</ele><time>2026-04-10T12:46:01.069Z</time></trkpt><trkpt lat="45.6345256" lon="9.4573506"><ele>227.79999999999998</ele><time>2026-04-10T12:46:03.069Z</time></trkpt><trkpt lat="45.6346285" lon="9.4574002"><ele>228.2</ele><time>2026-04-10T12:46:05.069Z</time></trkpt><trkpt lat="45.6347188" lon="9.4574332"><ele>228.6</ele><time>2026-04-10T12:46:07.069Z</time></trkpt><trkpt lat="45.6347938" lon="9.4574927"><ele>229.0</ele><time>2026-04-10T12:46:14.068Z</time></trkpt><trkpt lat="45.6347704" lon="9.4576156"><ele>229.0</ele><time>2026-04-10T12:46:17.068Z</time></trkpt><trkpt lat="45.6347225" lon="9.4577262"><ele>228.99999999999997</ele><time>2026-04-10T12:46:19.068Z</time></trkpt><trkpt lat="45.6346797" lon="9.4578512"><ele>228.99999999999997</ele><time>2026-04-10T12:46:21.069Z</time></trkpt><trkpt lat="45.6346417" lon="9.4579854"><ele>229.0</ele><time>2026-04-10T12:46:23.069Z</time></trkpt><trkpt lat="45.6346001" lon="9.4581279"><ele>229.0</ele><time>2026-04-10T12:46:25.069Z</time></trkpt><trkpt lat="45.6345586" lon="9.4582792"><ele>228.5</ele><time>2026-04-10T12:46:27.069Z</time></trkpt><trkpt lat="45.6345164" lon="9.4584307"><ele>228.0</ele><time>2026-04-10T12:46:29.069Z</time></trkpt><trkpt lat="45.6344551" lon="9.4585682"><ele>227.5</ele><time>2026-04-10T12:46:31.068Z</time></trkpt><trkpt lat="45.6344208" lon="9.458739"><ele>227.0</ele><time>2026-04-10T12:46:33.068Z</time></trkpt><trkpt lat="45.6343832" lon="9.4588961"><ele>226.8</ele><time>2026-04-10T12:46:35.069Z</time></trkpt><trkpt lat="45.6343642" lon="9.4589831"><ele>226.6</ele><time>2026-04-10T12:46:36.069Z</time></trkpt><trkpt lat="45.6343206" lon="9.4591476"><ele>226.40000000000003</ele><time>2026-04-10T12:46:38.068Z</time></trkpt><trkpt lat="45.6342969" lon="9.4592316"><ele>226.20000000000002</ele><time>2026-04-10T12:46:39.069Z</time></trkpt><trkpt lat="45.6342562" lon="9.4593921"><ele>226.0</ele><time>2026-04-10T12:46:41.069Z</time></trkpt><trkpt lat="45.6342138" lon="9.4595509"><ele>226.16666666666666</ele><time>2026-04-10T12:46:43.069Z</time></trkpt><trkpt lat="45.6341676" lon="9.4597093"><ele>226.33333333333331</ele><time>2026-04-10T12:46:45.069Z</time></trkpt><trkpt lat="45.6341234" lon="9.4598747"><ele>226.5</ele><time>2026-04-10T12:46:47.069Z</time></trkpt><trkpt lat="45.6340996" lon="9.4599626"><ele>226.66666666666669</ele><time>2026-04-10T12:46:48.068Z</time></trkpt><trkpt lat="45.6340777" lon="9.4600512"><ele>226.83333333333334</ele><time>2026-04-10T12:46:49.069Z</time></trkpt><trkpt lat="45.6340535" lon="9.4601453"><ele>227.0</ele><time>2026-04-10T12:46:50.069Z</time></trkpt><trkpt lat="45.6340075" lon="9.4603153"><ele>227.00000000000003</ele><time>2026-04-10T12:46:52.069Z</time></trkpt><trkpt lat="45.6339829" lon="9.4604001"><ele>227.0</ele><time>2026-04-10T12:46:53.069Z</time></trkpt><trkpt lat="45.6339389" lon="9.4605698"><ele>227.0</ele><time>2026-04-10T12:46:55.069Z</time></trkpt><trkpt lat="45.633914" lon="9.4606548"><ele>227.0</ele><time>2026-04-10T12:46:56.069Z</time></trkpt><trkpt lat="45.6338886" lon="9.460742"><ele>227.00000000000003</ele><time>2026-04-10T12:46:57.069Z</time></trkpt><trkpt lat="45.6338634" lon="9.4608276"><ele>227.0</ele><time>2026-04-10T12:46:58.069Z</time></trkpt><trkpt lat="45.6338377" lon="9.4609137"><ele>227.00000000000003</ele><time>2026-04-10T12:46:59.068Z</time></trkpt><trkpt lat="45.6338146" lon="9.4610075"><ele>227.0</ele><time>2026-04-10T12:47:00.069Z</time></trkpt><trkpt lat="45.6337849" lon="9.4610931"><ele>227.0</ele><time>2026-04-10T12:47:01.069Z</time></trkpt><trkpt lat="45.6337202" lon="9.4612493"><ele>227.0</ele><time>2026-04-10T12:47:03.068Z</time></trkpt><trkpt lat="45.6336795" lon="9.4613233"><ele>227.00000000000003</ele><time>2026-04-10T12:47:04.069Z</time></trkpt><trkpt lat="45.6336324" lon="9.4613872"><ele>227.0</ele><time>2026-04-10T12:47:05.069Z</time></trkpt><trkpt lat="45.6335847" lon="9.4614605"><ele>226.83333333333334</ele><time>2026-04-10T12:47:06.069Z</time></trkpt><trkpt lat="45.6335413" lon="9.461531"><ele>226.66666666666669</ele><time>2026-04-10T12:47:07.068Z</time></trkpt><trkpt lat="45.6335124" lon="9.4616126"><ele>226.5</ele><time>2026-04-10T12:47:08.069Z</time></trkpt><trkpt lat="45.6334983" lon="9.4617034"><ele>226.33333333333331</ele><time>2026-04-10T12:47:09.068Z</time></trkpt><trkpt lat="45.6335015" lon="9.4618775"><ele>226.16666666666666</ele><time>2026-04-10T12:47:11.069Z</time></trkpt><trkpt lat="45.6335013" lon="9.4619736"><ele>226.0</ele><time>2026-04-10T12:47:12.069Z</time></trkpt><trkpt lat="45.6335005" lon="9.4620749"><ele>226.14285714285717</ele><time>2026-04-10T12:47:13.069Z</time></trkpt><trkpt lat="45.633493" lon="9.4621643"><ele>226.28571428571428</ele><time>2026-04-10T12:47:14.068Z</time></trkpt><trkpt lat="45.6334906" lon="9.4622565"><ele>226.42857142857144</ele><time>2026-04-10T12:47:15.069Z</time></trkpt><trkpt lat="45.6334583" lon="9.4623466"><ele>226.57142857142858</ele><time>2026-04-10T12:47:16.069Z</time></trkpt><trkpt lat="45.6334389" lon="9.4624422"><ele>226.71428571428572</ele><time>2026-04-10T12:47:17.069Z</time></trkpt><trkpt lat="45.6334118" lon="9.4625298"><ele>226.85714285714286</ele><time>2026-04-10T12:47:18.069Z</time></trkpt><trkpt lat="45.6333908" lon="9.4626173"><ele>227.0</ele><time>2026-04-10T12:47:19.068Z</time></trkpt><trkpt lat="45.6333673" lon="9.4627056"><ele>227.00000000000003</ele><time>2026-04-10T12:47:20.069Z</time></trkpt><trkpt lat="45.6333458" lon="9.4628018"><ele>227.0</ele><time>2026-04-10T12:47:21.069Z</time></trkpt><trkpt lat="45.6333051" lon="9.46298"><ele>227.0</ele><time>2026-04-10T12:47:23.069Z</time></trkpt><trkpt lat="45.6332838" lon="9.4630775"><ele>227.0</ele><time>2026-04-10T12:47:24.068Z</time></trkpt><trkpt lat="45.6332613" lon="9.4631689"><ele>227.00000000000003</ele><time>2026-04-10T12:47:25.069Z</time></trkpt><trkpt lat="45.6332431" lon="9.46326"><ele>227.0</ele><time>2026-04-10T12:47:26.069Z</time></trkpt><trkpt lat="45.6332226" lon="9.4633596"><ele>227.2857142857143</ele><time>2026-04-10T12:47:27.069Z</time></trkpt><trkpt lat="45.633201" lon="9.4634513"><ele>227.5714285714286</ele><time>2026-04-10T12:47:28.069Z</time></trkpt><trkpt lat="45.633179" lon="9.4635382"><ele>227.85714285714286</ele><time>2026-04-10T12:47:29.069Z</time></trkpt><trkpt lat="45.633159" lon="9.4636294"><ele>228.14285714285717</ele><time>2026-04-10T12:47:30.069Z</time></trkpt><trkpt lat="45.6331294" lon="9.4637184"><ele>228.42857142857144</ele><time>2026-04-10T12:47:31.069Z</time></trkpt><trkpt lat="45.6331016" lon="9.4638111"><ele>228.71428571428572</ele><time>2026-04-10T12:47:32.069Z</time></trkpt><trkpt lat="45.6330811" lon="9.4639029"><ele>229.0</ele><time>2026-04-10T12:47:33.069Z</time></trkpt><trkpt lat="45.6330523" lon="9.4639916"><ele>229.0</ele><time>2026-04-10T12:47:34.069Z</time></trkpt><trkpt lat="45.6330307" lon="9.4640777"><ele>229.0</ele><time>2026-04-10T12:47:35.069Z</time></trkpt><trkpt lat="45.6330133" lon="9.4641802"><ele>229.0</ele><time>2026-04-10T12:47:36.069Z</time></trkpt><trkpt lat="45.6329913" lon="9.4642777"><ele>229.0</ele><time>2026-04-10T12:47:37.069Z</time></trkpt><trkpt lat="45.6329669" lon="9.4643667"><ele>229.0</ele><time>2026-04-10T12:47:38.069Z</time></trkpt><trkpt lat="45.6329456" lon="9.464455"><ele>229.0</ele><time>2026-04-10T12:47:39.069Z</time></trkpt><trkpt lat="45.632917" lon="9.4645379"><ele>229.0</ele><time>2026-04-10T12:47:40.069Z</time></trkpt><trkpt lat="45.6328727" lon="9.4647038"><ele>229.0</ele><time>2026-04-10T12:47:42.068Z</time></trkpt><trkpt lat="45.6328419" lon="9.4648071"><ele>229.0</ele><time>2026-04-10T12:47:43.069Z</time></trkpt><trkpt lat="45.6328182" lon="9.4648947"><ele>229.0</ele><time>2026-04-10T12:47:44.068Z</time></trkpt><trkpt lat="45.6327906" lon="9.4649897"><ele>229.0</ele><time>2026-04-10T12:47:45.069Z</time></trkpt><trkpt lat="45.6327556" lon="9.4650831"><ele>229.0</ele><time>2026-04-10T12:47:46.069Z</time></trkpt><trkpt lat="45.6327181" lon="9.4651763"><ele>229.0</ele><time>2026-04-10T12:47:47.069Z</time></trkpt><trkpt lat="45.632691" lon="9.4652791"><ele>229.0</ele><time>2026-04-10T12:47:48.069Z</time></trkpt><trkpt lat="45.6326635" lon="9.4653701"><ele>229.14285714285714</ele><time>2026-04-10T12:47:49.069Z</time></trkpt><trkpt lat="45.6326351" lon="9.4654736"><ele>229.28571428571428</ele><time>2026-04-10T12:47:50.069Z</time></trkpt><trkpt lat="45.6326111" lon="9.4655818"><ele>229.42857142857142</ele><time>2026-04-10T12:47:51.069Z</time></trkpt><trkpt lat="45.6325811" lon="9.465679"><ele>229.57142857142856</ele><time>2026-04-10T12:47:52.069Z</time></trkpt><trkpt lat="45.6325541" lon="9.4657737"><ele>229.71428571428572</ele><time>2026-04-10T12:47:53.069Z</time></trkpt><trkpt lat="45.6325304" lon="9.4658683"><ele>229.85714285714283</ele><time>2026-04-10T12:47:54.069Z</time></trkpt><trkpt lat="45.6325046" lon="9.465962"><ele>229.99999999999997</ele><time>2026-04-10T12:47:55.069Z</time></trkpt><trkpt lat="45.6324831" lon="9.4660645"><ele>229.99999999999997</ele><time>2026-04-10T12:47:56.068Z</time></trkpt><trkpt lat="45.6324642" lon="9.4661622"><ele>230.0</ele><time>2026-04-10T12:47:57.069Z</time></trkpt><trkpt lat="45.6324417" lon="9.4662691"><ele>229.99999999999997</ele><time>2026-04-10T12:47:58.069Z</time></trkpt><trkpt lat="45.632421" lon="9.4663618"><ele>229.99999999999997</ele><time>2026-04-10T12:47:59.068Z</time></trkpt><trkpt lat="45.6323919" lon="9.4664574"><ele>230.0</ele><time>2026-04-10T12:48:00.069Z</time></trkpt><trkpt lat="45.63237" lon="9.4665653"><ele>229.99999999999997</ele><time>2026-04-10T12:48:01.069Z</time></trkpt><trkpt lat="45.6323452" lon="9.4666646"><ele>229.99999999999997</ele><time>2026-04-10T12:48:02.069Z</time></trkpt><trkpt lat="45.6323119" lon="9.4667659"><ele>229.71428571428567</ele><time>2026-04-10T12:48:03.069Z</time></trkpt><trkpt lat="45.6322888" lon="9.4668625"><ele>229.42857142857142</ele><time>2026-04-10T12:48:04.069Z</time></trkpt><trkpt lat="45.6322661" lon="9.4669662"><ele>229.1428571428571</ele><time>2026-04-10T12:48:05.069Z</time></trkpt><trkpt lat="45.6322457" lon="9.4670644"><ele>228.85714285714283</ele><time>2026-04-10T12:48:06.069Z</time></trkpt><trkpt lat="45.6322154" lon="9.4671549"><ele>228.57142857142856</ele><time>2026-04-10T12:48:07.068Z</time></trkpt><trkpt lat="45.6321883" lon="9.4672507"><ele>228.28571428571428</ele><time>2026-04-10T12:48:08.069Z</time></trkpt><trkpt lat="45.6321569" lon="9.4673478"><ele>228.0</ele><time>2026-04-10T12:48:09.069Z</time></trkpt><trkpt lat="45.6321331" lon="9.4674467"><ele>227.66666666666666</ele><time>2026-04-10T12:48:10.069Z</time></trkpt><trkpt lat="45.632113" lon="9.4675596"><ele>227.33333333333331</ele><time>2026-04-10T12:48:11.069Z</time></trkpt><trkpt lat="45.6320855" lon="9.4676666"><ele>227.0</ele><time>2026-04-10T12:48:12.069Z</time></trkpt><trkpt lat="45.6320613" lon="9.4677696"><ele>226.66666666666666</ele><time>2026-04-10T12:48:13.069Z</time></trkpt><trkpt lat="45.6320344" lon="9.4678765"><ele>226.33333333333331</ele><time>2026-04-10T12:48:14.069Z</time></trkpt><trkpt lat="45.6320086" lon="9.4679799"><ele>226.0</ele><time>2026-04-10T12:48:15.068Z</time></trkpt><trkpt lat="45.6319839" lon="9.4680966"><ele>226.16666666666666</ele><time>2026-04-10T12:48:16.069Z</time></trkpt><trkpt lat="45.6319584" lon="9.4682068"><ele>226.33333333333331</ele><time>2026-04-10T12:48:17.069Z</time></trkpt><trkpt lat="45.6319318" lon="9.4683266"><ele>226.5</ele><time>2026-04-10T12:48:18.069Z</time></trkpt><trkpt lat="45.6319059" lon="9.4684333"><ele>226.66666666666669</ele><time>2026-04-10T12:48:19.069Z</time></trkpt><trkpt lat="45.6318837" lon="9.4685473"><ele>226.83333333333334</ele><time>2026-04-10T12:48:20.069Z</time></trkpt><trkpt lat="45.6318519" lon="9.4686568"><ele>227.0</ele><time>2026-04-10T12:48:21.069Z</time></trkpt><trkpt lat="45.6318199" lon="9.4687625"><ele>226.66666666666669</ele><time>2026-04-10T12:48:22.068Z</time></trkpt><trkpt lat="45.6317926" lon="9.468871"><ele>226.33333333333334</ele><time>2026-04-10T12:48:23.069Z</time></trkpt><trkpt lat="45.6317595" lon="9.4689852"><ele>226.0</ele><time>2026-04-10T12:48:24.068Z</time></trkpt><trkpt lat="45.6317308" lon="9.4691008"><ele>225.66666666666669</ele><time>2026-04-10T12:48:25.069Z</time></trkpt><trkpt lat="45.6317008" lon="9.4692214"><ele>225.33333333333334</ele><time>2026-04-10T12:48:26.068Z</time></trkpt><trkpt lat="45.6316704" lon="9.4693419"><ele>225.0</ele><time>2026-04-10T12:48:27.069Z</time></trkpt><trkpt lat="45.6316337" lon="9.4694435"><ele>225.0</ele><time>2026-04-10T12:48:28.069Z</time></trkpt><trkpt lat="45.6315984" lon="9.4695555"><ele>225.0</ele><time>2026-04-10T12:48:29.069Z</time></trkpt><trkpt lat="45.6315675" lon="9.4696725"><ele>225.0</ele><time>2026-04-10T12:48:30.068Z</time></trkpt><trkpt lat="45.6315289" lon="9.4697807"><ele>225.0</ele><time>2026-04-10T12:48:31.068Z</time></trkpt><trkpt lat="45.6314945" lon="9.4698833"><ele>225.0</ele><time>2026-04-10T12:48:32.069Z</time></trkpt><trkpt lat="45.6314558" lon="9.4699805"><ele>225.0</ele><time>2026-04-10T12:48:33.069Z</time></trkpt><trkpt lat="45.6314197" lon="9.4700753"><ele>225.0</ele><time>2026-04-10T12:48:34.069Z</time></trkpt><trkpt lat="45.6313911" lon="9.4701679"><ele>225.0</ele><time>2026-04-10T12:48:35.068Z</time></trkpt><trkpt lat="45.6313412" lon="9.4702891"><ele>225.0</ele><time>2026-04-10T12:48:37.069Z</time></trkpt><trkpt lat="45.6312737" lon="9.470322"><ele>225.0</ele><time>2026-04-10T12:48:41.069Z</time></trkpt><trkpt lat="45.6312047" lon="9.4702893"><ele>225.0</ele><time>2026-04-10T12:48:43.069Z</time></trkpt><trkpt lat="45.6311086" lon="9.4702238"><ele>225.0</ele><time>2026-04-10T12:48:45.068Z</time></trkpt><trkpt lat="45.6310286" lon="9.470148"><ele>224.5</ele><time>2026-04-10T12:48:47.068Z</time></trkpt><trkpt lat="45.6309179" lon="9.4700831"><ele>224.0</ele><time>2026-04-10T12:48:49.069Z</time></trkpt><trkpt lat="45.6307919" lon="9.4700804"><ele>223.5</ele><time>2026-04-10T12:48:51.069Z</time></trkpt><trkpt lat="45.6306605" lon="9.4701305"><ele>223.0</ele><time>2026-04-10T12:48:53.069Z</time></trkpt><trkpt lat="45.6305595" lon="9.4702254"><ele>222.99999999999997</ele><time>2026-04-10T12:48:55.069Z</time></trkpt><trkpt lat="45.6305166" lon="9.4702916"><ele>223.0</ele><time>2026-04-10T12:48:56.069Z</time></trkpt><trkpt lat="45.6304793" lon="9.4703709"><ele>223.0</ele><time>2026-04-10T12:48:57.069Z</time></trkpt><trkpt lat="45.6304377" lon="9.4705312"><ele>223.0</ele><time>2026-04-10T12:48:59.068Z</time></trkpt><trkpt lat="45.6304145" lon="9.4706181"><ele>222.99999999999997</ele><time>2026-04-10T12:49:00.069Z</time></trkpt><trkpt lat="45.6303741" lon="9.4707868"><ele>223.0</ele><time>2026-04-10T12:49:02.068Z</time></trkpt><trkpt lat="45.6303639" lon="9.4708839"><ele>222.99999999999997</ele><time>2026-04-10T12:49:03.068Z</time></trkpt><trkpt lat="45.6303629" lon="9.4709741"><ele>223.0</ele><time>2026-04-10T12:49:04.068Z</time></trkpt><trkpt lat="45.6303634" lon="9.4710732"><ele>223.0</ele><time>2026-04-10T12:49:05.069Z</time></trkpt><trkpt lat="45.6303652" lon="9.4711684"><ele>223.0</ele><time>2026-04-10T12:49:06.069Z</time></trkpt><trkpt lat="45.6303719" lon="9.4712674"><ele>222.99999999999997</ele><time>2026-04-10T12:49:07.068Z</time></trkpt><trkpt lat="45.6303806" lon="9.4714458"><ele>223.0</ele><time>2026-04-10T12:49:09.069Z</time></trkpt><trkpt lat="45.6303946" lon="9.4716281"><ele>223.14285714285714</ele><time>2026-04-10T12:49:11.069Z</time></trkpt><trkpt lat="45.6303984" lon="9.4717226"><ele>223.28571428571428</ele><time>2026-04-10T12:49:12.069Z</time></trkpt><trkpt lat="45.6303939" lon="9.4718157"><ele>223.42857142857144</ele><time>2026-04-10T12:49:13.068Z</time></trkpt><trkpt lat="45.6303806" lon="9.4719074"><ele>223.57142857142856</ele><time>2026-04-10T12:49:14.069Z</time></trkpt><trkpt lat="45.6303572" lon="9.4719943"><ele>223.71428571428572</ele><time>2026-04-10T12:49:15.069Z</time></trkpt><trkpt lat="45.6303338" lon="9.4720834"><ele>223.85714285714286</ele><time>2026-04-10T12:49:16.069Z</time></trkpt><trkpt lat="45.6303087" lon="9.4721734"><ele>224.0</ele><time>2026-04-10T12:49:17.069Z</time></trkpt><trkpt lat="45.6303062" lon="9.4722734"><ele>224.0</ele><time>2026-04-10T12:49:18.069Z</time></trkpt><trkpt lat="45.6303174" lon="9.4723638"><ele>224.0</ele><time>2026-04-10T12:49:19.068Z</time></trkpt><trkpt lat="45.6303289" lon="9.4724629"><ele>224.0</ele><time>2026-04-10T12:49:20.069Z</time></trkpt><trkpt lat="45.6303768" lon="9.4725271"><ele>224.0</ele><time>2026-04-10T12:49:21.069Z</time></trkpt><trkpt lat="45.630431" lon="9.4725999"><ele>224.0</ele><time>2026-04-10T12:49:22.069Z</time></trkpt><trkpt lat="45.6304742" lon="9.4726881"><ele>224.0</ele><time>2026-04-10T12:49:23.069Z</time></trkpt><trkpt lat="45.6305096" lon="9.4727843"><ele>224.0</ele><time>2026-04-10T12:49:24.069Z</time></trkpt><trkpt lat="45.6304995" lon="9.472955"><ele>223.83333333333334</ele><time>2026-04-10T12:49:26.069Z</time></trkpt><trkpt lat="45.6304526" lon="9.4730233"><ele>223.66666666666669</ele><time>2026-04-10T12:49:27.068Z</time></trkpt><trkpt lat="45.6304043" lon="9.473097"><ele>223.5</ele><time>2026-04-10T12:49:28.069Z</time></trkpt><trkpt lat="45.6303645" lon="9.4731669"><ele>223.33333333333331</ele><time>2026-04-10T12:49:29.069Z</time></trkpt><trkpt lat="45.6302844" lon="9.4733129"><ele>223.16666666666666</ele><time>2026-04-10T12:49:31.069Z</time></trkpt><trkpt lat="45.6302393" lon="9.4733848"><ele>223.0</ele><time>2026-04-10T12:49:32.069Z</time></trkpt><trkpt lat="45.6302006" lon="9.4734622"><ele>223.0</ele><time>2026-04-10T12:49:33.069Z</time></trkpt><trkpt lat="45.630158" lon="9.4735402"><ele>223.0</ele><time>2026-04-10T12:49:34.069Z</time></trkpt><trkpt lat="45.630113" lon="9.4736056"><ele>223.0</ele><time>2026-04-10T12:49:35.069Z</time></trkpt><trkpt lat="45.6300693" lon="9.4736799"><ele>223.0</ele><time>2026-04-10T12:49:36.069Z</time></trkpt><trkpt lat="45.6300213" lon="9.4737556"><ele>223.0</ele><time>2026-04-10T12:49:37.069Z</time></trkpt><trkpt lat="45.6299753" lon="9.4738308"><ele>223.0</ele><time>2026-04-10T12:49:38.069Z</time></trkpt><trkpt lat="45.6299301" lon="9.4739017"><ele>223.0</ele><time>2026-04-10T12:49:39.069Z</time></trkpt><trkpt lat="45.6298855" lon="9.4739751"><ele>223.42857142857142</ele><time>2026-04-10T12:49:40.069Z</time></trkpt><trkpt lat="45.6298427" lon="9.4740439"><ele>223.85714285714283</ele><time>2026-04-10T12:49:41.068Z</time></trkpt><trkpt lat="45.6298016" lon="9.4741165"><ele>224.28571428571428</ele><time>2026-04-10T12:49:42.069Z</time></trkpt><trkpt lat="45.6297594" lon="9.4741896"><ele>224.71428571428572</ele><time>2026-04-10T12:49:43.069Z</time></trkpt><trkpt lat="45.6297171" lon="9.4742656"><ele>225.14285714285714</ele><time>2026-04-10T12:49:44.069Z</time></trkpt><trkpt lat="45.6296775" lon="9.4743388"><ele>225.57142857142858</ele><time>2026-04-10T12:49:45.069Z</time></trkpt><trkpt lat="45.6296053" lon="9.4744711"><ele>226.0</ele><time>2026-04-10T12:49:47.068Z</time></trkpt><trkpt lat="45.6295478" lon="9.4746161"><ele>225.8</ele><time>2026-04-10T12:49:49.068Z</time></trkpt><trkpt lat="45.6295021" lon="9.4747822"><ele>225.60000000000002</ele><time>2026-04-10T12:49:51.069Z</time></trkpt><trkpt lat="45.6294815" lon="9.4748726"><ele>225.4</ele><time>2026-04-10T12:49:52.069Z</time></trkpt><trkpt lat="45.6294335" lon="9.4750419"><ele>225.2</ele><time>2026-04-10T12:49:54.069Z</time></trkpt><trkpt lat="45.6293856" lon="9.4752122"><ele>225.0</ele><time>2026-04-10T12:49:56.068Z</time></trkpt><trkpt lat="45.6293605" lon="9.4752995"><ele>225.00000000000003</ele><time>2026-04-10T12:49:57.069Z</time></trkpt><trkpt lat="45.6293403" lon="9.4753923"><ele>225.0</ele><time>2026-04-10T12:49:58.069Z</time></trkpt><trkpt lat="45.6293151" lon="9.4754794"><ele>225.00000000000003</ele><time>2026-04-10T12:49:59.068Z</time></trkpt><trkpt lat="45.6292963" lon="9.4755662"><ele>225.00000000000003</ele><time>2026-04-10T12:50:00.068Z</time></trkpt><trkpt lat="45.6292756" lon="9.4756621"><ele>225.0</ele><time>2026-04-10T12:50:01.068Z</time></trkpt><trkpt lat="45.6292639" lon="9.4757515"><ele>225.00000000000003</ele><time>2026-04-10T12:50:02.069Z</time></trkpt><trkpt lat="45.6292446" lon="9.4758438"><ele>225.00000000000003</ele><time>2026-04-10T12:50:03.069Z</time></trkpt><trkpt lat="45.6292266" lon="9.4759366"><ele>225.28571428571433</ele><time>2026-04-10T12:50:04.068Z</time></trkpt><trkpt lat="45.6292033" lon="9.4760315"><ele>225.57142857142858</ele><time>2026-04-10T12:50:05.069Z</time></trkpt><trkpt lat="45.6291789" lon="9.476118"><ele>225.8571428571429</ele><time>2026-04-10T12:50:06.068Z</time></trkpt><trkpt lat="45.6291532" lon="9.4762112"><ele>226.14285714285717</ele><time>2026-04-10T12:50:07.068Z</time></trkpt><trkpt lat="45.6291191" lon="9.4763068"><ele>226.42857142857144</ele><time>2026-04-10T12:50:08.069Z</time></trkpt><trkpt lat="45.6290963" lon="9.4764022"><ele>226.71428571428572</ele><time>2026-04-10T12:50:09.069Z</time></trkpt><trkpt lat="45.6290706" lon="9.4765035"><ele>227.0</ele><time>2026-04-10T12:50:10.068Z</time></trkpt><trkpt lat="45.6290405" lon="9.4765971"><ele>227.14285714285717</ele><time>2026-04-10T12:50:11.069Z</time></trkpt><trkpt lat="45.6290119" lon="9.4766952"><ele>227.2857142857143</ele><time>2026-04-10T12:50:12.069Z</time></trkpt><trkpt lat="45.6289834" lon="9.4767924"><ele>227.42857142857144</ele><time>2026-04-10T12:50:13.069Z</time></trkpt><trkpt lat="45.6289541" lon="9.4768858"><ele>227.57142857142856</ele><time>2026-04-10T12:50:14.068Z</time></trkpt><trkpt lat="45.6289242" lon="9.4769803"><ele>227.7142857142857</ele><time>2026-04-10T12:50:15.069Z</time></trkpt><trkpt lat="45.6288933" lon="9.4770728"><ele>227.85714285714283</ele><time>2026-04-10T12:50:16.069Z</time></trkpt><trkpt lat="45.6288628" lon="9.4771693"><ele>228.0</ele><time>2026-04-10T12:50:17.069Z</time></trkpt><trkpt lat="45.6288295" lon="9.4772646"><ele>228.0</ele><time>2026-04-10T12:50:18.069Z</time></trkpt><trkpt lat="45.6287988" lon="9.477365"><ele>228.0</ele><time>2026-04-10T12:50:19.069Z</time></trkpt><trkpt lat="45.628769" lon="9.477466"><ele>228.0</ele><time>2026-04-10T12:50:20.069Z</time></trkpt><trkpt lat="45.628735" lon="9.4775584"><ele>228.0</ele><time>2026-04-10T12:50:21.069Z</time></trkpt><trkpt lat="45.6287054" lon="9.4776472"><ele>228.0</ele><time>2026-04-10T12:50:22.068Z</time></trkpt><trkpt lat="45.6286748" lon="9.4777592"><ele>228.0</ele><time>2026-04-10T12:50:23.069Z</time></trkpt><trkpt lat="45.6286328" lon="9.4778909"><ele>226.2</ele><time>2026-04-10T12:50:24.069Z</time></trkpt><trkpt lat="45.6285754" lon="9.4780649"><ele>224.4</ele><time>2026-04-10T12:50:26.069Z</time></trkpt><trkpt lat="45.6285393" lon="9.4781528"><ele>222.59999999999997</ele><time>2026-04-10T12:50:27.069Z</time></trkpt><trkpt lat="45.6285029" lon="9.4782596"><ele>220.79999999999998</ele><time>2026-04-10T12:50:28.069Z</time></trkpt><trkpt lat="45.6284611" lon="9.4783508"><ele>219.0</ele><time>2026-04-10T12:50:29.069Z</time></trkpt><trkpt lat="45.6284161" lon="9.478459"><ele>219.0</ele><time>2026-04-10T12:50:30.069Z</time></trkpt><trkpt lat="45.6283944" lon="9.4785496"><ele>219.0</ele><time>2026-04-10T12:50:31.068Z</time></trkpt><trkpt lat="45.6283662" lon="9.4786431"><ele>219.0</ele><time>2026-04-10T12:50:32.068Z</time></trkpt><trkpt lat="45.6283339" lon="9.4787317"><ele>219.0</ele><time>2026-04-10T12:50:33.069Z</time></trkpt><trkpt lat="45.6283074" lon="9.4788336"><ele>219.0</ele><time>2026-04-10T12:50:34.069Z</time></trkpt><trkpt lat="45.6282722" lon="9.478927"><ele>219.0</ele><time>2026-04-10T12:50:35.068Z</time></trkpt><trkpt lat="45.628233" lon="9.4790247"><ele>219.0</ele><time>2026-04-10T12:50:36.069Z</time></trkpt><trkpt lat="45.6281985" lon="9.4791172"><ele>219.0</ele><time>2026-04-10T12:50:37.069Z</time></trkpt><trkpt lat="45.6281674" lon="9.4792112"><ele>219.0</ele><time>2026-04-10T12:50:38.069Z</time></trkpt><trkpt lat="45.6281359" lon="9.4793118"><ele>219.0</ele><time>2026-04-10T12:50:39.069Z</time></trkpt><trkpt lat="45.6281013" lon="9.4794184"><ele>219.0</ele><time>2026-04-10T12:50:40.068Z</time></trkpt><trkpt lat="45.628066" lon="9.4795095"><ele>219.0</ele><time>2026-04-10T12:50:41.069Z</time></trkpt><trkpt lat="45.6280312" lon="9.4796035"><ele>219.0</ele><time>2026-04-10T12:50:42.069Z</time></trkpt><trkpt lat="45.6279989" lon="9.479699"><ele>219.16666666666666</ele><time>2026-04-10T12:50:43.068Z</time></trkpt><trkpt lat="45.6279655" lon="9.479798"><ele>219.33333333333331</ele><time>2026-04-10T12:50:44.069Z</time></trkpt><trkpt lat="45.627932" lon="9.4798985"><ele>219.5</ele><time>2026-04-10T12:50:45.069Z</time></trkpt><trkpt lat="45.6278995" lon="9.4799902"><ele>219.66666666666666</ele><time>2026-04-10T12:50:46.069Z</time></trkpt><trkpt lat="45.6278681" lon="9.4800864"><ele>219.83333333333331</ele><time>2026-04-10T12:50:47.069Z</time></trkpt><trkpt lat="45.627833" lon="9.4801831"><ele>220.0</ele><time>2026-04-10T12:50:48.069Z</time></trkpt><trkpt lat="45.6278002" lon="9.4802873"><ele>219.99999999999997</ele><time>2026-04-10T12:50:49.069Z</time></trkpt><trkpt lat="45.6277651" lon="9.480377"><ele>220.0</ele><time>2026-04-10T12:50:50.069Z</time></trkpt><trkpt lat="45.6277304" lon="9.4804774"><ele>220.0</ele><time>2026-04-10T12:50:51.069Z</time></trkpt><trkpt lat="45.627697" lon="9.4805774"><ele>220.0</ele><time>2026-04-10T12:50:52.069Z</time></trkpt><trkpt lat="45.6276615" lon="9.480673"><ele>219.99999999999997</ele><time>2026-04-10T12:50:53.069Z</time></trkpt><trkpt lat="45.6276209" lon="9.4807627"><ele>220.0</ele><time>2026-04-10T12:50:54.069Z</time></trkpt><trkpt lat="45.6275766" lon="9.4808719"><ele>219.83333333333331</ele><time>2026-04-10T12:50:55.069Z</time></trkpt><trkpt lat="45.6275429" lon="9.4809725"><ele>219.66666666666666</ele><time>2026-04-10T12:50:56.069Z</time></trkpt><trkpt lat="45.6275082" lon="9.4810699"><ele>219.5</ele><time>2026-04-10T12:50:57.068Z</time></trkpt><trkpt lat="45.6274736" lon="9.4811617"><ele>219.33333333333331</ele><time>2026-04-10T12:50:58.069Z</time></trkpt><trkpt lat="45.6274357" lon="9.4812582"><ele>219.16666666666666</ele><time>2026-04-10T12:50:59.069Z</time></trkpt><trkpt lat="45.6273962" lon="9.4813536"><ele>219.0</ele><time>2026-04-10T12:51:00.069Z</time></trkpt><trkpt lat="45.6273627" lon="9.4814576"><ele>218.83333333333334</ele><time>2026-04-10T12:51:01.069Z</time></trkpt><trkpt lat="45.6273247" lon="9.4815494"><ele>218.66666666666669</ele><time>2026-04-10T12:51:02.069Z</time></trkpt><trkpt lat="45.627286" lon="9.4816434"><ele>218.5</ele><time>2026-04-10T12:51:03.069Z</time></trkpt><trkpt lat="45.6272452" lon="9.4817397"><ele>218.33333333333334</ele><time>2026-04-10T12:51:04.069Z</time></trkpt><trkpt lat="45.6272074" lon="9.481841"><ele>218.16666666666669</ele><time>2026-04-10T12:51:05.068Z</time></trkpt><trkpt lat="45.6271735" lon="9.4819382"><ele>218.0</ele><time>2026-04-10T12:51:06.069Z</time></trkpt><trkpt lat="45.6271387" lon="9.4820382"><ele>218.16666666666669</ele><time>2026-04-10T12:51:07.069Z</time></trkpt><trkpt lat="45.6271059" lon="9.4821312"><ele>218.33333333333334</ele><time>2026-04-10T12:51:08.068Z</time></trkpt><trkpt lat="45.6270682" lon="9.4822264"><ele>218.5</ele><time>2026-04-10T12:51:09.069Z</time></trkpt><trkpt lat="45.6270375" lon="9.4823339"><ele>218.66666666666669</ele><time>2026-04-10T12:51:10.068Z</time></trkpt><trkpt lat="45.6270066" lon="9.4824334"><ele>218.83333333333334</ele><time>2026-04-10T12:51:11.069Z</time></trkpt><trkpt lat="45.6269704" lon="9.4825348"><ele>219.0</ele><time>2026-04-10T12:51:12.069Z</time></trkpt><trkpt lat="45.6269378" lon="9.4826347"><ele>219.0</ele><time>2026-04-10T12:51:13.069Z</time></trkpt><trkpt lat="45.6269048" lon="9.482736"><ele>219.0</ele><time>2026-04-10T12:51:14.069Z</time></trkpt><trkpt lat="45.6268719" lon="9.4828394"><ele>219.0</ele><time>2026-04-10T12:51:15.069Z</time></trkpt><trkpt lat="45.6268393" lon="9.4829396"><ele>219.0</ele><time>2026-04-10T12:51:16.068Z</time></trkpt><trkpt lat="45.6268102" lon="9.4830374"><ele>219.0</ele><time>2026-04-10T12:51:17.069Z</time></trkpt><trkpt lat="45.6267728" lon="9.4831348"><ele>219.0</ele><time>2026-04-10T12:51:18.069Z</time></trkpt><trkpt lat="45.6267396" lon="9.4832281"><ele>219.0</ele><time>2026-04-10T12:51:19.069Z</time></trkpt><trkpt lat="45.6267075" lon="9.4833317"><ele>219.0</ele><time>2026-04-10T12:51:20.069Z</time></trkpt><trkpt lat="45.6266764" lon="9.4834354"><ele>219.0</ele><time>2026-04-10T12:51:21.069Z</time></trkpt><trkpt lat="45.6266486" lon="9.483535"><ele>219.0</ele><time>2026-04-10T12:51:22.069Z</time></trkpt><trkpt lat="45.6266128" lon="9.4836301"><ele>219.0</ele><time>2026-04-10T12:51:23.069Z</time></trkpt><trkpt lat="45.6265827" lon="9.4837289"><ele>219.0</ele><time>2026-04-10T12:51:24.069Z</time></trkpt><trkpt lat="45.6265502" lon="9.4838268"><ele>219.0</ele><time>2026-04-10T12:51:25.069Z</time></trkpt><trkpt lat="45.6265209" lon="9.4839355"><ele>219.0</ele><time>2026-04-10T12:51:26.069Z</time></trkpt><trkpt lat="45.6264912" lon="9.4840476"><ele>219.0</ele><time>2026-04-10T12:51:27.069Z</time></trkpt><trkpt lat="45.6264541" lon="9.4841318"><ele>219.0</ele><time>2026-04-10T12:51:28.069Z</time></trkpt><trkpt lat="45.6264168" lon="9.4842298"><ele>219.0</ele><time>2026-04-10T12:51:29.069Z</time></trkpt><trkpt lat="45.6263781" lon="9.484326"><ele>219.0</ele><time>2026-04-10T12:51:30.069Z</time></trkpt><trkpt lat="45.626346" lon="9.4844298"><ele>219.0</ele><time>2026-04-10T12:51:31.069Z</time></trkpt><trkpt lat="45.6263057" lon="9.4845271"><ele>219.0</ele><time>2026-04-10T12:51:32.069Z</time></trkpt><trkpt lat="45.6262722" lon="9.4846223"><ele>219.0</ele><time>2026-04-10T12:51:33.069Z</time></trkpt><trkpt lat="45.6262404" lon="9.4847194"><ele>219.0</ele><time>2026-04-10T12:51:34.069Z</time></trkpt><trkpt lat="45.6262101" lon="9.4848236"><ele>219.0</ele><time>2026-04-10T12:51:35.068Z</time></trkpt><trkpt lat="45.6261752" lon="9.4849241"><ele>219.0</ele><time>2026-04-10T12:51:36.068Z</time></trkpt><trkpt lat="45.6261407" lon="9.4850167"><ele>218.71428571428572</ele><time>2026-04-10T12:51:37.068Z</time></trkpt><trkpt lat="45.6261064" lon="9.4851135"><ele>218.42857142857142</ele><time>2026-04-10T12:51:38.069Z</time></trkpt><trkpt lat="45.6260715" lon="9.4852035"><ele>218.14285714285714</ele><time>2026-04-10T12:51:39.069Z</time></trkpt><trkpt lat="45.6260397" lon="9.4853013"><ele>217.85714285714286</ele><time>2026-04-10T12:51:40.069Z</time></trkpt><trkpt lat="45.6260046" lon="9.4853989"><ele>217.57142857142856</ele><time>2026-04-10T12:51:41.069Z</time></trkpt><trkpt lat="45.6259717" lon="9.4855013"><ele>217.28571428571428</ele><time>2026-04-10T12:51:42.069Z</time></trkpt><trkpt lat="45.6259323" lon="9.48558"><ele>217.0</ele><time>2026-04-10T12:51:43.069Z</time></trkpt><trkpt lat="45.6258935" lon="9.4856711"><ele>216.99999999999997</ele><time>2026-04-10T12:51:44.069Z</time></trkpt><trkpt lat="45.6258644" lon="9.4857899"><ele>217.0</ele><time>2026-04-10T12:51:45.068Z</time></trkpt><trkpt lat="45.6258303" lon="9.4858913"><ele>217.0</ele><time>2026-04-10T12:51:46.068Z</time></trkpt><trkpt lat="45.625794" lon="9.4859857"><ele>217.0</ele><time>2026-04-10T12:51:47.069Z</time></trkpt><trkpt lat="45.6257613" lon="9.486076"><ele>216.99999999999997</ele><time>2026-04-10T12:51:48.068Z</time></trkpt><trkpt lat="45.6257284" lon="9.4861762"><ele>217.0</ele><time>2026-04-10T12:51:49.069Z</time></trkpt><trkpt lat="45.6256921" lon="9.4862695"><ele>216.83333333333331</ele><time>2026-04-10T12:51:50.069Z</time></trkpt><trkpt lat="45.6256588" lon="9.4863693"><ele>216.66666666666666</ele><time>2026-04-10T12:51:51.069Z</time></trkpt><trkpt lat="45.62562" lon="9.4864635"><ele>216.5</ele><time>2026-04-10T12:51:52.069Z</time></trkpt><trkpt lat="45.625587" lon="9.4865625"><ele>216.33333333333331</ele><time>2026-04-10T12:51:53.069Z</time></trkpt><trkpt lat="45.6255459" lon="9.4866563"><ele>216.16666666666666</ele><time>2026-04-10T12:51:54.069Z</time></trkpt><trkpt lat="45.6255036" lon="9.4867476"><ele>216.0</ele><time>2026-04-10T12:51:55.069Z</time></trkpt><trkpt lat="45.6254575" lon="9.4868371"><ele>216.0</ele><time>2026-04-10T12:51:56.069Z</time></trkpt><trkpt lat="45.6254096" lon="9.4869163"><ele>216.0</ele><time>2026-04-10T12:51:57.069Z</time></trkpt><trkpt lat="45.6253681" lon="9.4870142"><ele>216.0</ele><time>2026-04-10T12:51:58.069Z</time></trkpt><trkpt lat="45.6253276" lon="9.4871003"><ele>216.0</ele><time>2026-04-10T12:51:59.069Z</time></trkpt><trkpt lat="45.6252807" lon="9.4871798"><ele>216.0</ele><time>2026-04-10T12:52:00.069Z</time></trkpt><trkpt lat="45.6252401" lon="9.4872681"><ele>216.0</ele><time>2026-04-10T12:52:01.069Z</time></trkpt><trkpt lat="45.6251978" lon="9.4873505"><ele>216.0</ele><time>2026-04-10T12:52:02.069Z</time></trkpt><trkpt lat="45.6251561" lon="9.4874444"><ele>216.0</ele><time>2026-04-10T12:52:03.069Z</time></trkpt><trkpt lat="45.6251146" lon="9.4875337"><ele>216.0</ele><time>2026-04-10T12:52:04.069Z</time></trkpt><trkpt lat="45.6250712" lon="9.4876274"><ele>216.0</ele><time>2026-04-10T12:52:05.069Z</time></trkpt><trkpt lat="45.6250288" lon="9.4877211"><ele>216.0</ele><time>2026-04-10T12:52:06.069Z</time></trkpt><trkpt lat="45.6249908" lon="9.4878188"><ele>216.0</ele><time>2026-04-10T12:52:07.069Z</time></trkpt><trkpt lat="45.624953" lon="9.4879109"><ele>216.0</ele><time>2026-04-10T12:52:08.069Z</time></trkpt><trkpt lat="45.6249215" lon="9.4880239"><ele>216.0</ele><time>2026-04-10T12:52:09.069Z</time></trkpt><trkpt lat="45.6248852" lon="9.4881205"><ele>216.0</ele><time>2026-04-10T12:52:10.069Z</time></trkpt><trkpt lat="45.6248475" lon="9.4882123"><ele>216.0</ele><time>2026-04-10T12:52:11.069Z</time></trkpt><trkpt lat="45.6248155" lon="9.4883025"><ele>216.0</ele><time>2026-04-10T12:52:12.069Z</time></trkpt><trkpt lat="45.6247827" lon="9.4883958"><ele>216.0</ele><time>2026-04-10T12:52:13.069Z</time></trkpt><trkpt lat="45.6247542" lon="9.4884878"><ele>216.0</ele><time>2026-04-10T12:52:14.069Z</time></trkpt><trkpt lat="45.6247214" lon="9.4885736"><ele>216.0</ele><time>2026-04-10T12:52:15.069Z</time></trkpt><trkpt lat="45.6246901" lon="9.4886642"><ele>216.0</ele><time>2026-04-10T12:52:16.068Z</time></trkpt><trkpt lat="45.6246611" lon="9.4887509"><ele>216.0</ele><time>2026-04-10T12:52:17.068Z</time></trkpt><trkpt lat="45.6246124" lon="9.4888966"><ele>216.0</ele><time>2026-04-10T12:52:19.068Z</time></trkpt><trkpt lat="45.6245936" lon="9.4890133"><ele>216.0</ele><time>2026-04-10T12:52:22.069Z</time></trkpt><trkpt lat="45.6246436" lon="9.4890999"><ele>216.0</ele><time>2026-04-10T12:52:24.069Z</time></trkpt><trkpt lat="45.6247302" lon="9.4891682"><ele>216.0</ele><time>2026-04-10T12:52:26.069Z</time></trkpt><trkpt lat="45.6248217" lon="9.4892319"><ele>215.75</ele><time>2026-04-10T12:52:28.069Z</time></trkpt><trkpt lat="45.6249206" lon="9.4893003"><ele>215.5</ele><time>2026-04-10T12:52:30.068Z</time></trkpt><trkpt lat="45.6250289" lon="9.4893703"><ele>215.25</ele><time>2026-04-10T12:52:32.068Z</time></trkpt><trkpt lat="45.6251406" lon="9.4894475"><ele>215.0</ele><time>2026-04-10T12:52:34.069Z</time></trkpt><trkpt lat="45.6252624" lon="9.489522"><ele>216.0</ele><time>2026-04-10T12:52:36.069Z</time></trkpt><trkpt lat="45.6253731" lon="9.4896023"><ele>217.0</ele><time>2026-04-10T12:52:38.068Z</time></trkpt><trkpt lat="45.6254881" lon="9.4896797"><ele>218.0</ele><time>2026-04-10T12:52:40.069Z</time></trkpt><trkpt lat="45.6256016" lon="9.4897545"><ele>219.0</ele><time>2026-04-10T12:52:42.069Z</time></trkpt><trkpt lat="45.6256586" lon="9.489796"><ele>220.0</ele><time>2026-04-10T12:52:43.068Z</time></trkpt><trkpt lat="45.6257764" lon="9.4898749"><ele>220.0</ele><time>2026-04-10T12:52:45.069Z</time></trkpt><trkpt lat="45.6258314" lon="9.4899193"><ele>220.0</ele><time>2026-04-10T12:52:46.069Z</time></trkpt><trkpt lat="45.625891" lon="9.4899579"><ele>220.0</ele><time>2026-04-10T12:52:47.069Z</time></trkpt><trkpt lat="45.6260008" lon="9.4900297"><ele>220.0</ele><time>2026-04-10T12:52:49.069Z</time></trkpt><trkpt lat="45.6260741" lon="9.4901416"><ele>220.0</ele><time>2026-04-10T12:52:51.069Z</time></trkpt><trkpt lat="45.6260666" lon="9.4902963"><ele>219.0</ele><time>2026-04-10T12:52:53.069Z</time></trkpt><trkpt lat="45.6259985" lon="9.4904333"><ele>218.0</ele><time>2026-04-10T12:52:55.069Z</time></trkpt><trkpt lat="45.6259141" lon="9.4905565"><ele>217.0</ele><time>2026-04-10T12:52:57.069Z</time></trkpt><trkpt lat="45.625845" lon="9.4906798"><ele>216.0</ele><time>2026-04-10T12:52:59.069Z</time></trkpt><trkpt lat="45.6257765" lon="9.4908005"><ele>216.0</ele><time>2026-04-10T12:53:01.069Z</time></trkpt><trkpt lat="45.62571" lon="9.4909215"><ele>216.00000000000003</ele><time>2026-04-10T12:53:03.069Z</time></trkpt><trkpt lat="45.6256352" lon="9.4910054"><ele>216.00000000000003</ele><time>2026-04-10T12:53:05.068Z</time></trkpt><trkpt lat="45.6255793" lon="9.4911544"><ele>216.0</ele><time>2026-04-10T12:53:07.069Z</time></trkpt><trkpt lat="45.6255207" lon="9.4912894"><ele>216.0</ele><time>2026-04-10T12:53:09.068Z</time></trkpt><trkpt lat="45.6254632" lon="9.4914207"><ele>216.0</ele><time>2026-04-10T12:53:11.069Z</time></trkpt><trkpt lat="45.6254035" lon="9.491555"><ele>216.00000000000003</ele><time>2026-04-10T12:53:13.069Z</time></trkpt><trkpt lat="45.625344" lon="9.4916949"><ele>216.00000000000003</ele><time>2026-04-10T12:53:15.069Z</time></trkpt><trkpt lat="45.625286" lon="9.4918291"><ele>216.0</ele><time>2026-04-10T12:53:17.069Z</time></trkpt><trkpt lat="45.6252342" lon="9.4919693"><ele>216.0</ele><time>2026-04-10T12:53:19.068Z</time></trkpt><trkpt lat="45.6251722" lon="9.4921115"><ele>215.8</ele><time>2026-04-10T12:53:21.068Z</time></trkpt><trkpt lat="45.6251173" lon="9.4922428"><ele>215.60000000000002</ele><time>2026-04-10T12:53:23.069Z</time></trkpt><trkpt lat="45.625065" lon="9.4923756"><ele>215.4</ele><time>2026-04-10T12:53:25.069Z</time></trkpt><trkpt lat="45.6250324" lon="9.4925016"><ele>215.2</ele><time>2026-04-10T12:53:27.069Z</time></trkpt><trkpt lat="45.6250478" lon="9.4926119"><ele>215.0</ele><time>2026-04-10T12:53:29.069Z</time></trkpt><trkpt lat="45.6251093" lon="9.4926856"><ele>215.0</ele><time>2026-04-10T12:53:31.069Z</time></trkpt><trkpt lat="45.6251908" lon="9.4927773"><ele>215.0</ele><time>2026-04-10T12:53:33.069Z</time></trkpt><trkpt lat="45.6252691" lon="9.4928657"><ele>215.0</ele><time>2026-04-10T12:53:35.069Z</time></trkpt><trkpt lat="45.6253565" lon="9.4929505"><ele>215.0</ele><time>2026-04-10T12:53:37.069Z</time></trkpt><trkpt lat="45.625442" lon="9.4930584"><ele>215.0</ele><time>2026-04-10T12:53:39.069Z</time></trkpt><trkpt lat="45.6255211" lon="9.4931385"><ele>215.4</ele><time>2026-04-10T12:53:41.068Z</time></trkpt><trkpt lat="45.6256102" lon="9.4932255"><ele>215.8</ele><time>2026-04-10T12:53:43.069Z</time></trkpt><trkpt lat="45.6256945" lon="9.4933081"><ele>216.2</ele><time>2026-04-10T12:53:45.069Z</time></trkpt><trkpt lat="45.6257847" lon="9.4933927"><ele>216.6</ele><time>2026-04-10T12:53:47.069Z</time></trkpt><trkpt lat="45.62587" lon="9.4934971"><ele>217.0</ele><time>2026-04-10T12:53:49.068Z</time></trkpt><trkpt lat="45.625951" lon="9.4936151"><ele>217.0</ele><time>2026-04-10T12:53:51.069Z</time></trkpt><trkpt lat="45.6260384" lon="9.4937261"><ele>217.0</ele><time>2026-04-10T12:53:53.069Z</time></trkpt><trkpt lat="45.6261242" lon="9.4938336"><ele>217.0</ele><time>2026-04-10T12:53:55.069Z</time></trkpt><trkpt lat="45.6262135" lon="9.4939309"><ele>217.0</ele><time>2026-04-10T12:53:57.069Z</time></trkpt><trkpt lat="45.6263053" lon="9.4940338"><ele>217.25</ele><time>2026-04-10T12:53:59.069Z</time></trkpt><trkpt lat="45.6263913" lon="9.4941424"><ele>217.5</ele><time>2026-04-10T12:54:01.069Z</time></trkpt><trkpt lat="45.626483" lon="9.494245"><ele>217.75</ele><time>2026-04-10T12:54:03.069Z</time></trkpt><trkpt lat="45.6265675" lon="9.4943491"><ele>218.0</ele><time>2026-04-10T12:54:05.069Z</time></trkpt><trkpt lat="45.6266451" lon="9.4944576"><ele>218.0</ele><time>2026-04-10T12:54:07.069Z</time></trkpt><trkpt lat="45.6267259" lon="9.4945695"><ele>218.0</ele><time>2026-04-10T12:54:09.069Z</time></trkpt><trkpt lat="45.6267896" lon="9.494694"><ele>218.0</ele><time>2026-04-10T12:54:11.068Z</time></trkpt><trkpt lat="45.6268227" lon="9.4948477"><ele>218.0</ele><time>2026-04-10T12:54:13.069Z</time></trkpt><trkpt lat="45.6267994" lon="9.4949924"><ele>218.0</ele><time>2026-04-10T12:54:15.069Z</time></trkpt><trkpt lat="45.6267509" lon="9.4951351"><ele>217.75</ele><time>2026-04-10T12:54:17.069Z</time></trkpt><trkpt lat="45.6266899" lon="9.4952772"><ele>217.5</ele><time>2026-04-10T12:54:19.069Z</time></trkpt><trkpt lat="45.626622" lon="9.4954187"><ele>217.25</ele><time>2026-04-10T12:54:21.069Z</time></trkpt><trkpt lat="45.6265556" lon="9.4955486"><ele>217.0</ele><time>2026-04-10T12:54:23.069Z</time></trkpt><trkpt lat="45.6264935" lon="9.4956997"><ele>216.8</ele><time>2026-04-10T12:54:25.069Z</time></trkpt><trkpt lat="45.6264296" lon="9.4958391"><ele>216.6</ele><time>2026-04-10T12:54:27.069Z</time></trkpt><trkpt lat="45.6263936" lon="9.4959148"><ele>216.40000000000003</ele><time>2026-04-10T12:54:28.069Z</time></trkpt><trkpt lat="45.626329" lon="9.4960583"><ele>216.20000000000002</ele><time>2026-04-10T12:54:30.069Z</time></trkpt><trkpt lat="45.6262742" lon="9.4962015"><ele>216.0</ele><time>2026-04-10T12:54:32.069Z</time></trkpt><trkpt lat="45.6262419" lon="9.4962811"><ele>216.0</ele><time>2026-04-10T12:54:33.069Z</time></trkpt><trkpt lat="45.6261704" lon="9.4964229"><ele>216.00000000000003</ele><time>2026-04-10T12:54:35.069Z</time></trkpt><trkpt lat="45.626095" lon="9.4965729"><ele>216.00000000000003</ele><time>2026-04-10T12:54:37.069Z</time></trkpt><trkpt lat="45.6260111" lon="9.4966701"><ele>216.0</ele><time>2026-04-10T12:54:39.069Z</time></trkpt><trkpt lat="45.6259661" lon="9.4967347"><ele>216.0</ele><time>2026-04-10T12:54:40.069Z</time></trkpt><trkpt lat="45.6258722" lon="9.4968402"><ele>216.0</ele><time>2026-04-10T12:54:42.068Z</time></trkpt><trkpt lat="45.6257834" lon="9.4969324"><ele>216.0</ele><time>2026-04-10T12:54:44.068Z</time></trkpt><trkpt lat="45.6256899" lon="9.4970347"><ele>216.0</ele><time>2026-04-10T12:54:46.069Z</time></trkpt><trkpt lat="45.6256019" lon="9.4971396"><ele>216.0</ele><time>2026-04-10T12:54:48.069Z</time></trkpt><trkpt lat="45.6255127" lon="9.49724"><ele>216.5</ele><time>2026-04-10T12:54:50.068Z</time></trkpt><trkpt lat="45.6254267" lon="9.4973429"><ele>217.0</ele><time>2026-04-10T12:54:52.069Z</time></trkpt><trkpt lat="45.6253326" lon="9.4974367"><ele>217.5</ele><time>2026-04-10T12:54:54.069Z</time></trkpt><trkpt lat="45.6252539" lon="9.4975519"><ele>218.0</ele><time>2026-04-10T12:54:56.069Z</time></trkpt><trkpt lat="45.6251768" lon="9.4976802"><ele>218.0</ele><time>2026-04-10T12:54:58.069Z</time></trkpt><trkpt lat="45.6250835" lon="9.4977914"><ele>218.0</ele><time>2026-04-10T12:55:00.068Z</time></trkpt><trkpt lat="45.6249939" lon="9.4979213"><ele>218.0</ele><time>2026-04-10T12:55:02.068Z</time></trkpt><trkpt lat="45.6249472" lon="9.4979895"><ele>218.0</ele><time>2026-04-10T12:55:03.069Z</time></trkpt><trkpt lat="45.6248507" lon="9.498114"><ele>218.0</ele><time>2026-04-10T12:55:05.069Z</time></trkpt><trkpt lat="45.6247932" lon="9.498163"><ele>218.16666666666669</ele><time>2026-04-10T12:55:06.069Z</time></trkpt><trkpt lat="45.6247427" lon="9.4982245"><ele>218.33333333333334</ele><time>2026-04-10T12:55:07.069Z</time></trkpt><trkpt lat="45.6246929" lon="9.4982835"><ele>218.5</ele><time>2026-04-10T12:55:08.069Z</time></trkpt><trkpt lat="45.624635" lon="9.498348"><ele>218.66666666666669</ele><time>2026-04-10T12:55:09.069Z</time></trkpt><trkpt lat="45.6245904" lon="9.4984151"><ele>218.83333333333334</ele><time>2026-04-10T12:55:10.069Z</time></trkpt><trkpt lat="45.6245461" lon="9.4984791"><ele>219.0</ele><time>2026-04-10T12:55:11.069Z</time></trkpt><trkpt lat="45.6244423" lon="9.4985661"><ele>218.39999999999998</ele><time>2026-04-10T12:55:13.069Z</time></trkpt><trkpt lat="45.6243855" lon="9.4986098"><ele>217.79999999999998</ele><time>2026-04-10T12:55:14.068Z</time></trkpt><trkpt lat="45.6242985" lon="9.4987189"><ele>217.20000000000002</ele><time>2026-04-10T12:55:16.069Z</time></trkpt><trkpt lat="45.6242165" lon="9.4988296"><ele>216.60000000000002</ele><time>2026-04-10T12:55:18.068Z</time></trkpt><trkpt lat="45.624136" lon="9.4989472"><ele>216.0</ele><time>2026-04-10T12:55:20.069Z</time></trkpt><trkpt lat="45.6240595" lon="9.4990682"><ele>216.0</ele><time>2026-04-10T12:55:22.069Z</time></trkpt><trkpt lat="45.6240149" lon="9.4991357"><ele>216.00000000000003</ele><time>2026-04-10T12:55:23.069Z</time></trkpt><trkpt lat="45.6239382" lon="9.4992719"><ele>216.00000000000003</ele><time>2026-04-10T12:55:25.069Z</time></trkpt><trkpt lat="45.6238628" lon="9.4994016"><ele>216.0</ele><time>2026-04-10T12:55:27.069Z</time></trkpt><trkpt lat="45.6238232" lon="9.4994719"><ele>216.0</ele><time>2026-04-10T12:55:28.069Z</time></trkpt><trkpt lat="45.6237243" lon="9.499577"><ele>216.0</ele><time>2026-04-10T12:55:30.068Z</time></trkpt><trkpt lat="45.6236429" lon="9.499701"><ele>216.00000000000003</ele><time>2026-04-10T12:55:32.069Z</time></trkpt><trkpt lat="45.6235977" lon="9.499769"><ele>216.00000000000003</ele><time>2026-04-10T12:55:33.069Z</time></trkpt><trkpt lat="45.6235499" lon="9.4998401"><ele>216.0</ele><time>2026-04-10T12:55:34.068Z</time></trkpt><trkpt lat="45.6234596" lon="9.4999708"><ele>216.0</ele><time>2026-04-10T12:55:36.069Z</time></trkpt><trkpt lat="45.6234146" lon="9.5000447"><ele>216.0</ele><time>2026-04-10T12:55:37.068Z</time></trkpt><trkpt lat="45.6233181" lon="9.5001481"><ele>216.00000000000003</ele><time>2026-04-10T12:55:39.068Z</time></trkpt><trkpt lat="45.6232329" lon="9.5002606"><ele>216.00000000000003</ele><time>2026-04-10T12:55:41.069Z</time></trkpt><trkpt lat="45.6231891" lon="9.5003276"><ele>216.0</ele><time>2026-04-10T12:55:42.069Z</time></trkpt><trkpt lat="45.6231396" lon="9.5003865"><ele>216.0</ele><time>2026-04-10T12:55:43.069Z</time></trkpt><trkpt lat="45.6230461" lon="9.5004969"><ele>216.0</ele><time>2026-04-10T12:55:45.069Z</time></trkpt><trkpt lat="45.6230678" lon="9.5005893"><ele>216.0</ele><time>2026-04-10T12:55:46.068Z</time></trkpt><trkpt lat="45.6231084" lon="9.5007433"><ele>216.0</ele><time>2026-04-10T12:55:48.069Z</time></trkpt><trkpt lat="45.6231281" lon="9.5008302"><ele>216.0</ele><time>2026-04-10T12:55:49.069Z</time></trkpt><trkpt lat="45.6231153" lon="9.500949"><ele>216.0</ele><time>2026-04-10T12:55:51.069Z</time></trkpt><trkpt lat="45.623059" lon="9.5010876"><ele>216.0</ele><time>2026-04-10T12:55:53.069Z</time></trkpt><trkpt lat="45.6229914" lon="9.5011629"><ele>215.60000000000002</ele><time>2026-04-10T12:55:55.069Z</time></trkpt><trkpt lat="45.6229225" lon="9.5012871"><ele>215.20000000000002</ele><time>2026-04-10T12:55:57.069Z</time></trkpt><trkpt lat="45.6228327" lon="9.5014222"><ele>214.79999999999998</ele><time>2026-04-10T12:55:59.068Z</time></trkpt><trkpt lat="45.6227902" lon="9.5014971"><ele>214.39999999999998</ele><time>2026-04-10T12:56:00.069Z</time></trkpt><trkpt lat="45.6227007" lon="9.5016292"><ele>214.0</ele><time>2026-04-10T12:56:02.069Z</time></trkpt><trkpt lat="45.6226568" lon="9.5017137"><ele>213.99999999999997</ele><time>2026-04-10T12:56:03.069Z</time></trkpt><trkpt lat="45.6225648" lon="9.5018202"><ele>214.0</ele><time>2026-04-10T12:56:05.068Z</time></trkpt><trkpt lat="45.6224897" lon="9.5019485"><ele>214.0</ele><time>2026-04-10T12:56:07.069Z</time></trkpt><trkpt lat="45.6224567" lon="9.5020261"><ele>214.0</ele><time>2026-04-10T12:56:08.069Z</time></trkpt><trkpt lat="45.6224105" lon="9.5021016"><ele>213.99999999999997</ele><time>2026-04-10T12:56:09.069Z</time></trkpt><trkpt lat="45.6223646" lon="9.5021742"><ele>214.0</ele><time>2026-04-10T12:56:10.069Z</time></trkpt><trkpt lat="45.6222932" lon="9.5022993"><ele>213.79999999999998</ele><time>2026-04-10T12:56:12.069Z</time></trkpt><trkpt lat="45.6222296" lon="9.5024154"><ele>213.59999999999997</ele><time>2026-04-10T12:56:14.069Z</time></trkpt><trkpt lat="45.6222358" lon="9.5025536"><ele>213.4</ele><time>2026-04-10T12:56:16.069Z</time></trkpt><trkpt lat="45.6222971" lon="9.5026657"><ele>213.2</ele><time>2026-04-10T12:56:18.069Z</time></trkpt><trkpt lat="45.6223331" lon="9.5027906"><ele>213.0</ele><time>2026-04-10T12:56:20.069Z</time></trkpt><trkpt lat="45.6222465" lon="9.5028841"><ele>213.0</ele><time>2026-04-10T12:56:22.069Z</time></trkpt><trkpt lat="45.6221604" lon="9.5030075"><ele>213.0</ele><time>2026-04-10T12:56:24.069Z</time></trkpt><trkpt lat="45.6220664" lon="9.5031134"><ele>213.0</ele><time>2026-04-10T12:56:26.069Z</time></trkpt><trkpt lat="45.6220216" lon="9.503177"><ele>213.0</ele><time>2026-04-10T12:56:27.068Z</time></trkpt><trkpt lat="45.6219754" lon="9.5032406"><ele>213.0</ele><time>2026-04-10T12:56:28.068Z</time></trkpt><trkpt lat="45.6219261" lon="9.5033103"><ele>213.0</ele><time>2026-04-10T12:56:29.069Z</time></trkpt><trkpt lat="45.6218795" lon="9.5033781"><ele>212.99999999999997</ele><time>2026-04-10T12:56:30.068Z</time></trkpt><trkpt lat="45.621834" lon="9.5034503"><ele>213.0</ele><time>2026-04-10T12:56:31.069Z</time></trkpt><trkpt lat="45.6217852" lon="9.5035187"><ele>213.0</ele><time>2026-04-10T12:56:32.069Z</time></trkpt><trkpt lat="45.6217368" lon="9.5035925"><ele>213.0</ele><time>2026-04-10T12:56:33.069Z</time></trkpt><trkpt lat="45.6216885" lon="9.5036609"><ele>213.0</ele><time>2026-04-10T12:56:34.069Z</time></trkpt><trkpt lat="45.621643" lon="9.5037325"><ele>212.99999999999997</ele><time>2026-04-10T12:56:35.069Z</time></trkpt><trkpt lat="45.6215988" lon="9.5038066"><ele>213.0</ele><time>2026-04-10T12:56:36.069Z</time></trkpt><trkpt lat="45.6215548" lon="9.503872"><ele>213.0</ele><time>2026-04-10T12:56:37.068Z</time></trkpt><trkpt lat="45.6215087" lon="9.5039428"><ele>213.0</ele><time>2026-04-10T12:56:38.069Z</time></trkpt><trkpt lat="45.6214608" lon="9.5040136"><ele>213.0</ele><time>2026-04-10T12:56:39.068Z</time></trkpt><trkpt lat="45.6214186" lon="9.5040922"><ele>213.0</ele><time>2026-04-10T12:56:40.069Z</time></trkpt><trkpt lat="45.6213861" lon="9.5041801"><ele>213.0</ele><time>2026-04-10T12:56:41.069Z</time></trkpt><trkpt lat="45.621289" lon="9.5042831"><ele>213.0</ele><time>2026-04-10T12:56:43.069Z</time></trkpt><trkpt lat="45.6212228" lon="9.5043505"><ele>212.8</ele><time>2026-04-10T12:56:44.069Z</time></trkpt><trkpt lat="45.621148" lon="9.50441"><ele>212.60000000000002</ele><time>2026-04-10T12:56:45.069Z</time></trkpt><trkpt lat="45.6211173" lon="9.504492"><ele>212.39999999999998</ele><time>2026-04-10T12:56:46.069Z</time></trkpt><trkpt lat="45.6210326" lon="9.5046195"><ele>212.2</ele><time>2026-04-10T12:56:48.069Z</time></trkpt><trkpt lat="45.6209858" lon="9.5047566"><ele>212.0</ele><time>2026-04-10T12:56:50.069Z</time></trkpt><trkpt lat="45.6210085" lon="9.5049124"><ele>212.00000000000003</ele><time>2026-04-10T12:56:52.069Z</time></trkpt><trkpt lat="45.6210963" lon="9.505026"><ele>212.0</ele><time>2026-04-10T12:56:54.069Z</time></trkpt><trkpt lat="45.6211708" lon="9.505158"><ele>212.0</ele><time>2026-04-10T12:56:56.069Z</time></trkpt><trkpt lat="45.6212282" lon="9.5052171"><ele>212.0</ele><time>2026-04-10T12:56:57.069Z</time></trkpt><trkpt lat="45.6212754" lon="9.5052828"><ele>212.00000000000003</ele><time>2026-04-10T12:56:58.069Z</time></trkpt><trkpt lat="45.6213233" lon="9.5053525"><ele>212.0</ele><time>2026-04-10T12:56:59.069Z</time></trkpt><trkpt lat="45.6214222" lon="9.5054729"><ele>212.0</ele><time>2026-04-10T12:57:01.069Z</time></trkpt><trkpt lat="45.621489" lon="9.5056159"><ele>212.0</ele><time>2026-04-10T12:57:03.068Z</time></trkpt><trkpt lat="45.6215299" lon="9.5057353"><ele>212.0</ele><time>2026-04-10T12:57:05.068Z</time></trkpt><trkpt lat="45.6214417" lon="9.5058176"><ele>212.0</ele><time>2026-04-10T12:57:07.069Z</time></trkpt><trkpt lat="45.6213933" lon="9.5058991"><ele>212.0</ele><time>2026-04-10T12:57:08.068Z</time></trkpt><trkpt lat="45.6212934" lon="9.5060011"><ele>212.0</ele><time>2026-04-10T12:57:10.069Z</time></trkpt><trkpt lat="45.6212012" lon="9.5061155"><ele>212.0</ele><time>2026-04-10T12:57:12.069Z</time></trkpt><trkpt lat="45.6211136" lon="9.5062132"><ele>212.0</ele><time>2026-04-10T12:57:14.069Z</time></trkpt><trkpt lat="45.6210317" lon="9.5063069"><ele>212.0</ele><time>2026-04-10T12:57:16.069Z</time></trkpt><trkpt lat="45.6209772" lon="9.5063633"><ele>212.0</ele><time>2026-04-10T12:57:17.069Z</time></trkpt><trkpt lat="45.6208655" lon="9.5064591"><ele>211.66666666666669</ele><time>2026-04-10T12:57:19.069Z</time></trkpt><trkpt lat="45.6207995" lon="9.5065089"><ele>211.33333333333334</ele><time>2026-04-10T12:57:20.069Z</time></trkpt><trkpt lat="45.6207414" lon="9.5065548"><ele>211.0</ele><time>2026-04-10T12:57:21.069Z</time></trkpt><trkpt lat="45.6206712" lon="9.5066079"><ele>210.66666666666669</ele><time>2026-04-10T12:57:22.068Z</time></trkpt><trkpt lat="45.6205492" lon="9.5066796"><ele>210.33333333333334</ele><time>2026-04-10T12:57:24.069Z</time></trkpt><trkpt lat="45.620473" lon="9.50671"><ele>210.0</ele><time>2026-04-10T12:57:25.069Z</time></trkpt><trkpt lat="45.6203407" lon="9.5067818"><ele>210.5</ele><time>2026-04-10T12:57:27.069Z</time></trkpt><trkpt lat="45.6202756" lon="9.5068167"><ele>211.0</ele><time>2026-04-10T12:57:28.069Z</time></trkpt><trkpt lat="45.6202085" lon="9.5068428"><ele>211.5</ele><time>2026-04-10T12:57:29.069Z</time></trkpt><trkpt lat="45.6200894" lon="9.5069231"><ele>212.0</ele><time>2026-04-10T12:57:31.069Z</time></trkpt><trkpt lat="45.6200292" lon="9.5069592"><ele>212.5</ele><time>2026-04-10T12:57:32.069Z</time></trkpt><trkpt lat="45.6199621" lon="9.5069945"><ele>213.0</ele><time>2026-04-10T12:57:33.069Z</time></trkpt><trkpt lat="45.6198857" lon="9.5070297"><ele>213.0</ele><time>2026-04-10T12:57:34.069Z</time></trkpt><trkpt lat="45.6198034" lon="9.5070732"><ele>213.0</ele><time>2026-04-10T12:57:35.069Z</time></trkpt><trkpt lat="45.6197475" lon="9.507117"><ele>213.0</ele><time>2026-04-10T12:57:36.069Z</time></trkpt><trkpt lat="45.6196686" lon="9.5071587"><ele>213.0</ele><time>2026-04-10T12:57:37.069Z</time></trkpt><trkpt lat="45.6195999" lon="9.5072043"><ele>213.0</ele><time>2026-04-10T12:57:38.069Z</time></trkpt><trkpt lat="45.6195396" lon="9.5072497"><ele>213.0</ele><time>2026-04-10T12:57:39.069Z</time></trkpt><trkpt lat="45.6194671" lon="9.5073015"><ele>212.28571428571428</ele><time>2026-04-10T12:57:40.069Z</time></trkpt><trkpt lat="45.6194064" lon="9.5073444"><ele>211.57142857142856</ele><time>2026-04-10T12:57:41.069Z</time></trkpt><trkpt lat="45.6193382" lon="9.5074056"><ele>210.85714285714283</ele><time>2026-04-10T12:57:42.069Z</time></trkpt><trkpt lat="45.6192748" lon="9.5074642"><ele>210.14285714285714</ele><time>2026-04-10T12:57:43.069Z</time></trkpt><trkpt lat="45.6192156" lon="9.5075117"><ele>209.42857142857144</ele><time>2026-04-10T12:57:44.068Z</time></trkpt><trkpt lat="45.6191553" lon="9.5075722"><ele>208.7142857142857</ele><time>2026-04-10T12:57:45.069Z</time></trkpt><trkpt lat="45.6190931" lon="9.5076276"><ele>208.0</ele><time>2026-04-10T12:57:46.068Z</time></trkpt><trkpt lat="45.6190258" lon="9.5076922"><ele>207.99999999999997</ele><time>2026-04-10T12:57:47.069Z</time></trkpt><trkpt lat="45.6189571" lon="9.5077545"><ele>208.0</ele><time>2026-04-10T12:57:48.069Z</time></trkpt><trkpt lat="45.6188865" lon="9.5078187"><ele>208.0</ele><time>2026-04-10T12:57:49.069Z</time></trkpt><trkpt lat="45.6188271" lon="9.5079022"><ele>208.0</ele><time>2026-04-10T12:57:50.069Z</time></trkpt><trkpt lat="45.6187791" lon="9.507989"><ele>207.99999999999997</ele><time>2026-04-10T12:57:51.069Z</time></trkpt><trkpt lat="45.6187222" lon="9.5080718"><ele>208.0</ele><time>2026-04-10T12:57:52.069Z</time></trkpt><trkpt lat="45.6186561" lon="9.5081551"><ele>207.4</ele><time>2026-04-10T12:57:53.068Z</time></trkpt><trkpt lat="45.6185879" lon="9.5082382"><ele>206.8</ele><time>2026-04-10T12:57:54.069Z</time></trkpt><trkpt lat="45.6185081" lon="9.5083034"><ele>206.2</ele><time>2026-04-10T12:57:55.069Z</time></trkpt><trkpt lat="45.6184346" lon="9.5083703"><ele>205.6</ele><time>2026-04-10T12:57:56.069Z</time></trkpt><trkpt lat="45.6183549" lon="9.5084535"><ele>205.0</ele><time>2026-04-10T12:57:57.069Z</time></trkpt><trkpt lat="45.6182885" lon="9.508537"><ele>204.99999999999997</ele><time>2026-04-10T12:57:58.069Z</time></trkpt><trkpt lat="45.6182202" lon="9.5086207"><ele>205.0</ele><time>2026-04-10T12:57:59.069Z</time></trkpt><trkpt lat="45.6181474" lon="9.5086946"><ele>205.0</ele><time>2026-04-10T12:58:00.069Z</time></trkpt><trkpt lat="45.6180775" lon="9.5087736"><ele>205.0</ele><time>2026-04-10T12:58:01.069Z</time></trkpt><trkpt lat="45.6180186" lon="9.5088343"><ele>204.99999999999997</ele><time>2026-04-10T12:58:02.068Z</time></trkpt><trkpt lat="45.6179699" lon="9.5088939"><ele>205.0</ele><time>2026-04-10T12:58:03.069Z</time></trkpt><trkpt lat="45.6178708" lon="9.5090105"><ele>204.66666666666666</ele><time>2026-04-10T12:58:05.069Z</time></trkpt><trkpt lat="45.6177679" lon="9.5090992"><ele>204.33333333333331</ele><time>2026-04-10T12:58:07.069Z</time></trkpt><trkpt lat="45.6177161" lon="9.5091526"><ele>204.0</ele><time>2026-04-10T12:58:08.069Z</time></trkpt><trkpt lat="45.6176563" lon="9.5092129"><ele>203.66666666666669</ele><time>2026-04-10T12:58:09.069Z</time></trkpt><trkpt lat="45.6176012" lon="9.5092651"><ele>203.33333333333334</ele><time>2026-04-10T12:58:10.068Z</time></trkpt><trkpt lat="45.6175342" lon="9.5093225"><ele>203.0</ele><time>2026-04-10T12:58:11.069Z</time></trkpt><trkpt lat="45.6174729" lon="9.5093846"><ele>203.0</ele><time>2026-04-10T12:58:12.069Z</time></trkpt><trkpt lat="45.6174146" lon="9.5094329"><ele>203.0</ele><time>2026-04-10T12:58:13.068Z</time></trkpt><trkpt lat="45.6173558" lon="9.5094872"><ele>203.0</ele><time>2026-04-10T12:58:14.069Z</time></trkpt><trkpt lat="45.6173081" lon="9.5095465"><ele>203.0</ele><time>2026-04-10T12:58:15.069Z</time></trkpt><trkpt lat="45.6172551" lon="9.5096027"><ele>203.0</ele><time>2026-04-10T12:58:16.069Z</time></trkpt><trkpt lat="45.617199" lon="9.5096628"><ele>203.0</ele><time>2026-04-10T12:58:17.069Z</time></trkpt><trkpt lat="45.6171342" lon="9.5097196"><ele>203.0</ele><time>2026-04-10T12:58:18.068Z</time></trkpt><trkpt lat="45.6170737" lon="9.5097826"><ele>202.50000000000003</ele><time>2026-04-10T12:58:19.069Z</time></trkpt><trkpt lat="45.6169688" lon="9.5098917"><ele>202.0</ele><time>2026-04-10T12:58:21.068Z</time></trkpt><trkpt lat="45.6169091" lon="9.5099543"><ele>201.5</ele><time>2026-04-10T12:58:22.069Z</time></trkpt><trkpt lat="45.6168503" lon="9.5100115"><ele>201.0</ele><time>2026-04-10T12:58:23.069Z</time></trkpt><trkpt lat="45.6167801" lon="9.5100587"><ele>200.50000000000003</ele><time>2026-04-10T12:58:24.069Z</time></trkpt><trkpt lat="45.6167104" lon="9.5101177"><ele>200.0</ele><time>2026-04-10T12:58:25.069Z</time></trkpt><trkpt lat="45.6166351" lon="9.5101653"><ele>200.00000000000003</ele><time>2026-04-10T12:58:26.069Z</time></trkpt><trkpt lat="45.6165566" lon="9.5102002"><ele>200.0</ele><time>2026-04-10T12:58:27.069Z</time></trkpt><trkpt lat="45.6164814" lon="9.5102296"><ele>200.0</ele><time>2026-04-10T12:58:28.069Z</time></trkpt><trkpt lat="45.6164015" lon="9.5102399"><ele>200.0</ele><time>2026-04-10T12:58:29.069Z</time></trkpt><trkpt lat="45.6163185" lon="9.5102598"><ele>200.00000000000003</ele><time>2026-04-10T12:58:30.069Z</time></trkpt><trkpt lat="45.6162433" lon="9.5102652"><ele>200.0</ele><time>2026-04-10T12:58:31.068Z</time></trkpt><trkpt lat="45.6161596" lon="9.5102752"><ele>199.71428571428572</ele><time>2026-04-10T12:58:32.069Z</time></trkpt><trkpt lat="45.6160751" lon="9.5102819"><ele>199.42857142857144</ele><time>2026-04-10T12:58:33.068Z</time></trkpt><trkpt lat="45.6160114" lon="9.5103132"><ele>199.14285714285717</ele><time>2026-04-10T12:58:34.069Z</time></trkpt><trkpt lat="45.615939" lon="9.5103569"><ele>198.85714285714286</ele><time>2026-04-10T12:58:35.069Z</time></trkpt><trkpt lat="45.61588" lon="9.5104263"><ele>198.57142857142856</ele><time>2026-04-10T12:58:36.069Z</time></trkpt><trkpt lat="45.6158356" lon="9.5105058"><ele>198.2857142857143</ele><time>2026-04-10T12:58:37.068Z</time></trkpt><trkpt lat="45.6158057" lon="9.5105927"><ele>198.0</ele><time>2026-04-10T12:58:38.068Z</time></trkpt><trkpt lat="45.6157892" lon="9.5106842"><ele>197.2857142857143</ele><time>2026-04-10T12:58:39.068Z</time></trkpt><trkpt lat="45.6157684" lon="9.5107809"><ele>196.57142857142856</ele><time>2026-04-10T12:58:40.069Z</time></trkpt><trkpt lat="45.6157431" lon="9.5108681"><ele>195.85714285714286</ele><time>2026-04-10T12:58:41.068Z</time></trkpt><trkpt lat="45.6157089" lon="9.5109506"><ele>195.14285714285717</ele><time>2026-04-10T12:58:42.069Z</time></trkpt><trkpt lat="45.6156668" lon="9.5110247"><ele>194.42857142857144</ele><time>2026-04-10T12:58:43.069Z</time></trkpt><trkpt lat="45.6156235" lon="9.5110979"><ele>193.71428571428572</ele><time>2026-04-10T12:58:44.069Z</time></trkpt><trkpt lat="45.6155831" lon="9.5111716"><ele>193.0</ele><time>2026-04-10T12:58:45.069Z</time></trkpt><trkpt lat="45.6155406" lon="9.5112475"><ele>192.71428571428572</ele><time>2026-04-10T12:58:46.069Z</time></trkpt><trkpt lat="45.615488" lon="9.5113233"><ele>192.42857142857144</ele><time>2026-04-10T12:58:47.069Z</time></trkpt><trkpt lat="45.6154438" lon="9.5113895"><ele>192.14285714285717</ele><time>2026-04-10T12:58:48.069Z</time></trkpt><trkpt lat="45.6154139" lon="9.5114808"><ele>191.85714285714286</ele><time>2026-04-10T12:58:49.069Z</time></trkpt><trkpt lat="45.6153622" lon="9.5115568"><ele>191.57142857142856</ele><time>2026-04-10T12:58:50.069Z</time></trkpt><trkpt lat="45.6153331" lon="9.5116412"><ele>191.2857142857143</ele><time>2026-04-10T12:58:51.068Z</time></trkpt><trkpt lat="45.6153006" lon="9.5117285"><ele>191.0</ele><time>2026-04-10T12:58:52.068Z</time></trkpt><trkpt lat="45.6152682" lon="9.5118199"><ele>191.0</ele><time>2026-04-10T12:58:53.069Z</time></trkpt><trkpt lat="45.6152446" lon="9.5119198"><ele>191.0</ele><time>2026-04-10T12:58:54.069Z</time></trkpt><trkpt lat="45.6152295" lon="9.5120242"><ele>191.0</ele><time>2026-04-10T12:58:55.069Z</time></trkpt><trkpt lat="45.6152106" lon="9.512123"><ele>191.0</ele><time>2026-04-10T12:58:56.069Z</time></trkpt><trkpt lat="45.615196" lon="9.5122262"><ele>191.0</ele><time>2026-04-10T12:58:57.069Z</time></trkpt><trkpt lat="45.6151793" lon="9.512328"><ele>191.0</ele><time>2026-04-10T12:58:58.069Z</time></trkpt><trkpt lat="45.615162" lon="9.5124303"><ele>191.0</ele><time>2026-04-10T12:58:59.068Z</time></trkpt><trkpt lat="45.6151533" lon="9.5125338"><ele>190.57142857142858</ele><time>2026-04-10T12:59:00.068Z</time></trkpt><trkpt lat="45.6151406" lon="9.5126303"><ele>190.14285714285714</ele><time>2026-04-10T12:59:01.069Z</time></trkpt><trkpt lat="45.6151273" lon="9.5127285"><ele>189.71428571428572</ele><time>2026-04-10T12:59:02.069Z</time></trkpt><trkpt lat="45.6151109" lon="9.5128403"><ele>189.28571428571428</ele><time>2026-04-10T12:59:03.069Z</time></trkpt><trkpt lat="45.6150915" lon="9.5129418"><ele>188.85714285714283</ele><time>2026-04-10T12:59:04.068Z</time></trkpt><trkpt lat="45.6150835" lon="9.513049"><ele>188.42857142857142</ele><time>2026-04-10T12:59:05.069Z</time></trkpt><trkpt lat="45.6150711" lon="9.5131582"><ele>188.0</ele><time>2026-04-10T12:59:06.069Z</time></trkpt><trkpt lat="45.6150573" lon="9.5132644"><ele>188.0</ele><time>2026-04-10T12:59:07.068Z</time></trkpt><trkpt lat="45.6150373" lon="9.5133761"><ele>188.0</ele><time>2026-04-10T12:59:08.068Z</time></trkpt><trkpt lat="45.6150172" lon="9.513483"><ele>188.0</ele><time>2026-04-10T12:59:09.068Z</time></trkpt><trkpt lat="45.6150016" lon="9.5135781"><ele>188.0</ele><time>2026-04-10T12:59:10.069Z</time></trkpt><trkpt lat="45.6149904" lon="9.5136844"><ele>188.0</ele><time>2026-04-10T12:59:11.068Z</time></trkpt><trkpt lat="45.6149789" lon="9.5137961"><ele>188.0</ele><time>2026-04-10T12:59:12.068Z</time></trkpt><trkpt lat="45.6149613" lon="9.5138981"><ele>187.33333333333331</ele><time>2026-04-10T12:59:13.069Z</time></trkpt><trkpt lat="45.6149402" lon="9.5139993"><ele>186.66666666666666</ele><time>2026-04-10T12:59:14.069Z</time></trkpt><trkpt lat="45.6149156" lon="9.5141057"><ele>186.0</ele><time>2026-04-10T12:59:15.069Z</time></trkpt><trkpt lat="45.614899" lon="9.5142056"><ele>185.33333333333334</ele><time>2026-04-10T12:59:16.069Z</time></trkpt><trkpt lat="45.6148831" lon="9.5143155"><ele>184.66666666666669</ele><time>2026-04-10T12:59:17.069Z</time></trkpt><trkpt lat="45.6148436" lon="9.5144937"><ele>184.0</ele><time>2026-04-10T12:59:19.069Z</time></trkpt><trkpt lat="45.6148133" lon="9.5145785"><ele>184.5</ele><time>2026-04-10T12:59:20.069Z</time></trkpt><trkpt lat="45.6147743" lon="9.5146618"><ele>185.0</ele><time>2026-04-10T12:59:21.069Z</time></trkpt><trkpt lat="45.6147366" lon="9.5147342"><ele>185.5</ele><time>2026-04-10T12:59:22.069Z</time></trkpt><trkpt lat="45.6146932" lon="9.5148033"><ele>186.0</ele><time>2026-04-10T12:59:23.069Z</time></trkpt><trkpt lat="45.6146433" lon="9.5148662"><ele>186.5</ele><time>2026-04-10T12:59:24.069Z</time></trkpt><trkpt lat="45.6145423" lon="9.5149512"><ele>187.0</ele><time>2026-04-10T12:59:26.069Z</time></trkpt><trkpt lat="45.6144685" lon="9.5150084"><ele>187.0</ele><time>2026-04-10T12:59:28.068Z</time></trkpt><trkpt lat="45.6143991" lon="9.5150825"><ele>187.0</ele><time>2026-04-10T12:59:31.069Z</time></trkpt><trkpt lat="45.6144528" lon="9.5151417"><ele>187.0</ele><time>2026-04-10T12:59:33.069Z</time></trkpt><trkpt lat="45.6145479" lon="9.5151123"><ele>187.0</ele><time>2026-04-10T12:59:35.069Z</time></trkpt><trkpt lat="45.6146535" lon="9.5150273"><ele>187.0</ele><time>2026-04-10T12:59:37.069Z</time></trkpt><trkpt lat="45.6147084" lon="9.5149746"><ele>187.0</ele><time>2026-04-10T12:59:38.069Z</time></trkpt><trkpt lat="45.6147627" lon="9.5149065"><ele>186.5</ele><time>2026-04-10T12:59:39.068Z</time></trkpt><trkpt lat="45.6148138" lon="9.5148392"><ele>186.0</ele><time>2026-04-10T12:59:40.069Z</time></trkpt><trkpt lat="45.614857" lon="9.5147502"><ele>185.5</ele><time>2026-04-10T12:59:41.069Z</time></trkpt><trkpt lat="45.614904" lon="9.5146568"><ele>185.0</ele><time>2026-04-10T12:59:42.068Z</time></trkpt><trkpt lat="45.6149475" lon="9.5145525"><ele>184.5</ele><time>2026-04-10T12:59:43.069Z</time></trkpt><trkpt lat="45.6149943" lon="9.5144513"><ele>184.0</ele><time>2026-04-10T12:59:44.069Z</time></trkpt><trkpt lat="45.6150604" lon="9.5142587"><ele>184.0</ele><time>2026-04-10T12:59:46.416Z</time></trkpt><trkpt lat="45.6151195" lon="9.5140115"><ele>184.0</ele><time>2026-04-10T12:59:48.063Z</time></trkpt><trkpt lat="45.6151451" lon="9.5138861"><ele>184.0</ele><time>2026-04-10T12:59:49.065Z</time></trkpt><trkpt lat="45.6151749" lon="9.513762"><ele>184.0</ele><time>2026-04-10T12:59:50.059Z</time></trkpt><trkpt lat="45.6152055" lon="9.5136365"><ele>184.66666666666669</ele><time>2026-04-10T12:59:51.061Z</time></trkpt><trkpt lat="45.6152423" lon="9.5135261"><ele>185.33333333333334</ele><time>2026-04-10T12:59:52.057Z</time></trkpt><trkpt lat="45.6152694" lon="9.5134163"><ele>186.0</ele><time>2026-04-10T12:59:53.056Z</time></trkpt><trkpt lat="45.6152905" lon="9.5133297"><ele>186.66666666666666</ele><time>2026-04-10T12:59:54.057Z</time></trkpt><trkpt lat="45.615351" lon="9.51323"><ele>187.33333333333331</ele><time>2026-04-10T12:59:56.057Z</time></trkpt><trkpt lat="45.6153448" lon="9.5133735"><ele>188.0</ele><time>2026-04-10T12:59:59.056Z</time></trkpt><trkpt lat="45.6153041" lon="9.513526"><ele>188.0</ele><time>2026-04-10T13:00:01.056Z</time></trkpt><trkpt lat="45.6152881" lon="9.5136141"><ele>188.0</ele><time>2026-04-10T13:00:02.057Z</time></trkpt><trkpt lat="45.6152601" lon="9.5137585"><ele>188.0</ele><time>2026-04-10T13:00:04.057Z</time></trkpt><trkpt lat="45.6152416" lon="9.5138851"><ele>188.0</ele><time>2026-04-10T13:00:06.057Z</time></trkpt><trkpt lat="45.6152456" lon="9.5139832"><ele>188.0</ele><time>2026-04-10T13:00:07.057Z</time></trkpt><trkpt lat="45.6152544" lon="9.5140988"><ele>188.0</ele><time>2026-04-10T13:00:08.057Z</time></trkpt><trkpt lat="45.6152333" lon="9.5142196"><ele>187.33333333333331</ele><time>2026-04-10T13:00:09.057Z</time></trkpt><trkpt lat="45.6152198" lon="9.5143259"><ele>186.66666666666666</ele><time>2026-04-10T13:00:10.057Z</time></trkpt><trkpt lat="45.6152158" lon="9.5144349"><ele>186.0</ele><time>2026-04-10T13:00:11.056Z</time></trkpt><trkpt lat="45.6151922" lon="9.5145312"><ele>185.33333333333334</ele><time>2026-04-10T13:00:12.057Z</time></trkpt><trkpt lat="45.6151957" lon="9.5146445"><ele>184.66666666666669</ele><time>2026-04-10T13:00:13.057Z</time></trkpt><trkpt lat="45.6152128" lon="9.5147564"><ele>184.0</ele><time>2026-04-10T13:00:14.057Z</time></trkpt><trkpt lat="45.6151974" lon="9.5148833"><ele>182.16666666666669</ele><time>2026-04-10T13:00:15.057Z</time></trkpt><trkpt lat="45.6151888" lon="9.5150061"><ele>180.33333333333334</ele><time>2026-04-10T13:00:16.057Z</time></trkpt><trkpt lat="45.615179" lon="9.515125"><ele>178.5</ele><time>2026-04-10T13:00:17.056Z</time></trkpt><trkpt lat="45.6151823" lon="9.5152391"><ele>176.66666666666666</ele><time>2026-04-10T13:00:18.056Z</time></trkpt><trkpt lat="45.615166" lon="9.5153582"><ele>174.83333333333331</ele><time>2026-04-10T13:00:19.057Z</time></trkpt><trkpt lat="45.6151478" lon="9.5154754"><ele>173.0</ele><time>2026-04-10T13:00:20.056Z</time></trkpt><trkpt lat="45.6151258" lon="9.5155876"><ele>170.5</ele><time>2026-04-10T13:00:21.056Z</time></trkpt><trkpt lat="45.6151187" lon="9.5156935"><ele>168.0</ele><time>2026-04-10T13:00:22.057Z</time></trkpt><trkpt lat="45.6151084" lon="9.5158307"><ele>165.5</ele><time>2026-04-10T13:00:24.057Z</time></trkpt><trkpt lat="45.6150468" lon="9.5159099"><ele>163.0</ele><time>2026-04-10T13:00:26.057Z</time></trkpt><trkpt lat="45.6149848" lon="9.515933"><ele>160.5</ele><time>2026-04-10T13:00:28.056Z</time></trkpt><trkpt lat="45.6148908" lon="9.5159042"><ele>158.0</ele><time>2026-04-10T13:00:30.057Z</time></trkpt><trkpt lat="45.6147718" lon="9.515908"><ele>158.0</ele><time>2026-04-10T13:00:32.057Z</time></trkpt><trkpt lat="45.614679" lon="9.5159264"><ele>158.0</ele><time>2026-04-10T13:00:34.057Z</time></trkpt><trkpt lat="45.6145652" lon="9.5159575"><ele>158.0</ele><time>2026-04-10T13:00:36.057Z</time></trkpt><trkpt lat="45.6144635" lon="9.515973"><ele>158.0</ele><time>2026-04-10T13:00:38.057Z</time></trkpt><trkpt lat="45.6143966" lon="9.5159905"><ele>158.0</ele><time>2026-04-10T13:00:39.057Z</time></trkpt><trkpt lat="45.61429" lon="9.5160224"><ele>160.16666666666666</ele><time>2026-04-10T13:00:41.057Z</time></trkpt><trkpt lat="45.6141616" lon="9.5160573"><ele>162.33333333333331</ele><time>2026-04-10T13:00:43.057Z</time></trkpt><trkpt lat="45.6140995" lon="9.5160763"><ele>164.5</ele><time>2026-04-10T13:00:44.057Z</time></trkpt><trkpt lat="45.6140315" lon="9.5160914"><ele>166.66666666666666</ele><time>2026-04-10T13:00:45.056Z</time></trkpt><trkpt lat="45.6139688" lon="9.516126"><ele>168.83333333333334</ele><time>2026-04-10T13:00:46.057Z</time></trkpt><trkpt lat="45.6139086" lon="9.5161536"><ele>171.0</ele><time>2026-04-10T13:00:47.057Z</time></trkpt><trkpt lat="45.6137999" lon="9.5162109"><ele>171.0</ele><time>2026-04-10T13:00:49.057Z</time></trkpt><trkpt lat="45.6137374" lon="9.5162327"><ele>171.0</ele><time>2026-04-10T13:00:50.057Z</time></trkpt><trkpt lat="45.6136773" lon="9.5162733"><ele>171.0</ele><time>2026-04-10T13:00:51.057Z</time></trkpt><trkpt lat="45.6135683" lon="9.5163396"><ele>171.0</ele><time>2026-04-10T13:00:53.057Z</time></trkpt><trkpt lat="45.6135114" lon="9.5163826"><ele>171.0</ele><time>2026-04-10T13:00:54.056Z</time></trkpt><trkpt lat="45.6134066" lon="9.5164682"><ele>171.0</ele><time>2026-04-10T13:00:56.057Z</time></trkpt><trkpt lat="45.6133009" lon="9.5165458"><ele>169.60000000000002</ele><time>2026-04-10T13:00:58.057Z</time></trkpt><trkpt lat="45.6131905" lon="9.5166374"><ele>168.2</ele><time>2026-04-10T13:01:00.057Z</time></trkpt><trkpt lat="45.6130979" lon="9.5167584"><ele>166.8</ele><time>2026-04-10T13:01:02.056Z</time></trkpt><trkpt lat="45.6130442" lon="9.5168105"><ele>165.39999999999998</ele><time>2026-04-10T13:01:03.057Z</time></trkpt><trkpt lat="45.6129359" lon="9.5169023"><ele>164.0</ele><time>2026-04-10T13:01:05.057Z</time></trkpt><trkpt lat="45.6128782" lon="9.5169585"><ele>162.33333333333331</ele><time>2026-04-10T13:01:06.057Z</time></trkpt><trkpt lat="45.6127811" lon="9.51707"><ele>160.66666666666666</ele><time>2026-04-10T13:01:08.057Z</time></trkpt><trkpt lat="45.6127315" lon="9.5171303"><ele>159.0</ele><time>2026-04-10T13:01:09.057Z</time></trkpt><trkpt lat="45.6126701" lon="9.5171967"><ele>157.33333333333334</ele><time>2026-04-10T13:01:10.057Z</time></trkpt><trkpt lat="45.6126215" lon="9.5172608"><ele>155.66666666666669</ele><time>2026-04-10T13:01:11.057Z</time></trkpt><trkpt lat="45.612565" lon="9.5173197"><ele>154.0</ele><time>2026-04-10T13:01:12.056Z</time></trkpt><trkpt lat="45.6125172" lon="9.5173942"><ele>154.0</ele><time>2026-04-10T13:01:13.057Z</time></trkpt><trkpt lat="45.6124765" lon="9.5174692"><ele>154.0</ele><time>2026-04-10T13:01:14.057Z</time></trkpt><trkpt lat="45.6124375" lon="9.5175442"><ele>154.0</ele><time>2026-04-10T13:01:15.057Z</time></trkpt><trkpt lat="45.6123997" lon="9.517622"><ele>154.0</ele><time>2026-04-10T13:01:16.057Z</time></trkpt><trkpt lat="45.6123598" lon="9.5177075"><ele>154.0</ele><time>2026-04-10T13:01:17.057Z</time></trkpt><trkpt lat="45.6123211" lon="9.5177897"><ele>154.0</ele><time>2026-04-10T13:01:18.057Z</time></trkpt><trkpt lat="45.6122922" lon="9.5178818"><ele>154.0</ele><time>2026-04-10T13:01:19.057Z</time></trkpt><trkpt lat="45.6122452" lon="9.5180328"><ele>153.0</ele><time>2026-04-10T13:01:21.057Z</time></trkpt><trkpt lat="45.6122139" lon="9.5181191"><ele>152.0</ele><time>2026-04-10T13:01:22.057Z</time></trkpt><trkpt lat="45.6121577" lon="9.5182779"><ele>151.0</ele><time>2026-04-10T13:01:24.057Z</time></trkpt><trkpt lat="45.6121518" lon="9.5183679"><ele>150.0</ele><time>2026-04-10T13:01:25.057Z</time></trkpt><trkpt lat="45.6121129" lon="9.5185469"><ele>149.0</ele><time>2026-04-10T13:01:27.057Z</time></trkpt><trkpt lat="45.6120625" lon="9.5187182"><ele>149.0</ele><time>2026-04-10T13:01:29.056Z</time></trkpt><trkpt lat="45.6120338" lon="9.5188038"><ele>149.0</ele><time>2026-04-10T13:01:30.057Z</time></trkpt><trkpt lat="45.6119981" lon="9.5189724"><ele>149.0</ele><time>2026-04-10T13:01:32.057Z</time></trkpt><trkpt lat="45.6119764" lon="9.519155"><ele>149.0</ele><time>2026-04-10T13:01:34.056Z</time></trkpt><trkpt lat="45.6119312" lon="9.5193148"><ele>149.0</ele><time>2026-04-10T13:01:36.057Z</time></trkpt><trkpt lat="45.6119333" lon="9.5194109"><ele>151.2</ele><time>2026-04-10T13:01:37.057Z</time></trkpt><trkpt lat="45.6119145" lon="9.5195044"><ele>153.4</ele><time>2026-04-10T13:01:38.057Z</time></trkpt><trkpt lat="45.6118636" lon="9.5196755"><ele>155.6</ele><time>2026-04-10T13:01:40.057Z</time></trkpt><trkpt lat="45.6118007" lon="9.5198153"><ele>157.8</ele><time>2026-04-10T13:01:42.057Z</time></trkpt><trkpt lat="45.6117451" lon="9.5199482"><ele>160.0</ele><time>2026-04-10T13:01:44.057Z</time></trkpt><trkpt lat="45.6116962" lon="9.5200501"><ele>160.0</ele><time>2026-04-10T13:01:46.056Z</time></trkpt><trkpt lat="45.6116494" lon="9.5201337"><ele>160.0</ele><time>2026-04-10T13:01:48.057Z</time></trkpt><trkpt lat="45.6116092" lon="9.5202304"><ele>160.0</ele><time>2026-04-10T13:01:50.057Z</time></trkpt><trkpt lat="45.6115616" lon="9.5203256"><ele>160.0</ele><time>2026-04-10T13:01:53.057Z</time></trkpt><trkpt lat="45.6115082" lon="9.520413"><ele>160.0</ele><time>2026-04-10T13:01:56.056Z</time></trkpt><trkpt lat="45.6114612" lon="9.5205028"><ele>160.0</ele><time>2026-04-10T13:01:59.056Z</time></trkpt><trkpt lat="45.6114138" lon="9.5205927"><ele>159.33333333333334</ele><time>2026-04-10T13:02:02.057Z</time></trkpt><trkpt lat="45.6113451" lon="9.5206801"><ele>158.66666666666669</ele><time>2026-04-10T13:02:05.057Z</time></trkpt><trkpt lat="45.6112767" lon="9.5207485"><ele>158.0</ele><time>2026-04-10T13:02:08.057Z</time></trkpt><trkpt lat="45.6111997" lon="9.5208116"><ele>157.33333333333334</ele><time>2026-04-10T13:02:11.057Z</time></trkpt><trkpt lat="45.6111325" lon="9.5208895"><ele>156.66666666666666</ele><time>2026-04-10T13:02:14.057Z</time></trkpt><trkpt lat="45.6110637" lon="9.5209452"><ele>156.0</ele><time>2026-04-10T13:02:17.056Z</time></trkpt><trkpt lat="45.6109937" lon="9.5209995"><ele>159.16666666666666</ele><time>2026-04-10T13:02:20.057Z</time></trkpt><trkpt lat="45.6109234" lon="9.5210431"><ele>162.33333333333334</ele><time>2026-04-10T13:02:23.057Z</time></trkpt><trkpt lat="45.6108438" lon="9.5210987"><ele>165.5</ele><time>2026-04-10T13:02:26.057Z</time></trkpt><trkpt lat="45.6107721" lon="9.5211609"><ele>168.66666666666669</ele><time>2026-04-10T13:02:29.057Z</time></trkpt><trkpt lat="45.6107438" lon="9.521246"><ele>171.83333333333334</ele><time>2026-04-10T13:02:31.057Z</time></trkpt><trkpt lat="45.6107157" lon="9.5213389"><ele>175.0</ele><time>2026-04-10T13:02:33.057Z</time></trkpt><trkpt lat="45.6106975" lon="9.5214331"><ele>175.0</ele><time>2026-04-10T13:02:35.056Z</time></trkpt><trkpt lat="45.6106734" lon="9.5215266"><ele>175.0</ele><time>2026-04-10T13:02:37.057Z</time></trkpt><trkpt lat="45.6106631" lon="9.5216205"><ele>175.0</ele><time>2026-04-10T13:02:39.057Z</time></trkpt><trkpt lat="45.6106531" lon="9.5217117"><ele>175.0</ele><time>2026-04-10T13:02:41.057Z</time></trkpt><trkpt lat="45.6106348" lon="9.5218417"><ele>175.0</ele><time>2026-04-10T13:02:44.057Z</time></trkpt><trkpt lat="45.6106362" lon="9.5219723"><ele>175.0</ele><time>2026-04-10T13:02:47.056Z</time></trkpt><trkpt lat="45.6106677" lon="9.5220553"><ele>175.2</ele><time>2026-04-10T13:02:49.056Z</time></trkpt><trkpt lat="45.6107433" lon="9.5221003"><ele>175.4</ele><time>2026-04-10T13:02:51.056Z</time></trkpt><trkpt lat="45.6108387" lon="9.5221304"><ele>175.60000000000002</ele><time>2026-04-10T13:02:53.057Z</time></trkpt><trkpt lat="45.6109301" lon="9.5221513"><ele>175.8</ele><time>2026-04-10T13:02:55.057Z</time></trkpt><trkpt lat="45.6109994" lon="9.5221937"><ele>176.0</ele><time>2026-04-10T13:02:57.057Z</time></trkpt><trkpt lat="45.6110908" lon="9.5222599"><ele>176.0</ele><time>2026-04-10T13:02:59.057Z</time></trkpt><trkpt lat="45.6110735" lon="9.5223925"><ele>176.0</ele><time>2026-04-10T13:03:01.057Z</time></trkpt><trkpt lat="45.6110703" lon="9.522557"><ele>176.0</ele><time>2026-04-10T13:03:03.057Z</time></trkpt><trkpt lat="45.6110001" lon="9.5227579"><ele>176.0</ele><time>2026-04-10T13:03:05.057Z</time></trkpt><trkpt lat="45.6109978" lon="9.522894"><ele>174.66666666666666</ele><time>2026-04-10T13:03:07.057Z</time></trkpt><trkpt lat="45.6110395" lon="9.5229868"><ele>173.33333333333331</ele><time>2026-04-10T13:03:09.057Z</time></trkpt><trkpt lat="45.61112" lon="9.5229768"><ele>172.0</ele><time>2026-04-10T13:03:11.057Z</time></trkpt><trkpt lat="45.6112119" lon="9.5229319"><ele>170.66666666666666</ele><time>2026-04-10T13:03:13.056Z</time></trkpt><trkpt lat="45.6113206" lon="9.5228786"><ele>169.33333333333334</ele><time>2026-04-10T13:03:15.057Z</time></trkpt><trkpt lat="45.6113835" lon="9.5228531"><ele>168.0</ele><time>2026-04-10T13:03:16.057Z</time></trkpt><trkpt lat="45.6114793" lon="9.522827"><ele>166.4</ele><time>2026-04-10T13:03:18.057Z</time></trkpt><trkpt lat="45.6114331" lon="9.5229012"><ele>164.8</ele><time>2026-04-10T13:03:22.056Z</time></trkpt><trkpt lat="45.6113365" lon="9.5229589"><ele>163.2</ele><time>2026-04-10T13:03:24.057Z</time></trkpt><trkpt lat="45.6112218" lon="9.5229985"><ele>161.6</ele><time>2026-04-10T13:03:26.057Z</time></trkpt><trkpt lat="45.6111597" lon="9.5230147"><ele>160.0</ele><time>2026-04-10T13:03:27.057Z</time></trkpt><trkpt lat="45.6110582" lon="9.5230619"><ele>160.0</ele><time>2026-04-10T13:03:29.057Z</time></trkpt><trkpt lat="45.6109959" lon="9.5231064"><ele>160.0</ele><time>2026-04-10T13:03:31.057Z</time></trkpt><trkpt lat="45.6110697" lon="9.5231324"><ele>160.0</ele><time>2026-04-10T13:03:32.057Z</time></trkpt><trkpt lat="45.611185" lon="9.5230886"><ele>160.0</ele><time>2026-04-10T13:03:34.057Z</time></trkpt><trkpt lat="45.6112953" lon="9.5230484"><ele>160.0</ele><time>2026-04-10T13:03:36.056Z</time></trkpt><trkpt lat="45.6113603" lon="9.5230252"><ele>160.0</ele><time>2026-04-10T13:03:37.056Z</time></trkpt><trkpt lat="45.6114312" lon="9.5230021"><ele>158.83333333333334</ele><time>2026-04-10T13:03:38.057Z</time></trkpt><trkpt lat="45.611496" lon="9.5229755"><ele>157.66666666666669</ele><time>2026-04-10T13:03:39.057Z</time></trkpt><trkpt lat="45.611558" lon="9.522956"><ele>156.5</ele><time>2026-04-10T13:03:40.057Z</time></trkpt><trkpt lat="45.6116535" lon="9.5229256"><ele>155.33333333333334</ele><time>2026-04-10T13:03:42.057Z</time></trkpt><trkpt lat="45.6115754" lon="9.5229944"><ele>154.16666666666666</ele><time>2026-04-10T13:03:47.057Z</time></trkpt><trkpt lat="45.6114556" lon="9.5230501"><ele>153.0</ele><time>2026-04-10T13:03:49.057Z</time></trkpt><trkpt lat="45.6113847" lon="9.5230862"><ele>153.0</ele><time>2026-04-10T13:03:50.057Z</time></trkpt><trkpt lat="45.6113147" lon="9.5231193"><ele>153.0</ele><time>2026-04-10T13:03:51.057Z</time></trkpt><trkpt lat="45.6112449" lon="9.5231593"><ele>153.0</ele><time>2026-04-10T13:03:52.057Z</time></trkpt><trkpt lat="45.6111711" lon="9.5231873"><ele>153.0</ele><time>2026-04-10T13:03:53.057Z</time></trkpt><trkpt lat="45.6110963" lon="9.5232277"><ele>153.0</ele><time>2026-04-10T13:03:54.056Z</time></trkpt><trkpt lat="45.6110145" lon="9.5232731"><ele>153.0</ele><time>2026-04-10T13:03:55.056Z</time></trkpt><trkpt lat="45.6109315" lon="9.5233248"><ele>154.4</ele><time>2026-04-10T13:03:56.057Z</time></trkpt><trkpt lat="45.6108566" lon="9.5233726"><ele>155.8</ele><time>2026-04-10T13:03:57.056Z</time></trkpt><trkpt lat="45.6107664" lon="9.5234171"><ele>157.2</ele><time>2026-04-10T13:03:58.057Z</time></trkpt><trkpt lat="45.610681" lon="9.5234616"><ele>158.6</ele><time>2026-04-10T13:03:59.057Z</time></trkpt><trkpt lat="45.6105771" lon="9.5235142"><ele>160.0</ele><time>2026-04-10T13:04:00.057Z</time></trkpt><trkpt lat="45.6104812" lon="9.5235566"><ele>160.0</ele><time>2026-04-10T13:04:01.057Z</time></trkpt><trkpt lat="45.6103819" lon="9.5236061"><ele>160.0</ele><time>2026-04-10T13:04:02.057Z</time></trkpt><trkpt lat="45.6102731" lon="9.523676"><ele>160.0</ele><time>2026-04-10T13:04:04.057Z</time></trkpt><trkpt lat="45.6101666" lon="9.5237547"><ele>160.0</ele><time>2026-04-10T13:04:06.056Z</time></trkpt><trkpt lat="45.6100955" lon="9.5238818"><ele>159.4</ele><time>2026-04-10T13:04:08.057Z</time></trkpt><trkpt lat="45.6099905" lon="9.5239716"><ele>158.8</ele><time>2026-04-10T13:04:10.057Z</time></trkpt><trkpt lat="45.6099217" lon="9.524"><ele>158.2</ele><time>2026-04-10T13:04:11.056Z</time></trkpt><trkpt lat="45.6098284" lon="9.5240513"><ele>157.6</ele><time>2026-04-10T13:04:13.057Z</time></trkpt><trkpt lat="45.6097131" lon="9.524095"><ele>157.0</ele><time>2026-04-10T13:04:15.057Z</time></trkpt><trkpt lat="45.6096162" lon="9.524148"><ele>157.0</ele><time>2026-04-10T13:04:17.057Z</time></trkpt><trkpt lat="45.6095519" lon="9.5242158"><ele>157.0</ele><time>2026-04-10T13:04:19.056Z</time></trkpt><trkpt lat="45.6094568" lon="9.5242604"><ele>157.0</ele><time>2026-04-10T13:04:21.057Z</time></trkpt><trkpt lat="45.609334" lon="9.5243386"><ele>157.0</ele><time>2026-04-10T13:04:23.056Z</time></trkpt><trkpt lat="45.6092489" lon="9.5243674"><ele>157.0</ele><time>2026-04-10T13:04:24.057Z</time></trkpt><trkpt lat="45.6091885" lon="9.5244908"><ele>155.83333333333334</ele><time>2026-04-10T13:04:26.057Z</time></trkpt><trkpt lat="45.6091195" lon="9.5245488"><ele>154.66666666666669</ele><time>2026-04-10T13:04:27.056Z</time></trkpt><trkpt lat="45.6090175" lon="9.524653"><ele>153.5</ele><time>2026-04-10T13:04:29.056Z</time></trkpt><trkpt lat="45.6089681" lon="9.5247118"><ele>152.33333333333334</ele><time>2026-04-10T13:04:30.057Z</time></trkpt><trkpt lat="45.608904" lon="9.5247403"><ele>151.16666666666666</ele><time>2026-04-10T13:04:31.057Z</time></trkpt><trkpt lat="45.6088331" lon="9.5247718"><ele>150.0</ele><time>2026-04-10T13:04:32.057Z</time></trkpt><trkpt lat="45.6087742" lon="9.5248152"><ele>150.0</ele><time>2026-04-10T13:04:33.056Z</time></trkpt><trkpt lat="45.6086925" lon="9.5248673"><ele>150.0</ele><time>2026-04-10T13:04:34.056Z</time></trkpt><trkpt lat="45.6086363" lon="9.5249138"><ele>150.0</ele><time>2026-04-10T13:04:35.057Z</time></trkpt><trkpt lat="45.6085573" lon="9.5249947"><ele>150.0</ele><time>2026-04-10T13:04:37.057Z</time></trkpt><trkpt lat="45.6084995" lon="9.5250418"><ele>150.0</ele><time>2026-04-10T13:04:38.057Z</time></trkpt><trkpt lat="45.60843" lon="9.5250794"><ele>150.0</ele><time>2026-04-10T13:04:39.056Z</time></trkpt><trkpt lat="45.6083416" lon="9.5250974"><ele>151.0</ele><time>2026-04-10T13:04:40.056Z</time></trkpt><trkpt lat="45.6082154" lon="9.5251677"><ele>152.0</ele><time>2026-04-10T13:04:42.057Z</time></trkpt><trkpt lat="45.6081353" lon="9.5252215"><ele>153.0</ele><time>2026-04-10T13:04:43.057Z</time></trkpt><trkpt lat="45.6080767" lon="9.525268"><ele>154.0</ele><time>2026-04-10T13:04:44.057Z</time></trkpt><trkpt lat="45.6080228" lon="9.5253782"><ele>155.0</ele><time>2026-04-10T13:04:46.057Z</time></trkpt><trkpt lat="45.6079675" lon="9.5254314"><ele>155.0</ele><time>2026-04-10T13:04:47.056Z</time></trkpt><trkpt lat="45.6079119" lon="9.5254955"><ele>155.0</ele><time>2026-04-10T13:04:48.057Z</time></trkpt><trkpt lat="45.6078476" lon="9.5255473"><ele>155.0</ele><time>2026-04-10T13:04:49.057Z</time></trkpt><trkpt lat="45.6077534" lon="9.5256787"><ele>155.0</ele><time>2026-04-10T13:04:51.057Z</time></trkpt><trkpt lat="45.6077" lon="9.5257352"><ele>155.0</ele><time>2026-04-10T13:04:52.057Z</time></trkpt><trkpt lat="45.6076126" lon="9.5257907"><ele>155.0</ele><time>2026-04-10T13:04:53.057Z</time></trkpt><trkpt lat="45.6075393" lon="9.5258386"><ele>154.66666666666666</ele><time>2026-04-10T13:04:54.057Z</time></trkpt><trkpt lat="45.6074639" lon="9.525865"><ele>154.33333333333331</ele><time>2026-04-10T13:04:55.056Z</time></trkpt><trkpt lat="45.6074404" lon="9.5259561"><ele>154.0</ele><time>2026-04-10T13:04:56.056Z</time></trkpt><trkpt lat="45.607378" lon="9.5260117"><ele>153.66666666666666</ele><time>2026-04-10T13:04:57.057Z</time></trkpt><trkpt lat="45.6072706" lon="9.5261131"><ele>153.33333333333334</ele><time>2026-04-10T13:04:59.057Z</time></trkpt><trkpt lat="45.6071824" lon="9.5261531"><ele>153.0</ele><time>2026-04-10T13:05:00.057Z</time></trkpt><trkpt lat="45.6071404" lon="9.5262296"><ele>153.0</ele><time>2026-04-10T13:05:01.057Z</time></trkpt><trkpt lat="45.6070661" lon="9.5262755"><ele>153.0</ele><time>2026-04-10T13:05:02.057Z</time></trkpt><trkpt lat="45.6069589" lon="9.52637"><ele>153.0</ele><time>2026-04-10T13:05:05.056Z</time></trkpt><trkpt lat="45.6068973" lon="9.5264126"><ele>153.0</ele><time>2026-04-10T13:05:06.057Z</time></trkpt><trkpt lat="45.6067509" lon="9.5264933"><ele>153.0</ele><time>2026-04-10T13:05:08.056Z</time></trkpt><trkpt lat="45.6066832" lon="9.5265491"><ele>154.5</ele><time>2026-04-10T13:05:10.056Z</time></trkpt><trkpt lat="45.606589" lon="9.5266471"><ele>156.0</ele><time>2026-04-10T13:05:13.057Z</time></trkpt><trkpt lat="45.6064866" lon="9.526716"><ele>157.5</ele><time>2026-04-10T13:05:15.056Z</time></trkpt><trkpt lat="45.6063865" lon="9.5268249"><ele>159.0</ele><time>2026-04-10T13:05:17.057Z</time></trkpt><trkpt lat="45.6062605" lon="9.5268878"><ele>160.8</ele><time>2026-04-10T13:05:19.057Z</time></trkpt><trkpt lat="45.6061611" lon="9.5269609"><ele>162.60000000000002</ele><time>2026-04-10T13:05:21.057Z</time></trkpt><trkpt lat="45.6060843" lon="9.5270258"><ele>164.4</ele><time>2026-04-10T13:05:23.056Z</time></trkpt><trkpt lat="45.6060167" lon="9.5270987"><ele>166.20000000000002</ele><time>2026-04-10T13:05:26.057Z</time></trkpt><trkpt lat="45.6059173" lon="9.5271491"><ele>168.0</ele><time>2026-04-10T13:05:28.057Z</time></trkpt><trkpt lat="45.6058311" lon="9.5272206"><ele>168.0</ele><time>2026-04-10T13:05:30.057Z</time></trkpt><trkpt lat="45.605724" lon="9.5272591"><ele>168.0</ele><time>2026-04-10T13:05:32.057Z</time></trkpt><trkpt lat="45.605628" lon="9.5273004"><ele>168.0</ele><time>2026-04-10T13:05:34.056Z</time></trkpt><trkpt lat="45.6055631" lon="9.5273439"><ele>168.0</ele><time>2026-04-10T13:05:35.057Z</time></trkpt><trkpt lat="45.6054307" lon="9.5274046"><ele>168.0</ele><time>2026-04-10T13:05:37.057Z</time></trkpt><trkpt lat="45.6053579" lon="9.5274387"><ele>167.0</ele><time>2026-04-10T13:05:38.057Z</time></trkpt><trkpt lat="45.6052381" lon="9.5274806"><ele>166.0</ele><time>2026-04-10T13:05:40.056Z</time></trkpt><trkpt lat="45.6051739" lon="9.52751"><ele>165.0</ele><time>2026-04-10T13:05:41.057Z</time></trkpt><trkpt lat="45.6050646" lon="9.5275666"><ele>164.0</ele><time>2026-04-10T13:05:43.056Z</time></trkpt><trkpt lat="45.6049947" lon="9.5276012"><ele>163.0</ele><time>2026-04-10T13:05:44.057Z</time></trkpt><trkpt lat="45.6048845" lon="9.5276722"><ele>163.0</ele><time>2026-04-10T13:05:46.057Z</time></trkpt><trkpt lat="45.6048259" lon="9.527726"><ele>163.0</ele><time>2026-04-10T13:05:47.057Z</time></trkpt><trkpt lat="45.6047197" lon="9.5277919"><ele>163.0</ele><time>2026-04-10T13:05:49.057Z</time></trkpt><trkpt lat="45.6046606" lon="9.5278406"><ele>163.0</ele><time>2026-04-10T13:05:50.057Z</time></trkpt><trkpt lat="45.6045843" lon="9.52799"><ele>163.0</ele><time>2026-04-10T13:05:51.057Z</time></trkpt><trkpt lat="45.6045092" lon="9.5279959"><ele>160.0</ele><time>2026-04-10T13:05:52.057Z</time></trkpt><trkpt lat="45.6044275" lon="9.5279599"><ele>157.0</ele><time>2026-04-10T13:05:54.057Z</time></trkpt><trkpt lat="45.6043135" lon="9.5280424"><ele>154.0</ele><time>2026-04-10T13:05:56.057Z</time></trkpt><trkpt lat="45.6042248" lon="9.5281181"><ele>151.0</ele><time>2026-04-10T13:05:57.057Z</time></trkpt><trkpt lat="45.6041509" lon="9.5281495"><ele>148.0</ele><time>2026-04-10T13:05:58.057Z</time></trkpt><trkpt lat="45.6040873" lon="9.5281509"><ele>148.0</ele><time>2026-04-10T13:05:59.057Z</time></trkpt><trkpt lat="45.6040209" lon="9.528185"><ele>148.0</ele><time>2026-04-10T13:06:00.057Z</time></trkpt><trkpt lat="45.6039534" lon="9.5282362"><ele>148.0</ele><time>2026-04-10T13:06:01.057Z</time></trkpt><trkpt lat="45.6038765" lon="9.5282914"><ele>148.0</ele><time>2026-04-10T13:06:02.057Z</time></trkpt><trkpt lat="45.603798" lon="9.528348"><ele>148.0</ele><time>2026-04-10T13:06:03.057Z</time></trkpt><trkpt lat="45.6037387" lon="9.5283851"><ele>148.0</ele><time>2026-04-10T13:06:04.057Z</time></trkpt><trkpt lat="45.6036783" lon="9.5284192"><ele>147.20000000000002</ele><time>2026-04-10T13:06:05.057Z</time></trkpt><trkpt lat="45.6035516" lon="9.5285095"><ele>146.4</ele><time>2026-04-10T13:06:07.057Z</time></trkpt><trkpt lat="45.6034909" lon="9.5285466"><ele>145.60000000000002</ele><time>2026-04-10T13:06:08.057Z</time></trkpt><trkpt lat="45.6034289" lon="9.5285849"><ele>144.8</ele><time>2026-04-10T13:06:09.057Z</time></trkpt><trkpt lat="45.6033156" lon="9.5286951"><ele>144.0</ele><time>2026-04-10T13:06:11.057Z</time></trkpt><trkpt lat="45.603246" lon="9.5287475"><ele>144.0</ele><time>2026-04-10T13:06:12.057Z</time></trkpt><trkpt lat="45.6031931" lon="9.5288167"><ele>144.0</ele><time>2026-04-10T13:06:13.057Z</time></trkpt><trkpt lat="45.6031498" lon="9.528883"><ele>144.0</ele><time>2026-04-10T13:06:14.057Z</time></trkpt><trkpt lat="45.6030981" lon="9.5289353"><ele>144.0</ele><time>2026-04-10T13:06:15.057Z</time></trkpt><trkpt lat="45.6030344" lon="9.528955"><ele>144.0</ele><time>2026-04-10T13:06:16.057Z</time></trkpt><trkpt lat="45.6029204" lon="9.529014"><ele>144.0</ele><time>2026-04-10T13:06:18.056Z</time></trkpt><trkpt lat="45.6028503" lon="9.5290453"><ele>144.4</ele><time>2026-04-10T13:06:19.057Z</time></trkpt><trkpt lat="45.6027195" lon="9.5290991"><ele>144.8</ele><time>2026-04-10T13:06:21.057Z</time></trkpt><trkpt lat="45.6026547" lon="9.5291302"><ele>145.2</ele><time>2026-04-10T13:06:22.056Z</time></trkpt><trkpt lat="45.6025928" lon="9.5291556"><ele>145.6</ele><time>2026-04-10T13:06:23.057Z</time></trkpt><trkpt lat="45.6025293" lon="9.529177"><ele>146.0</ele><time>2026-04-10T13:06:24.057Z</time></trkpt><trkpt lat="45.6024118" lon="9.5292242"><ele>146.0</ele><time>2026-04-10T13:06:26.056Z</time></trkpt><trkpt lat="45.6023136" lon="9.5292487"><ele>146.0</ele><time>2026-04-10T13:06:28.057Z</time></trkpt><trkpt lat="45.6022404" lon="9.5292543"><ele>146.0</ele><time>2026-04-10T13:06:30.057Z</time></trkpt><trkpt lat="45.602216" lon="9.5293467"><ele>146.0</ele><time>2026-04-10T13:06:32.057Z</time></trkpt><trkpt lat="45.6022146" lon="9.529469"><ele>146.0</ele><time>2026-04-10T13:06:35.057Z</time></trkpt><trkpt lat="45.6023045" lon="9.5295029"><ele>146.0</ele><time>2026-04-10T13:06:38.057Z</time></trkpt><trkpt lat="45.6022511" lon="9.5295543"><ele>144.16666666666666</ele><time>2026-04-10T13:06:58.057Z</time></trkpt><trkpt lat="45.6022484" lon="9.5296623"><ele>142.33333333333331</ele><time>2026-04-10T13:07:01.057Z</time></trkpt><trkpt lat="45.6022647" lon="9.5297843"><ele>140.5</ele><time>2026-04-10T13:07:03.056Z</time></trkpt><trkpt lat="45.602293" lon="9.5299007"><ele>138.66666666666666</ele><time>2026-04-10T13:07:05.057Z</time></trkpt><trkpt lat="45.6023219" lon="9.5299989"><ele>136.83333333333334</ele><time>2026-04-10T13:07:07.057Z</time></trkpt><trkpt lat="45.6023437" lon="9.5300881"><ele>135.0</ele><time>2026-04-10T13:07:09.057Z</time></trkpt><trkpt lat="45.6023661" lon="9.5301778"><ele>135.0</ele><time>2026-04-10T13:07:11.057Z</time></trkpt><trkpt lat="45.6023865" lon="9.5302702"><ele>135.0</ele><time>2026-04-10T13:07:13.057Z</time></trkpt><trkpt lat="45.6024152" lon="9.5303932"><ele>135.0</ele><time>2026-04-10T13:07:16.057Z</time></trkpt><trkpt lat="45.6023636" lon="9.5304586"><ele>135.0</ele><time>2026-04-10T13:07:20.057Z</time></trkpt><trkpt lat="45.6022958" lon="9.5305098"><ele>135.0</ele><time>2026-04-10T13:07:23.056Z</time></trkpt><trkpt lat="45.6023155" lon="9.5306189"><ele>135.0</ele><time>2026-04-10T13:07:26.057Z</time></trkpt><trkpt lat="45.6023234" lon="9.5307162"><ele>136.0</ele><time>2026-04-10T13:07:28.056Z</time></trkpt><trkpt lat="45.6022748" lon="9.5307895"><ele>137.0</ele><time>2026-04-10T13:07:30.057Z</time></trkpt><trkpt lat="45.6021878" lon="9.5308509"><ele>138.0</ele><time>2026-04-10T13:07:32.057Z</time></trkpt><trkpt lat="45.6020946" lon="9.5308976"><ele>139.0</ele><time>2026-04-10T13:07:34.056Z</time></trkpt><trkpt lat="45.6020026" lon="9.5309555"><ele>140.0</ele><time>2026-04-10T13:07:36.057Z</time></trkpt><trkpt lat="45.6019052" lon="9.5310119"><ele>140.0</ele><time>2026-04-10T13:07:38.057Z</time></trkpt><trkpt lat="45.60181" lon="9.5310764"><ele>140.0</ele><time>2026-04-10T13:07:40.057Z</time></trkpt><trkpt lat="45.6017063" lon="9.5311442"><ele>140.0</ele><time>2026-04-10T13:07:42.056Z</time></trkpt><trkpt lat="45.6016065" lon="9.5312254"><ele>140.0</ele><time>2026-04-10T13:07:44.057Z</time></trkpt><trkpt lat="45.6015065" lon="9.5313055"><ele>140.0</ele><time>2026-04-10T13:07:46.057Z</time></trkpt><trkpt lat="45.6014125" lon="9.5313879"><ele>141.0</ele><time>2026-04-10T13:07:48.057Z</time></trkpt><trkpt lat="45.6013178" lon="9.5314644"><ele>142.0</ele><time>2026-04-10T13:07:50.057Z</time></trkpt><trkpt lat="45.6012184" lon="9.5315463"><ele>143.0</ele><time>2026-04-10T13:07:52.057Z</time></trkpt><trkpt lat="45.6011313" lon="9.5316277"><ele>144.0</ele><time>2026-04-10T13:07:54.057Z</time></trkpt><trkpt lat="45.6010246" lon="9.5317036"><ele>145.0</ele><time>2026-04-10T13:07:56.056Z</time></trkpt><trkpt lat="45.6009716" lon="9.5317535"><ele>145.0</ele><time>2026-04-10T13:07:57.057Z</time></trkpt><trkpt lat="45.6008733" lon="9.5318292"><ele>145.0</ele><time>2026-04-10T13:07:59.057Z</time></trkpt><trkpt lat="45.6007829" lon="9.5319011"><ele>145.0</ele><time>2026-04-10T13:08:01.057Z</time></trkpt><trkpt lat="45.6006801" lon="9.5319729"><ele>145.0</ele><time>2026-04-10T13:08:03.057Z</time></trkpt><trkpt lat="45.600582" lon="9.5320266"><ele>145.0</ele><time>2026-04-10T13:08:05.057Z</time></trkpt><trkpt lat="45.600485" lon="9.5320852"><ele>145.2</ele><time>2026-04-10T13:08:07.056Z</time></trkpt><trkpt lat="45.6003886" lon="9.5321498"><ele>145.4</ele><time>2026-04-10T13:08:09.057Z</time></trkpt><trkpt lat="45.6003027" lon="9.5322231"><ele>145.6</ele><time>2026-04-10T13:08:11.057Z</time></trkpt><trkpt lat="45.6001997" lon="9.5322759"><ele>145.8</ele><time>2026-04-10T13:08:13.057Z</time></trkpt><trkpt lat="45.6001027" lon="9.5323436"><ele>146.0</ele><time>2026-04-10T13:08:15.057Z</time></trkpt><trkpt lat="45.6000094" lon="9.5323771"><ele>146.0</ele><time>2026-04-10T13:08:17.057Z</time></trkpt><trkpt lat="45.5999479" lon="9.5324099"><ele>146.0</ele><time>2026-04-10T13:08:18.057Z</time></trkpt><trkpt lat="45.5998894" lon="9.5324768"><ele>146.0</ele><time>2026-04-10T13:08:19.057Z</time></trkpt><trkpt lat="45.5997794" lon="9.5325651"><ele>146.0</ele><time>2026-04-10T13:08:21.057Z</time></trkpt><trkpt lat="45.5996632" lon="9.5326168"><ele>146.0</ele><time>2026-04-10T13:08:23.057Z</time></trkpt><trkpt lat="45.5995602" lon="9.532624"><ele>145.6</ele><time>2026-04-10T13:08:25.056Z</time></trkpt><trkpt lat="45.59944" lon="9.5326451"><ele>145.2</ele><time>2026-04-10T13:08:27.057Z</time></trkpt><trkpt lat="45.599349" lon="9.5326684"><ele>144.8</ele><time>2026-04-10T13:08:29.056Z</time></trkpt><trkpt lat="45.599285" lon="9.5326694"><ele>144.4</ele><time>2026-04-10T13:08:30.057Z</time></trkpt><trkpt lat="45.599179" lon="9.532722"><ele>144.0</ele><time>2026-04-10T13:08:32.057Z</time></trkpt><trkpt lat="45.5990723" lon="9.5328132"><ele>144.8</ele><time>2026-04-10T13:08:34.056Z</time></trkpt><trkpt lat="45.5990412" lon="9.5329592"><ele>145.60000000000002</ele><time>2026-04-10T13:08:36.057Z</time></trkpt><trkpt lat="45.5990385" lon="9.5331008"><ele>146.4</ele><time>2026-04-10T13:08:38.057Z</time></trkpt><trkpt lat="45.5990416" lon="9.5332443"><ele>147.20000000000002</ele><time>2026-04-10T13:08:40.057Z</time></trkpt><trkpt lat="45.5990366" lon="9.5333833"><ele>148.0</ele><time>2026-04-10T13:08:42.057Z</time></trkpt><trkpt lat="45.5990545" lon="9.5335334"><ele>148.0</ele><time>2026-04-10T13:08:44.057Z</time></trkpt><trkpt lat="45.5990786" lon="9.533688"><ele>148.0</ele><time>2026-04-10T13:08:46.057Z</time></trkpt><trkpt lat="45.5990993" lon="9.5338362"><ele>148.0</ele><time>2026-04-10T13:08:48.057Z</time></trkpt><trkpt lat="45.5991306" lon="9.533969"><ele>148.0</ele><time>2026-04-10T13:08:50.057Z</time></trkpt><trkpt lat="45.5991186" lon="9.5341117"><ele>148.0</ele><time>2026-04-10T13:08:52.057Z</time></trkpt><trkpt lat="45.5991185" lon="9.5342312"><ele>148.75</ele><time>2026-04-10T13:08:54.057Z</time></trkpt><trkpt lat="45.5990189" lon="9.5342886"><ele>149.5</ele><time>2026-04-10T13:08:57.057Z</time></trkpt><trkpt lat="45.5988825" lon="9.5342877"><ele>150.25</ele><time>2026-04-10T13:08:59.056Z</time></trkpt><trkpt lat="45.5987874" lon="9.5343112"><ele>151.0</ele><time>2026-04-10T13:09:01.057Z</time></trkpt><trkpt lat="45.5986769" lon="9.53434"><ele>150.83333333333334</ele><time>2026-04-10T13:09:03.057Z</time></trkpt><trkpt lat="45.5986066" lon="9.5344482"><ele>150.66666666666669</ele><time>2026-04-10T13:09:05.057Z</time></trkpt><trkpt lat="45.5986013" lon="9.5345431"><ele>150.5</ele><time>2026-04-10T13:09:06.057Z</time></trkpt><trkpt lat="45.5986187" lon="9.5346412"><ele>150.33333333333334</ele><time>2026-04-10T13:09:07.057Z</time></trkpt><trkpt lat="45.5986212" lon="9.5347741"><ele>150.16666666666666</ele><time>2026-04-10T13:09:09.057Z</time></trkpt><trkpt lat="45.5985794" lon="9.5348688"><ele>150.0</ele><time>2026-04-10T13:09:11.057Z</time></trkpt><trkpt lat="45.598501" lon="9.5349067"><ele>150.66666666666666</ele><time>2026-04-10T13:09:13.057Z</time></trkpt><trkpt lat="45.5983892" lon="9.5349308"><ele>151.33333333333334</ele><time>2026-04-10T13:09:15.057Z</time></trkpt><trkpt lat="45.598324" lon="9.5349536"><ele>152.0</ele><time>2026-04-10T13:09:16.057Z</time></trkpt><trkpt lat="45.5982084" lon="9.5349801"><ele>152.66666666666669</ele><time>2026-04-10T13:09:18.057Z</time></trkpt><trkpt lat="45.5981408" lon="9.5349907"><ele>153.33333333333334</ele><time>2026-04-10T13:09:19.057Z</time></trkpt><trkpt lat="45.59807" lon="9.5350201"><ele>154.0</ele><time>2026-04-10T13:09:20.057Z</time></trkpt><trkpt lat="45.5980039" lon="9.5350394"><ele>154.0</ele><time>2026-04-10T13:09:21.057Z</time></trkpt><trkpt lat="45.5978948" lon="9.5350862"><ele>154.0</ele><time>2026-04-10T13:09:23.057Z</time></trkpt><trkpt lat="45.5977876" lon="9.5350903"><ele>154.0</ele><time>2026-04-10T13:09:25.057Z</time></trkpt><trkpt lat="45.5976642" lon="9.5351388"><ele>154.0</ele><time>2026-04-10T13:09:27.056Z</time></trkpt><trkpt lat="45.5976003" lon="9.5351443"><ele>154.0</ele><time>2026-04-10T13:09:28.057Z</time></trkpt><trkpt lat="45.5975167" lon="9.5351323"><ele>153.33333333333334</ele><time>2026-04-10T13:09:29.056Z</time></trkpt><trkpt lat="45.5974437" lon="9.5351586"><ele>152.66666666666669</ele><time>2026-04-10T13:09:30.057Z</time></trkpt><trkpt lat="45.5973716" lon="9.5351926"><ele>152.0</ele><time>2026-04-10T13:09:31.057Z</time></trkpt><trkpt lat="45.597233" lon="9.535209"><ele>151.33333333333334</ele><time>2026-04-10T13:09:33.057Z</time></trkpt><trkpt lat="45.5971698" lon="9.5352174"><ele>150.66666666666666</ele><time>2026-04-10T13:09:34.057Z</time></trkpt><trkpt lat="45.5971073" lon="9.5352384"><ele>150.0</ele><time>2026-04-10T13:09:35.057Z</time></trkpt><trkpt lat="45.5969782" lon="9.5352526"><ele>149.7142857142857</ele><time>2026-04-10T13:09:37.057Z</time></trkpt><trkpt lat="45.5969102" lon="9.5352572"><ele>149.42857142857142</ele><time>2026-04-10T13:09:38.056Z</time></trkpt><trkpt lat="45.5968422" lon="9.5352588"><ele>149.14285714285714</ele><time>2026-04-10T13:09:39.056Z</time></trkpt><trkpt lat="45.5967724" lon="9.5352667"><ele>148.85714285714283</ele><time>2026-04-10T13:09:40.057Z</time></trkpt><trkpt lat="45.5967085" lon="9.5352744"><ele>148.57142857142856</ele><time>2026-04-10T13:09:41.057Z</time></trkpt><trkpt lat="45.5966326" lon="9.535291"><ele>148.28571428571428</ele><time>2026-04-10T13:09:42.057Z</time></trkpt><trkpt lat="45.5965599" lon="9.535308"><ele>148.0</ele><time>2026-04-10T13:09:43.056Z</time></trkpt><trkpt lat="45.5964945" lon="9.5353298"><ele>148.0</ele><time>2026-04-10T13:09:44.057Z</time></trkpt><trkpt lat="45.5964263" lon="9.5353505"><ele>148.0</ele><time>2026-04-10T13:09:45.057Z</time></trkpt><trkpt lat="45.5963564" lon="9.5353826"><ele>148.0</ele><time>2026-04-10T13:09:46.057Z</time></trkpt><trkpt lat="45.596294" lon="9.5354089"><ele>148.0</ele><time>2026-04-10T13:09:47.056Z</time></trkpt><trkpt lat="45.5962298" lon="9.5354162"><ele>148.0</ele><time>2026-04-10T13:09:48.057Z</time></trkpt><trkpt lat="45.5961594" lon="9.5354336"><ele>148.0</ele><time>2026-04-10T13:09:49.057Z</time></trkpt><trkpt lat="45.5960837" lon="9.5354375"><ele>148.0</ele><time>2026-04-10T13:09:50.057Z</time></trkpt><trkpt lat="45.5960163" lon="9.5354566"><ele>148.28571428571428</ele><time>2026-04-10T13:09:51.057Z</time></trkpt><trkpt lat="45.5959464" lon="9.5354707"><ele>148.57142857142856</ele><time>2026-04-10T13:09:52.057Z</time></trkpt><trkpt lat="45.5958775" lon="9.5354826"><ele>148.85714285714283</ele><time>2026-04-10T13:09:53.057Z</time></trkpt><trkpt lat="45.5958043" lon="9.5354896"><ele>149.14285714285714</ele><time>2026-04-10T13:09:54.057Z</time></trkpt><trkpt lat="45.59573" lon="9.5355109"><ele>149.42857142857142</ele><time>2026-04-10T13:09:55.057Z</time></trkpt><trkpt lat="45.5956593" lon="9.5355238"><ele>149.7142857142857</ele><time>2026-04-10T13:09:56.056Z</time></trkpt><trkpt lat="45.5955897" lon="9.5355274"><ele>150.0</ele><time>2026-04-10T13:09:57.056Z</time></trkpt><trkpt lat="45.5955192" lon="9.5355372"><ele>149.99999999999997</ele><time>2026-04-10T13:09:58.056Z</time></trkpt><trkpt lat="45.5954466" lon="9.5355483"><ele>150.0</ele><time>2026-04-10T13:09:59.057Z</time></trkpt><trkpt lat="45.5953798" lon="9.5355573"><ele>150.0</ele><time>2026-04-10T13:10:00.056Z</time></trkpt><trkpt lat="45.5953165" lon="9.5355602"><ele>150.0</ele><time>2026-04-10T13:10:01.056Z</time></trkpt><trkpt lat="45.5952467" lon="9.5355784"><ele>150.0</ele><time>2026-04-10T13:10:02.057Z</time></trkpt><trkpt lat="45.5951807" lon="9.5355982"><ele>149.99999999999997</ele><time>2026-04-10T13:10:03.057Z</time></trkpt><trkpt lat="45.5951178" lon="9.5356199"><ele>150.0</ele><time>2026-04-10T13:10:04.057Z</time></trkpt><trkpt lat="45.595043" lon="9.5356287"><ele>150.14285714285714</ele><time>2026-04-10T13:10:05.057Z</time></trkpt><trkpt lat="45.5949752" lon="9.5356393"><ele>150.28571428571428</ele><time>2026-04-10T13:10:06.057Z</time></trkpt><trkpt lat="45.5949106" lon="9.5356578"><ele>150.42857142857144</ele><time>2026-04-10T13:10:07.057Z</time></trkpt><trkpt lat="45.5948356" lon="9.5356789"><ele>150.57142857142856</ele><time>2026-04-10T13:10:08.057Z</time></trkpt><trkpt lat="45.5947694" lon="9.535694"><ele>150.71428571428572</ele><time>2026-04-10T13:10:09.057Z</time></trkpt><trkpt lat="45.5946975" lon="9.5357166"><ele>150.85714285714286</ele><time>2026-04-10T13:10:10.056Z</time></trkpt><trkpt lat="45.5946234" lon="9.5357246"><ele>151.0</ele><time>2026-04-10T13:10:11.057Z</time></trkpt><trkpt lat="45.5945512" lon="9.5357402"><ele>151.00000000000003</ele><time>2026-04-10T13:10:12.057Z</time></trkpt><trkpt lat="45.5944807" lon="9.5357502"><ele>151.0</ele><time>2026-04-10T13:10:13.057Z</time></trkpt><trkpt lat="45.5944131" lon="9.535763"><ele>151.0</ele><time>2026-04-10T13:10:14.057Z</time></trkpt><trkpt lat="45.5943408" lon="9.5357804"><ele>151.0</ele><time>2026-04-10T13:10:15.056Z</time></trkpt><trkpt lat="45.5942676" lon="9.5357942"><ele>151.0</ele><time>2026-04-10T13:10:16.057Z</time></trkpt><trkpt lat="45.594193" lon="9.5358151"><ele>151.00000000000003</ele><time>2026-04-10T13:10:17.057Z</time></trkpt><trkpt lat="45.5941212" lon="9.5358318"><ele>151.0</ele><time>2026-04-10T13:10:18.057Z</time></trkpt><trkpt lat="45.594048" lon="9.5358486"><ele>151.00000000000003</ele><time>2026-04-10T13:10:19.057Z</time></trkpt><trkpt lat="45.5939754" lon="9.5358615"><ele>151.0</ele><time>2026-04-10T13:10:20.057Z</time></trkpt><trkpt lat="45.5938998" lon="9.5358727"><ele>151.0</ele><time>2026-04-10T13:10:21.057Z</time></trkpt><trkpt lat="45.5938291" lon="9.5358857"><ele>151.0</ele><time>2026-04-10T13:10:22.057Z</time></trkpt><trkpt lat="45.5937528" lon="9.5359133"><ele>151.0</ele><time>2026-04-10T13:10:23.057Z</time></trkpt><trkpt lat="45.5936772" lon="9.5359317"><ele>151.00000000000003</ele><time>2026-04-10T13:10:24.057Z</time></trkpt><trkpt lat="45.5936065" lon="9.5359496"><ele>151.0</ele><time>2026-04-10T13:10:25.057Z</time></trkpt><trkpt lat="45.5935405" lon="9.5359594"><ele>151.00000000000003</ele><time>2026-04-10T13:10:26.057Z</time></trkpt><trkpt lat="45.5934731" lon="9.5359719"><ele>151.0</ele><time>2026-04-10T13:10:27.056Z</time></trkpt><trkpt lat="45.5933977" lon="9.5359883"><ele>151.0</ele><time>2026-04-10T13:10:28.056Z</time></trkpt><trkpt lat="45.5933221" lon="9.5359926"><ele>151.0</ele><time>2026-04-10T13:10:29.057Z</time></trkpt><trkpt lat="45.5932533" lon="9.5359998"><ele>151.0</ele><time>2026-04-10T13:10:30.056Z</time></trkpt><trkpt lat="45.5931798" lon="9.5360269"><ele>151.00000000000003</ele><time>2026-04-10T13:10:31.057Z</time></trkpt><trkpt lat="45.5931036" lon="9.536034"><ele>151.0</ele><time>2026-04-10T13:10:32.056Z</time></trkpt><trkpt lat="45.593035" lon="9.5360543"><ele>151.0</ele><time>2026-04-10T13:10:33.057Z</time></trkpt><trkpt lat="45.5929475" lon="9.5360625"><ele>151.0</ele><time>2026-04-10T13:10:34.057Z</time></trkpt><trkpt lat="45.592872" lon="9.5360741"><ele>151.0</ele><time>2026-04-10T13:10:35.057Z</time></trkpt><trkpt lat="45.5928008" lon="9.5360826"><ele>151.0</ele><time>2026-04-10T13:10:36.056Z</time></trkpt><trkpt lat="45.5926875" lon="9.5361116"><ele>151.0</ele><time>2026-04-10T13:10:38.057Z</time></trkpt><trkpt lat="45.5926132" lon="9.5361218"><ele>151.0</ele><time>2026-04-10T13:10:39.056Z</time></trkpt><trkpt lat="45.5925285" lon="9.5361361"><ele>151.16666666666669</ele><time>2026-04-10T13:10:40.056Z</time></trkpt><trkpt lat="45.5924544" lon="9.5361451"><ele>151.33333333333334</ele><time>2026-04-10T13:10:41.057Z</time></trkpt><trkpt lat="45.592374" lon="9.536153"><ele>151.5</ele><time>2026-04-10T13:10:42.057Z</time></trkpt><trkpt lat="45.5922993" lon="9.5361729"><ele>151.66666666666666</ele><time>2026-04-10T13:10:43.057Z</time></trkpt><trkpt lat="45.5922289" lon="9.536193"><ele>151.83333333333331</ele><time>2026-04-10T13:10:44.057Z</time></trkpt><trkpt lat="45.5921529" lon="9.5362036"><ele>152.0</ele><time>2026-04-10T13:10:45.056Z</time></trkpt><trkpt lat="45.5920633" lon="9.5362268"><ele>151.83333333333331</ele><time>2026-04-10T13:10:46.057Z</time></trkpt><trkpt lat="45.5919878" lon="9.5362393"><ele>151.66666666666666</ele><time>2026-04-10T13:10:47.057Z</time></trkpt><trkpt lat="45.5918995" lon="9.536263"><ele>151.5</ele><time>2026-04-10T13:10:48.057Z</time></trkpt><trkpt lat="45.5918103" lon="9.5362651"><ele>151.33333333333334</ele><time>2026-04-10T13:10:49.057Z</time></trkpt><trkpt lat="45.5917233" lon="9.5362931"><ele>151.16666666666669</ele><time>2026-04-10T13:10:50.056Z</time></trkpt><trkpt lat="45.5916443" lon="9.5363223"><ele>151.0</ele><time>2026-04-10T13:10:51.057Z</time></trkpt><trkpt lat="45.5915693" lon="9.5363353"><ele>151.0</ele><time>2026-04-10T13:10:52.057Z</time></trkpt><trkpt lat="45.5914905" lon="9.5363518"><ele>151.0</ele><time>2026-04-10T13:10:53.057Z</time></trkpt><trkpt lat="45.5914269" lon="9.5363689"><ele>151.0</ele><time>2026-04-10T13:10:54.057Z</time></trkpt><trkpt lat="45.5912936" lon="9.536408"><ele>151.0</ele><time>2026-04-10T13:10:56.057Z</time></trkpt><trkpt lat="45.5912231" lon="9.5364191"><ele>151.0</ele><time>2026-04-10T13:10:57.057Z</time></trkpt><trkpt lat="45.5911457" lon="9.5364217"><ele>151.0</ele><time>2026-04-10T13:10:58.057Z</time></trkpt><trkpt lat="45.5910607" lon="9.5364353"><ele>150.00000000000003</ele><time>2026-04-10T13:10:59.057Z</time></trkpt><trkpt lat="45.5909875" lon="9.5364541"><ele>149.0</ele><time>2026-04-10T13:11:00.057Z</time></trkpt><trkpt lat="45.5909103" lon="9.5364743"><ele>148.0</ele><time>2026-04-10T13:11:01.057Z</time></trkpt><trkpt lat="45.5908351" lon="9.5364963"><ele>147.0</ele><time>2026-04-10T13:11:02.057Z</time></trkpt><trkpt lat="45.5907595" lon="9.536513"><ele>146.0</ele><time>2026-04-10T13:11:03.057Z</time></trkpt><trkpt lat="45.5906921" lon="9.5365383"><ele>145.00000000000003</ele><time>2026-04-10T13:11:04.057Z</time></trkpt><trkpt lat="45.5906224" lon="9.5365566"><ele>144.0</ele><time>2026-04-10T13:11:05.057Z</time></trkpt><trkpt lat="45.5905477" lon="9.53657"><ele>144.00000000000003</ele><time>2026-04-10T13:11:06.057Z</time></trkpt><trkpt lat="45.5904807" lon="9.5365798"><ele>144.0</ele><time>2026-04-10T13:11:07.057Z</time></trkpt><trkpt lat="45.5904137" lon="9.5365913"><ele>144.0</ele><time>2026-04-10T13:11:08.056Z</time></trkpt><trkpt lat="45.5903496" lon="9.5366006"><ele>144.0</ele><time>2026-04-10T13:11:09.056Z</time></trkpt><trkpt lat="45.5902734" lon="9.5366227"><ele>144.0</ele><time>2026-04-10T13:11:10.057Z</time></trkpt><trkpt lat="45.5902147" lon="9.5366612"><ele>144.00000000000003</ele><time>2026-04-10T13:11:11.056Z</time></trkpt><trkpt lat="45.5901918" lon="9.5367847"><ele>144.0</ele><time>2026-04-10T13:11:13.056Z</time></trkpt><trkpt lat="45.5901872" lon="9.536938"><ele>144.0</ele><time>2026-04-10T13:11:15.057Z</time></trkpt><trkpt lat="45.5901873" lon="9.5370838"><ele>144.0</ele><time>2026-04-10T13:11:17.057Z</time></trkpt><trkpt lat="45.5902335" lon="9.5372174"><ele>144.0</ele><time>2026-04-10T13:11:19.057Z</time></trkpt><trkpt lat="45.5902717" lon="9.5373176"><ele>144.0</ele><time>2026-04-10T13:11:22.057Z</time></trkpt><trkpt lat="45.5902342" lon="9.5373913"><ele>144.0</ele><time>2026-04-10T13:11:26.057Z</time></trkpt><trkpt lat="45.5901558" lon="9.5373689"><ele>144.0</ele><time>2026-04-10T13:11:29.057Z</time></trkpt><trkpt lat="45.5900812" lon="9.537378"><ele>144.0</ele><time>2026-04-10T13:11:31.057Z</time></trkpt><trkpt lat="45.5899882" lon="9.5373888"><ele>144.0</ele><time>2026-04-10T13:11:32.056Z</time></trkpt><trkpt lat="45.5898831" lon="9.5374312"><ele>144.0</ele><time>2026-04-10T13:11:34.056Z</time></trkpt><trkpt lat="45.5898327" lon="9.5375421"><ele>144.0</ele><time>2026-04-10T13:11:36.057Z</time></trkpt><trkpt lat="45.5898007" lon="9.5376215"><ele>144.0</ele><time>2026-04-10T13:11:37.057Z</time></trkpt><trkpt lat="45.5897856" lon="9.5377779"><ele>143.2</ele><time>2026-04-10T13:11:39.056Z</time></trkpt><trkpt lat="45.5897894" lon="9.5379443"><ele>142.4</ele><time>2026-04-10T13:11:41.057Z</time></trkpt><trkpt lat="45.5898093" lon="9.5380364"><ele>141.6</ele><time>2026-04-10T13:11:42.057Z</time></trkpt><trkpt lat="45.5898261" lon="9.5382"><ele>140.8</ele><time>2026-04-10T13:11:44.057Z</time></trkpt><trkpt lat="45.58987" lon="9.5383418"><ele>140.0</ele><time>2026-04-10T13:11:46.057Z</time></trkpt><trkpt lat="45.5899001" lon="9.5385457"><ele>140.0</ele><time>2026-04-10T13:11:48.056Z</time></trkpt><trkpt lat="45.5899539" lon="9.5387159"><ele>140.0</ele><time>2026-04-10T13:11:50.056Z</time></trkpt><trkpt lat="45.5899788" lon="9.5387986"><ele>140.0</ele><time>2026-04-10T13:11:51.057Z</time></trkpt><trkpt lat="45.5900202" lon="9.5388769"><ele>140.0</ele><time>2026-04-10T13:11:52.057Z</time></trkpt><trkpt lat="45.5900754" lon="9.539025"><ele>140.0</ele><time>2026-04-10T13:11:54.057Z</time></trkpt><trkpt lat="45.5900924" lon="9.5391137"><ele>140.0</ele><time>2026-04-10T13:11:55.056Z</time></trkpt><trkpt lat="45.5901421" lon="9.5392805"><ele>139.66666666666666</ele><time>2026-04-10T13:11:57.056Z</time></trkpt><trkpt lat="45.5901648" lon="9.5393691"><ele>139.33333333333331</ele><time>2026-04-10T13:11:58.057Z</time></trkpt><trkpt lat="45.5901842" lon="9.5394591"><ele>139.0</ele><time>2026-04-10T13:11:59.057Z</time></trkpt><trkpt lat="45.590209" lon="9.5395579"><ele>138.66666666666666</ele><time>2026-04-10T13:12:00.057Z</time></trkpt><trkpt lat="45.5902312" lon="9.5397131"><ele>138.33333333333334</ele><time>2026-04-10T13:12:02.057Z</time></trkpt><trkpt lat="45.590185" lon="9.5398533"><ele>138.0</ele><time>2026-04-10T13:12:04.056Z</time></trkpt><trkpt lat="45.5900827" lon="9.539937"><ele>137.66666666666666</ele><time>2026-04-10T13:12:06.057Z</time></trkpt><trkpt lat="45.5900004" lon="9.5399701"><ele>137.33333333333334</ele><time>2026-04-10T13:12:08.057Z</time></trkpt><trkpt lat="45.5899402" lon="9.5399309"><ele>137.0</ele><time>2026-04-10T13:12:09.057Z</time></trkpt><trkpt lat="45.5898265" lon="9.5398486"><ele>136.66666666666669</ele><time>2026-04-10T13:12:11.057Z</time></trkpt><trkpt lat="45.589785" lon="9.5397791"><ele>136.33333333333334</ele><time>2026-04-10T13:12:12.057Z</time></trkpt><trkpt lat="45.5897482" lon="9.5397"><ele>136.0</ele><time>2026-04-10T13:12:13.057Z</time></trkpt><trkpt lat="45.5897103" lon="9.5396224"><ele>136.0</ele><time>2026-04-10T13:12:14.057Z</time></trkpt><trkpt lat="45.589644" lon="9.5395061"><ele>136.0</ele><time>2026-04-10T13:12:16.057Z</time></trkpt><trkpt lat="45.589544" lon="9.539467"><ele>136.0</ele><time>2026-04-10T13:12:18.057Z</time></trkpt><trkpt lat="45.5894265" lon="9.5394959"><ele>136.0</ele><time>2026-04-10T13:12:20.057Z</time></trkpt><trkpt lat="45.5893638" lon="9.5395453"><ele>136.0</ele><time>2026-04-10T13:12:21.057Z</time></trkpt><trkpt lat="45.5893049" lon="9.5395841"><ele>136.2</ele><time>2026-04-10T13:12:22.057Z</time></trkpt><trkpt lat="45.5892441" lon="9.5396273"><ele>136.39999999999998</ele><time>2026-04-10T13:12:23.057Z</time></trkpt><trkpt lat="45.5891787" lon="9.5396681"><ele>136.6</ele><time>2026-04-10T13:12:24.057Z</time></trkpt><trkpt lat="45.5890657" lon="9.5396818"><ele>136.79999999999998</ele><time>2026-04-10T13:12:26.056Z</time></trkpt><trkpt lat="45.5889665" lon="9.5397457"><ele>137.0</ele><time>2026-04-10T13:12:28.056Z</time></trkpt><trkpt lat="45.5888466" lon="9.5397954"><ele>137.0</ele><time>2026-04-10T13:12:30.056Z</time></trkpt><trkpt lat="45.5887374" lon="9.5398875"><ele>137.0</ele><time>2026-04-10T13:12:32.057Z</time></trkpt><trkpt lat="45.5886288" lon="9.5399716"><ele>137.0</ele><time>2026-04-10T13:12:34.057Z</time></trkpt><trkpt lat="45.5885649" lon="9.5400021"><ele>137.0</ele><time>2026-04-10T13:12:35.056Z</time></trkpt><trkpt lat="45.5885056" lon="9.5400513"><ele>137.0</ele><time>2026-04-10T13:12:36.057Z</time></trkpt><trkpt lat="45.5884522" lon="9.5401078"><ele>136.4</ele><time>2026-04-10T13:12:37.057Z</time></trkpt><trkpt lat="45.5883689" lon="9.5402417"><ele>135.79999999999998</ele><time>2026-04-10T13:12:39.057Z</time></trkpt><trkpt lat="45.5882972" lon="9.5403689"><ele>135.2</ele><time>2026-04-10T13:12:41.057Z</time></trkpt><trkpt lat="45.5882324" lon="9.5404683"><ele>134.6</ele><time>2026-04-10T13:12:43.057Z</time></trkpt><trkpt lat="45.5881826" lon="9.5405824"><ele>134.0</ele><time>2026-04-10T13:12:45.057Z</time></trkpt><trkpt lat="45.5881814" lon="9.5407029"><ele>134.0</ele><time>2026-04-10T13:12:47.056Z</time></trkpt><trkpt lat="45.5881867" lon="9.5408433"><ele>134.0</ele><time>2026-04-10T13:12:49.057Z</time></trkpt><trkpt lat="45.5882124" lon="9.540982"><ele>134.0</ele><time>2026-04-10T13:12:51.057Z</time></trkpt><trkpt lat="45.5882659" lon="9.5411276"><ele>134.0</ele><time>2026-04-10T13:12:53.057Z</time></trkpt><trkpt lat="45.5883254" lon="9.5412744"><ele>134.0</ele><time>2026-04-10T13:12:55.057Z</time></trkpt><trkpt lat="45.5883549" lon="9.5413566"><ele>134.0</ele><time>2026-04-10T13:12:56.057Z</time></trkpt><trkpt lat="45.5884153" lon="9.5414989"><ele>134.0</ele><time>2026-04-10T13:12:58.057Z</time></trkpt><trkpt lat="45.5884741" lon="9.5416452"><ele>134.0</ele><time>2026-04-10T13:13:00.057Z</time></trkpt><trkpt lat="45.588523" lon="9.5417959"><ele>134.0</ele><time>2026-04-10T13:13:02.057Z</time></trkpt><trkpt lat="45.5885747" lon="9.5419604"><ele>134.0</ele><time>2026-04-10T13:13:04.056Z</time></trkpt><trkpt lat="45.5886014" lon="9.542053"><ele>134.0</ele><time>2026-04-10T13:13:05.057Z</time></trkpt><trkpt lat="45.588632" lon="9.5421356"><ele>134.0</ele><time>2026-04-10T13:13:06.057Z</time></trkpt><trkpt lat="45.5886632" lon="9.542221"><ele>134.0</ele><time>2026-04-10T13:13:07.057Z</time></trkpt><trkpt lat="45.5886967" lon="9.5423042"><ele>134.0</ele><time>2026-04-10T13:13:08.056Z</time></trkpt><trkpt lat="45.5887353" lon="9.5423816"><ele>134.0</ele><time>2026-04-10T13:13:09.057Z</time></trkpt><trkpt lat="45.5887736" lon="9.5424547"><ele>134.0</ele><time>2026-04-10T13:13:10.057Z</time></trkpt><trkpt lat="45.588805" lon="9.5425351"><ele>134.0</ele><time>2026-04-10T13:13:11.057Z</time></trkpt><trkpt lat="45.5888308" lon="9.5426174"><ele>134.0</ele><time>2026-04-10T13:13:12.057Z</time></trkpt><trkpt lat="45.5888555" lon="9.5427039"><ele>134.0</ele><time>2026-04-10T13:13:13.057Z</time></trkpt><trkpt lat="45.5888817" lon="9.5427962"><ele>134.0</ele><time>2026-04-10T13:13:14.057Z</time></trkpt><trkpt lat="45.5889071" lon="9.5428799"><ele>134.0</ele><time>2026-04-10T13:13:15.057Z</time></trkpt><trkpt lat="45.5889414" lon="9.5429714"><ele>134.0</ele><time>2026-04-10T13:13:16.056Z</time></trkpt><trkpt lat="45.5889683" lon="9.5430539"><ele>134.0</ele><time>2026-04-10T13:13:17.057Z</time></trkpt><trkpt lat="45.5890024" lon="9.543132"><ele>133.66666666666666</ele><time>2026-04-10T13:13:18.057Z</time></trkpt><trkpt lat="45.5890259" lon="9.5432214"><ele>133.33333333333331</ele><time>2026-04-10T13:13:19.056Z</time></trkpt><trkpt lat="45.5890718" lon="9.5433857"><ele>133.0</ele><time>2026-04-10T13:13:21.057Z</time></trkpt><trkpt lat="45.5891105" lon="9.543461"><ele>132.66666666666666</ele><time>2026-04-10T13:13:22.057Z</time></trkpt><trkpt lat="45.589142" lon="9.5435427"><ele>132.33333333333334</ele><time>2026-04-10T13:13:23.057Z</time></trkpt><trkpt lat="45.5891732" lon="9.5436323"><ele>132.0</ele><time>2026-04-10T13:13:24.057Z</time></trkpt><trkpt lat="45.5892139" lon="9.5437217"><ele>132.57142857142856</ele><time>2026-04-10T13:13:25.057Z</time></trkpt><trkpt lat="45.5892345" lon="9.5438074"><ele>133.14285714285714</ele><time>2026-04-10T13:13:26.056Z</time></trkpt><trkpt lat="45.5892663" lon="9.5438884"><ele>133.71428571428572</ele><time>2026-04-10T13:13:27.057Z</time></trkpt><trkpt lat="45.5892956" lon="9.5439847"><ele>134.28571428571428</ele><time>2026-04-10T13:13:28.057Z</time></trkpt><trkpt lat="45.5893254" lon="9.5440682"><ele>134.85714285714286</ele><time>2026-04-10T13:13:29.056Z</time></trkpt><trkpt lat="45.5893459" lon="9.5441559"><ele>135.42857142857142</ele><time>2026-04-10T13:13:30.057Z</time></trkpt><trkpt lat="45.5893771" lon="9.5442371"><ele>136.0</ele><time>2026-04-10T13:13:31.057Z</time></trkpt><trkpt lat="45.5893999" lon="9.5443228"><ele>136.0</ele><time>2026-04-10T13:13:32.056Z</time></trkpt><trkpt lat="45.5894229" lon="9.5444266"><ele>136.0</ele><time>2026-04-10T13:13:33.057Z</time></trkpt><trkpt lat="45.5894686" lon="9.5445843"><ele>136.0</ele><time>2026-04-10T13:13:35.056Z</time></trkpt><trkpt lat="45.5894935" lon="9.5446823"><ele>136.0</ele><time>2026-04-10T13:13:36.057Z</time></trkpt><trkpt lat="45.5895187" lon="9.5447666"><ele>136.0</ele><time>2026-04-10T13:13:37.057Z</time></trkpt><trkpt lat="45.589569" lon="9.5449322"><ele>136.16666666666669</ele><time>2026-04-10T13:13:39.057Z</time></trkpt><trkpt lat="45.5896087" lon="9.5450102"><ele>136.33333333333334</ele><time>2026-04-10T13:13:40.057Z</time></trkpt><trkpt lat="45.5896823" lon="9.5451546"><ele>136.5</ele><time>2026-04-10T13:13:42.057Z</time></trkpt><trkpt lat="45.5897201" lon="9.545239"><ele>136.66666666666666</ele><time>2026-04-10T13:13:43.056Z</time></trkpt><trkpt lat="45.5897557" lon="9.5453309"><ele>136.83333333333331</ele><time>2026-04-10T13:13:44.057Z</time></trkpt><trkpt lat="45.5897905" lon="9.5454113"><ele>137.0</ele><time>2026-04-10T13:13:45.057Z</time></trkpt><trkpt lat="45.5898228" lon="9.5455005"><ele>137.16666666666666</ele><time>2026-04-10T13:13:46.057Z</time></trkpt><trkpt lat="45.5898468" lon="9.5455911"><ele>137.33333333333331</ele><time>2026-04-10T13:13:47.057Z</time></trkpt><trkpt lat="45.5898811" lon="9.5457536"><ele>137.5</ele><time>2026-04-10T13:13:49.057Z</time></trkpt><trkpt lat="45.5898987" lon="9.5458411"><ele>137.66666666666666</ele><time>2026-04-10T13:13:50.057Z</time></trkpt><trkpt lat="45.5899176" lon="9.5459286"><ele>137.83333333333334</ele><time>2026-04-10T13:13:51.057Z</time></trkpt><trkpt lat="45.5899312" lon="9.5460285"><ele>138.0</ele><time>2026-04-10T13:13:52.057Z</time></trkpt><trkpt lat="45.5899523" lon="9.5461273"><ele>138.14285714285714</ele><time>2026-04-10T13:13:53.057Z</time></trkpt><trkpt lat="45.5899677" lon="9.546221"><ele>138.2857142857143</ele><time>2026-04-10T13:13:54.057Z</time></trkpt><trkpt lat="45.5899871" lon="9.5463163"><ele>138.42857142857144</ele><time>2026-04-10T13:13:55.057Z</time></trkpt><trkpt lat="45.590002" lon="9.546418"><ele>138.57142857142858</ele><time>2026-04-10T13:13:56.056Z</time></trkpt><trkpt lat="45.5900097" lon="9.5465229"><ele>138.71428571428572</ele><time>2026-04-10T13:13:57.057Z</time></trkpt><trkpt lat="45.5900212" lon="9.5466245"><ele>138.85714285714286</ele><time>2026-04-10T13:13:58.057Z</time></trkpt><trkpt lat="45.5900275" lon="9.5467223"><ele>139.0</ele><time>2026-04-10T13:13:59.057Z</time></trkpt><trkpt lat="45.5900534" lon="9.5468229"><ele>139.0</ele><time>2026-04-10T13:14:00.057Z</time></trkpt><trkpt lat="45.5900761" lon="9.5469259"><ele>139.0</ele><time>2026-04-10T13:14:01.057Z</time></trkpt><trkpt lat="45.5900842" lon="9.5470248"><ele>139.0</ele><time>2026-04-10T13:14:02.057Z</time></trkpt><trkpt lat="45.5900949" lon="9.5471161"><ele>139.0</ele><time>2026-04-10T13:14:03.057Z</time></trkpt><trkpt lat="45.5901175" lon="9.5472132"><ele>139.0</ele><time>2026-04-10T13:14:04.056Z</time></trkpt><trkpt lat="45.5901429" lon="9.5473016"><ele>139.0</ele><time>2026-04-10T13:14:05.057Z</time></trkpt><trkpt lat="45.5901669" lon="9.5474014"><ele>139.0</ele><time>2026-04-10T13:14:06.057Z</time></trkpt><trkpt lat="45.5901885" lon="9.5474868"><ele>138.83333333333334</ele><time>2026-04-10T13:14:07.057Z</time></trkpt><trkpt lat="45.5902081" lon="9.547583"><ele>138.66666666666669</ele><time>2026-04-10T13:14:08.056Z</time></trkpt><trkpt lat="45.5902259" lon="9.5476847"><ele>138.5</ele><time>2026-04-10T13:14:09.057Z</time></trkpt><trkpt lat="45.5902313" lon="9.5477753"><ele>138.33333333333334</ele><time>2026-04-10T13:14:10.057Z</time></trkpt><trkpt lat="45.5902437" lon="9.5479457"><ele>138.16666666666666</ele><time>2026-04-10T13:14:12.057Z</time></trkpt><trkpt lat="45.5902509" lon="9.54804"><ele>138.0</ele><time>2026-04-10T13:14:13.057Z</time></trkpt><trkpt lat="45.5902541" lon="9.5481325"><ele>137.85714285714286</ele><time>2026-04-10T13:14:14.057Z</time></trkpt><trkpt lat="45.5902609" lon="9.548226"><ele>137.71428571428572</ele><time>2026-04-10T13:14:15.057Z</time></trkpt><trkpt lat="45.5902657" lon="9.5483184"><ele>137.57142857142858</ele><time>2026-04-10T13:14:16.057Z</time></trkpt><trkpt lat="45.5902685" lon="9.5484158"><ele>137.42857142857144</ele><time>2026-04-10T13:14:17.057Z</time></trkpt><trkpt lat="45.5902731" lon="9.548506"><ele>137.28571428571428</ele><time>2026-04-10T13:14:18.057Z</time></trkpt><trkpt lat="45.5902871" lon="9.5486082"><ele>137.14285714285717</ele><time>2026-04-10T13:14:19.057Z</time></trkpt><trkpt lat="45.5903044" lon="9.5487047"><ele>137.0</ele><time>2026-04-10T13:14:20.057Z</time></trkpt><trkpt lat="45.5903287" lon="9.5487972"><ele>137.0</ele><time>2026-04-10T13:14:21.057Z</time></trkpt><trkpt lat="45.5903468" lon="9.5489015"><ele>137.0</ele><time>2026-04-10T13:14:22.057Z</time></trkpt><trkpt lat="45.5903605" lon="9.5490058"><ele>137.0</ele><time>2026-04-10T13:14:23.056Z</time></trkpt><trkpt lat="45.5903567" lon="9.549103"><ele>137.0</ele><time>2026-04-10T13:14:24.057Z</time></trkpt><trkpt lat="45.5903347" lon="9.5492737"><ele>137.0</ele><time>2026-04-10T13:14:26.057Z</time></trkpt><trkpt lat="45.5903255" lon="9.549416"><ele>137.0</ele><time>2026-04-10T13:14:28.057Z</time></trkpt><trkpt lat="45.5903419" lon="9.5495741"><ele>137.75</ele><time>2026-04-10T13:14:30.057Z</time></trkpt><trkpt lat="45.5903894" lon="9.5497288"><ele>138.5</ele><time>2026-04-10T13:14:32.057Z</time></trkpt><trkpt lat="45.5904513" lon="9.5498996"><ele>139.25</ele><time>2026-04-10T13:14:34.057Z</time></trkpt><trkpt lat="45.5905163" lon="9.5500517"><ele>140.0</ele><time>2026-04-10T13:14:36.057Z</time></trkpt><trkpt lat="45.5905474" lon="9.5501798"><ele>140.0</ele><time>2026-04-10T13:14:38.057Z</time></trkpt><trkpt lat="45.5906072" lon="9.5503114"><ele>140.0</ele><time>2026-04-10T13:14:40.057Z</time></trkpt><trkpt lat="45.5906656" lon="9.5504586"><ele>140.0</ele><time>2026-04-10T13:14:42.057Z</time></trkpt><trkpt lat="45.590715" lon="9.5506102"><ele>140.0</ele><time>2026-04-10T13:14:44.057Z</time></trkpt><trkpt lat="45.5907595" lon="9.5507621"><ele>139.8</ele><time>2026-04-10T13:14:46.057Z</time></trkpt><trkpt lat="45.5907859" lon="9.5509221"><ele>139.6</ele><time>2026-04-10T13:14:48.057Z</time></trkpt><trkpt lat="45.5908088" lon="9.5510878"><ele>139.4</ele><time>2026-04-10T13:14:50.057Z</time></trkpt><trkpt lat="45.5908326" lon="9.5512693"><ele>139.2</ele><time>2026-04-10T13:14:52.057Z</time></trkpt><trkpt lat="45.5908553" lon="9.5513607"><ele>139.0</ele><time>2026-04-10T13:14:53.057Z</time></trkpt><trkpt lat="45.5908701" lon="9.5514632"><ele>139.0</ele><time>2026-04-10T13:14:54.057Z</time></trkpt><trkpt lat="45.5909231" lon="9.5516373"><ele>139.0</ele><time>2026-04-10T13:14:56.057Z</time></trkpt><trkpt lat="45.5909566" lon="9.551731"><ele>139.0</ele><time>2026-04-10T13:14:57.057Z</time></trkpt><trkpt lat="45.5910014" lon="9.5518049"><ele>139.0</ele><time>2026-04-10T13:14:58.057Z</time></trkpt><trkpt lat="45.5910397" lon="9.551888"><ele>139.0</ele><time>2026-04-10T13:14:59.057Z</time></trkpt><trkpt lat="45.5910873" lon="9.5519555"><ele>139.0</ele><time>2026-04-10T13:15:00.057Z</time></trkpt><trkpt lat="45.591153" lon="9.5520037"><ele>139.0</ele><time>2026-04-10T13:15:01.056Z</time></trkpt><trkpt lat="45.5912025" lon="9.5520667"><ele>139.0</ele><time>2026-04-10T13:15:02.057Z</time></trkpt><trkpt lat="45.5912494" lon="9.5521398"><ele>139.0</ele><time>2026-04-10T13:15:03.057Z</time></trkpt><trkpt lat="45.5913548" lon="9.5522403"><ele>139.0</ele><time>2026-04-10T13:15:05.056Z</time></trkpt><trkpt lat="45.5914089" lon="9.5522885"><ele>139.0</ele><time>2026-04-10T13:15:06.057Z</time></trkpt><trkpt lat="45.5914614" lon="9.5523452"><ele>139.0</ele><time>2026-04-10T13:15:07.057Z</time></trkpt><trkpt lat="45.5915256" lon="9.5523895"><ele>139.0</ele><time>2026-04-10T13:15:08.057Z</time></trkpt><trkpt lat="45.5915848" lon="9.5524225"><ele>139.0</ele><time>2026-04-10T13:15:09.056Z</time></trkpt><trkpt lat="45.5917085" lon="9.5524932"><ele>139.0</ele><time>2026-04-10T13:15:11.057Z</time></trkpt><trkpt lat="45.5918041" lon="9.5526153"><ele>139.0</ele><time>2026-04-10T13:15:13.057Z</time></trkpt><trkpt lat="45.5918583" lon="9.5526706"><ele>139.0</ele><time>2026-04-10T13:15:14.057Z</time></trkpt><trkpt lat="45.5919175" lon="9.5527048"><ele>139.2</ele><time>2026-04-10T13:15:15.057Z</time></trkpt><trkpt lat="45.5920231" lon="9.5527166"><ele>139.4</ele><time>2026-04-10T13:15:17.056Z</time></trkpt><trkpt lat="45.5921161" lon="9.55266"><ele>139.6</ele><time>2026-04-10T13:15:19.057Z</time></trkpt><trkpt lat="45.5921795" lon="9.552656"><ele>139.8</ele><time>2026-04-10T13:15:20.057Z</time></trkpt><trkpt lat="45.5922853" lon="9.5527254"><ele>140.0</ele><time>2026-04-10T13:15:22.057Z</time></trkpt><trkpt lat="45.5923754" lon="9.5528181"><ele>140.0</ele><time>2026-04-10T13:15:24.057Z</time></trkpt><trkpt lat="45.5924391" lon="9.5528325"><ele>140.0</ele><time>2026-04-10T13:15:25.057Z</time></trkpt><trkpt lat="45.5925116" lon="9.5528719"><ele>140.0</ele><time>2026-04-10T13:15:26.057Z</time></trkpt><trkpt lat="45.5926277" lon="9.5528796"><ele>140.0</ele><time>2026-04-10T13:15:28.057Z</time></trkpt><trkpt lat="45.5927352" lon="9.5529593"><ele>140.0</ele><time>2026-04-10T13:15:30.057Z</time></trkpt><trkpt lat="45.5928556" lon="9.5530099"><ele>140.0</ele><time>2026-04-10T13:15:32.057Z</time></trkpt><trkpt lat="45.5929707" lon="9.5530569"><ele>140.0</ele><time>2026-04-10T13:15:34.057Z</time></trkpt><trkpt lat="45.5930338" lon="9.5530727"><ele>140.0</ele><time>2026-04-10T13:15:35.057Z</time></trkpt><trkpt lat="45.5931439" lon="9.5531446"><ele>140.0</ele><time>2026-04-10T13:15:37.057Z</time></trkpt><trkpt lat="45.5932659" lon="9.5531995"><ele>140.0</ele><time>2026-04-10T13:15:39.057Z</time></trkpt><trkpt lat="45.5933238" lon="9.5532383"><ele>140.0</ele><time>2026-04-10T13:15:40.057Z</time></trkpt><trkpt lat="45.5934325" lon="9.5532986"><ele>140.0</ele><time>2026-04-10T13:15:42.056Z</time></trkpt><trkpt lat="45.5934946" lon="9.5533161"><ele>140.0</ele><time>2026-04-10T13:15:43.057Z</time></trkpt><trkpt lat="45.5936155" lon="9.5532859"><ele>140.0</ele><time>2026-04-10T13:15:45.057Z</time></trkpt><trkpt lat="45.5937335" lon="9.5532137"><ele>140.0</ele><time>2026-04-10T13:15:47.057Z</time></trkpt><trkpt lat="45.5937914" lon="9.5531751"><ele>139.8</ele><time>2026-04-10T13:15:48.057Z</time></trkpt><trkpt lat="45.5938536" lon="9.5531537"><ele>139.6</ele><time>2026-04-10T13:15:49.056Z</time></trkpt><trkpt lat="45.5939747" lon="9.5531875"><ele>139.4</ele><time>2026-04-10T13:15:51.057Z</time></trkpt><trkpt lat="45.5940979" lon="9.5532186"><ele>139.2</ele><time>2026-04-10T13:15:53.057Z</time></trkpt><trkpt lat="45.5942043" lon="9.5532435"><ele>139.0</ele><time>2026-04-10T13:15:55.056Z</time></trkpt><trkpt lat="45.5942656" lon="9.5533174"><ele>139.0</ele><time>2026-04-10T13:15:57.057Z</time></trkpt><trkpt lat="45.5943247" lon="9.5533557"><ele>139.0</ele><time>2026-04-10T13:15:58.057Z</time></trkpt><trkpt lat="45.5944262" lon="9.553439"><ele>139.0</ele><time>2026-04-10T13:16:00.056Z</time></trkpt><trkpt lat="45.5945019" lon="9.5534429"><ele>139.0</ele><time>2026-04-10T13:16:01.057Z</time></trkpt><trkpt lat="45.5945655" lon="9.5534386"><ele>139.0</ele><time>2026-04-10T13:16:02.057Z</time></trkpt><trkpt lat="45.5946815" lon="9.5534833"><ele>139.0</ele><time>2026-04-10T13:16:04.057Z</time></trkpt><trkpt lat="45.5947975" lon="9.5534747"><ele>139.0</ele><time>2026-04-10T13:16:06.057Z</time></trkpt><trkpt lat="45.5948654" lon="9.5534735"><ele>139.0</ele><time>2026-04-10T13:16:07.057Z</time></trkpt><trkpt lat="45.5949762" lon="9.5535054"><ele>139.0</ele><time>2026-04-10T13:16:09.057Z</time></trkpt><trkpt lat="45.5950873" lon="9.5535305"><ele>139.0</ele><time>2026-04-10T13:16:11.057Z</time></trkpt><trkpt lat="45.5951656" lon="9.5535061"><ele>139.0</ele><time>2026-04-10T13:16:12.057Z</time></trkpt><trkpt lat="45.5952923" lon="9.5535114"><ele>139.6</ele><time>2026-04-10T13:16:14.057Z</time></trkpt><trkpt lat="45.5953588" lon="9.5535018"><ele>140.2</ele><time>2026-04-10T13:16:15.057Z</time></trkpt><trkpt lat="45.5954576" lon="9.5534771"><ele>140.79999999999998</ele><time>2026-04-10T13:16:17.057Z</time></trkpt><trkpt lat="45.5955197" lon="9.5533455"><ele>141.4</ele><time>2026-04-10T13:16:19.057Z</time></trkpt><trkpt lat="45.5955712" lon="9.5532034"><ele>142.0</ele><time>2026-04-10T13:16:21.057Z</time></trkpt><trkpt lat="45.5956429" lon="9.5532024"><ele>142.0</ele><time>2026-04-10T13:16:23.057Z</time></trkpt><trkpt lat="45.5957088" lon="9.5532494"><ele>142.0</ele><time>2026-04-10T13:16:25.057Z</time></trkpt><trkpt lat="45.5957733" lon="9.5532832"><ele>142.0</ele><time>2026-04-10T13:16:27.057Z</time></trkpt><trkpt lat="45.5943247" lon="9.5533557"><ele>141.4</ele><time>2026-04-10T13:15:58.057Z</time></trkpt><trkpt lat="45.5944262" lon="9.553439"><ele>140.79999999999998</ele><time>2026-04-10T13:16:00.056Z</time></trkpt><trkpt lat="45.5945019" lon="9.5534429"><ele>140.2</ele><time>2026-04-10T13:16:01.057Z</time></trkpt><trkpt lat="45.5945655" lon="9.5534386"><ele>139.6</ele><time>2026-04-10T13:16:02.057Z</time></trkpt><trkpt lat="45.5946815" lon="9.5534833"><ele>139.0</ele><time>2026-04-10T13:16:04.057Z</time></trkpt><trkpt lat="45.5947975" lon="9.5534747"><ele>139.0</ele><time>2026-04-10T13:16:06.057Z</time></trkpt><trkpt lat="45.5948654" lon="9.5534735"><ele>139.0</ele><time>2026-04-10T13:16:07.057Z</time></trkpt><trkpt lat="45.5949762" lon="9.5535054"><ele>139.0</ele><time>2026-04-10T13:16:09.057Z</time></trkpt><trkpt lat="45.5950873" lon="9.5535305"><ele>139.0</ele><time>2026-04-10T13:16:11.057Z</time></trkpt><trkpt lat="45.5951656" lon="9.5535061"><ele>139.0</ele><time>2026-04-10T13:16:12.057Z</time></trkpt><trkpt lat="45.5952923" lon="9.5535114"><ele>139.6</ele><time>2026-04-10T13:16:14.057Z</time></trkpt><trkpt lat="45.5953588" lon="9.5535018"><ele>140.2</ele><time>2026-04-10T13:16:15.057Z</time></trkpt><trkpt lat="45.5954576" lon="9.5534771"><ele>140.79999999999998</ele><time>2026-04-10T13:16:17.057Z</time></trkpt><trkpt lat="45.5955197" lon="9.5533455"><ele>141.4</ele><time>2026-04-10T13:16:19.057Z</time></trkpt><trkpt lat="45.5955712" lon="9.5532034"><ele>142.0</ele><time>2026-04-10T13:16:21.057Z</time></trkpt><trkpt lat="45.5956429" lon="9.5532024"><ele>142.0</ele><time>2026-04-10T13:16:23.057Z</time></trkpt><trkpt lat="45.5957088" lon="9.5532494"><ele>142.0</ele><time>2026-04-10T13:16:25.057Z</time></trkpt><trkpt lat="45.5957733" lon="9.5532832"><ele>142.0</ele><time>2026-04-10T13:16:27.057Z</time></trkpt><trkpt lat="45.5958616" lon="9.553236"><ele>142.0</ele><time>2026-04-10T13:16:30.057Z</time></trkpt><trkpt lat="45.5959225" lon="9.5531375"><ele>142.0</ele><time>2026-04-10T13:16:32.057Z</time></trkpt><trkpt lat="45.5959979" lon="9.5531278"><ele>142.0</ele><time>2026-04-10T13:16:34.056Z</time></trkpt><trkpt lat="45.5960577" lon="9.5532132"><ele>142.0</ele><time>2026-04-10T13:16:36.057Z</time></trkpt><trkpt lat="45.5961209" lon="9.5533131"><ele>142.0</ele><time>2026-04-10T13:16:38.057Z</time></trkpt><trkpt lat="45.5961963" lon="9.5534049"><ele>142.0</ele><time>2026-04-10T13:16:40.057Z</time></trkpt><trkpt lat="45.5962767" lon="9.5535035"><ele>142.0</ele><time>2026-04-10T13:16:42.057Z</time></trkpt><trkpt lat="45.5963708" lon="9.5535845"><ele>142.0</ele><time>2026-04-10T13:16:44.057Z</time></trkpt><trkpt lat="45.5964815" lon="9.5536265"><ele>142.6</ele><time>2026-04-10T13:16:46.056Z</time></trkpt><trkpt lat="45.5965972" lon="9.5536057"><ele>143.2</ele><time>2026-04-10T13:16:48.056Z</time></trkpt><trkpt lat="45.5966972" lon="9.5535778"><ele>143.8</ele><time>2026-04-10T13:16:50.057Z</time></trkpt><trkpt lat="45.5967887" lon="9.5535581"><ele>144.4</ele><time>2026-04-10T13:16:52.056Z</time></trkpt><trkpt lat="45.5968698" lon="9.5535287"><ele>145.0</ele><time>2026-04-10T13:16:54.057Z</time></trkpt><trkpt lat="45.5969375" lon="9.5535059"><ele>147.33333333333334</ele><time>2026-04-10T13:16:56.057Z</time></trkpt><trkpt lat="45.597029" lon="9.5534828"><ele>149.66666666666669</ele><time>2026-04-10T13:16:59.057Z</time></trkpt><trkpt lat="45.5970914" lon="9.5534661"><ele>152.0</ele><time>2026-04-10T13:17:01.056Z</time></trkpt><trkpt lat="45.5971562" lon="9.5534624"><ele>154.33333333333334</ele><time>2026-04-10T13:17:03.057Z</time></trkpt><trkpt lat="45.5972486" lon="9.5534767"><ele>156.66666666666666</ele><time>2026-04-10T13:17:06.057Z</time></trkpt><trkpt lat="45.5973115" lon="9.5535134"><ele>159.0</ele><time>2026-04-10T13:17:08.056Z</time></trkpt><trkpt lat="45.5973715" lon="9.5535861"><ele>159.0</ele><time>2026-04-10T13:17:10.057Z</time></trkpt><trkpt lat="45.597425" lon="9.5536779"><ele>159.0</ele><time>2026-04-10T13:17:12.057Z</time></trkpt><trkpt lat="45.5974731" lon="9.5537737"><ele>159.0</ele><time>2026-04-10T13:17:14.057Z</time></trkpt><trkpt lat="45.5975171" lon="9.5538766"><ele>159.0</ele><time>2026-04-10T13:17:16.056Z</time></trkpt><trkpt lat="45.5975676" lon="9.5539827"><ele>159.0</ele><time>2026-04-10T13:17:18.056Z</time></trkpt><trkpt lat="45.5976324" lon="9.5540855"><ele>159.0</ele><time>2026-04-10T13:17:20.057Z</time></trkpt><trkpt lat="45.5977015" lon="9.5541832"><ele>160.4</ele><time>2026-04-10T13:17:22.057Z</time></trkpt><trkpt lat="45.5977786" lon="9.5542753"><ele>161.8</ele><time>2026-04-10T13:17:24.057Z</time></trkpt><trkpt lat="45.5978691" lon="9.5543461"><ele>163.20000000000002</ele><time>2026-04-10T13:17:26.056Z</time></trkpt><trkpt lat="45.5979615" lon="9.5543924"><ele>164.60000000000002</ele><time>2026-04-10T13:17:28.056Z</time></trkpt><trkpt lat="45.5980617" lon="9.5544127"><ele>166.0</ele><time>2026-04-10T13:17:30.057Z</time></trkpt><trkpt lat="45.5981431" lon="9.5544258"><ele>166.0</ele><time>2026-04-10T13:17:32.057Z</time></trkpt><trkpt lat="45.598213" lon="9.5544485"><ele>166.0</ele><time>2026-04-10T13:17:34.057Z</time></trkpt><trkpt lat="45.5982734" lon="9.5544861"><ele>166.0</ele><time>2026-04-10T13:17:36.056Z</time></trkpt><trkpt lat="45.5983488" lon="9.5545675"><ele>166.0</ele><time>2026-04-10T13:17:39.057Z</time></trkpt><trkpt lat="45.598411" lon="9.5546185"><ele>166.0</ele><time>2026-04-10T13:17:41.057Z</time></trkpt><trkpt lat="45.5984727" lon="9.5546604"><ele>166.0</ele><time>2026-04-10T13:17:43.057Z</time></trkpt><trkpt lat="45.5985339" lon="9.5547031"><ele>166.0</ele><time>2026-04-10T13:17:45.057Z</time></trkpt><trkpt lat="45.5986185" lon="9.5547562"><ele>165.42857142857142</ele><time>2026-04-10T13:17:48.056Z</time></trkpt><trkpt lat="45.5986802" lon="9.5547949"><ele>164.85714285714286</ele><time>2026-04-10T13:17:50.056Z</time></trkpt><trkpt lat="45.5987488" lon="9.5548295"><ele>164.28571428571428</ele><time>2026-04-10T13:17:52.056Z</time></trkpt><trkpt lat="45.5988192" lon="9.554869"><ele>163.71428571428572</ele><time>2026-04-10T13:17:54.057Z</time></trkpt><trkpt lat="45.5988853" lon="9.5549128"><ele>163.14285714285714</ele><time>2026-04-10T13:17:56.057Z</time></trkpt><trkpt lat="45.5989512" lon="9.5549519"><ele>162.57142857142858</ele><time>2026-04-10T13:17:58.057Z</time></trkpt><trkpt lat="45.5990235" lon="9.554989"><ele>162.0</ele><time>2026-04-10T13:18:00.057Z</time></trkpt><trkpt lat="45.5990961" lon="9.5550278"><ele>162.0</ele><time>2026-04-10T13:18:02.057Z</time></trkpt><trkpt lat="45.5991755" lon="9.5550476"><ele>162.0</ele><time>2026-04-10T13:18:04.057Z</time></trkpt><trkpt lat="45.5992554" lon="9.5550675"><ele>162.0</ele><time>2026-04-10T13:18:06.057Z</time></trkpt><trkpt lat="45.5993407" lon="9.5550848"><ele>162.0</ele><time>2026-04-10T13:18:08.056Z</time></trkpt><trkpt lat="45.5994231" lon="9.5551052"><ele>162.0</ele><time>2026-04-10T13:18:10.057Z</time></trkpt><trkpt lat="45.5995102" lon="9.5551247"><ele>162.0</ele><time>2026-04-10T13:18:12.057Z</time></trkpt><trkpt lat="45.5996032" lon="9.5551396"><ele>163.6</ele><time>2026-04-10T13:18:14.057Z</time></trkpt><trkpt lat="45.5996884" lon="9.5551549"><ele>165.2</ele><time>2026-04-10T13:18:16.056Z</time></trkpt><trkpt lat="45.599776" lon="9.5551948"><ele>166.8</ele><time>2026-04-10T13:18:18.057Z</time></trkpt><trkpt lat="45.599871" lon="9.5552406"><ele>168.4</ele><time>2026-04-10T13:18:20.056Z</time></trkpt><trkpt lat="45.5999665" lon="9.5552755"><ele>170.0</ele><time>2026-04-10T13:18:22.057Z</time></trkpt><trkpt lat="45.6000591" lon="9.5553028"><ele>170.0</ele><time>2026-04-10T13:18:24.056Z</time></trkpt><trkpt lat="45.6001589" lon="9.5553282"><ele>170.0</ele><time>2026-04-10T13:18:26.056Z</time></trkpt><trkpt lat="45.6002626" lon="9.5553786"><ele>170.0</ele><time>2026-04-10T13:18:28.057Z</time></trkpt><trkpt lat="45.6003629" lon="9.5554461"><ele>170.0</ele><time>2026-04-10T13:18:30.057Z</time></trkpt><trkpt lat="45.6004657" lon="9.5554976"><ele>170.0</ele><time>2026-04-10T13:18:32.057Z</time></trkpt><trkpt lat="45.6005844" lon="9.5555644"><ele>169.66666666666666</ele><time>2026-04-10T13:18:34.056Z</time></trkpt><trkpt lat="45.6006507" lon="9.5556049"><ele>169.33333333333331</ele><time>2026-04-10T13:18:35.057Z</time></trkpt><trkpt lat="45.6007565" lon="9.5556564"><ele>169.0</ele><time>2026-04-10T13:18:36.057Z</time></trkpt><trkpt lat="45.6008147" lon="9.5556978"><ele>168.66666666666666</ele><time>2026-04-10T13:18:37.056Z</time></trkpt><trkpt lat="45.6008768" lon="9.5557475"><ele>168.33333333333334</ele><time>2026-04-10T13:18:38.057Z</time></trkpt><trkpt lat="45.6009985" lon="9.5558036"><ele>168.0</ele><time>2026-04-10T13:18:40.057Z</time></trkpt><trkpt lat="45.6011065" lon="9.5558743"><ele>168.5</ele><time>2026-04-10T13:18:42.057Z</time></trkpt><trkpt lat="45.6012225" lon="9.5559172"><ele>169.0</ele><time>2026-04-10T13:18:44.057Z</time></trkpt><trkpt lat="45.6013394" lon="9.5559658"><ele>169.5</ele><time>2026-04-10T13:18:46.057Z</time></trkpt><trkpt lat="45.6014611" lon="9.5559837"><ele>170.0</ele><time>2026-04-10T13:18:48.057Z</time></trkpt><trkpt lat="45.6015559" lon="9.5560304"><ele>170.0</ele><time>2026-04-10T13:18:50.056Z</time></trkpt><trkpt lat="45.6016469" lon="9.5560808"><ele>170.0</ele><time>2026-04-10T13:18:52.056Z</time></trkpt><trkpt lat="45.6017225" lon="9.5560889"><ele>170.0</ele><time>2026-04-10T13:18:53.056Z</time></trkpt><trkpt lat="45.6018282" lon="9.5561335"><ele>170.0</ele><time>2026-04-10T13:18:55.057Z</time></trkpt><trkpt lat="45.6019342" lon="9.5561517"><ele>170.0</ele><time>2026-04-10T13:18:57.056Z</time></trkpt><trkpt lat="45.6020249" lon="9.5561045"><ele>170.8</ele><time>2026-04-10T13:18:59.057Z</time></trkpt><trkpt lat="45.6021076" lon="9.5560117"><ele>171.6</ele><time>2026-04-10T13:19:01.056Z</time></trkpt><trkpt lat="45.602203" lon="9.5559159"><ele>172.39999999999998</ele><time>2026-04-10T13:19:03.056Z</time></trkpt><trkpt lat="45.6023044" lon="9.5558443"><ele>173.2</ele><time>2026-04-10T13:19:05.057Z</time></trkpt><trkpt lat="45.6024063" lon="9.5557723"><ele>174.0</ele><time>2026-04-10T13:19:07.057Z</time></trkpt><trkpt lat="45.602467" lon="9.55572"><ele>174.0</ele><time>2026-04-10T13:19:08.057Z</time></trkpt><trkpt lat="45.6025696" lon="9.555684"><ele>174.0</ele><time>2026-04-10T13:19:10.057Z</time></trkpt><trkpt lat="45.6026567" lon="9.5556427"><ele>174.0</ele><time>2026-04-10T13:19:12.057Z</time></trkpt><trkpt lat="45.602694" lon="9.5555495"><ele>174.0</ele><time>2026-04-10T13:19:14.057Z</time></trkpt><trkpt lat="45.6026756" lon="9.5554294"><ele>174.0</ele><time>2026-04-10T13:19:16.057Z</time></trkpt><trkpt lat="45.6026543" lon="9.5552973"><ele>174.2</ele><time>2026-04-10T13:19:18.056Z</time></trkpt><trkpt lat="45.6026495" lon="9.5551508"><ele>174.39999999999998</ele><time>2026-04-10T13:19:20.057Z</time></trkpt><trkpt lat="45.602633" lon="9.5549978"><ele>174.6</ele><time>2026-04-10T13:19:22.056Z</time></trkpt><trkpt lat="45.6026299" lon="9.554827"><ele>174.8</ele><time>2026-04-10T13:19:24.057Z</time></trkpt><trkpt lat="45.6026536" lon="9.5546665"><ele>175.0</ele><time>2026-04-10T13:19:26.057Z</time></trkpt><trkpt lat="45.6026633" lon="9.5545057"><ele>175.2</ele><time>2026-04-10T13:19:28.056Z</time></trkpt><trkpt lat="45.6026546" lon="9.5543566"><ele>175.4</ele><time>2026-04-10T13:19:30.057Z</time></trkpt><trkpt lat="45.602639" lon="9.5542077"><ele>175.60000000000002</ele><time>2026-04-10T13:19:32.057Z</time></trkpt><trkpt lat="45.6026163" lon="9.5540612"><ele>175.8</ele><time>2026-04-10T13:19:34.056Z</time></trkpt><trkpt lat="45.6026445" lon="9.5539655"><ele>176.0</ele><time>2026-04-10T13:19:36.057Z</time></trkpt><trkpt lat="45.6027336" lon="9.5539131"><ele>175.8</ele><time>2026-04-10T13:19:38.057Z</time></trkpt><trkpt lat="45.6028922" lon="9.5539144"><ele>175.60000000000002</ele><time>2026-04-10T13:19:41.057Z</time></trkpt><trkpt lat="45.602961" lon="9.5539105"><ele>175.4</ele><time>2026-04-10T13:19:42.057Z</time></trkpt><trkpt lat="45.6030509" lon="9.5539065"><ele>175.2</ele><time>2026-04-10T13:19:44.056Z</time></trkpt><trkpt lat="45.6031579" lon="9.5539083"><ele>175.0</ele><time>2026-04-10T13:19:46.057Z</time></trkpt><trkpt lat="45.6032578" lon="9.553975"><ele>175.0</ele><time>2026-04-10T13:19:48.057Z</time></trkpt><trkpt lat="45.6033102" lon="9.5540996"><ele>175.0</ele><time>2026-04-10T13:19:50.057Z</time></trkpt><trkpt lat="45.6033203" lon="9.5542418"><ele>175.0</ele><time>2026-04-10T13:19:52.057Z</time></trkpt><trkpt lat="45.6033559" lon="9.5544085"><ele>175.0</ele><time>2026-04-10T13:19:54.057Z</time></trkpt><trkpt lat="45.6033873" lon="9.5545633"><ele>175.0</ele><time>2026-04-10T13:19:56.057Z</time></trkpt><trkpt lat="45.6034235" lon="9.5547291"><ele>175.0</ele><time>2026-04-10T13:19:58.056Z</time></trkpt><trkpt lat="45.6034533" lon="9.5549047"><ele>175.0</ele><time>2026-04-10T13:20:00.056Z</time></trkpt><trkpt lat="45.6034862" lon="9.5550521"><ele>175.0</ele><time>2026-04-10T13:20:02.057Z</time></trkpt><trkpt lat="45.6035145" lon="9.555141"><ele>175.0</ele><time>2026-04-10T13:20:04.057Z</time></trkpt><trkpt lat="45.6034632" lon="9.5550818"><ele>175.0</ele><time>2026-04-10T13:24:05.006Z</time></trkpt><trkpt lat="45.6034368" lon="9.5551866"><ele>175.0</ele><time>2026-04-10T13:24:07.041Z</time></trkpt><trkpt lat="45.6035" lon="9.5552597"><ele>175.0</ele><time>2026-04-10T13:24:19.056Z</time></trkpt><trkpt lat="45.6035186" lon="9.5553616"><ele>175.0</ele><time>2026-04-10T13:24:22.069Z</time></trkpt><trkpt lat="45.6035426" lon="9.5554662"><ele>175.0</ele><time>2026-04-10T13:24:27.057Z</time></trkpt><trkpt lat="45.6036873" lon="9.5558417"><ele>174.4</ele><time>2026-04-10T13:24:29.057Z</time></trkpt><trkpt lat="45.6037794" lon="9.5558492"><ele>173.8</ele><time>2026-04-10T13:24:31.057Z</time></trkpt><trkpt lat="45.6038769" lon="9.5558788"><ele>173.2</ele><time>2026-04-10T13:24:33.057Z</time></trkpt><trkpt lat="45.60396" lon="9.5559569"><ele>172.6</ele><time>2026-04-10T13:24:35.056Z</time></trkpt><trkpt lat="45.6040049" lon="9.556081"><ele>172.0</ele><time>2026-04-10T13:24:37.056Z</time></trkpt><trkpt lat="45.6040509" lon="9.5562165"><ele>171.5</ele><time>2026-04-10T13:24:39.057Z</time></trkpt><trkpt lat="45.6041167" lon="9.5563552"><ele>171.0</ele><time>2026-04-10T13:24:41.057Z</time></trkpt><trkpt lat="45.6041813" lon="9.5564864"><ele>170.5</ele><time>2026-04-10T13:24:43.056Z</time></trkpt><trkpt lat="45.6042172" lon="9.5565627"><ele>170.0</ele><time>2026-04-10T13:24:44.057Z</time></trkpt><trkpt lat="45.6042522" lon="9.5566402"><ele>169.5</ele><time>2026-04-10T13:24:45.057Z</time></trkpt><trkpt lat="45.6042898" lon="9.5567204"><ele>169.0</ele><time>2026-04-10T13:24:46.057Z</time></trkpt><trkpt lat="45.6043281" lon="9.5568022"><ele>169.0</ele><time>2026-04-10T13:24:47.057Z</time></trkpt><trkpt lat="45.6043627" lon="9.5568847"><ele>169.0</ele><time>2026-04-10T13:24:48.057Z</time></trkpt><trkpt lat="45.6044031" lon="9.556965"><ele>169.0</ele><time>2026-04-10T13:24:49.057Z</time></trkpt><trkpt lat="45.6044434" lon="9.5570534"><ele>169.0</ele><time>2026-04-10T13:24:50.057Z</time></trkpt><trkpt lat="45.6044838" lon="9.5571397"><ele>169.0</ele><time>2026-04-10T13:24:51.057Z</time></trkpt><trkpt lat="45.6045251" lon="9.5572254"><ele>169.0</ele><time>2026-04-10T13:24:52.057Z</time></trkpt><trkpt lat="45.6045706" lon="9.557311"><ele>169.0</ele><time>2026-04-10T13:24:53.057Z</time></trkpt><trkpt lat="45.6046138" lon="9.5574028"><ele>168.71428571428572</ele><time>2026-04-10T13:24:54.057Z</time></trkpt><trkpt lat="45.6046528" lon="9.5574919"><ele>168.42857142857142</ele><time>2026-04-10T13:24:55.057Z</time></trkpt><trkpt lat="45.604688" lon="9.5575728"><ele>168.14285714285714</ele><time>2026-04-10T13:24:56.057Z</time></trkpt><trkpt lat="45.6047253" lon="9.5576572"><ele>167.85714285714286</ele><time>2026-04-10T13:24:57.056Z</time></trkpt><trkpt lat="45.6047634" lon="9.5577429"><ele>167.57142857142858</ele><time>2026-04-10T13:24:58.057Z</time></trkpt><trkpt lat="45.6047893" lon="9.5578337"><ele>167.28571428571428</ele><time>2026-04-10T13:24:59.056Z</time></trkpt><trkpt lat="45.6047995" lon="9.5579266"><ele>167.0</ele><time>2026-04-10T13:25:00.057Z</time></trkpt><trkpt lat="45.6048087" lon="9.5580172"><ele>165.16666666666666</ele><time>2026-04-10T13:25:01.056Z</time></trkpt><trkpt lat="45.6047736" lon="9.558099"><ele>163.33333333333331</ele><time>2026-04-10T13:25:02.057Z</time></trkpt><trkpt lat="45.6047408" lon="9.5581951"><ele>161.5</ele><time>2026-04-10T13:25:03.057Z</time></trkpt><trkpt lat="45.6047129" lon="9.5582801"><ele>159.66666666666666</ele><time>2026-04-10T13:25:04.057Z</time></trkpt><trkpt lat="45.6046621" lon="9.5584512"><ele>157.83333333333334</ele><time>2026-04-10T13:25:06.057Z</time></trkpt><trkpt lat="45.6046351" lon="9.5585366"><ele>156.0</ele><time>2026-04-10T13:25:07.056Z</time></trkpt><trkpt lat="45.6045982" lon="9.5586274"><ele>156.42857142857144</ele><time>2026-04-10T13:25:08.057Z</time></trkpt><trkpt lat="45.6045748" lon="9.5587157"><ele>156.85714285714283</ele><time>2026-04-10T13:25:09.057Z</time></trkpt><trkpt lat="45.6045423" lon="9.5588072"><ele>157.28571428571428</ele><time>2026-04-10T13:25:10.057Z</time></trkpt><trkpt lat="45.6045117" lon="9.5588971"><ele>157.71428571428572</ele><time>2026-04-10T13:25:11.057Z</time></trkpt><trkpt lat="45.6044793" lon="9.5589832"><ele>158.14285714285717</ele><time>2026-04-10T13:25:12.057Z</time></trkpt><trkpt lat="45.6044453" lon="9.5590737"><ele>158.57142857142856</ele><time>2026-04-10T13:25:13.056Z</time></trkpt><trkpt lat="45.6044097" lon="9.559164"><ele>159.0</ele><time>2026-04-10T13:25:14.057Z</time></trkpt><trkpt lat="45.6043784" lon="9.5592558"><ele>159.14285714285714</ele><time>2026-04-10T13:25:15.057Z</time></trkpt><trkpt lat="45.6043527" lon="9.5593556"><ele>159.2857142857143</ele><time>2026-04-10T13:25:16.056Z</time></trkpt><trkpt lat="45.6043244" lon="9.5594547"><ele>159.42857142857144</ele><time>2026-04-10T13:25:17.056Z</time></trkpt><trkpt lat="45.6043029" lon="9.5595524"><ele>159.57142857142856</ele><time>2026-04-10T13:25:18.057Z</time></trkpt><trkpt lat="45.6042869" lon="9.5596568"><ele>159.71428571428572</ele><time>2026-04-10T13:25:19.056Z</time></trkpt><trkpt lat="45.60428" lon="9.559761"><ele>159.85714285714286</ele><time>2026-04-10T13:25:20.057Z</time></trkpt><trkpt lat="45.604283" lon="9.5598682"><ele>160.0</ele><time>2026-04-10T13:25:21.057Z</time></trkpt><trkpt lat="45.6042963" lon="9.5599817"><ele>160.57142857142856</ele><time>2026-04-10T13:25:22.057Z</time></trkpt><trkpt lat="45.6043147" lon="9.5600825"><ele>161.14285714285714</ele><time>2026-04-10T13:25:23.056Z</time></trkpt><trkpt lat="45.6043269" lon="9.5601847"><ele>161.71428571428572</ele><time>2026-04-10T13:25:24.057Z</time></trkpt><trkpt lat="45.6043454" lon="9.5602942"><ele>162.28571428571428</ele><time>2026-04-10T13:25:25.057Z</time></trkpt><trkpt lat="45.60436" lon="9.5603948"><ele>162.85714285714286</ele><time>2026-04-10T13:25:26.057Z</time></trkpt><trkpt lat="45.604381" lon="9.5604922"><ele>163.42857142857142</ele><time>2026-04-10T13:25:27.056Z</time></trkpt><trkpt lat="45.6043932" lon="9.5605858"><ele>164.0</ele><time>2026-04-10T13:25:28.057Z</time></trkpt><trkpt lat="45.6044139" lon="9.5606844"><ele>164.0</ele><time>2026-04-10T13:25:29.057Z</time></trkpt><trkpt lat="45.6044568" lon="9.5608084"><ele>164.0</ele><time>2026-04-10T13:25:31.057Z</time></trkpt><trkpt lat="45.6045463" lon="9.5607718"><ele>164.0</ele><time>2026-04-10T13:25:33.057Z</time></trkpt><trkpt lat="45.6045961" lon="9.5607163"><ele>164.0</ele><time>2026-04-10T13:25:34.057Z</time></trkpt><trkpt lat="45.6047037" lon="9.5606304"><ele>164.0</ele><time>2026-04-10T13:25:36.057Z</time></trkpt><trkpt lat="45.6047654" lon="9.5606073"><ele>164.0</ele><time>2026-04-10T13:25:37.057Z</time></trkpt><trkpt lat="45.6048316" lon="9.560588"><ele>164.28571428571428</ele><time>2026-04-10T13:25:38.056Z</time></trkpt><trkpt lat="45.6049037" lon="9.560576"><ele>164.57142857142856</ele><time>2026-04-10T13:25:39.056Z</time></trkpt><trkpt lat="45.6049699" lon="9.5605749"><ele>164.85714285714283</ele><time>2026-04-10T13:25:40.057Z</time></trkpt><trkpt lat="45.6050439" lon="9.5605679"><ele>165.14285714285714</ele><time>2026-04-10T13:25:41.057Z</time></trkpt><trkpt lat="45.6051135" lon="9.5605558"><ele>165.42857142857144</ele><time>2026-04-10T13:25:42.056Z</time></trkpt><trkpt lat="45.6051771" lon="9.5605586"><ele>165.7142857142857</ele><time>2026-04-10T13:25:43.057Z</time></trkpt><trkpt lat="45.6052441" lon="9.5605513"><ele>166.0</ele><time>2026-04-10T13:25:44.057Z</time></trkpt><trkpt lat="45.6053152" lon="9.5605379"><ele>165.57142857142856</ele><time>2026-04-10T13:25:45.057Z</time></trkpt><trkpt lat="45.6053798" lon="9.5605175"><ele>165.14285714285717</ele><time>2026-04-10T13:25:46.057Z</time></trkpt><trkpt lat="45.6054453" lon="9.5605137"><ele>164.71428571428572</ele><time>2026-04-10T13:25:47.056Z</time></trkpt><trkpt lat="45.6055155" lon="9.5605194"><ele>164.28571428571428</ele><time>2026-04-10T13:25:48.056Z</time></trkpt><trkpt lat="45.6055874" lon="9.5605413"><ele>163.85714285714283</ele><time>2026-04-10T13:25:49.056Z</time></trkpt><trkpt lat="45.6056514" lon="9.5605849"><ele>163.42857142857144</ele><time>2026-04-10T13:25:50.057Z</time></trkpt><trkpt lat="45.6057196" lon="9.5606258"><ele>163.0</ele><time>2026-04-10T13:25:51.057Z</time></trkpt><trkpt lat="45.6057795" lon="9.5606753"><ele>163.0</ele><time>2026-04-10T13:25:52.057Z</time></trkpt><trkpt lat="45.6058463" lon="9.560724"><ele>163.0</ele><time>2026-04-10T13:25:53.056Z</time></trkpt><trkpt lat="45.6059125" lon="9.560795"><ele>163.0</ele><time>2026-04-10T13:25:54.057Z</time></trkpt><trkpt lat="45.6059726" lon="9.5608477"><ele>163.0</ele><time>2026-04-10T13:25:55.057Z</time></trkpt><trkpt lat="45.606052" lon="9.5609163"><ele>163.0</ele><time>2026-04-10T13:25:56.057Z</time></trkpt><trkpt lat="45.6061129" lon="9.5609757"><ele>163.0</ele><time>2026-04-10T13:25:57.057Z</time></trkpt><trkpt lat="45.6061821" lon="9.5610268"><ele>162.33333333333334</ele><time>2026-04-10T13:25:58.057Z</time></trkpt><trkpt lat="45.606244" lon="9.5610891"><ele>161.66666666666669</ele><time>2026-04-10T13:25:59.057Z</time></trkpt><trkpt lat="45.6063211" lon="9.5611479"><ele>161.0</ele><time>2026-04-10T13:26:00.057Z</time></trkpt><trkpt lat="45.6063861" lon="9.5612087"><ele>160.33333333333334</ele><time>2026-04-10T13:26:01.057Z</time></trkpt><trkpt lat="45.6064758" lon="9.5612756"><ele>159.66666666666666</ele><time>2026-04-10T13:26:02.057Z</time></trkpt><trkpt lat="45.6065524" lon="9.561351"><ele>159.0</ele><time>2026-04-10T13:26:03.057Z</time></trkpt><trkpt lat="45.6065901" lon="9.5614312"><ele>159.0</ele><time>2026-04-10T13:26:04.057Z</time></trkpt><trkpt lat="45.6066298" lon="9.5615179"><ele>159.0</ele><time>2026-04-10T13:26:05.056Z</time></trkpt><trkpt lat="45.6066505" lon="9.5617019"><ele>159.0</ele><time>2026-04-10T13:26:07.057Z</time></trkpt><trkpt lat="45.6066654" lon="9.5617905"><ele>159.0</ele><time>2026-04-10T13:26:08.057Z</time></trkpt><trkpt lat="45.6067028" lon="9.5619333"><ele>159.0</ele><time>2026-04-10T13:26:10.057Z</time></trkpt><trkpt lat="45.6067259" lon="9.562062"><ele>159.5</ele><time>2026-04-10T13:26:12.056Z</time></trkpt><trkpt lat="45.606764" lon="9.5621813"><ele>160.0</ele><time>2026-04-10T13:26:14.057Z</time></trkpt><trkpt lat="45.6067945" lon="9.5623049"><ele>160.5</ele><time>2026-04-10T13:26:16.056Z</time></trkpt><trkpt lat="45.6068163" lon="9.5624192"><ele>161.0</ele><time>2026-04-10T13:26:18.056Z</time></trkpt><trkpt lat="45.6068541" lon="9.5625321"><ele>161.5</ele><time>2026-04-10T13:26:20.057Z</time></trkpt><trkpt lat="45.6069226" lon="9.5626131"><ele>162.0</ele><time>2026-04-10T13:26:22.057Z</time></trkpt><trkpt lat="45.6070114" lon="9.5626533"><ele>162.0</ele><time>2026-04-10T13:26:24.057Z</time></trkpt><trkpt lat="45.6071027" lon="9.5626999"><ele>162.0</ele><time>2026-04-10T13:26:26.057Z</time></trkpt><trkpt lat="45.6072058" lon="9.5627618"><ele>162.0</ele><time>2026-04-10T13:26:28.057Z</time></trkpt><trkpt lat="45.6073123" lon="9.5628183"><ele>162.0</ele><time>2026-04-10T13:26:30.057Z</time></trkpt><trkpt lat="45.6074197" lon="9.5628402"><ele>162.0</ele><time>2026-04-10T13:26:32.057Z</time></trkpt><trkpt lat="45.6074857" lon="9.5628456"><ele>163.0</ele><time>2026-04-10T13:26:33.056Z</time></trkpt><trkpt lat="45.6075893" lon="9.5628664"><ele>164.0</ele><time>2026-04-10T13:26:35.057Z</time></trkpt><trkpt lat="45.6077025" lon="9.5628833"><ele>165.0</ele><time>2026-04-10T13:26:37.057Z</time></trkpt><trkpt lat="45.6078167" lon="9.5628741"><ele>166.0</ele><time>2026-04-10T13:26:39.056Z</time></trkpt><trkpt lat="45.60788" lon="9.5628693"><ele>167.0</ele><time>2026-04-10T13:26:40.057Z</time></trkpt><trkpt lat="45.6079888" lon="9.5628711"><ele>167.0</ele><time>2026-04-10T13:26:42.057Z</time></trkpt><trkpt lat="45.6080914" lon="9.5628876"><ele>167.0</ele><time>2026-04-10T13:26:44.056Z</time></trkpt><trkpt lat="45.6081543" lon="9.5628914"><ele>167.0</ele><time>2026-04-10T13:26:45.057Z</time></trkpt><trkpt lat="45.6082676" lon="9.5629036"><ele>167.0</ele><time>2026-04-10T13:26:47.057Z</time></trkpt><trkpt lat="45.6083851" lon="9.5629223"><ele>167.0</ele><time>2026-04-10T13:26:49.056Z</time></trkpt><trkpt lat="45.6084487" lon="9.5629247"><ele>167.0</ele><time>2026-04-10T13:26:50.057Z</time></trkpt><trkpt lat="45.6085121" lon="9.5629321"><ele>167.0</ele><time>2026-04-10T13:26:51.057Z</time></trkpt><trkpt lat="45.6086323" lon="9.5629446"><ele>167.0</ele><time>2026-04-10T13:26:53.057Z</time></trkpt><trkpt lat="45.6087404" lon="9.5629501"><ele>167.0</ele><time>2026-04-10T13:26:55.057Z</time></trkpt><trkpt lat="45.6088539" lon="9.5629708"><ele>167.0</ele><time>2026-04-10T13:26:57.057Z</time></trkpt><trkpt lat="45.6089163" lon="9.5629834"><ele>167.5</ele><time>2026-04-10T13:26:58.057Z</time></trkpt><trkpt lat="45.6089795" lon="9.5629935"><ele>168.0</ele><time>2026-04-10T13:26:59.057Z</time></trkpt><trkpt lat="45.6090934" lon="9.5630462"><ele>168.5</ele><time>2026-04-10T13:27:01.057Z</time></trkpt><trkpt lat="45.609154" lon="9.5630834"><ele>169.0</ele><time>2026-04-10T13:27:02.057Z</time></trkpt><trkpt lat="45.6092212" lon="9.5630818"><ele>169.5</ele><time>2026-04-10T13:27:03.057Z</time></trkpt><trkpt lat="45.609288" lon="9.563066"><ele>170.0</ele><time>2026-04-10T13:27:04.057Z</time></trkpt><trkpt lat="45.6093809" lon="9.5630044"><ele>170.0</ele><time>2026-04-10T13:27:06.057Z</time></trkpt><trkpt lat="45.609443" lon="9.5628842"><ele>170.0</ele><time>2026-04-10T13:27:08.057Z</time></trkpt><trkpt lat="45.6094898" lon="9.5627619"><ele>170.0</ele><time>2026-04-10T13:27:10.057Z</time></trkpt><trkpt lat="45.609518" lon="9.5626611"><ele>170.0</ele><time>2026-04-10T13:27:12.057Z</time></trkpt><trkpt lat="45.6096021" lon="9.562633"><ele>170.0</ele><time>2026-04-10T13:27:14.057Z</time></trkpt><trkpt lat="45.6097032" lon="9.5626169"><ele>168.4</ele><time>2026-04-10T13:27:16.057Z</time></trkpt><trkpt lat="45.6097745" lon="9.5625775"><ele>166.8</ele><time>2026-04-10T13:27:18.057Z</time></trkpt><trkpt lat="45.6098502" lon="9.5625963"><ele>165.2</ele><time>2026-04-10T13:27:21.057Z</time></trkpt><trkpt lat="45.6099614" lon="9.5625829"><ele>163.6</ele><time>2026-04-10T13:27:24.056Z</time></trkpt><trkpt lat="45.6100578" lon="9.5625338"><ele>162.0</ele><time>2026-04-10T13:27:26.057Z</time></trkpt><trkpt lat="45.6101443" lon="9.5625486"><ele>162.0</ele><time>2026-04-10T13:27:28.056Z</time></trkpt><trkpt lat="45.6102461" lon="9.5625557"><ele>162.0</ele><time>2026-04-10T13:27:30.057Z</time></trkpt><trkpt lat="45.6103538" lon="9.5625597"><ele>162.0</ele><time>2026-04-10T13:27:32.056Z</time></trkpt><trkpt lat="45.6104544" lon="9.5625579"><ele>162.0</ele><time>2026-04-10T13:27:34.057Z</time></trkpt><trkpt lat="45.6105572" lon="9.5625174"><ele>162.0</ele><time>2026-04-10T13:27:36.057Z</time></trkpt><trkpt lat="45.610657" lon="9.562458"><ele>162.2</ele><time>2026-04-10T13:27:38.057Z</time></trkpt><trkpt lat="45.6107532" lon="9.562392"><ele>162.39999999999998</ele><time>2026-04-10T13:27:40.057Z</time></trkpt><trkpt lat="45.6108493" lon="9.5623215"><ele>162.60000000000002</ele><time>2026-04-10T13:27:42.057Z</time></trkpt><trkpt lat="45.6109015" lon="9.5622686"><ele>162.8</ele><time>2026-04-10T13:27:43.057Z</time></trkpt><trkpt lat="45.6109578" lon="9.5622282"><ele>163.0</ele><time>2026-04-10T13:27:44.057Z</time></trkpt><trkpt lat="45.6110606" lon="9.5621513"><ele>163.8</ele><time>2026-04-10T13:27:46.057Z</time></trkpt><trkpt lat="45.6111668" lon="9.5620928"><ele>164.60000000000002</ele><time>2026-04-10T13:27:48.057Z</time></trkpt><trkpt lat="45.6112696" lon="9.5620412"><ele>165.39999999999998</ele><time>2026-04-10T13:27:50.057Z</time></trkpt><trkpt lat="45.6113673" lon="9.5619617"><ele>166.2</ele><time>2026-04-10T13:27:52.057Z</time></trkpt><trkpt lat="45.6114705" lon="9.5619139"><ele>167.0</ele><time>2026-04-10T13:27:54.057Z</time></trkpt><trkpt lat="45.611585" lon="9.5618713"><ele>167.39999999999998</ele><time>2026-04-10T13:27:56.057Z</time></trkpt><trkpt lat="45.6116952" lon="9.5618407"><ele>167.79999999999998</ele><time>2026-04-10T13:27:58.057Z</time></trkpt><trkpt lat="45.6118053" lon="9.5618163"><ele>168.2</ele><time>2026-04-10T13:28:00.057Z</time></trkpt><trkpt lat="45.6118706" lon="9.5617999"><ele>168.6</ele><time>2026-04-10T13:28:01.057Z</time></trkpt><trkpt lat="45.6119904" lon="9.5617608"><ele>169.0</ele><time>2026-04-10T13:28:03.057Z</time></trkpt><trkpt lat="45.6120968" lon="9.5616887"><ele>169.0</ele><time>2026-04-10T13:28:05.057Z</time></trkpt><trkpt lat="45.6122065" lon="9.5616047"><ele>169.0</ele><time>2026-04-10T13:28:07.056Z</time></trkpt><trkpt lat="45.6123114" lon="9.5615218"><ele>169.0</ele><time>2026-04-10T13:28:09.057Z</time></trkpt><trkpt lat="45.6123706" lon="9.5614801"><ele>169.0</ele><time>2026-04-10T13:28:10.057Z</time></trkpt><trkpt lat="45.6124819" lon="9.5613966"><ele>169.0</ele><time>2026-04-10T13:28:12.057Z</time></trkpt><trkpt lat="45.6125437" lon="9.5613639"><ele>169.0</ele><time>2026-04-10T13:28:13.057Z</time></trkpt><trkpt lat="45.6126114" lon="9.5613228"><ele>169.0</ele><time>2026-04-10T13:28:14.057Z</time></trkpt><trkpt lat="45.6127224" lon="9.5612396"><ele>169.0</ele><time>2026-04-10T13:28:16.057Z</time></trkpt><trkpt lat="45.6127881" lon="9.5611934"><ele>169.0</ele><time>2026-04-10T13:28:17.057Z</time></trkpt><trkpt lat="45.6128454" lon="9.5611544"><ele>169.0</ele><time>2026-04-10T13:28:18.057Z</time></trkpt><trkpt lat="45.6129088" lon="9.5611099"><ele>169.0</ele><time>2026-04-10T13:28:19.056Z</time></trkpt><trkpt lat="45.6129712" lon="9.561071"><ele>168.75</ele><time>2026-04-10T13:28:20.057Z</time></trkpt><trkpt lat="45.6130822" lon="9.5609916"><ele>168.5</ele><time>2026-04-10T13:28:22.057Z</time></trkpt><trkpt lat="45.6132078" lon="9.5609216"><ele>168.25</ele><time>2026-04-10T13:28:24.056Z</time></trkpt><trkpt lat="45.6133318" lon="9.5608503"><ele>168.0</ele><time>2026-04-10T13:28:26.057Z</time></trkpt><trkpt lat="45.6133932" lon="9.5608128"><ele>168.0</ele><time>2026-04-10T13:28:27.057Z</time></trkpt><trkpt lat="45.6134576" lon="9.5607789"><ele>168.0</ele><time>2026-04-10T13:28:28.057Z</time></trkpt><trkpt lat="45.6135176" lon="9.5607397"><ele>168.0</ele><time>2026-04-10T13:28:29.057Z</time></trkpt><trkpt lat="45.6135821" lon="9.5607007"><ele>168.0</ele><time>2026-04-10T13:28:30.057Z</time></trkpt><trkpt lat="45.6136467" lon="9.5606661"><ele>168.0</ele><time>2026-04-10T13:28:31.057Z</time></trkpt><trkpt lat="45.6137082" lon="9.5606386"><ele>168.0</ele><time>2026-04-10T13:28:32.057Z</time></trkpt><trkpt lat="45.6138464" lon="9.560582"><ele>168.16666666666666</ele><time>2026-04-10T13:28:34.057Z</time></trkpt><trkpt lat="45.6139617" lon="9.56058"><ele>168.33333333333334</ele><time>2026-04-10T13:28:36.057Z</time></trkpt><trkpt lat="45.6140265" lon="9.560562"><ele>168.5</ele><time>2026-04-10T13:28:37.057Z</time></trkpt><trkpt lat="45.6140917" lon="9.5605399"><ele>168.66666666666669</ele><time>2026-04-10T13:28:38.057Z</time></trkpt><trkpt lat="45.6142096" lon="9.5605273"><ele>168.83333333333334</ele><time>2026-04-10T13:28:40.057Z</time></trkpt><trkpt lat="45.6142758" lon="9.5605148"><ele>169.0</ele><time>2026-04-10T13:28:41.057Z</time></trkpt><trkpt lat="45.6143965" lon="9.5604697"><ele>169.0</ele><time>2026-04-10T13:28:43.056Z</time></trkpt><trkpt lat="45.6144614" lon="9.5604573"><ele>169.0</ele><time>2026-04-10T13:28:44.057Z</time></trkpt><trkpt lat="45.6145244" lon="9.5604548"><ele>169.0</ele><time>2026-04-10T13:28:45.056Z</time></trkpt><trkpt lat="45.6145883" lon="9.5604565"><ele>169.0</ele><time>2026-04-10T13:28:46.057Z</time></trkpt><trkpt lat="45.6146957" lon="9.5605036"><ele>169.0</ele><time>2026-04-10T13:28:48.057Z</time></trkpt><trkpt lat="45.6148018" lon="9.5605157"><ele>169.0</ele><time>2026-04-10T13:28:50.057Z</time></trkpt><trkpt lat="45.6148808" lon="9.5604326"><ele>168.39999999999998</ele><time>2026-04-10T13:28:52.056Z</time></trkpt><trkpt lat="45.6149598" lon="9.5603282"><ele>167.8</ele><time>2026-04-10T13:28:54.057Z</time></trkpt><trkpt lat="45.6150541" lon="9.5602504"><ele>167.2</ele><time>2026-04-10T13:28:56.057Z</time></trkpt><trkpt lat="45.6151718" lon="9.5601792"><ele>166.60000000000002</ele><time>2026-04-10T13:28:58.056Z</time></trkpt><trkpt lat="45.6152328" lon="9.5601509"><ele>166.0</ele><time>2026-04-10T13:28:59.057Z</time></trkpt><trkpt lat="45.6152917" lon="9.5601082"><ele>168.5</ele><time>2026-04-10T13:29:00.057Z</time></trkpt><trkpt lat="45.6154063" lon="9.5600383"><ele>171.0</ele><time>2026-04-10T13:29:02.057Z</time></trkpt><trkpt lat="45.615761" lon="9.5600018"><ele>171.0</ele><time>2026-04-10T13:29:09.061Z</time></trkpt><trkpt lat="45.6158529" lon="9.5600172"><ele>171.0</ele><time>2026-04-10T13:29:11.059Z</time></trkpt><trkpt lat="45.6159186" lon="9.5601206"><ele>171.0</ele><time>2026-04-10T13:29:13.056Z</time></trkpt><trkpt lat="45.6159746" lon="9.5601691"><ele>171.0</ele><time>2026-04-10T13:29:15.061Z</time></trkpt><trkpt lat="45.6160545" lon="9.5602232"><ele>171.0</ele><time>2026-04-10T13:29:17.061Z</time></trkpt><trkpt lat="45.6161435" lon="9.5602796"><ele>171.0</ele><time>2026-04-10T13:29:19.061Z</time></trkpt><trkpt lat="45.6162382" lon="9.5603394"><ele>171.25</ele><time>2026-04-10T13:29:21.061Z</time></trkpt><trkpt lat="45.6163534" lon="9.5603654"><ele>171.5</ele><time>2026-04-10T13:29:23.06Z</time></trkpt><trkpt lat="45.6164611" lon="9.5604054"><ele>171.75</ele><time>2026-04-10T13:29:25.06Z</time></trkpt><trkpt lat="45.6165859" lon="9.5604196"><ele>172.0</ele><time>2026-04-10T13:29:27.061Z</time></trkpt><trkpt lat="45.6166966" lon="9.5604493"><ele>172.0</ele><time>2026-04-10T13:29:29.061Z</time></trkpt><trkpt lat="45.6168062" lon="9.5604768"><ele>172.0</ele><time>2026-04-10T13:29:31.061Z</time></trkpt><trkpt lat="45.6169263" lon="9.5604911"><ele>172.0</ele><time>2026-04-10T13:29:33.061Z</time></trkpt><trkpt lat="45.6170421" lon="9.5605106"><ele>172.0</ele><time>2026-04-10T13:29:35.061Z</time></trkpt><trkpt lat="45.6171456" lon="9.5605467"><ele>172.75</ele><time>2026-04-10T13:29:37.061Z</time></trkpt><trkpt lat="45.6172578" lon="9.5605826"><ele>173.5</ele><time>2026-04-10T13:29:39.061Z</time></trkpt><trkpt lat="45.6173733" lon="9.5606375"><ele>174.25</ele><time>2026-04-10T13:29:41.06Z</time></trkpt><trkpt lat="45.6174829" lon="9.5606897"><ele>175.0</ele><time>2026-04-10T13:29:43.061Z</time></trkpt><trkpt lat="45.6175833" lon="9.5607737"><ele>175.0</ele><time>2026-04-10T13:29:45.061Z</time></trkpt><trkpt lat="45.6176793" lon="9.5608329"><ele>175.0</ele><time>2026-04-10T13:29:47.061Z</time></trkpt><trkpt lat="45.617743" lon="9.5608396"><ele>175.0</ele><time>2026-04-10T13:29:48.06Z</time></trkpt><trkpt lat="45.6178078" lon="9.5608277"><ele>175.0</ele><time>2026-04-10T13:29:49.061Z</time></trkpt><trkpt lat="45.617877" lon="9.5608395"><ele>175.0</ele><time>2026-04-10T13:29:50.061Z</time></trkpt><trkpt lat="45.6179427" lon="9.5608645"><ele>175.0</ele><time>2026-04-10T13:29:51.06Z</time></trkpt><trkpt lat="45.618009" lon="9.5609004"><ele>175.0</ele><time>2026-04-10T13:29:52.061Z</time></trkpt><trkpt lat="45.6180698" lon="9.5609473"><ele>174.66666666666669</ele><time>2026-04-10T13:29:53.06Z</time></trkpt><trkpt lat="45.6181277" lon="9.5609948"><ele>174.33333333333334</ele><time>2026-04-10T13:29:54.06Z</time></trkpt><trkpt lat="45.6181898" lon="9.5610484"><ele>174.0</ele><time>2026-04-10T13:29:55.061Z</time></trkpt><trkpt lat="45.6182507" lon="9.5610872"><ele>173.66666666666666</ele><time>2026-04-10T13:29:56.061Z</time></trkpt><trkpt lat="45.6183155" lon="9.5611412"><ele>173.33333333333331</ele><time>2026-04-10T13:29:57.06Z</time></trkpt><trkpt lat="45.6184167" lon="9.5612406"><ele>173.0</ele><time>2026-04-10T13:29:59.061Z</time></trkpt><trkpt lat="45.6184675" lon="9.5612969"><ele>173.0</ele><time>2026-04-10T13:30:00.061Z</time></trkpt><trkpt lat="45.6185673" lon="9.5613878"><ele>173.0</ele><time>2026-04-10T13:30:02.061Z</time></trkpt><trkpt lat="45.6186953" lon="9.561467"><ele>173.0</ele><time>2026-04-10T13:30:04.061Z</time></trkpt><trkpt lat="45.6187971" lon="9.5615647"><ele>173.0</ele><time>2026-04-10T13:30:06.061Z</time></trkpt><trkpt lat="45.6188894" lon="9.5616421"><ele>173.0</ele><time>2026-04-10T13:30:08.06Z</time></trkpt><trkpt lat="45.6189899" lon="9.5617482"><ele>173.0</ele><time>2026-04-10T13:30:10.06Z</time></trkpt><trkpt lat="45.619092" lon="9.5618511"><ele>173.0</ele><time>2026-04-10T13:30:12.061Z</time></trkpt><trkpt lat="45.6191711" lon="9.5618892"><ele>173.0</ele><time>2026-04-10T13:30:13.06Z</time></trkpt><trkpt lat="45.6192208" lon="9.5619596"><ele>173.0</ele><time>2026-04-10T13:30:14.06Z</time></trkpt><trkpt lat="45.6192723" lon="9.5620152"><ele>173.83333333333331</ele><time>2026-04-10T13:30:15.061Z</time></trkpt><trkpt lat="45.6193626" lon="9.5620906"><ele>174.66666666666666</ele><time>2026-04-10T13:30:17.061Z</time></trkpt><trkpt lat="45.6194282" lon="9.5621379"><ele>175.5</ele><time>2026-04-10T13:30:18.061Z</time></trkpt><trkpt lat="45.619503" lon="9.5621616"><ele>176.33333333333334</ele><time>2026-04-10T13:30:19.061Z</time></trkpt><trkpt lat="45.6196033" lon="9.5622286"><ele>177.16666666666669</ele><time>2026-04-10T13:30:21.061Z</time></trkpt><trkpt lat="45.6196665" lon="9.5622856"><ele>178.0</ele><time>2026-04-10T13:30:22.061Z</time></trkpt><trkpt lat="45.6197642" lon="9.5623594"><ele>178.0</ele><time>2026-04-10T13:30:24.06Z</time></trkpt><trkpt lat="45.6198773" lon="9.5624083"><ele>178.0</ele><time>2026-04-10T13:30:26.061Z</time></trkpt><trkpt lat="45.6199488" lon="9.5624191"><ele>178.0</ele><time>2026-04-10T13:30:27.061Z</time></trkpt><trkpt lat="45.6200154" lon="9.5624297"><ele>178.0</ele><time>2026-04-10T13:30:28.061Z</time></trkpt><trkpt lat="45.6200835" lon="9.5624359"><ele>178.0</ele><time>2026-04-10T13:30:29.061Z</time></trkpt><trkpt lat="45.6201562" lon="9.5624408"><ele>178.0</ele><time>2026-04-10T13:30:30.061Z</time></trkpt><trkpt lat="45.6202281" lon="9.5624611"><ele>177.60000000000002</ele><time>2026-04-10T13:30:31.061Z</time></trkpt><trkpt lat="45.6203482" lon="9.5625017"><ele>177.20000000000002</ele><time>2026-04-10T13:30:33.061Z</time></trkpt><trkpt lat="45.6204173" lon="9.5625358"><ele>176.8</ele><time>2026-04-10T13:30:34.061Z</time></trkpt><trkpt lat="45.6205361" lon="9.5626013"><ele>176.4</ele><time>2026-04-10T13:30:36.061Z</time></trkpt><trkpt lat="45.6205991" lon="9.5626176"><ele>176.0</ele><time>2026-04-10T13:30:37.06Z</time></trkpt><trkpt lat="45.6207175" lon="9.5626606"><ele>176.0</ele><time>2026-04-10T13:30:39.06Z</time></trkpt><trkpt lat="45.6207913" lon="9.5626918"><ele>176.0</ele><time>2026-04-10T13:30:40.06Z</time></trkpt><trkpt lat="45.6208592" lon="9.5627275"><ele>176.0</ele><time>2026-04-10T13:30:41.061Z</time></trkpt><trkpt lat="45.6209194" lon="9.5627669"><ele>176.0</ele><time>2026-04-10T13:30:42.06Z</time></trkpt><trkpt lat="45.620981" lon="9.5628064"><ele>176.0</ele><time>2026-04-10T13:30:43.061Z</time></trkpt><trkpt lat="45.6210536" lon="9.562828"><ele>176.0</ele><time>2026-04-10T13:30:44.06Z</time></trkpt><trkpt lat="45.6211172" lon="9.5628458"><ele>176.0</ele><time>2026-04-10T13:30:45.061Z</time></trkpt><trkpt lat="45.6211809" lon="9.5628672"><ele>176.4</ele><time>2026-04-10T13:30:46.061Z</time></trkpt><trkpt lat="45.621306" lon="9.5629014"><ele>176.8</ele><time>2026-04-10T13:30:48.061Z</time></trkpt><trkpt lat="45.6214177" lon="9.5629376"><ele>177.20000000000002</ele><time>2026-04-10T13:30:50.06Z</time></trkpt><trkpt lat="45.6215384" lon="9.5629732"><ele>177.60000000000002</ele><time>2026-04-10T13:30:52.061Z</time></trkpt><trkpt lat="45.6216022" lon="9.562994"><ele>178.0</ele><time>2026-04-10T13:30:53.061Z</time></trkpt><trkpt lat="45.6217254" lon="9.5630191"><ele>178.0</ele><time>2026-04-10T13:30:55.061Z</time></trkpt><trkpt lat="45.6218328" lon="9.5630748"><ele>178.0</ele><time>2026-04-10T13:30:57.06Z</time></trkpt><trkpt lat="45.621938" lon="9.5631153"><ele>178.0</ele><time>2026-04-10T13:30:59.061Z</time></trkpt><trkpt lat="45.6220142" lon="9.563131"><ele>178.0</ele><time>2026-04-10T13:31:00.061Z</time></trkpt><trkpt lat="45.6220818" lon="9.5631332"><ele>178.0</ele><time>2026-04-10T13:31:01.061Z</time></trkpt><trkpt lat="45.6221528" lon="9.5631348"><ele>178.0</ele><time>2026-04-10T13:31:02.061Z</time></trkpt><trkpt lat="45.6222219" lon="9.5631214"><ele>177.60000000000002</ele><time>2026-04-10T13:31:03.061Z</time></trkpt><trkpt lat="45.6222869" lon="9.5630934"><ele>177.20000000000002</ele><time>2026-04-10T13:31:04.061Z</time></trkpt><trkpt lat="45.6223478" lon="9.5630621"><ele>176.8</ele><time>2026-04-10T13:31:05.06Z</time></trkpt><trkpt lat="45.6224722" lon="9.5630152"><ele>176.4</ele><time>2026-04-10T13:31:07.061Z</time></trkpt><trkpt lat="45.6225414" lon="9.5629755"><ele>176.0</ele><time>2026-04-10T13:31:08.06Z</time></trkpt><trkpt lat="45.6226689" lon="9.5629108"><ele>176.0</ele><time>2026-04-10T13:31:10.061Z</time></trkpt><trkpt lat="45.6227408" lon="9.5628842"><ele>176.0</ele><time>2026-04-10T13:31:11.061Z</time></trkpt><trkpt lat="45.6228104" lon="9.5628475"><ele>176.0</ele><time>2026-04-10T13:31:12.061Z</time></trkpt><trkpt lat="45.6228793" lon="9.5628274"><ele>176.0</ele><time>2026-04-10T13:31:13.06Z</time></trkpt><trkpt lat="45.6229428" lon="9.5627988"><ele>176.0</ele><time>2026-04-10T13:31:14.061Z</time></trkpt><trkpt lat="45.6230082" lon="9.5627646"><ele>176.0</ele><time>2026-04-10T13:31:15.061Z</time></trkpt><trkpt lat="45.6231334" lon="9.5626987"><ele>176.0</ele><time>2026-04-10T13:31:17.061Z</time></trkpt><trkpt lat="45.6231974" lon="9.5626575"><ele>176.0</ele><time>2026-04-10T13:31:18.06Z</time></trkpt><trkpt lat="45.6232636" lon="9.5626419"><ele>176.0</ele><time>2026-04-10T13:31:19.061Z</time></trkpt><trkpt lat="45.6233326" lon="9.56262"><ele>176.0</ele><time>2026-04-10T13:31:20.061Z</time></trkpt><trkpt lat="45.6234531" lon="9.5625728"><ele>176.0</ele><time>2026-04-10T13:31:22.061Z</time></trkpt><trkpt lat="45.6235612" lon="9.562541"><ele>176.0</ele><time>2026-04-10T13:31:24.061Z</time></trkpt><trkpt lat="45.623632" lon="9.5625379"><ele>176.0</ele><time>2026-04-10T13:31:25.061Z</time></trkpt><trkpt lat="45.6237631" lon="9.5625213"><ele>176.0</ele><time>2026-04-10T13:31:27.061Z</time></trkpt><trkpt lat="45.6238859" lon="9.5625039"><ele>176.0</ele><time>2026-04-10T13:31:29.061Z</time></trkpt><trkpt lat="45.623955" lon="9.5624928"><ele>176.0</ele><time>2026-04-10T13:31:30.061Z</time></trkpt><trkpt lat="45.6240765" lon="9.5624679"><ele>176.0</ele><time>2026-04-10T13:31:32.061Z</time></trkpt><trkpt lat="45.6241416" lon="9.5624495"><ele>176.0</ele><time>2026-04-10T13:31:33.06Z</time></trkpt><trkpt lat="45.6242092" lon="9.5624213"><ele>176.0</ele><time>2026-04-10T13:31:34.061Z</time></trkpt><trkpt lat="45.6242725" lon="9.5624074"><ele>176.0</ele><time>2026-04-10T13:31:35.061Z</time></trkpt><trkpt lat="45.6243488" lon="9.5623975"><ele>176.0</ele><time>2026-04-10T13:31:36.061Z</time></trkpt><trkpt lat="45.6244743" lon="9.5623737"><ele>176.0</ele><time>2026-04-10T13:31:38.061Z</time></trkpt><trkpt lat="45.624551" lon="9.562348"><ele>176.0</ele><time>2026-04-10T13:31:39.06Z</time></trkpt><trkpt lat="45.6246223" lon="9.5623397"><ele>175.83333333333331</ele><time>2026-04-10T13:31:40.061Z</time></trkpt><trkpt lat="45.6246924" lon="9.5623452"><ele>175.66666666666666</ele><time>2026-04-10T13:31:41.061Z</time></trkpt><trkpt lat="45.6247604" lon="9.5623464"><ele>175.5</ele><time>2026-04-10T13:31:42.061Z</time></trkpt><trkpt lat="45.6248316" lon="9.5623313"><ele>175.33333333333334</ele><time>2026-04-10T13:31:43.061Z</time></trkpt><trkpt lat="45.6248993" lon="9.5623224"><ele>175.16666666666669</ele><time>2026-04-10T13:31:44.061Z</time></trkpt><trkpt lat="45.6249632" lon="9.5623121"><ele>175.0</ele><time>2026-04-10T13:31:45.061Z</time></trkpt><trkpt lat="45.6250754" lon="9.5622904"><ele>175.0</ele><time>2026-04-10T13:31:47.061Z</time></trkpt><trkpt lat="45.6251432" lon="9.5622851"><ele>175.0</ele><time>2026-04-10T13:31:48.061Z</time></trkpt><trkpt lat="45.6252727" lon="9.5622797"><ele>175.0</ele><time>2026-04-10T13:31:50.061Z</time></trkpt><trkpt lat="45.6253572" lon="9.5622568"><ele>175.0</ele><time>2026-04-10T13:31:51.061Z</time></trkpt><trkpt lat="45.6254291" lon="9.5622369"><ele>175.0</ele><time>2026-04-10T13:31:52.061Z</time></trkpt><trkpt lat="45.6255169" lon="9.5622173"><ele>175.0</ele><time>2026-04-10T13:31:53.061Z</time></trkpt><trkpt lat="45.6255911" lon="9.5622128"><ele>175.33333333333334</ele><time>2026-04-10T13:31:54.061Z</time></trkpt><trkpt lat="45.6256691" lon="9.5621954"><ele>175.66666666666669</ele><time>2026-04-10T13:31:55.061Z</time></trkpt><trkpt lat="45.6257336" lon="9.5621759"><ele>176.0</ele><time>2026-04-10T13:31:56.061Z</time></trkpt><trkpt lat="45.6258005" lon="9.5621757"><ele>176.33333333333334</ele><time>2026-04-10T13:31:57.061Z</time></trkpt><trkpt lat="45.6258661" lon="9.5621639"><ele>176.66666666666666</ele><time>2026-04-10T13:31:58.061Z</time></trkpt><trkpt lat="45.625944" lon="9.562148"><ele>177.0</ele><time>2026-04-10T13:31:59.061Z</time></trkpt><trkpt lat="45.6260781" lon="9.5621272"><ele>177.0</ele><time>2026-04-10T13:32:01.061Z</time></trkpt><trkpt lat="45.6262046" lon="9.5621122"><ele>177.0</ele><time>2026-04-10T13:32:03.061Z</time></trkpt><trkpt lat="45.6262716" lon="9.5621048"><ele>177.0</ele><time>2026-04-10T13:32:04.061Z</time></trkpt><trkpt lat="45.6263736" lon="9.5620892"><ele>177.0</ele><time>2026-04-10T13:32:06.06Z</time></trkpt><trkpt lat="45.6264758" lon="9.5620506"><ele>177.0</ele><time>2026-04-10T13:32:08.061Z</time></trkpt><trkpt lat="45.6265822" lon="9.5620728"><ele>177.0</ele><time>2026-04-10T13:32:10.06Z</time></trkpt><trkpt lat="45.626645" lon="9.5621682"><ele>177.0</ele><time>2026-04-10T13:32:12.061Z</time></trkpt><trkpt lat="45.6266604" lon="9.5623127"><ele>177.0</ele><time>2026-04-10T13:32:14.061Z</time></trkpt><trkpt lat="45.6266619" lon="9.5624698"><ele>177.0</ele><time>2026-04-10T13:32:16.061Z</time></trkpt><trkpt lat="45.6266666" lon="9.5626312"><ele>177.0</ele><time>2026-04-10T13:32:18.061Z</time></trkpt><trkpt lat="45.6266816" lon="9.5627953"><ele>176.75</ele><time>2026-04-10T13:32:20.061Z</time></trkpt><trkpt lat="45.6266855" lon="9.5629568"><ele>176.5</ele><time>2026-04-10T13:32:22.061Z</time></trkpt><trkpt lat="45.6266947" lon="9.5631241"><ele>176.25</ele><time>2026-04-10T13:32:24.061Z</time></trkpt><trkpt lat="45.6267108" lon="9.5632945"><ele>176.0</ele><time>2026-04-10T13:32:26.061Z</time></trkpt><trkpt lat="45.6267004" lon="9.5634592"><ele>176.0</ele><time>2026-04-10T13:32:28.06Z</time></trkpt><trkpt lat="45.6266888" lon="9.5636256"><ele>176.0</ele><time>2026-04-10T13:32:30.061Z</time></trkpt><trkpt lat="45.6266626" lon="9.5637868"><ele>176.0</ele><time>2026-04-10T13:32:32.061Z</time></trkpt><trkpt lat="45.6266407" lon="9.5638719"><ele>176.0</ele><time>2026-04-10T13:32:33.061Z</time></trkpt><trkpt lat="45.6266017" lon="9.5640222"><ele>176.0</ele><time>2026-04-10T13:32:35.061Z</time></trkpt><trkpt lat="45.6265981" lon="9.5641514"><ele>176.0</ele><time>2026-04-10T13:32:37.061Z</time></trkpt><trkpt lat="45.6266554" lon="9.5642368"><ele>176.0</ele><time>2026-04-10T13:32:39.061Z</time></trkpt><trkpt lat="45.6267418" lon="9.564296"><ele>176.0</ele><time>2026-04-10T13:32:41.061Z</time></trkpt><trkpt lat="45.6268422" lon="9.5643512"><ele>176.0</ele><time>2026-04-10T13:32:43.061Z</time></trkpt><trkpt lat="45.6269049" lon="9.5643758"><ele>176.0</ele><time>2026-04-10T13:32:44.06Z</time></trkpt><trkpt lat="45.6270102" lon="9.5644405"><ele>176.0</ele><time>2026-04-10T13:32:46.061Z</time></trkpt><trkpt lat="45.6271211" lon="9.5645052"><ele>176.0</ele><time>2026-04-10T13:32:48.061Z</time></trkpt><trkpt lat="45.6272175" lon="9.5645684"><ele>176.0</ele><time>2026-04-10T13:32:50.061Z</time></trkpt><trkpt lat="45.6273254" lon="9.5646385"><ele>176.0</ele><time>2026-04-10T13:32:52.061Z</time></trkpt><trkpt lat="45.627386" lon="9.5646698"><ele>176.0</ele><time>2026-04-10T13:32:53.061Z</time></trkpt><trkpt lat="45.6274553" lon="9.5646976"><ele>176.75</ele><time>2026-04-10T13:32:54.061Z</time></trkpt><trkpt lat="45.6275676" lon="9.5647597"><ele>177.5</ele><time>2026-04-10T13:32:56.061Z</time></trkpt><trkpt lat="45.6276687" lon="9.5648497"><ele>178.25</ele><time>2026-04-10T13:32:58.06Z</time></trkpt><trkpt lat="45.6277862" lon="9.5649161"><ele>179.0</ele><time>2026-04-10T13:33:00.061Z</time></trkpt><trkpt lat="45.6278963" lon="9.5649944"><ele>179.0</ele><time>2026-04-10T13:33:02.061Z</time></trkpt><trkpt lat="45.6279891" lon="9.565043"><ele>179.0</ele><time>2026-04-10T13:33:04.061Z</time></trkpt><trkpt lat="45.6281045" lon="9.5650241"><ele>179.0</ele><time>2026-04-10T13:33:06.06Z</time></trkpt><trkpt lat="45.6282096" lon="9.5649271"><ele>179.0</ele><time>2026-04-10T13:33:08.061Z</time></trkpt><trkpt lat="45.6282605" lon="9.5648642"><ele>179.0</ele><time>2026-04-10T13:33:09.061Z</time></trkpt><trkpt lat="45.6283182" lon="9.5648049"><ele>179.00000000000003</ele><time>2026-04-10T13:33:10.061Z</time></trkpt><trkpt lat="45.6283748" lon="9.5647538"><ele>179.0</ele><time>2026-04-10T13:33:11.061Z</time></trkpt><trkpt lat="45.6284344" lon="9.5647075"><ele>179.0</ele><time>2026-04-10T13:33:12.061Z</time></trkpt><trkpt lat="45.6284979" lon="9.5646671"><ele>179.0</ele><time>2026-04-10T13:33:13.061Z</time></trkpt><trkpt lat="45.6285606" lon="9.5646349"><ele>179.0</ele><time>2026-04-10T13:33:14.061Z</time></trkpt><trkpt lat="45.6286267" lon="9.5646045"><ele>179.00000000000003</ele><time>2026-04-10T13:33:15.061Z</time></trkpt><trkpt lat="45.6286913" lon="9.5645788"><ele>179.0</ele><time>2026-04-10T13:33:16.061Z</time></trkpt><trkpt lat="45.6287572" lon="9.5645459"><ele>178.85714285714286</ele><time>2026-04-10T13:33:17.061Z</time></trkpt><trkpt lat="45.6288176" lon="9.564517"><ele>178.71428571428572</ele><time>2026-04-10T13:33:18.061Z</time></trkpt><trkpt lat="45.6288806" lon="9.56448"><ele>178.57142857142856</ele><time>2026-04-10T13:33:19.061Z</time></trkpt><trkpt lat="45.6289442" lon="9.5644455"><ele>178.42857142857144</ele><time>2026-04-10T13:33:20.061Z</time></trkpt><trkpt lat="45.6290088" lon="9.5644239"><ele>178.28571428571428</ele><time>2026-04-10T13:33:21.061Z</time></trkpt><trkpt lat="45.6290759" lon="9.5643942"><ele>178.14285714285714</ele><time>2026-04-10T13:33:22.061Z</time></trkpt><trkpt lat="45.6291462" lon="9.5643701"><ele>178.0</ele><time>2026-04-10T13:33:23.061Z</time></trkpt><trkpt lat="45.6292104" lon="9.5643464"><ele>177.99999999999997</ele><time>2026-04-10T13:33:24.061Z</time></trkpt><trkpt lat="45.6292755" lon="9.564325"><ele>178.0</ele><time>2026-04-10T13:33:25.06Z</time></trkpt><trkpt lat="45.6293423" lon="9.564298"><ele>178.0</ele><time>2026-04-10T13:33:26.06Z</time></trkpt><trkpt lat="45.6294063" lon="9.5642752"><ele>178.0</ele><time>2026-04-10T13:33:27.061Z</time></trkpt><trkpt lat="45.6294728" lon="9.5642451"><ele>178.0</ele><time>2026-04-10T13:33:28.061Z</time></trkpt><trkpt lat="45.6295371" lon="9.5642156"><ele>177.99999999999997</ele><time>2026-04-10T13:33:29.061Z</time></trkpt><trkpt lat="45.6295993" lon="9.5641919"><ele>178.0</ele><time>2026-04-10T13:33:30.06Z</time></trkpt><trkpt lat="45.6296668" lon="9.5641709"><ele>178.28571428571428</ele><time>2026-04-10T13:33:31.061Z</time></trkpt><trkpt lat="45.6297361" lon="9.5641468"><ele>178.57142857142856</ele><time>2026-04-10T13:33:32.06Z</time></trkpt><trkpt lat="45.6298051" lon="9.5641327"><ele>178.85714285714283</ele><time>2026-04-10T13:33:33.06Z</time></trkpt><trkpt lat="45.6298763" lon="9.5641136"><ele>179.14285714285714</ele><time>2026-04-10T13:33:34.061Z</time></trkpt><trkpt lat="45.6299462" lon="9.5641"><ele>179.42857142857144</ele><time>2026-04-10T13:33:35.061Z</time></trkpt><trkpt lat="45.6300142" lon="9.5641002"><ele>179.7142857142857</ele><time>2026-04-10T13:33:36.061Z</time></trkpt><trkpt lat="45.6300842" lon="9.5640907"><ele>180.0</ele><time>2026-04-10T13:33:37.061Z</time></trkpt><trkpt lat="45.6301492" lon="9.5640829"><ele>180.0</ele><time>2026-04-10T13:33:38.061Z</time></trkpt><trkpt lat="45.6302221" lon="9.564065"><ele>180.0</ele><time>2026-04-10T13:33:39.061Z</time></trkpt><trkpt lat="45.6302875" lon="9.5640595"><ele>180.0</ele><time>2026-04-10T13:33:40.061Z</time></trkpt><trkpt lat="45.6303521" lon="9.5640574"><ele>180.0</ele><time>2026-04-10T13:33:41.061Z</time></trkpt><trkpt lat="45.6304159" lon="9.5640532"><ele>180.0</ele><time>2026-04-10T13:33:42.06Z</time></trkpt><trkpt lat="45.630483" lon="9.5640537"><ele>180.0</ele><time>2026-04-10T13:33:43.061Z</time></trkpt><trkpt lat="45.6305502" lon="9.5640425"><ele>180.0</ele><time>2026-04-10T13:33:44.06Z</time></trkpt><trkpt lat="45.6306148" lon="9.5640362"><ele>180.42857142857142</ele><time>2026-04-10T13:33:45.061Z</time></trkpt><trkpt lat="45.630682" lon="9.5640169"><ele>180.85714285714286</ele><time>2026-04-10T13:33:46.061Z</time></trkpt><trkpt lat="45.6307471" lon="9.564001"><ele>181.28571428571428</ele><time>2026-04-10T13:33:47.061Z</time></trkpt><trkpt lat="45.6308133" lon="9.5639884"><ele>181.71428571428572</ele><time>2026-04-10T13:33:48.061Z</time></trkpt><trkpt lat="45.6308832" lon="9.5639739"><ele>182.14285714285717</ele><time>2026-04-10T13:33:49.061Z</time></trkpt><trkpt lat="45.6309485" lon="9.5639774"><ele>182.57142857142858</ele><time>2026-04-10T13:33:50.061Z</time></trkpt><trkpt lat="45.6310164" lon="9.5639662"><ele>183.0</ele><time>2026-04-10T13:33:51.061Z</time></trkpt><trkpt lat="45.6310832" lon="9.5639737"><ele>182.85714285714286</ele><time>2026-04-10T13:33:52.061Z</time></trkpt><trkpt lat="45.6311524" lon="9.5639667"><ele>182.71428571428572</ele><time>2026-04-10T13:33:53.061Z</time></trkpt><trkpt lat="45.6312231" lon="9.5639546"><ele>182.57142857142856</ele><time>2026-04-10T13:33:54.061Z</time></trkpt><trkpt lat="45.6312981" lon="9.5639506"><ele>182.42857142857144</ele><time>2026-04-10T13:33:55.061Z</time></trkpt><trkpt lat="45.6313661" lon="9.5639439"><ele>182.28571428571428</ele><time>2026-04-10T13:33:56.061Z</time></trkpt><trkpt lat="45.6314356" lon="9.563939"><ele>182.14285714285714</ele><time>2026-04-10T13:33:57.061Z</time></trkpt><trkpt lat="45.6315062" lon="9.5639228"><ele>182.0</ele><time>2026-04-10T13:33:58.061Z</time></trkpt><trkpt lat="45.6315758" lon="9.5639161"><ele>182.0</ele><time>2026-04-10T13:33:59.061Z</time></trkpt><trkpt lat="45.6316455" lon="9.5639156"><ele>182.0</ele><time>2026-04-10T13:34:00.061Z</time></trkpt><trkpt lat="45.631715" lon="9.5639153"><ele>182.0</ele><time>2026-04-10T13:34:01.061Z</time></trkpt><trkpt lat="45.6317807" lon="9.5639088"><ele>182.0</ele><time>2026-04-10T13:34:02.06Z</time></trkpt><trkpt lat="45.631851" lon="9.5639045"><ele>182.0</ele><time>2026-04-10T13:34:03.061Z</time></trkpt><trkpt lat="45.6319188" lon="9.5638945"><ele>182.0</ele><time>2026-04-10T13:34:04.061Z</time></trkpt><trkpt lat="45.6319905" lon="9.5638804"><ele>182.0</ele><time>2026-04-10T13:34:05.06Z</time></trkpt><trkpt lat="45.6320646" lon="9.5638703"><ele>182.0</ele><time>2026-04-10T13:34:06.061Z</time></trkpt><trkpt lat="45.6321342" lon="9.5638649"><ele>182.0</ele><time>2026-04-10T13:34:07.061Z</time></trkpt><trkpt lat="45.6321995" lon="9.563857"><ele>182.0</ele><time>2026-04-10T13:34:08.06Z</time></trkpt><trkpt lat="45.6322649" lon="9.5638398"><ele>182.0</ele><time>2026-04-10T13:34:09.06Z</time></trkpt><trkpt lat="45.6323342" lon="9.5638031"><ele>182.0</ele><time>2026-04-10T13:34:10.061Z</time></trkpt><trkpt lat="45.6323994" lon="9.5637801"><ele>182.0</ele><time>2026-04-10T13:34:11.06Z</time></trkpt><trkpt lat="45.6324695" lon="9.5637541"><ele>182.0</ele><time>2026-04-10T13:34:12.061Z</time></trkpt><trkpt lat="45.6325349" lon="9.563739"><ele>182.0</ele><time>2026-04-10T13:34:13.061Z</time></trkpt><trkpt lat="45.6326048" lon="9.5637304"><ele>182.0</ele><time>2026-04-10T13:34:14.061Z</time></trkpt><trkpt lat="45.6326753" lon="9.5637228"><ele>182.0</ele><time>2026-04-10T13:34:15.061Z</time></trkpt><trkpt lat="45.6327372" lon="9.5637409"><ele>182.0</ele><time>2026-04-10T13:34:16.06Z</time></trkpt><trkpt lat="45.6328016" lon="9.5637692"><ele>182.0</ele><time>2026-04-10T13:34:17.061Z</time></trkpt><trkpt lat="45.6328666" lon="9.5638104"><ele>182.0</ele><time>2026-04-10T13:34:18.06Z</time></trkpt><trkpt lat="45.6329331" lon="9.5638449"><ele>182.0</ele><time>2026-04-10T13:34:19.061Z</time></trkpt><trkpt lat="45.6329995" lon="9.5638833"><ele>182.0</ele><time>2026-04-10T13:34:20.061Z</time></trkpt><trkpt lat="45.6330701" lon="9.5639225"><ele>182.0</ele><time>2026-04-10T13:34:21.061Z</time></trkpt><trkpt lat="45.6331381" lon="9.5639555"><ele>182.0</ele><time>2026-04-10T13:34:22.061Z</time></trkpt><trkpt lat="45.633204" lon="9.5639953"><ele>182.0</ele><time>2026-04-10T13:34:23.061Z</time></trkpt><trkpt lat="45.6332705" lon="9.5640361"><ele>182.0</ele><time>2026-04-10T13:34:24.061Z</time></trkpt><trkpt lat="45.6333402" lon="9.564079"><ele>182.0</ele><time>2026-04-10T13:34:25.061Z</time></trkpt><trkpt lat="45.6334062" lon="9.5641205"><ele>182.0</ele><time>2026-04-10T13:34:26.061Z</time></trkpt><trkpt lat="45.6334719" lon="9.5641697"><ele>182.0</ele><time>2026-04-10T13:34:27.061Z</time></trkpt><trkpt lat="45.6335321" lon="9.5642218"><ele>182.0</ele><time>2026-04-10T13:34:28.06Z</time></trkpt><trkpt lat="45.6335895" lon="9.5642696"><ele>182.0</ele><time>2026-04-10T13:34:29.061Z</time></trkpt><trkpt lat="45.6336568" lon="9.5643138"><ele>182.0</ele><time>2026-04-10T13:34:30.06Z</time></trkpt><trkpt lat="45.6337204" lon="9.5643619"><ele>182.0</ele><time>2026-04-10T13:34:31.06Z</time></trkpt><trkpt lat="45.6337804" lon="9.5644055"><ele>182.0</ele><time>2026-04-10T13:34:32.061Z</time></trkpt><trkpt lat="45.6338431" lon="9.5644526"><ele>182.0</ele><time>2026-04-10T13:34:33.061Z</time></trkpt><trkpt lat="45.6339105" lon="9.5644912"><ele>181.66666666666666</ele><time>2026-04-10T13:34:34.061Z</time></trkpt><trkpt lat="45.6339758" lon="9.5645272"><ele>181.33333333333331</ele><time>2026-04-10T13:34:35.061Z</time></trkpt><trkpt lat="45.6340424" lon="9.5645698"><ele>181.0</ele><time>2026-04-10T13:34:36.061Z</time></trkpt><trkpt lat="45.6341037" lon="9.5645989"><ele>180.66666666666666</ele><time>2026-04-10T13:34:37.061Z</time></trkpt><trkpt lat="45.6341689" lon="9.5646278"><ele>180.33333333333334</ele><time>2026-04-10T13:34:38.061Z</time></trkpt><trkpt lat="45.6342688" lon="9.564697"><ele>180.0</ele><time>2026-04-10T13:34:40.061Z</time></trkpt><trkpt lat="45.6343784" lon="9.5647396"><ele>180.5</ele><time>2026-04-10T13:34:42.061Z</time></trkpt><trkpt lat="45.6344957" lon="9.5646878"><ele>181.0</ele><time>2026-04-10T13:34:44.06Z</time></trkpt><trkpt lat="45.6345664" lon="9.5646749"><ele>181.5</ele><time>2026-04-10T13:34:45.061Z</time></trkpt><trkpt lat="45.6346407" lon="9.5646876"><ele>182.0</ele><time>2026-04-10T13:34:46.06Z</time></trkpt><trkpt lat="45.6347124" lon="9.5647209"><ele>182.5</ele><time>2026-04-10T13:34:47.06Z</time></trkpt><trkpt lat="45.6347899" lon="9.5647451"><ele>183.0</ele><time>2026-04-10T13:34:48.06Z</time></trkpt><trkpt lat="45.634869" lon="9.5647509"><ele>183.0</ele><time>2026-04-10T13:34:49.061Z</time></trkpt><trkpt lat="45.6349459" lon="9.5647167"><ele>183.0</ele><time>2026-04-10T13:34:50.061Z</time></trkpt><trkpt lat="45.6350042" lon="9.564658"><ele>183.0</ele><time>2026-04-10T13:34:51.06Z</time></trkpt><trkpt lat="45.6350469" lon="9.5645815"><ele>183.0</ele><time>2026-04-10T13:34:52.061Z</time></trkpt><trkpt lat="45.6350781" lon="9.5645002"><ele>183.0</ele><time>2026-04-10T13:34:53.061Z</time></trkpt><trkpt lat="45.6351141" lon="9.5644146"><ele>183.0</ele><time>2026-04-10T13:34:54.06Z</time></trkpt><trkpt lat="45.6351426" lon="9.5643343"><ele>183.0</ele><time>2026-04-10T13:34:55.061Z</time></trkpt><trkpt lat="45.635176" lon="9.5642532"><ele>182.71428571428572</ele><time>2026-04-10T13:34:56.061Z</time></trkpt><trkpt lat="45.6352103" lon="9.5641695"><ele>182.42857142857144</ele><time>2026-04-10T13:34:57.06Z</time></trkpt><trkpt lat="45.6352469" lon="9.5640822"><ele>182.14285714285714</ele><time>2026-04-10T13:34:58.06Z</time></trkpt><trkpt lat="45.6352821" lon="9.5639951"><ele>181.85714285714286</ele><time>2026-04-10T13:34:59.061Z</time></trkpt><trkpt lat="45.6353176" lon="9.5639142"><ele>181.57142857142856</ele><time>2026-04-10T13:35:00.061Z</time></trkpt><trkpt lat="45.6353602" lon="9.56383"><ele>181.28571428571428</ele><time>2026-04-10T13:35:01.061Z</time></trkpt><trkpt lat="45.6354019" lon="9.5637484"><ele>181.0</ele><time>2026-04-10T13:35:02.061Z</time></trkpt><trkpt lat="45.6354482" lon="9.5636715"><ele>180.16666666666669</ele><time>2026-04-10T13:35:03.06Z</time></trkpt><trkpt lat="45.6355418" lon="9.5635363"><ele>179.33333333333334</ele><time>2026-04-10T13:35:05.061Z</time></trkpt><trkpt lat="45.6355934" lon="9.5634828"><ele>178.5</ele><time>2026-04-10T13:35:06.061Z</time></trkpt><trkpt lat="45.6356427" lon="9.5634259"><ele>177.66666666666666</ele><time>2026-04-10T13:35:07.061Z</time></trkpt><trkpt lat="45.6356936" lon="9.5633463"><ele>176.83333333333331</ele><time>2026-04-10T13:35:09.061Z</time></trkpt><trkpt lat="45.635749" lon="9.5632771"><ele>176.0</ele><time>2026-04-10T13:35:14.061Z</time></trkpt><trkpt lat="45.6358218" lon="9.5632021"><ele>176.0</ele><time>2026-04-10T13:35:18.06Z</time></trkpt><trkpt lat="45.6358999" lon="9.5631128"><ele>176.0</ele><time>2026-04-10T13:35:20.061Z</time></trkpt><trkpt lat="45.6359423" lon="9.5630234"><ele>176.0</ele><time>2026-04-10T13:35:22.061Z</time></trkpt><trkpt lat="45.635928" lon="9.5629062"><ele>176.0</ele><time>2026-04-10T13:35:24.061Z</time></trkpt><trkpt lat="45.6358789" lon="9.5627943"><ele>176.0</ele><time>2026-04-10T13:35:26.061Z</time></trkpt><trkpt lat="45.6358087" lon="9.5626894"><ele>175.8</ele><time>2026-04-10T13:35:28.061Z</time></trkpt><trkpt lat="45.6357521" lon="9.5625836"><ele>175.60000000000002</ele><time>2026-04-10T13:35:30.06Z</time></trkpt><trkpt lat="45.6356656" lon="9.5624945"><ele>175.4</ele><time>2026-04-10T13:35:32.061Z</time></trkpt><trkpt lat="45.6355858" lon="9.5623937"><ele>175.2</ele><time>2026-04-10T13:35:34.06Z</time></trkpt><trkpt lat="45.6354948" lon="9.5622938"><ele>175.0</ele><time>2026-04-10T13:35:36.06Z</time></trkpt><trkpt lat="45.6354081" lon="9.5621938"><ele>175.0</ele><time>2026-04-10T13:35:38.061Z</time></trkpt><trkpt lat="45.6353308" lon="9.5620868"><ele>175.0</ele><time>2026-04-10T13:35:40.061Z</time></trkpt><trkpt lat="45.6352601" lon="9.561946"><ele>175.0</ele><time>2026-04-10T13:35:42.061Z</time></trkpt><trkpt lat="45.6352455" lon="9.5618561"><ele>175.0</ele><time>2026-04-10T13:35:43.06Z</time></trkpt><trkpt lat="45.6352066" lon="9.5617808"><ele>175.0</ele><time>2026-04-10T13:35:44.061Z</time></trkpt><trkpt lat="45.6351522" lon="9.5616214"><ele>175.0</ele><time>2026-04-10T13:35:46.061Z</time></trkpt><trkpt lat="45.635082" lon="9.5614868"><ele>175.0</ele><time>2026-04-10T13:35:48.061Z</time></trkpt><trkpt lat="45.6349973" lon="9.5613661"><ele>175.0</ele><time>2026-04-10T13:35:50.061Z</time></trkpt><trkpt lat="45.634896" lon="9.5612623"><ele>175.0</ele><time>2026-04-10T13:35:52.06Z</time></trkpt><trkpt lat="45.6348583" lon="9.5611838"><ele>175.0</ele><time>2026-04-10T13:35:53.061Z</time></trkpt><trkpt lat="45.6348224" lon="9.5610967"><ele>174.16666666666669</ele><time>2026-04-10T13:35:54.061Z</time></trkpt><trkpt lat="45.634794" lon="9.561007"><ele>173.33333333333334</ele><time>2026-04-10T13:35:55.06Z</time></trkpt><trkpt lat="45.6347836" lon="9.5609123"><ele>172.5</ele><time>2026-04-10T13:35:56.061Z</time></trkpt><trkpt lat="45.6347833" lon="9.5608109"><ele>171.66666666666666</ele><time>2026-04-10T13:35:57.061Z</time></trkpt><trkpt lat="45.6347816" lon="9.5607177"><ele>170.83333333333331</ele><time>2026-04-10T13:35:58.061Z</time></trkpt><trkpt lat="45.6347716" lon="9.5606181"><ele>170.0</ele><time>2026-04-10T13:35:59.061Z</time></trkpt><trkpt lat="45.6347756" lon="9.5604562"><ele>169.66666666666666</ele><time>2026-04-10T13:36:01.061Z</time></trkpt><trkpt lat="45.6347982" lon="9.5603256"><ele>169.33333333333331</ele><time>2026-04-10T13:36:03.061Z</time></trkpt><trkpt lat="45.6348298" lon="9.5602431"><ele>169.0</ele><time>2026-04-10T13:36:05.061Z</time></trkpt><trkpt lat="45.6348585" lon="9.5601455"><ele>168.66666666666666</ele><time>2026-04-10T13:36:19.06Z</time></trkpt><trkpt lat="45.6348938" lon="9.5600659"><ele>168.33333333333334</ele><time>2026-04-10T13:36:27.06Z</time></trkpt><trkpt lat="45.6349361" lon="9.5599751"><ele>168.0</ele><time>2026-04-10T13:36:30.061Z</time></trkpt><trkpt lat="45.6349832" lon="9.5598556"><ele>168.0</ele><time>2026-04-10T13:36:33.061Z</time></trkpt><trkpt lat="45.6350166" lon="9.5597674"><ele>168.0</ele><time>2026-04-10T13:36:35.061Z</time></trkpt><trkpt lat="45.635045" lon="9.559678"><ele>168.0</ele><time>2026-04-10T13:36:37.06Z</time></trkpt><trkpt lat="45.6350909" lon="9.5596143"><ele>168.0</ele><time>2026-04-10T13:36:42.061Z</time></trkpt><trkpt lat="45.6351617" lon="9.559639"><ele>168.0</ele><time>2026-04-10T13:36:45.061Z</time></trkpt><trkpt lat="45.6352263" lon="9.5596355"><ele>168.0</ele><time>2026-04-10T13:36:48.061Z</time></trkpt><trkpt lat="45.6351938" lon="9.5595465"><ele>168.0</ele><time>2026-04-10T13:36:51.061Z</time></trkpt><trkpt lat="45.6351319" lon="9.5594915"><ele>168.2</ele><time>2026-04-10T13:36:53.061Z</time></trkpt><trkpt lat="45.6350632" lon="9.5594288"><ele>168.4</ele><time>2026-04-10T13:36:55.06Z</time></trkpt><trkpt lat="45.6349887" lon="9.5593463"><ele>168.6</ele><time>2026-04-10T13:36:57.061Z</time></trkpt><trkpt lat="45.6349133" lon="9.5592779"><ele>168.79999999999998</ele><time>2026-04-10T13:36:59.061Z</time></trkpt><trkpt lat="45.6348294" lon="9.5591984"><ele>169.0</ele><time>2026-04-10T13:37:01.061Z</time></trkpt><trkpt lat="45.6347486" lon="9.5591118"><ele>169.0</ele><time>2026-04-10T13:37:03.061Z</time></trkpt><trkpt lat="45.6346607" lon="9.5590224"><ele>169.0</ele><time>2026-04-10T13:37:05.061Z</time></trkpt><trkpt lat="45.6345715" lon="9.5589483"><ele>169.0</ele><time>2026-04-10T13:37:07.06Z</time></trkpt><trkpt lat="45.6344623" lon="9.5588854"><ele>169.0</ele><time>2026-04-10T13:37:09.06Z</time></trkpt><trkpt lat="45.634353" lon="9.5588105"><ele>169.2</ele><time>2026-04-10T13:37:11.061Z</time></trkpt><trkpt lat="45.6342432" lon="9.5587517"><ele>169.39999999999998</ele><time>2026-04-10T13:37:13.06Z</time></trkpt><trkpt lat="45.6341408" lon="9.5586904"><ele>169.6</ele><time>2026-04-10T13:37:15.061Z</time></trkpt><trkpt lat="45.6340768" lon="9.5586727"><ele>169.8</ele><time>2026-04-10T13:37:16.061Z</time></trkpt><trkpt lat="45.6340127" lon="9.5586539"><ele>170.0</ele><time>2026-04-10T13:37:17.061Z</time></trkpt><trkpt lat="45.633894" lon="9.5586303"><ele>170.0</ele><time>2026-04-10T13:37:19.061Z</time></trkpt><trkpt lat="45.6338292" lon="9.5585938"><ele>170.0</ele><time>2026-04-10T13:37:20.061Z</time></trkpt><trkpt lat="45.6337289" lon="9.5585432"><ele>170.0</ele><time>2026-04-10T13:37:22.061Z</time></trkpt><trkpt lat="45.6336471" lon="9.558512"><ele>170.0</ele><time>2026-04-10T13:37:24.061Z</time></trkpt><trkpt lat="45.6335392" lon="9.5585131"><ele>170.0</ele><time>2026-04-10T13:37:26.061Z</time></trkpt><trkpt lat="45.6334734" lon="9.5584973"><ele>170.0</ele><time>2026-04-10T13:37:27.06Z</time></trkpt><trkpt lat="45.633354" lon="9.5584607"><ele>169.6</ele><time>2026-04-10T13:37:29.061Z</time></trkpt><trkpt lat="45.6332483" lon="9.5584179"><ele>169.2</ele><time>2026-04-10T13:37:31.061Z</time></trkpt><trkpt lat="45.6331848" lon="9.5584061"><ele>168.8</ele><time>2026-04-10T13:37:32.061Z</time></trkpt><trkpt lat="45.633097" lon="9.5583812"><ele>168.4</ele><time>2026-04-10T13:37:34.061Z</time></trkpt><trkpt lat="45.6329848" lon="9.5583493"><ele>168.0</ele><time>2026-04-10T13:37:36.061Z</time></trkpt><trkpt lat="45.6328851" lon="9.5583066"><ele>168.0</ele><time>2026-04-10T13:37:38.061Z</time></trkpt><trkpt lat="45.6327972" lon="9.5582509"><ele>168.0</ele><time>2026-04-10T13:37:40.061Z</time></trkpt><trkpt lat="45.6326925" lon="9.5582048"><ele>168.0</ele><time>2026-04-10T13:37:42.061Z</time></trkpt><trkpt lat="45.6325737" lon="9.5581761"><ele>168.0</ele><time>2026-04-10T13:37:44.061Z</time></trkpt><trkpt lat="45.6324566" lon="9.5581472"><ele>168.0</ele><time>2026-04-10T13:37:46.061Z</time></trkpt><trkpt lat="45.6323607" lon="9.5581101"><ele>168.0</ele><time>2026-04-10T13:37:48.06Z</time></trkpt><trkpt lat="45.6323023" lon="9.5580279"><ele>168.0</ele><time>2026-04-10T13:37:50.061Z</time></trkpt><trkpt lat="45.632252" lon="9.5579373"><ele>168.0</ele><time>2026-04-10T13:37:52.061Z</time></trkpt><trkpt lat="45.6322357" lon="9.5578476"><ele>168.0</ele><time>2026-04-10T13:37:54.061Z</time></trkpt><trkpt lat="45.6322096" lon="9.5577433"><ele>168.0</ele><time>2026-04-10T13:37:58.06Z</time></trkpt><trkpt lat="45.6321353" lon="9.5577517"><ele>168.0</ele><time>2026-04-10T13:38:01.061Z</time></trkpt><trkpt lat="45.6321161" lon="9.5578444"><ele>168.0</ele><time>2026-04-10T13:38:03.061Z</time></trkpt><trkpt lat="45.6320574" lon="9.5579237"><ele>168.0</ele><time>2026-04-10T13:38:06.061Z</time></trkpt><trkpt lat="45.6320047" lon="9.5579974"><ele>168.0</ele><time>2026-04-10T13:38:09.061Z</time></trkpt><trkpt lat="45.6319336" lon="9.5580316"><ele>168.0</ele><time>2026-04-10T13:38:13.06Z</time></trkpt><trkpt lat="45.631861" lon="9.5579769"><ele>168.0</ele><time>2026-04-10T13:38:16.061Z</time></trkpt><trkpt lat="45.6317773" lon="9.5579227"><ele>168.0</ele><time>2026-04-10T13:38:18.06Z</time></trkpt><trkpt lat="45.6315981" lon="9.5577685"><ele>168.16666666666666</ele><time>2026-04-10T13:38:20.061Z</time></trkpt><trkpt lat="45.6315319" lon="9.5577922"><ele>168.33333333333334</ele><time>2026-04-10T13:38:21.06Z</time></trkpt><trkpt lat="45.6314398" lon="9.5578495"><ele>168.5</ele><time>2026-04-10T13:38:23.061Z</time></trkpt><trkpt lat="45.6313737" lon="9.5578589"><ele>168.66666666666669</ele><time>2026-04-10T13:38:25.061Z</time></trkpt><trkpt lat="45.6312865" lon="9.5578938"><ele>168.83333333333334</ele><time>2026-04-10T13:38:27.061Z</time></trkpt><trkpt lat="45.631189" lon="9.557954"><ele>169.0</ele><time>2026-04-10T13:38:29.061Z</time></trkpt><trkpt lat="45.6310888" lon="9.558021"><ele>169.0</ele><time>2026-04-10T13:38:31.061Z</time></trkpt><trkpt lat="45.6310058" lon="9.5580758"><ele>169.0</ele><time>2026-04-10T13:38:33.061Z</time></trkpt><trkpt lat="45.6309263" lon="9.5581263"><ele>169.0</ele><time>2026-04-10T13:38:35.061Z</time></trkpt><trkpt lat="45.6308437" lon="9.5582015"><ele>169.0</ele><time>2026-04-10T13:38:37.061Z</time></trkpt><trkpt lat="45.6307642" lon="9.5582912"><ele>169.0</ele><time>2026-04-10T13:38:39.061Z</time></trkpt><trkpt lat="45.6306719" lon="9.5583909"><ele>169.0</ele><time>2026-04-10T13:38:41.061Z</time></trkpt><trkpt lat="45.6305758" lon="9.558467"><ele>169.0</ele><time>2026-04-10T13:38:43.061Z</time></trkpt><trkpt lat="45.6304782" lon="9.5585496"><ele>169.0</ele><time>2026-04-10T13:38:45.06Z</time></trkpt><trkpt lat="45.6303853" lon="9.5586447"><ele>169.0</ele><time>2026-04-10T13:38:47.061Z</time></trkpt><trkpt lat="45.6302908" lon="9.5587065"><ele>169.0</ele><time>2026-04-10T13:38:49.061Z</time></trkpt><trkpt lat="45.6301864" lon="9.5587775"><ele>168.79999999999998</ele><time>2026-04-10T13:38:51.06Z</time></trkpt><trkpt lat="45.6300751" lon="9.5588466"><ele>168.6</ele><time>2026-04-10T13:38:53.061Z</time></trkpt><trkpt lat="45.6300148" lon="9.5588754"><ele>168.4</ele><time>2026-04-10T13:38:54.061Z</time></trkpt><trkpt lat="45.6299087" lon="9.5589081"><ele>168.2</ele><time>2026-04-10T13:38:56.061Z</time></trkpt><trkpt lat="45.6298013" lon="9.5589324"><ele>168.0</ele><time>2026-04-10T13:38:58.061Z</time></trkpt><trkpt lat="45.6296953" lon="9.5589438"><ele>168.0</ele><time>2026-04-10T13:39:00.06Z</time></trkpt><trkpt lat="45.6295733" lon="9.5589396"><ele>168.0</ele><time>2026-04-10T13:39:02.06Z</time></trkpt><trkpt lat="45.6294529" lon="9.5589403"><ele>168.0</ele><time>2026-04-10T13:39:04.06Z</time></trkpt><trkpt lat="45.6293338" lon="9.5589637"><ele>168.0</ele><time>2026-04-10T13:39:06.06Z</time></trkpt><trkpt lat="45.6292221" lon="9.5589323"><ele>168.5</ele><time>2026-04-10T13:39:08.061Z</time></trkpt><trkpt lat="45.6290994" lon="9.5588924"><ele>169.0</ele><time>2026-04-10T13:39:10.061Z</time></trkpt><trkpt lat="45.6289744" lon="9.5588846"><ele>169.5</ele><time>2026-04-10T13:39:12.06Z</time></trkpt><trkpt lat="45.6288588" lon="9.5588641"><ele>170.0</ele><time>2026-04-10T13:39:14.061Z</time></trkpt><trkpt lat="45.6287445" lon="9.5588609"><ele>170.0</ele><time>2026-04-10T13:39:16.061Z</time></trkpt><trkpt lat="45.6286718" lon="9.558865"><ele>170.0</ele><time>2026-04-10T13:39:17.061Z</time></trkpt><trkpt lat="45.6286056" lon="9.5588492"><ele>170.0</ele><time>2026-04-10T13:39:18.061Z</time></trkpt><trkpt lat="45.6285418" lon="9.5588454"><ele>170.0</ele><time>2026-04-10T13:39:19.061Z</time></trkpt><trkpt lat="45.6284196" lon="9.5588137"><ele>170.0</ele><time>2026-04-10T13:39:21.061Z</time></trkpt><trkpt lat="45.6283175" lon="9.5588092"><ele>170.0</ele><time>2026-04-10T13:39:23.061Z</time></trkpt><trkpt lat="45.6282165" lon="9.5588472"><ele>170.0</ele><time>2026-04-10T13:39:25.061Z</time></trkpt><trkpt lat="45.6281286" lon="9.5589226"><ele>170.0</ele><time>2026-04-10T13:39:27.061Z</time></trkpt><trkpt lat="45.6280418" lon="9.559024"><ele>170.0</ele><time>2026-04-10T13:39:29.06Z</time></trkpt><trkpt lat="45.627944" lon="9.5591185"><ele>170.0</ele><time>2026-04-10T13:39:31.06Z</time></trkpt><trkpt lat="45.627838" lon="9.559173"><ele>170.0</ele><time>2026-04-10T13:39:33.061Z</time></trkpt><trkpt lat="45.627728" lon="9.5591904"><ele>170.0</ele><time>2026-04-10T13:39:35.061Z</time></trkpt><trkpt lat="45.6276157" lon="9.5591767"><ele>170.0</ele><time>2026-04-10T13:39:37.06Z</time></trkpt><trkpt lat="45.6275001" lon="9.5591673"><ele>170.0</ele><time>2026-04-10T13:39:39.06Z</time></trkpt><trkpt lat="45.6273833" lon="9.5591509"><ele>170.0</ele><time>2026-04-10T13:39:41.06Z</time></trkpt><trkpt lat="45.6272645" lon="9.5591443"><ele>170.0</ele><time>2026-04-10T13:39:43.061Z</time></trkpt><trkpt lat="45.6271559" lon="9.5591275"><ele>170.0</ele><time>2026-04-10T13:39:45.061Z</time></trkpt><trkpt lat="45.6270479" lon="9.5591213"><ele>170.0</ele><time>2026-04-10T13:39:47.061Z</time></trkpt><trkpt lat="45.6269449" lon="9.5591131"><ele>170.0</ele><time>2026-04-10T13:39:49.061Z</time></trkpt><trkpt lat="45.6268569" lon="9.559108"><ele>170.0</ele><time>2026-04-10T13:39:51.061Z</time></trkpt><trkpt lat="45.6267612" lon="9.559127"><ele>171.0</ele><time>2026-04-10T13:39:53.06Z</time></trkpt><trkpt lat="45.6266851" lon="9.5591477"><ele>172.0</ele><time>2026-04-10T13:39:55.06Z</time></trkpt><trkpt lat="45.6266057" lon="9.5591579"><ele>173.0</ele><time>2026-04-10T13:39:57.061Z</time></trkpt><trkpt lat="45.6265237" lon="9.5591796"><ele>174.0</ele><time>2026-04-10T13:39:59.061Z</time></trkpt><trkpt lat="45.6264134" lon="9.5592198"><ele>175.0</ele><time>2026-04-10T13:40:01.061Z</time></trkpt><trkpt lat="45.6263505" lon="9.5592405"><ele>176.0</ele><time>2026-04-10T13:40:02.06Z</time></trkpt><trkpt lat="45.6262313" lon="9.5592687"><ele>176.0</ele><time>2026-04-10T13:40:04.061Z</time></trkpt><trkpt lat="45.6261346" lon="9.5592799"><ele>176.0</ele><time>2026-04-10T13:40:06.06Z</time></trkpt><trkpt lat="45.6260231" lon="9.5593014"><ele>176.0</ele><time>2026-04-10T13:40:08.061Z</time></trkpt><trkpt lat="45.6259587" lon="9.5593055"><ele>176.0</ele><time>2026-04-10T13:40:09.061Z</time></trkpt><trkpt lat="45.6258564" lon="9.5593018"><ele>176.0</ele><time>2026-04-10T13:40:11.061Z</time></trkpt><trkpt lat="45.625789" lon="9.5593386"><ele>176.0</ele><time>2026-04-10T13:40:12.061Z</time></trkpt><trkpt lat="45.6256718" lon="9.559415"><ele>176.0</ele><time>2026-04-10T13:40:14.061Z</time></trkpt><trkpt lat="45.6256112" lon="9.5594549"><ele>176.0</ele><time>2026-04-10T13:40:15.061Z</time></trkpt><trkpt lat="45.6254977" lon="9.5594413"><ele>176.0</ele><time>2026-04-10T13:40:17.061Z</time></trkpt><trkpt lat="45.6254079" lon="9.5593834"><ele>176.0</ele><time>2026-04-10T13:40:19.061Z</time></trkpt><trkpt lat="45.6253182" lon="9.5594251"><ele>176.0</ele><time>2026-04-10T13:40:21.06Z</time></trkpt><trkpt lat="45.6252032" lon="9.5594408"><ele>175.75</ele><time>2026-04-10T13:40:23.061Z</time></trkpt><trkpt lat="45.6250822" lon="9.5594431"><ele>175.5</ele><time>2026-04-10T13:40:25.06Z</time></trkpt><trkpt lat="45.6249626" lon="9.5594667"><ele>175.25</ele><time>2026-04-10T13:40:27.061Z</time></trkpt><trkpt lat="45.6248377" lon="9.5594896"><ele>175.0</ele><time>2026-04-10T13:40:29.061Z</time></trkpt><trkpt lat="45.6247189" lon="9.5594867"><ele>175.0</ele><time>2026-04-10T13:40:31.061Z</time></trkpt><trkpt lat="45.6246443" lon="9.5594979"><ele>175.0</ele><time>2026-04-10T13:40:32.06Z</time></trkpt><trkpt lat="45.6245767" lon="9.5595177"><ele>175.0</ele><time>2026-04-10T13:40:33.061Z</time></trkpt><trkpt lat="45.6245069" lon="9.5595325"><ele>175.0</ele><time>2026-04-10T13:40:34.06Z</time></trkpt><trkpt lat="45.6244354" lon="9.5595425"><ele>175.0</ele><time>2026-04-10T13:40:35.06Z</time></trkpt><trkpt lat="45.6243611" lon="9.5595517"><ele>175.0</ele><time>2026-04-10T13:40:36.061Z</time></trkpt><trkpt lat="45.6242755" lon="9.5595754"><ele>175.0</ele><time>2026-04-10T13:40:37.061Z</time></trkpt><trkpt lat="45.6241998" lon="9.5595878"><ele>174.28571428571428</ele><time>2026-04-10T13:40:38.061Z</time></trkpt><trkpt lat="45.6241298" lon="9.5596014"><ele>173.57142857142856</ele><time>2026-04-10T13:40:39.061Z</time></trkpt><trkpt lat="45.6240611" lon="9.5596236"><ele>172.85714285714286</ele><time>2026-04-10T13:40:40.061Z</time></trkpt><trkpt lat="45.6239948" lon="9.5596264"><ele>172.14285714285714</ele><time>2026-04-10T13:40:41.061Z</time></trkpt><trkpt lat="45.6239245" lon="9.5596381"><ele>171.42857142857142</ele><time>2026-04-10T13:40:42.061Z</time></trkpt><trkpt lat="45.6238535" lon="9.5596468"><ele>170.71428571428572</ele><time>2026-04-10T13:40:43.061Z</time></trkpt><trkpt lat="45.6237861" lon="9.5596562"><ele>170.0</ele><time>2026-04-10T13:40:44.061Z</time></trkpt><trkpt lat="45.6237111" lon="9.5596737"><ele>170.0</ele><time>2026-04-10T13:40:45.061Z</time></trkpt><trkpt lat="45.6236381" lon="9.5596771"><ele>170.0</ele><time>2026-04-10T13:40:46.061Z</time></trkpt><trkpt lat="45.6235742" lon="9.5596982"><ele>170.0</ele><time>2026-04-10T13:40:47.06Z</time></trkpt><trkpt lat="45.623449" lon="9.5597029"><ele>170.0</ele><time>2026-04-10T13:40:49.061Z</time></trkpt><trkpt lat="45.6233521" lon="9.5596553"><ele>170.0</ele><time>2026-04-10T13:40:51.061Z</time></trkpt><trkpt lat="45.6233225" lon="9.5595379"><ele>171.0</ele><time>2026-04-10T13:40:53.061Z</time></trkpt><trkpt lat="45.6233231" lon="9.5594166"><ele>172.0</ele><time>2026-04-10T13:40:55.061Z</time></trkpt><trkpt lat="45.6233255" lon="9.5592924"><ele>173.0</ele><time>2026-04-10T13:40:57.061Z</time></trkpt><trkpt lat="45.6233213" lon="9.5591753"><ele>174.0</ele><time>2026-04-10T13:40:59.06Z</time></trkpt><trkpt lat="45.6233131" lon="9.559051"><ele>175.0</ele><time>2026-04-10T13:41:01.061Z</time></trkpt><trkpt lat="45.6233095" lon="9.5589178"><ele>176.0</ele><time>2026-04-10T13:41:03.061Z</time></trkpt><trkpt lat="45.6233078" lon="9.5587778"><ele>176.60000000000002</ele><time>2026-04-10T13:41:05.061Z</time></trkpt><trkpt lat="45.6233077" lon="9.558632"><ele>177.2</ele><time>2026-04-10T13:41:07.061Z</time></trkpt><trkpt lat="45.623304" lon="9.5584958"><ele>177.8</ele><time>2026-04-10T13:41:09.06Z</time></trkpt><trkpt lat="45.623307" lon="9.5583574"><ele>178.39999999999998</ele><time>2026-04-10T13:41:11.061Z</time></trkpt><trkpt lat="45.6233051" lon="9.5582211"><ele>179.0</ele><time>2026-04-10T13:41:13.061Z</time></trkpt><trkpt lat="45.6233049" lon="9.5580787"><ele>179.0</ele><time>2026-04-10T13:41:15.061Z</time></trkpt><trkpt lat="45.6233068" lon="9.5579216"><ele>179.0</ele><time>2026-04-10T13:41:17.061Z</time></trkpt><trkpt lat="45.6233058" lon="9.5577691"><ele>179.0</ele><time>2026-04-10T13:41:19.061Z</time></trkpt><trkpt lat="45.6233023" lon="9.5576143"><ele>179.0</ele><time>2026-04-10T13:41:21.061Z</time></trkpt><trkpt lat="45.6232968" lon="9.557464"><ele>179.0</ele><time>2026-04-10T13:41:23.06Z</time></trkpt><trkpt lat="45.6232945" lon="9.557324"><ele>179.33333333333331</ele><time>2026-04-10T13:41:25.061Z</time></trkpt><trkpt lat="45.6233119" lon="9.5572003"><ele>179.66666666666666</ele><time>2026-04-10T13:41:27.061Z</time></trkpt><trkpt lat="45.623351" lon="9.5570923"><ele>180.0</ele><time>2026-04-10T13:41:29.061Z</time></trkpt><trkpt lat="45.6233733" lon="9.5569841"><ele>180.33333333333334</ele><time>2026-04-10T13:41:32.06Z</time></trkpt><trkpt lat="45.6233267" lon="9.556912"><ele>180.66666666666669</ele><time>2026-04-10T13:41:34.061Z</time></trkpt><trkpt lat="45.6232478" lon="9.5568688"><ele>181.0</ele><time>2026-04-10T13:41:36.06Z</time></trkpt><trkpt lat="45.6231304" lon="9.5568479"><ele>181.0</ele><time>2026-04-10T13:41:38.06Z</time></trkpt><trkpt lat="45.6230438" lon="9.5568083"><ele>181.0</ele><time>2026-04-10T13:41:40.061Z</time></trkpt><trkpt lat="45.6229915" lon="9.5567511"><ele>181.0</ele><time>2026-04-10T13:41:43.061Z</time></trkpt><trkpt lat="45.6229868" lon="9.5566185"><ele>181.0</ele><time>2026-04-10T13:41:46.06Z</time></trkpt><trkpt lat="45.6230215" lon="9.5565323"><ele>181.0</ele><time>2026-04-10T13:41:48.06Z</time></trkpt><trkpt lat="45.6230654" lon="9.556437"><ele>181.0</ele><time>2026-04-10T13:41:50.061Z</time></trkpt><trkpt lat="45.6231141" lon="9.5563376"><ele>181.0</ele><time>2026-04-10T13:41:52.061Z</time></trkpt><trkpt lat="45.6231639" lon="9.5562396"><ele>181.0</ele><time>2026-04-10T13:41:54.06Z</time></trkpt><trkpt lat="45.6231972" lon="9.55612"><ele>181.0</ele><time>2026-04-10T13:41:56.061Z</time></trkpt><trkpt lat="45.6232463" lon="9.5560129"><ele>181.0</ele><time>2026-04-10T13:41:58.061Z</time></trkpt><trkpt lat="45.6232969" lon="9.5558951"><ele>181.0</ele><time>2026-04-10T13:42:00.061Z</time></trkpt><trkpt lat="45.6233427" lon="9.5557762"><ele>181.8</ele><time>2026-04-10T13:42:02.061Z</time></trkpt><trkpt lat="45.623384" lon="9.5556564"><ele>182.60000000000002</ele><time>2026-04-10T13:42:04.06Z</time></trkpt><trkpt lat="45.6234248" lon="9.5555253"><ele>183.4</ele><time>2026-04-10T13:42:06.061Z</time></trkpt><trkpt lat="45.6234611" lon="9.5553899"><ele>184.2</ele><time>2026-04-10T13:42:08.061Z</time></trkpt><trkpt lat="45.6235014" lon="9.555251"><ele>185.0</ele><time>2026-04-10T13:42:10.061Z</time></trkpt><trkpt lat="45.6235512" lon="9.5551062"><ele>185.2</ele><time>2026-04-10T13:42:12.061Z</time></trkpt><trkpt lat="45.623596" lon="9.554962"><ele>185.4</ele><time>2026-04-10T13:42:14.061Z</time></trkpt><trkpt lat="45.6236381" lon="9.5548199"><ele>185.60000000000002</ele><time>2026-04-10T13:42:16.06Z</time></trkpt><trkpt lat="45.6236874" lon="9.554664"><ele>185.8</ele><time>2026-04-10T13:42:18.061Z</time></trkpt><trkpt lat="45.6237183" lon="9.5545838"><ele>186.0</ele><time>2026-04-10T13:42:19.06Z</time></trkpt><trkpt lat="45.6237682" lon="9.554432"><ele>185.60000000000002</ele><time>2026-04-10T13:42:21.061Z</time></trkpt><trkpt lat="45.6238184" lon="9.5542832"><ele>185.2</ele><time>2026-04-10T13:42:23.061Z</time></trkpt><trkpt lat="45.6238636" lon="9.5541286"><ele>184.8</ele><time>2026-04-10T13:42:25.061Z</time></trkpt><trkpt lat="45.6239029" lon="9.5539801"><ele>184.39999999999998</ele><time>2026-04-10T13:42:27.06Z</time></trkpt><trkpt lat="45.6239279" lon="9.5538921"><ele>184.0</ele><time>2026-04-10T13:42:28.061Z</time></trkpt><trkpt lat="45.6239522" lon="9.5538086"><ele>183.83333333333334</ele><time>2026-04-10T13:42:29.061Z</time></trkpt><trkpt lat="45.6240034" lon="9.5536454"><ele>183.66666666666669</ele><time>2026-04-10T13:42:31.061Z</time></trkpt><trkpt lat="45.6240277" lon="9.5535607"><ele>183.5</ele><time>2026-04-10T13:42:32.06Z</time></trkpt><trkpt lat="45.6240537" lon="9.5534765"><ele>183.33333333333334</ele><time>2026-04-10T13:42:33.06Z</time></trkpt><trkpt lat="45.6241065" lon="9.553307"><ele>183.16666666666666</ele><time>2026-04-10T13:42:35.061Z</time></trkpt><trkpt lat="45.6241322" lon="9.5532215"><ele>183.0</ele><time>2026-04-10T13:42:36.061Z</time></trkpt><trkpt lat="45.6241902" lon="9.5530616"><ele>183.0</ele><time>2026-04-10T13:42:38.061Z</time></trkpt><trkpt lat="45.6242267" lon="9.5529846"><ele>183.0</ele><time>2026-04-10T13:42:39.06Z</time></trkpt><trkpt lat="45.6243113" lon="9.5528447"><ele>183.0</ele><time>2026-04-10T13:42:41.061Z</time></trkpt><trkpt lat="45.6244177" lon="9.5527646"><ele>183.0</ele><time>2026-04-10T13:42:43.061Z</time></trkpt><trkpt lat="45.6245193" lon="9.5526848"><ele>183.0</ele><time>2026-04-10T13:42:45.061Z</time></trkpt><trkpt lat="45.6245903" lon="9.5525485"><ele>183.16666666666666</ele><time>2026-04-10T13:42:47.061Z</time></trkpt><trkpt lat="45.6245784" lon="9.5523737"><ele>183.33333333333334</ele><time>2026-04-10T13:42:49.061Z</time></trkpt><trkpt lat="45.6245191" lon="9.5522139"><ele>183.5</ele><time>2026-04-10T13:42:51.06Z</time></trkpt><trkpt lat="45.6244837" lon="9.5521322"><ele>183.66666666666669</ele><time>2026-04-10T13:42:52.061Z</time></trkpt><trkpt lat="45.6244608" lon="9.5520437"><ele>183.83333333333334</ele><time>2026-04-10T13:42:53.061Z</time></trkpt><trkpt lat="45.6244408" lon="9.551956"><ele>184.0</ele><time>2026-04-10T13:42:54.061Z</time></trkpt><trkpt lat="45.6244218" lon="9.5518618"><ele>184.0</ele><time>2026-04-10T13:42:55.06Z</time></trkpt><trkpt lat="45.6244107" lon="9.5517714"><ele>184.0</ele><time>2026-04-10T13:42:56.061Z</time></trkpt><trkpt lat="45.6243966" lon="9.5515938"><ele>184.0</ele><time>2026-04-10T13:42:58.061Z</time></trkpt><trkpt lat="45.6244009" lon="9.5514066"><ele>184.0</ele><time>2026-04-10T13:43:00.061Z</time></trkpt><trkpt lat="45.6244026" lon="9.5513086"><ele>184.0</ele><time>2026-04-10T13:43:01.061Z</time></trkpt><trkpt lat="45.6244021" lon="9.5512101"><ele>183.85714285714286</ele><time>2026-04-10T13:43:02.061Z</time></trkpt><trkpt lat="45.6244022" lon="9.5511096"><ele>183.7142857142857</ele><time>2026-04-10T13:43:03.061Z</time></trkpt><trkpt lat="45.624401" lon="9.5510152"><ele>183.57142857142856</ele><time>2026-04-10T13:43:04.061Z</time></trkpt><trkpt lat="45.624406" lon="9.5509152"><ele>183.42857142857144</ele><time>2026-04-10T13:43:05.061Z</time></trkpt><trkpt lat="45.6244028" lon="9.5508216"><ele>183.28571428571428</ele><time>2026-04-10T13:43:06.061Z</time></trkpt><trkpt lat="45.6244031" lon="9.5507215"><ele>183.14285714285714</ele><time>2026-04-10T13:43:07.061Z</time></trkpt><trkpt lat="45.624401" lon="9.5506238"><ele>183.0</ele><time>2026-04-10T13:43:08.06Z</time></trkpt><trkpt lat="45.6244008" lon="9.5505312"><ele>183.0</ele><time>2026-04-10T13:43:09.061Z</time></trkpt><trkpt lat="45.6244026" lon="9.5504363"><ele>183.0</ele><time>2026-04-10T13:43:10.061Z</time></trkpt><trkpt lat="45.6244029" lon="9.5503399"><ele>183.0</ele><time>2026-04-10T13:43:11.061Z</time></trkpt><trkpt lat="45.6244027" lon="9.5502458"><ele>183.0</ele><time>2026-04-10T13:43:12.061Z</time></trkpt><trkpt lat="45.6244028" lon="9.550145"><ele>183.0</ele><time>2026-04-10T13:43:13.06Z</time></trkpt><trkpt lat="45.6243989" lon="9.5500465"><ele>183.0</ele><time>2026-04-10T13:43:14.06Z</time></trkpt><trkpt lat="45.6243978" lon="9.5499525"><ele>183.0</ele><time>2026-04-10T13:43:15.061Z</time></trkpt><trkpt lat="45.6243939" lon="9.5498571"><ele>183.0</ele><time>2026-04-10T13:43:16.06Z</time></trkpt><trkpt lat="45.6243918" lon="9.5497496"><ele>183.0</ele><time>2026-04-10T13:43:17.061Z</time></trkpt><trkpt lat="45.6243922" lon="9.5496529"><ele>183.0</ele><time>2026-04-10T13:43:18.061Z</time></trkpt><trkpt lat="45.624391" lon="9.5495553"><ele>183.0</ele><time>2026-04-10T13:43:19.061Z</time></trkpt><trkpt lat="45.6243872" lon="9.5494495"><ele>183.0</ele><time>2026-04-10T13:43:20.061Z</time></trkpt><trkpt lat="45.6243867" lon="9.5493503"><ele>183.0</ele><time>2026-04-10T13:43:21.061Z</time></trkpt><trkpt lat="45.6243885" lon="9.5492557"><ele>183.0</ele><time>2026-04-10T13:43:22.061Z</time></trkpt><trkpt lat="45.6244046" lon="9.5491528"><ele>182.60000000000002</ele><time>2026-04-10T13:43:23.061Z</time></trkpt><trkpt lat="45.6244284" lon="9.5490622"><ele>182.20000000000002</ele><time>2026-04-10T13:43:24.061Z</time></trkpt><trkpt lat="45.6244662" lon="9.5488935"><ele>181.8</ele><time>2026-04-10T13:43:26.061Z</time></trkpt><trkpt lat="45.6244656" lon="9.5487206"><ele>181.4</ele><time>2026-04-10T13:43:28.061Z</time></trkpt><trkpt lat="45.6243966" lon="9.5485843"><ele>181.0</ele><time>2026-04-10T13:43:30.061Z</time></trkpt><trkpt lat="45.6243362" lon="9.5485507"><ele>181.0</ele><time>2026-04-10T13:43:31.061Z</time></trkpt><trkpt lat="45.6242726" lon="9.5485425"><ele>181.0</ele><time>2026-04-10T13:43:32.061Z</time></trkpt><trkpt lat="45.6242077" lon="9.5485597"><ele>181.0</ele><time>2026-04-10T13:43:33.061Z</time></trkpt><trkpt lat="45.6241479" lon="9.5486025"><ele>181.0</ele><time>2026-04-10T13:43:34.061Z</time></trkpt><trkpt lat="45.6240936" lon="9.5486486"><ele>181.0</ele><time>2026-04-10T13:43:35.061Z</time></trkpt><trkpt lat="45.6240325" lon="9.5486974"><ele>181.0</ele><time>2026-04-10T13:43:36.061Z</time></trkpt><trkpt lat="45.6239661" lon="9.5487193"><ele>181.0</ele><time>2026-04-10T13:43:37.061Z</time></trkpt><trkpt lat="45.6238938" lon="9.5487289"><ele>181.0</ele><time>2026-04-10T13:43:38.061Z</time></trkpt><trkpt lat="45.623819" lon="9.548739"><ele>181.0</ele><time>2026-04-10T13:43:39.061Z</time></trkpt><trkpt lat="45.6237454" lon="9.5487471"><ele>181.0</ele><time>2026-04-10T13:43:40.06Z</time></trkpt><trkpt lat="45.6236111" lon="9.548754"><ele>181.0</ele><time>2026-04-10T13:43:42.061Z</time></trkpt><trkpt lat="45.6235382" lon="9.5487556"><ele>181.0</ele><time>2026-04-10T13:43:43.061Z</time></trkpt><trkpt lat="45.6234642" lon="9.5487562"><ele>181.0</ele><time>2026-04-10T13:43:44.061Z</time></trkpt><trkpt lat="45.6233872" lon="9.548758"><ele>181.14285714285714</ele><time>2026-04-10T13:43:45.061Z</time></trkpt><trkpt lat="45.6233133" lon="9.548763"><ele>181.28571428571428</ele><time>2026-04-10T13:43:46.061Z</time></trkpt><trkpt lat="45.6232395" lon="9.5487651"><ele>181.42857142857144</ele><time>2026-04-10T13:43:47.061Z</time></trkpt><trkpt lat="45.6231649" lon="9.5487651"><ele>181.57142857142856</ele><time>2026-04-10T13:43:48.061Z</time></trkpt><trkpt lat="45.6230902" lon="9.5487716"><ele>181.71428571428572</ele><time>2026-04-10T13:43:49.061Z</time></trkpt><trkpt lat="45.623017" lon="9.5487753"><ele>181.85714285714286</ele><time>2026-04-10T13:43:50.061Z</time></trkpt><trkpt lat="45.6229427" lon="9.5487796"><ele>182.0</ele><time>2026-04-10T13:43:51.061Z</time></trkpt><trkpt lat="45.6228651" lon="9.5487901"><ele>182.14285714285714</ele><time>2026-04-10T13:43:52.061Z</time></trkpt><trkpt lat="45.622788" lon="9.5488014"><ele>182.28571428571428</ele><time>2026-04-10T13:43:53.061Z</time></trkpt><trkpt lat="45.6227163" lon="9.5488035"><ele>182.42857142857144</ele><time>2026-04-10T13:43:54.061Z</time></trkpt><trkpt lat="45.6226457" lon="9.5488065"><ele>182.57142857142856</ele><time>2026-04-10T13:43:55.06Z</time></trkpt><trkpt lat="45.6225754" lon="9.5488111"><ele>182.71428571428572</ele><time>2026-04-10T13:43:56.061Z</time></trkpt><trkpt lat="45.6225026" lon="9.5488073"><ele>182.85714285714286</ele><time>2026-04-10T13:43:57.061Z</time></trkpt><trkpt lat="45.6224276" lon="9.5488079"><ele>183.0</ele><time>2026-04-10T13:43:58.061Z</time></trkpt><trkpt lat="45.6223524" lon="9.5488071"><ele>183.0</ele><time>2026-04-10T13:43:59.061Z</time></trkpt><trkpt lat="45.6222783" lon="9.5488073"><ele>183.0</ele><time>2026-04-10T13:44:00.06Z</time></trkpt><trkpt lat="45.6222017" lon="9.5488128"><ele>183.0</ele><time>2026-04-10T13:44:01.061Z</time></trkpt><trkpt lat="45.6221262" lon="9.5488137"><ele>183.0</ele><time>2026-04-10T13:44:02.061Z</time></trkpt><trkpt lat="45.6220493" lon="9.5488181"><ele>183.0</ele><time>2026-04-10T13:44:03.06Z</time></trkpt><trkpt lat="45.621975" lon="9.5488266"><ele>183.0</ele><time>2026-04-10T13:44:04.061Z</time></trkpt><trkpt lat="45.6219009" lon="9.5488289"><ele>183.0</ele><time>2026-04-10T13:44:05.06Z</time></trkpt><trkpt lat="45.6218296" lon="9.5488283"><ele>183.0</ele><time>2026-04-10T13:44:06.061Z</time></trkpt><trkpt lat="45.6217547" lon="9.5488333"><ele>183.0</ele><time>2026-04-10T13:44:07.061Z</time></trkpt><trkpt lat="45.6216751" lon="9.5488373"><ele>183.0</ele><time>2026-04-10T13:44:08.061Z</time></trkpt><trkpt lat="45.6215994" lon="9.5488353"><ele>183.0</ele><time>2026-04-10T13:44:09.061Z</time></trkpt><trkpt lat="45.6215221" lon="9.5488376"><ele>183.0</ele><time>2026-04-10T13:44:10.061Z</time></trkpt><trkpt lat="45.6214452" lon="9.5488364"><ele>183.0</ele><time>2026-04-10T13:44:11.06Z</time></trkpt><trkpt lat="45.6213718" lon="9.5488417"><ele>183.0</ele><time>2026-04-10T13:44:12.06Z</time></trkpt><trkpt lat="45.6212995" lon="9.54884"><ele>183.0</ele><time>2026-04-10T13:44:13.061Z</time></trkpt><trkpt lat="45.6212219" lon="9.5488424"><ele>183.0</ele><time>2026-04-10T13:44:14.061Z</time></trkpt><trkpt lat="45.6211492" lon="9.548843"><ele>183.0</ele><time>2026-04-10T13:44:15.061Z</time></trkpt><trkpt lat="45.6210779" lon="9.548852"><ele>183.0</ele><time>2026-04-10T13:44:16.06Z</time></trkpt><trkpt lat="45.6210024" lon="9.5488549"><ele>183.0</ele><time>2026-04-10T13:44:17.06Z</time></trkpt><trkpt lat="45.6209202" lon="9.5488242"><ele>182.83333333333334</ele><time>2026-04-10T13:44:18.061Z</time></trkpt><trkpt lat="45.620833" lon="9.5487869"><ele>182.66666666666666</ele><time>2026-04-10T13:44:19.061Z</time></trkpt><trkpt lat="45.6207634" lon="9.5488396"><ele>182.5</ele><time>2026-04-10T13:44:20.061Z</time></trkpt><trkpt lat="45.6206924" lon="9.5488259"><ele>182.33333333333331</ele><time>2026-04-10T13:44:21.061Z</time></trkpt><trkpt lat="45.6206151" lon="9.5488329"><ele>182.16666666666666</ele><time>2026-04-10T13:44:22.061Z</time></trkpt><trkpt lat="45.6204878" lon="9.5488351"><ele>182.0</ele><time>2026-04-10T13:44:24.061Z</time></trkpt><trkpt lat="45.6204099" lon="9.5488336"><ele>182.0</ele><time>2026-04-10T13:44:25.061Z</time></trkpt><trkpt lat="45.6203301" lon="9.5488634"><ele>182.0</ele><time>2026-04-10T13:44:26.061Z</time></trkpt><trkpt lat="45.6202496" lon="9.5488692"><ele>182.0</ele><time>2026-04-10T13:44:27.061Z</time></trkpt><trkpt lat="45.6201751" lon="9.54888"><ele>182.0</ele><time>2026-04-10T13:44:28.061Z</time></trkpt><trkpt lat="45.6201042" lon="9.5488854"><ele>182.0</ele><time>2026-04-10T13:44:29.06Z</time></trkpt><trkpt lat="45.6200327" lon="9.5488805"><ele>182.0</ele><time>2026-04-10T13:44:30.061Z</time></trkpt><trkpt lat="45.6199604" lon="9.5488922"><ele>181.66666666666666</ele><time>2026-04-10T13:44:31.061Z</time></trkpt><trkpt lat="45.6198828" lon="9.5488977"><ele>181.33333333333331</ele><time>2026-04-10T13:44:32.061Z</time></trkpt><trkpt lat="45.6198064" lon="9.5488912"><ele>181.0</ele><time>2026-04-10T13:44:33.06Z</time></trkpt><trkpt lat="45.6197284" lon="9.5489092"><ele>180.66666666666666</ele><time>2026-04-10T13:44:34.061Z</time></trkpt><trkpt lat="45.6196494" lon="9.5489231"><ele>180.33333333333334</ele><time>2026-04-10T13:44:35.061Z</time></trkpt><trkpt lat="45.6195745" lon="9.5489332"><ele>180.0</ele><time>2026-04-10T13:44:36.061Z</time></trkpt><trkpt lat="45.6194997" lon="9.5489352"><ele>179.66666666666666</ele><time>2026-04-10T13:44:37.061Z</time></trkpt><trkpt lat="45.6194316" lon="9.5489457"><ele>179.33333333333334</ele><time>2026-04-10T13:44:38.06Z</time></trkpt><trkpt lat="45.6193529" lon="9.5489572"><ele>179.0</ele><time>2026-04-10T13:44:39.061Z</time></trkpt><trkpt lat="45.6192773" lon="9.5489666"><ele>178.66666666666669</ele><time>2026-04-10T13:44:40.061Z</time></trkpt><trkpt lat="45.619198" lon="9.5489595"><ele>178.33333333333334</ele><time>2026-04-10T13:44:41.06Z</time></trkpt><trkpt lat="45.6191189" lon="9.5489676"><ele>178.0</ele><time>2026-04-10T13:44:42.061Z</time></trkpt><trkpt lat="45.6190488" lon="9.5489768"><ele>178.0</ele><time>2026-04-10T13:44:43.061Z</time></trkpt><trkpt lat="45.618969" lon="9.5489913"><ele>178.0</ele><time>2026-04-10T13:44:44.06Z</time></trkpt><trkpt lat="45.618892" lon="9.5490203"><ele>178.0</ele><time>2026-04-10T13:44:45.061Z</time></trkpt><trkpt lat="45.6188114" lon="9.549033"><ele>178.0</ele><time>2026-04-10T13:44:46.061Z</time></trkpt><trkpt lat="45.6187326" lon="9.549053"><ele>178.0</ele><time>2026-04-10T13:44:47.06Z</time></trkpt><trkpt lat="45.6186552" lon="9.5490636"><ele>178.0</ele><time>2026-04-10T13:44:48.061Z</time></trkpt><trkpt lat="45.618576" lon="9.5490825"><ele>178.16666666666669</ele><time>2026-04-10T13:44:49.061Z</time></trkpt><trkpt lat="45.6184969" lon="9.5490936"><ele>178.33333333333334</ele><time>2026-04-10T13:44:50.06Z</time></trkpt><trkpt lat="45.6184191" lon="9.5491017"><ele>178.5</ele><time>2026-04-10T13:44:51.061Z</time></trkpt><trkpt lat="45.6183364" lon="9.5491133"><ele>178.66666666666666</ele><time>2026-04-10T13:44:52.061Z</time></trkpt><trkpt lat="45.6182601" lon="9.5491279"><ele>178.83333333333331</ele><time>2026-04-10T13:44:53.061Z</time></trkpt><trkpt lat="45.6181801" lon="9.5491471"><ele>179.0</ele><time>2026-04-10T13:44:54.06Z</time></trkpt><trkpt lat="45.6181018" lon="9.5491565"><ele>179.0</ele><time>2026-04-10T13:44:55.061Z</time></trkpt><trkpt lat="45.6180229" lon="9.5491689"><ele>179.0</ele><time>2026-04-10T13:44:56.061Z</time></trkpt><trkpt lat="45.6179466" lon="9.5491741"><ele>179.0</ele><time>2026-04-10T13:44:57.061Z</time></trkpt><trkpt lat="45.6178645" lon="9.5491922"><ele>179.0</ele><time>2026-04-10T13:44:58.061Z</time></trkpt><trkpt lat="45.6177859" lon="9.5492085"><ele>179.0</ele><time>2026-04-10T13:44:59.06Z</time></trkpt><trkpt lat="45.6177097" lon="9.5492132"><ele>179.0</ele><time>2026-04-10T13:45:00.061Z</time></trkpt><trkpt lat="45.6176312" lon="9.549218"><ele>178.83333333333331</ele><time>2026-04-10T13:45:01.061Z</time></trkpt><trkpt lat="45.6175475" lon="9.5492223"><ele>178.66666666666666</ele><time>2026-04-10T13:45:02.061Z</time></trkpt><trkpt lat="45.6174645" lon="9.5492261"><ele>178.5</ele><time>2026-04-10T13:45:03.061Z</time></trkpt><trkpt lat="45.6173802" lon="9.5492437"><ele>178.33333333333334</ele><time>2026-04-10T13:45:04.061Z</time></trkpt><trkpt lat="45.617301" lon="9.5492524"><ele>178.16666666666669</ele><time>2026-04-10T13:45:05.061Z</time></trkpt><trkpt lat="45.6172209" lon="9.5492481"><ele>178.0</ele><time>2026-04-10T13:45:06.061Z</time></trkpt><trkpt lat="45.6171392" lon="9.5492523"><ele>178.0</ele><time>2026-04-10T13:45:07.061Z</time></trkpt><trkpt lat="45.617057" lon="9.5492484"><ele>178.0</ele><time>2026-04-10T13:45:08.061Z</time></trkpt><trkpt lat="45.616972" lon="9.5492453"><ele>178.0</ele><time>2026-04-10T13:45:09.061Z</time></trkpt><trkpt lat="45.61689" lon="9.5492404"><ele>178.0</ele><time>2026-04-10T13:45:10.06Z</time></trkpt><trkpt lat="45.6168139" lon="9.5492311"><ele>178.0</ele><time>2026-04-10T13:45:11.06Z</time></trkpt><trkpt lat="45.6167322" lon="9.5492207"><ele>178.0</ele><time>2026-04-10T13:45:12.06Z</time></trkpt><trkpt lat="45.6166524" lon="9.5492038"><ele>177.5</ele><time>2026-04-10T13:45:13.061Z</time></trkpt><trkpt lat="45.6165778" lon="9.5491934"><ele>177.0</ele><time>2026-04-10T13:45:14.061Z</time></trkpt><trkpt lat="45.6164988" lon="9.5491745"><ele>176.5</ele><time>2026-04-10T13:45:15.061Z</time></trkpt><trkpt lat="45.6164232" lon="9.549152"><ele>176.0</ele><time>2026-04-10T13:45:16.061Z</time></trkpt><trkpt lat="45.6163445" lon="9.5491328"><ele>175.5</ele><time>2026-04-10T13:45:17.06Z</time></trkpt><trkpt lat="45.6162662" lon="9.5491001"><ele>175.0</ele><time>2026-04-10T13:45:18.061Z</time></trkpt><trkpt lat="45.6161889" lon="9.5490737"><ele>175.5</ele><time>2026-04-10T13:45:19.061Z</time></trkpt><trkpt lat="45.6161196" lon="9.5490334"><ele>176.0</ele><time>2026-04-10T13:45:20.061Z</time></trkpt><trkpt lat="45.6160491" lon="9.5489993"><ele>176.5</ele><time>2026-04-10T13:45:21.06Z</time></trkpt><trkpt lat="45.6159773" lon="9.5489548"><ele>177.0</ele><time>2026-04-10T13:45:22.061Z</time></trkpt><trkpt lat="45.6159052" lon="9.548906"><ele>177.5</ele><time>2026-04-10T13:45:23.06Z</time></trkpt><trkpt lat="45.6158337" lon="9.5488648"><ele>178.0</ele><time>2026-04-10T13:45:24.061Z</time></trkpt><trkpt lat="45.6157596" lon="9.548821"><ele>178.0</ele><time>2026-04-10T13:45:25.06Z</time></trkpt><trkpt lat="45.6156914" lon="9.5487606"><ele>178.0</ele><time>2026-04-10T13:45:26.061Z</time></trkpt><trkpt lat="45.6156198" lon="9.5487075"><ele>178.0</ele><time>2026-04-10T13:45:27.061Z</time></trkpt><trkpt lat="45.6155512" lon="9.5486546"><ele>178.0</ele><time>2026-04-10T13:45:28.061Z</time></trkpt><trkpt lat="45.6154777" lon="9.5485992"><ele>178.0</ele><time>2026-04-10T13:45:29.061Z</time></trkpt><trkpt lat="45.6154131" lon="9.5485398"><ele>178.0</ele><time>2026-04-10T13:45:30.061Z</time></trkpt><trkpt lat="45.615344" lon="9.5484771"><ele>177.83333333333334</ele><time>2026-04-10T13:45:31.061Z</time></trkpt><trkpt lat="45.6152793" lon="9.5484142"><ele>177.66666666666669</ele><time>2026-04-10T13:45:32.061Z</time></trkpt><trkpt lat="45.6152118" lon="9.5483481"><ele>177.5</ele><time>2026-04-10T13:45:33.061Z</time></trkpt><trkpt lat="45.6151477" lon="9.548285"><ele>177.33333333333334</ele><time>2026-04-10T13:45:34.061Z</time></trkpt><trkpt lat="45.6150864" lon="9.5482178"><ele>177.16666666666666</ele><time>2026-04-10T13:45:35.061Z</time></trkpt><trkpt lat="45.6150267" lon="9.5481521"><ele>177.0</ele><time>2026-04-10T13:45:36.061Z</time></trkpt><trkpt lat="45.6149724" lon="9.5480825"><ele>177.0</ele><time>2026-04-10T13:45:37.061Z</time></trkpt><trkpt lat="45.6149149" lon="9.5480054"><ele>177.0</ele><time>2026-04-10T13:45:38.061Z</time></trkpt><trkpt lat="45.6148576" lon="9.5479316"><ele>177.0</ele><time>2026-04-10T13:45:39.061Z</time></trkpt><trkpt lat="45.6148017" lon="9.5478488"><ele>177.0</ele><time>2026-04-10T13:45:40.061Z</time></trkpt><trkpt lat="45.6147529" lon="9.5477632"><ele>177.0</ele><time>2026-04-10T13:45:41.061Z</time></trkpt><trkpt lat="45.6147032" lon="9.5476811"><ele>177.0</ele><time>2026-04-10T13:45:42.061Z</time></trkpt><trkpt lat="45.6146535" lon="9.5476061"><ele>177.16666666666666</ele><time>2026-04-10T13:45:43.06Z</time></trkpt><trkpt lat="45.6146051" lon="9.5475214"><ele>177.33333333333334</ele><time>2026-04-10T13:45:44.061Z</time></trkpt><trkpt lat="45.6145529" lon="9.5474407"><ele>177.5</ele><time>2026-04-10T13:45:45.061Z</time></trkpt><trkpt lat="45.6145046" lon="9.5473543"><ele>177.66666666666669</ele><time>2026-04-10T13:45:46.061Z</time></trkpt><trkpt lat="45.6144584" lon="9.5472655"><ele>177.83333333333334</ele><time>2026-04-10T13:45:47.061Z</time></trkpt><trkpt lat="45.6144185" lon="9.5471746"><ele>178.0</ele><time>2026-04-10T13:45:48.06Z</time></trkpt><trkpt lat="45.6143719" lon="9.5470853"><ele>178.5</ele><time>2026-04-10T13:45:49.061Z</time></trkpt><trkpt lat="45.6143394" lon="9.5469888"><ele>179.0</ele><time>2026-04-10T13:45:50.06Z</time></trkpt><trkpt lat="45.6143007" lon="9.5468924"><ele>179.5</ele><time>2026-04-10T13:45:51.061Z</time></trkpt><trkpt lat="45.6142688" lon="9.5467914"><ele>180.0</ele><time>2026-04-10T13:45:52.061Z</time></trkpt><trkpt lat="45.6142328" lon="9.5466942"><ele>180.5</ele><time>2026-04-10T13:45:53.061Z</time></trkpt><trkpt lat="45.6142004" lon="9.5465962"><ele>181.0</ele><time>2026-04-10T13:45:54.061Z</time></trkpt><trkpt lat="45.6141723" lon="9.5464956"><ele>181.0</ele><time>2026-04-10T13:45:55.06Z</time></trkpt><trkpt lat="45.6141379" lon="9.546402"><ele>181.0</ele><time>2026-04-10T13:45:56.061Z</time></trkpt><trkpt lat="45.6141038" lon="9.5463069"><ele>181.0</ele><time>2026-04-10T13:45:57.061Z</time></trkpt><trkpt lat="45.6140708" lon="9.5462121"><ele>181.0</ele><time>2026-04-10T13:45:58.06Z</time></trkpt><trkpt lat="45.6140432" lon="9.54611"><ele>181.0</ele><time>2026-04-10T13:45:59.06Z</time></trkpt><trkpt lat="45.6140233" lon="9.5460125"><ele>181.0</ele><time>2026-04-10T13:46:00.061Z</time></trkpt><trkpt lat="45.614021" lon="9.5459046"><ele>181.0</ele><time>2026-04-10T13:46:01.06Z</time></trkpt><trkpt lat="45.6140239" lon="9.5458037"><ele>181.0</ele><time>2026-04-10T13:46:02.061Z</time></trkpt><trkpt lat="45.6140114" lon="9.5456995"><ele>181.0</ele><time>2026-04-10T13:46:03.061Z</time></trkpt><trkpt lat="45.6139915" lon="9.545604"><ele>181.0</ele><time>2026-04-10T13:46:04.061Z</time></trkpt><trkpt lat="45.6139524" lon="9.5455254"><ele>181.0</ele><time>2026-04-10T13:46:05.061Z</time></trkpt><trkpt lat="45.6139046" lon="9.5454469"><ele>181.0</ele><time>2026-04-10T13:46:06.061Z</time></trkpt><trkpt lat="45.6138507" lon="9.5453876"><ele>181.0</ele><time>2026-04-10T13:46:07.061Z</time></trkpt><trkpt lat="45.6137924" lon="9.5453182"><ele>181.0</ele><time>2026-04-10T13:46:08.061Z</time></trkpt><trkpt lat="45.6137457" lon="9.545236"><ele>181.0</ele><time>2026-04-10T13:46:09.06Z</time></trkpt><trkpt lat="45.6137059" lon="9.5451453"><ele>181.0</ele><time>2026-04-10T13:46:10.06Z</time></trkpt><trkpt lat="45.6136724" lon="9.545053"><ele>181.0</ele><time>2026-04-10T13:46:11.061Z</time></trkpt><trkpt lat="45.6136437" lon="9.5449635"><ele>181.0</ele><time>2026-04-10T13:46:12.061Z</time></trkpt><trkpt lat="45.6136148" lon="9.5448737"><ele>181.0</ele><time>2026-04-10T13:46:13.061Z</time></trkpt><trkpt lat="45.6135862" lon="9.5447881"><ele>181.0</ele><time>2026-04-10T13:46:14.061Z</time></trkpt><trkpt lat="45.6135554" lon="9.5447043"><ele>181.0</ele><time>2026-04-10T13:46:15.061Z</time></trkpt><trkpt lat="45.613525" lon="9.5446137"><ele>181.14285714285714</ele><time>2026-04-10T13:46:16.061Z</time></trkpt><trkpt lat="45.6135007" lon="9.5445136"><ele>181.28571428571428</ele><time>2026-04-10T13:46:17.061Z</time></trkpt><trkpt lat="45.6134739" lon="9.5444259"><ele>181.42857142857144</ele><time>2026-04-10T13:46:18.061Z</time></trkpt><trkpt lat="45.6134483" lon="9.5443306"><ele>181.57142857142856</ele><time>2026-04-10T13:46:19.061Z</time></trkpt><trkpt lat="45.6134268" lon="9.5442402"><ele>181.71428571428572</ele><time>2026-04-10T13:46:20.061Z</time></trkpt><trkpt lat="45.6133988" lon="9.5441548"><ele>181.85714285714286</ele><time>2026-04-10T13:46:21.061Z</time></trkpt><trkpt lat="45.6133664" lon="9.5440664"><ele>182.0</ele><time>2026-04-10T13:46:22.061Z</time></trkpt><trkpt lat="45.6133367" lon="9.5439806"><ele>182.0</ele><time>2026-04-10T13:46:23.06Z</time></trkpt><trkpt lat="45.6133057" lon="9.5438875"><ele>182.0</ele><time>2026-04-10T13:46:24.061Z</time></trkpt><trkpt lat="45.6132751" lon="9.5437957"><ele>182.0</ele><time>2026-04-10T13:46:25.061Z</time></trkpt><trkpt lat="45.6132478" lon="9.5437087"><ele>182.0</ele><time>2026-04-10T13:46:26.061Z</time></trkpt><trkpt lat="45.6132171" lon="9.5436237"><ele>182.0</ele><time>2026-04-10T13:46:27.061Z</time></trkpt><trkpt lat="45.6131882" lon="9.5435315"><ele>182.0</ele><time>2026-04-10T13:46:28.061Z</time></trkpt><trkpt lat="45.6131554" lon="9.5434438"><ele>182.0</ele><time>2026-04-10T13:46:29.061Z</time></trkpt><trkpt lat="45.6131294" lon="9.5433497"><ele>181.71428571428572</ele><time>2026-04-10T13:46:30.06Z</time></trkpt><trkpt lat="45.6130984" lon="9.5432632"><ele>181.42857142857144</ele><time>2026-04-10T13:46:31.06Z</time></trkpt><trkpt lat="45.6130733" lon="9.5431695"><ele>181.14285714285714</ele><time>2026-04-10T13:46:32.061Z</time></trkpt><trkpt lat="45.6130383" lon="9.5430806"><ele>180.85714285714286</ele><time>2026-04-10T13:46:33.061Z</time></trkpt><trkpt lat="45.6130082" lon="9.5429926"><ele>180.57142857142858</ele><time>2026-04-10T13:46:34.061Z</time></trkpt><trkpt lat="45.6129781" lon="9.5429072"><ele>180.28571428571428</ele><time>2026-04-10T13:46:35.061Z</time></trkpt><trkpt lat="45.6129442" lon="9.5428144"><ele>180.0</ele><time>2026-04-10T13:46:36.061Z</time></trkpt><trkpt lat="45.6129142" lon="9.5427191"><ele>180.0</ele><time>2026-04-10T13:46:37.061Z</time></trkpt><trkpt lat="45.6128769" lon="9.5426274"><ele>180.0</ele><time>2026-04-10T13:46:38.06Z</time></trkpt><trkpt lat="45.6128408" lon="9.5425409"><ele>180.0</ele><time>2026-04-10T13:46:39.061Z</time></trkpt><trkpt lat="45.6128085" lon="9.5424427"><ele>180.0</ele><time>2026-04-10T13:46:40.061Z</time></trkpt><trkpt lat="45.6127719" lon="9.5423514"><ele>180.0</ele><time>2026-04-10T13:46:41.061Z</time></trkpt><trkpt lat="45.6127345" lon="9.5422574"><ele>180.0</ele><time>2026-04-10T13:46:42.061Z</time></trkpt><trkpt lat="45.6127009" lon="9.5421686"><ele>180.0</ele><time>2026-04-10T13:46:43.061Z</time></trkpt><trkpt lat="45.6126627" lon="9.5420793"><ele>180.57142857142856</ele><time>2026-04-10T13:46:44.061Z</time></trkpt><trkpt lat="45.6126234" lon="9.5419895"><ele>181.14285714285717</ele><time>2026-04-10T13:46:45.061Z</time></trkpt><trkpt lat="45.6125874" lon="9.5419035"><ele>181.71428571428572</ele><time>2026-04-10T13:46:46.061Z</time></trkpt><trkpt lat="45.6125442" lon="9.5418136"><ele>182.28571428571428</ele><time>2026-04-10T13:46:47.061Z</time></trkpt><trkpt lat="45.6125065" lon="9.5417304"><ele>182.85714285714283</ele><time>2026-04-10T13:46:48.06Z</time></trkpt><trkpt lat="45.6124672" lon="9.541642"><ele>183.42857142857144</ele><time>2026-04-10T13:46:49.061Z</time></trkpt><trkpt lat="45.6124267" lon="9.5415558"><ele>184.0</ele><time>2026-04-10T13:46:50.061Z</time></trkpt><trkpt lat="45.6123792" lon="9.5414694"><ele>184.0</ele><time>2026-04-10T13:46:51.061Z</time></trkpt><trkpt lat="45.6123323" lon="9.5413858"><ele>184.0</ele><time>2026-04-10T13:46:52.061Z</time></trkpt><trkpt lat="45.61229" lon="9.5413036"><ele>184.0</ele><time>2026-04-10T13:46:53.06Z</time></trkpt><trkpt lat="45.6122484" lon="9.541217"><ele>184.0</ele><time>2026-04-10T13:46:54.061Z</time></trkpt><trkpt lat="45.6122061" lon="9.5411244"><ele>184.0</ele><time>2026-04-10T13:46:55.061Z</time></trkpt><trkpt lat="45.6121606" lon="9.5410394"><ele>184.0</ele><time>2026-04-10T13:46:56.061Z</time></trkpt><trkpt lat="45.6121128" lon="9.5409615"><ele>184.0</ele><time>2026-04-10T13:46:57.061Z</time></trkpt><trkpt lat="45.6120664" lon="9.5408769"><ele>183.83333333333334</ele><time>2026-04-10T13:46:58.061Z</time></trkpt><trkpt lat="45.6120186" lon="9.5407927"><ele>183.66666666666669</ele><time>2026-04-10T13:46:59.061Z</time></trkpt><trkpt lat="45.6119684" lon="9.5407061"><ele>183.5</ele><time>2026-04-10T13:47:00.061Z</time></trkpt><trkpt lat="45.6119165" lon="9.54062"><ele>183.33333333333334</ele><time>2026-04-10T13:47:01.06Z</time></trkpt><trkpt lat="45.6118684" lon="9.5405358"><ele>183.16666666666666</ele><time>2026-04-10T13:47:02.06Z</time></trkpt><trkpt lat="45.6118186" lon="9.5404614"><ele>183.0</ele><time>2026-04-10T13:47:03.06Z</time></trkpt><trkpt lat="45.6117703" lon="9.5403899"><ele>183.0</ele><time>2026-04-10T13:47:04.061Z</time></trkpt><trkpt lat="45.611724" lon="9.540314"><ele>183.0</ele><time>2026-04-10T13:47:05.061Z</time></trkpt><trkpt lat="45.6116836" lon="9.5402429"><ele>183.0</ele><time>2026-04-10T13:47:06.06Z</time></trkpt><trkpt lat="45.6116052" lon="9.5401018"><ele>183.0</ele><time>2026-04-10T13:47:08.06Z</time></trkpt><trkpt lat="45.6115312" lon="9.539963"><ele>183.0</ele><time>2026-04-10T13:47:10.061Z</time></trkpt><trkpt lat="45.6114541" lon="9.5398325"><ele>183.0</ele><time>2026-04-10T13:47:12.061Z</time></trkpt><trkpt lat="45.6113832" lon="9.5397112"><ele>183.0</ele><time>2026-04-10T13:47:14.06Z</time></trkpt><trkpt lat="45.611311" lon="9.5396049"><ele>183.0</ele><time>2026-04-10T13:47:16.061Z</time></trkpt><trkpt lat="45.611263" lon="9.5395304"><ele>183.0</ele><time>2026-04-10T13:47:18.061Z</time></trkpt><trkpt lat="45.6112319" lon="9.5394354"><ele>183.0</ele><time>2026-04-10T13:47:20.061Z</time></trkpt><trkpt lat="45.6111945" lon="9.5393146"><ele>182.8</ele><time>2026-04-10T13:47:22.061Z</time></trkpt><trkpt lat="45.611145" lon="9.5391762"><ele>182.60000000000002</ele><time>2026-04-10T13:47:24.061Z</time></trkpt><trkpt lat="45.6110789" lon="9.5390335"><ele>182.39999999999998</ele><time>2026-04-10T13:47:26.06Z</time></trkpt><trkpt lat="45.6109759" lon="9.5389233"><ele>182.2</ele><time>2026-04-10T13:47:28.061Z</time></trkpt><trkpt lat="45.6109137" lon="9.5388874"><ele>182.0</ele><time>2026-04-10T13:47:29.06Z</time></trkpt><trkpt lat="45.6108503" lon="9.5388538"><ele>182.0</ele><time>2026-04-10T13:47:30.061Z</time></trkpt><trkpt lat="45.6107818" lon="9.5388222"><ele>182.0</ele><time>2026-04-10T13:47:31.061Z</time></trkpt><trkpt lat="45.6107145" lon="9.5387951"><ele>182.0</ele><time>2026-04-10T13:47:32.06Z</time></trkpt><trkpt lat="45.6106448" lon="9.5387748"><ele>182.0</ele><time>2026-04-10T13:47:33.061Z</time></trkpt><trkpt lat="45.6105738" lon="9.538766"><ele>182.0</ele><time>2026-04-10T13:47:34.06Z</time></trkpt><trkpt lat="45.6105079" lon="9.5387508"><ele>182.0</ele><time>2026-04-10T13:47:35.061Z</time></trkpt><trkpt lat="45.610442" lon="9.5387407"><ele>182.0</ele><time>2026-04-10T13:47:36.06Z</time></trkpt><trkpt lat="45.610315" lon="9.5387144"><ele>182.39999999999998</ele><time>2026-04-10T13:47:38.061Z</time></trkpt><trkpt lat="45.6101977" lon="9.5386777"><ele>182.79999999999998</ele><time>2026-04-10T13:47:40.06Z</time></trkpt><trkpt lat="45.6100909" lon="9.5386437"><ele>183.2</ele><time>2026-04-10T13:47:42.061Z</time></trkpt><trkpt lat="45.6099881" lon="9.5386006"><ele>183.6</ele><time>2026-04-10T13:47:44.06Z</time></trkpt><trkpt lat="45.6099011" lon="9.5385524"><ele>184.0</ele><time>2026-04-10T13:47:46.061Z</time></trkpt><trkpt lat="45.6098052" lon="9.5385043"><ele>184.0</ele><time>2026-04-10T13:47:48.06Z</time></trkpt><trkpt lat="45.6097136" lon="9.538452"><ele>184.0</ele><time>2026-04-10T13:47:50.061Z</time></trkpt><trkpt lat="45.6096133" lon="9.5383861"><ele>184.0</ele><time>2026-04-10T13:47:52.061Z</time></trkpt><trkpt lat="45.6095058" lon="9.5383242"><ele>184.0</ele><time>2026-04-10T13:47:54.061Z</time></trkpt><trkpt lat="45.6094053" lon="9.5382627"><ele>184.0</ele><time>2026-04-10T13:47:56.061Z</time></trkpt><trkpt lat="45.6093001" lon="9.5382013"><ele>184.16666666666669</ele><time>2026-04-10T13:47:58.061Z</time></trkpt><trkpt lat="45.6092186" lon="9.538079"><ele>184.33333333333334</ele><time>2026-04-10T13:48:00.061Z</time></trkpt><trkpt lat="45.609175" lon="9.5380098"><ele>184.5</ele><time>2026-04-10T13:48:01.061Z</time></trkpt><trkpt lat="45.6091218" lon="9.5379576"><ele>184.66666666666666</ele><time>2026-04-10T13:48:02.061Z</time></trkpt><trkpt lat="45.6090589" lon="9.5379193"><ele>184.83333333333331</ele><time>2026-04-10T13:48:03.061Z</time></trkpt><trkpt lat="45.6089315" lon="9.5378849"><ele>185.0</ele><time>2026-04-10T13:48:05.061Z</time></trkpt><trkpt lat="45.6088657" lon="9.537879"><ele>184.99999999999997</ele><time>2026-04-10T13:48:06.061Z</time></trkpt><trkpt lat="45.6088017" lon="9.5378454"><ele>185.0</ele><time>2026-04-10T13:48:07.06Z</time></trkpt><trkpt lat="45.6087487" lon="9.5377955"><ele>185.0</ele><time>2026-04-10T13:48:08.06Z</time></trkpt><trkpt lat="45.6086911" lon="9.5377307"><ele>185.0</ele><time>2026-04-10T13:48:09.06Z</time></trkpt><trkpt lat="45.6086533" lon="9.5376431"><ele>185.0</ele><time>2026-04-10T13:48:10.061Z</time></trkpt><trkpt lat="45.6086231" lon="9.5375489"><ele>184.99999999999997</ele><time>2026-04-10T13:48:11.061Z</time></trkpt><trkpt lat="45.6086118" lon="9.5374535"><ele>185.0</ele><time>2026-04-10T13:48:12.061Z</time></trkpt><trkpt lat="45.6086052" lon="9.5373527"><ele>185.0</ele><time>2026-04-10T13:48:13.06Z</time></trkpt><trkpt lat="45.608635" lon="9.5372411"><ele>185.0</ele><time>2026-04-10T13:48:14.061Z</time></trkpt><trkpt lat="45.6086539" lon="9.5371335"><ele>185.0</ele><time>2026-04-10T13:48:15.06Z</time></trkpt><trkpt lat="45.6086809" lon="9.5370358"><ele>185.0</ele><time>2026-04-10T13:48:16.061Z</time></trkpt><trkpt lat="45.6087075" lon="9.5369148"><ele>185.0</ele><time>2026-04-10T13:48:17.061Z</time></trkpt><trkpt lat="45.608733" lon="9.5368018"><ele>185.0</ele><time>2026-04-10T13:48:18.061Z</time></trkpt><trkpt lat="45.6087538" lon="9.5367038"><ele>185.14285714285714</ele><time>2026-04-10T13:48:19.061Z</time></trkpt><trkpt lat="45.6087727" lon="9.5366017"><ele>185.28571428571428</ele><time>2026-04-10T13:48:20.061Z</time></trkpt><trkpt lat="45.6088035" lon="9.5365069"><ele>185.42857142857144</ele><time>2026-04-10T13:48:21.061Z</time></trkpt><trkpt lat="45.608819" lon="9.5363893"><ele>185.57142857142856</ele><time>2026-04-10T13:48:22.061Z</time></trkpt><trkpt lat="45.6088447" lon="9.5362995"><ele>185.71428571428572</ele><time>2026-04-10T13:48:23.061Z</time></trkpt><trkpt lat="45.608863" lon="9.5362063"><ele>185.85714285714286</ele><time>2026-04-10T13:48:24.061Z</time></trkpt><trkpt lat="45.6088841" lon="9.5361196"><ele>186.0</ele><time>2026-04-10T13:48:25.061Z</time></trkpt><trkpt lat="45.6089152" lon="9.5360038"><ele>186.0</ele><time>2026-04-10T13:48:27.061Z</time></trkpt><trkpt lat="45.6089464" lon="9.5358878"><ele>186.0</ele><time>2026-04-10T13:48:29.061Z</time></trkpt><trkpt lat="45.6089724" lon="9.5357912"><ele>186.0</ele><time>2026-04-10T13:48:31.06Z</time></trkpt><trkpt lat="45.6089999" lon="9.5357013"><ele>186.0</ele><time>2026-04-10T13:48:33.061Z</time></trkpt><trkpt lat="45.6090324" lon="9.5355922"><ele>186.0</ele><time>2026-04-10T13:48:35.061Z</time></trkpt><trkpt lat="45.6090638" lon="9.535449"><ele>186.0</ele><time>2026-04-10T13:48:37.061Z</time></trkpt><trkpt lat="45.6090818" lon="9.5352897"><ele>185.83333333333334</ele><time>2026-04-10T13:48:39.061Z</time></trkpt><trkpt lat="45.6091101" lon="9.5351188"><ele>185.66666666666666</ele><time>2026-04-10T13:48:41.061Z</time></trkpt><trkpt lat="45.6091283" lon="9.5350314"><ele>185.5</ele><time>2026-04-10T13:48:42.061Z</time></trkpt><trkpt lat="45.6091495" lon="9.534937"><ele>185.33333333333331</ele><time>2026-04-10T13:48:43.061Z</time></trkpt><trkpt lat="45.6091737" lon="9.5348481"><ele>185.16666666666666</ele><time>2026-04-10T13:48:44.061Z</time></trkpt><trkpt lat="45.609201" lon="9.5347601"><ele>185.0</ele><time>2026-04-10T13:48:45.061Z</time></trkpt><trkpt lat="45.609226" lon="9.5346702"><ele>184.99999999999997</ele><time>2026-04-10T13:48:46.061Z</time></trkpt><trkpt lat="45.6092619" lon="9.5345818"><ele>185.0</ele><time>2026-04-10T13:48:47.06Z</time></trkpt><trkpt lat="45.6092964" lon="9.5344924"><ele>185.0</ele><time>2026-04-10T13:48:48.061Z</time></trkpt><trkpt lat="45.6093248" lon="9.5343972"><ele>185.0</ele><time>2026-04-10T13:48:49.06Z</time></trkpt><trkpt lat="45.6093497" lon="9.5343082"><ele>185.0</ele><time>2026-04-10T13:48:50.061Z</time></trkpt><trkpt lat="45.6093689" lon="9.5342108"><ele>184.99999999999997</ele><time>2026-04-10T13:48:51.061Z</time></trkpt><trkpt lat="45.6093933" lon="9.5341202"><ele>185.0</ele><time>2026-04-10T13:48:52.061Z</time></trkpt><trkpt lat="45.6094134" lon="9.5340249"><ele>185.16666666666666</ele><time>2026-04-10T13:48:53.061Z</time></trkpt><trkpt lat="45.6094354" lon="9.5339261"><ele>185.33333333333331</ele><time>2026-04-10T13:48:54.061Z</time></trkpt><trkpt lat="45.6094596" lon="9.5338259"><ele>185.5</ele><time>2026-04-10T13:48:55.061Z</time></trkpt><trkpt lat="45.6094839" lon="9.5337219"><ele>185.66666666666666</ele><time>2026-04-10T13:48:56.061Z</time></trkpt><trkpt lat="45.6095126" lon="9.53362"><ele>185.83333333333334</ele><time>2026-04-10T13:48:57.061Z</time></trkpt><trkpt lat="45.6095361" lon="9.5335161"><ele>186.0</ele><time>2026-04-10T13:48:58.061Z</time></trkpt><trkpt lat="45.6095606" lon="9.5334164"><ele>186.16666666666666</ele><time>2026-04-10T13:48:59.06Z</time></trkpt><trkpt lat="45.6095869" lon="9.5333093"><ele>186.33333333333334</ele><time>2026-04-10T13:49:00.061Z</time></trkpt><trkpt lat="45.6096089" lon="9.5332108"><ele>186.5</ele><time>2026-04-10T13:49:01.061Z</time></trkpt><trkpt lat="45.6096326" lon="9.5331022"><ele>186.66666666666669</ele><time>2026-04-10T13:49:02.061Z</time></trkpt><trkpt lat="45.6096553" lon="9.5330012"><ele>186.83333333333334</ele><time>2026-04-10T13:49:03.061Z</time></trkpt><trkpt lat="45.6096796" lon="9.5328966"><ele>187.0</ele><time>2026-04-10T13:49:04.06Z</time></trkpt><trkpt lat="45.609701" lon="9.5328013"><ele>187.0</ele><time>2026-04-10T13:49:05.061Z</time></trkpt><trkpt lat="45.6097226" lon="9.5327121"><ele>187.0</ele><time>2026-04-10T13:49:06.06Z</time></trkpt><trkpt lat="45.6097562" lon="9.5325903"><ele>187.0</ele><time>2026-04-10T13:49:08.061Z</time></trkpt><trkpt lat="45.6097894" lon="9.5325076"><ele>187.0</ele><time>2026-04-10T13:49:11.061Z</time></trkpt><trkpt lat="45.6098047" lon="9.5323864"><ele>187.0</ele><time>2026-04-10T13:49:15.061Z</time></trkpt><trkpt lat="45.609835" lon="9.5323055"><ele>187.0</ele><time>2026-04-10T13:49:17.06Z</time></trkpt><trkpt lat="45.6098665" lon="9.5322125"><ele>187.0</ele><time>2026-04-10T13:49:19.061Z</time></trkpt><trkpt lat="45.6098759" lon="9.5320935"><ele>187.25</ele><time>2026-04-10T13:49:21.061Z</time></trkpt><trkpt lat="45.6098953" lon="9.5319307"><ele>187.5</ele><time>2026-04-10T13:49:23.061Z</time></trkpt><trkpt lat="45.6099235" lon="9.531767"><ele>187.75</ele><time>2026-04-10T13:49:25.061Z</time></trkpt><trkpt lat="45.6099468" lon="9.5315909"><ele>188.0</ele><time>2026-04-10T13:49:27.061Z</time></trkpt><trkpt lat="45.6099693" lon="9.5314115"><ele>188.0</ele><time>2026-04-10T13:49:29.061Z</time></trkpt><trkpt lat="45.6099993" lon="9.5312242"><ele>188.0</ele><time>2026-04-10T13:49:31.061Z</time></trkpt><trkpt lat="45.6100133" lon="9.5311226"><ele>188.0</ele><time>2026-04-10T13:49:32.061Z</time></trkpt><trkpt lat="45.610026" lon="9.5310289"><ele>188.0</ele><time>2026-04-10T13:49:33.061Z</time></trkpt><trkpt lat="45.6100382" lon="9.530928"><ele>188.0</ele><time>2026-04-10T13:49:34.061Z</time></trkpt><trkpt lat="45.610054" lon="9.5308289"><ele>188.0</ele><time>2026-04-10T13:49:35.061Z</time></trkpt><trkpt lat="45.6100719" lon="9.5307311"><ele>187.8</ele><time>2026-04-10T13:49:36.061Z</time></trkpt><trkpt lat="45.6100879" lon="9.5306304"><ele>187.60000000000002</ele><time>2026-04-10T13:49:37.061Z</time></trkpt><trkpt lat="45.6101138" lon="9.5304593"><ele>187.39999999999998</ele><time>2026-04-10T13:49:39.061Z</time></trkpt><trkpt lat="45.6101243" lon="9.5303361"><ele>187.2</ele><time>2026-04-10T13:49:41.061Z</time></trkpt><trkpt lat="45.610142" lon="9.530229"><ele>187.0</ele><time>2026-04-10T13:49:45.061Z</time></trkpt><trkpt lat="45.610168" lon="9.5300997"><ele>186.8</ele><time>2026-04-10T13:49:48.061Z</time></trkpt><trkpt lat="45.6101854" lon="9.5299626"><ele>186.6</ele><time>2026-04-10T13:49:50.061Z</time></trkpt><trkpt lat="45.6102069" lon="9.5298205"><ele>186.4</ele><time>2026-04-10T13:49:52.06Z</time></trkpt><trkpt lat="45.6102305" lon="9.5296575"><ele>186.20000000000002</ele><time>2026-04-10T13:49:54.061Z</time></trkpt><trkpt lat="45.6102439" lon="9.529563"><ele>186.0</ele><time>2026-04-10T13:49:55.061Z</time></trkpt><trkpt lat="45.6102592" lon="9.5293831"><ele>186.0</ele><time>2026-04-10T13:49:57.06Z</time></trkpt><trkpt lat="45.6102813" lon="9.529209"><ele>186.0</ele><time>2026-04-10T13:49:59.061Z</time></trkpt><trkpt lat="45.6102929" lon="9.5291185"><ele>186.0</ele><time>2026-04-10T13:50:00.061Z</time></trkpt><trkpt lat="45.6103117" lon="9.5290264"><ele>186.0</ele><time>2026-04-10T13:50:01.061Z</time></trkpt><trkpt lat="45.6103196" lon="9.5289258"><ele>186.0</ele><time>2026-04-10T13:50:02.061Z</time></trkpt><trkpt lat="45.610331" lon="9.5288367"><ele>186.0</ele><time>2026-04-10T13:50:03.061Z</time></trkpt><trkpt lat="45.6103467" lon="9.5287461"><ele>186.0</ele><time>2026-04-10T13:50:04.061Z</time></trkpt><trkpt lat="45.610361" lon="9.5286557"><ele>186.0</ele><time>2026-04-10T13:50:05.061Z</time></trkpt><trkpt lat="45.6103747" lon="9.5284656"><ele>186.0</ele><time>2026-04-10T13:50:07.06Z</time></trkpt><trkpt lat="45.6103867" lon="9.5283606"><ele>186.0</ele><time>2026-04-10T13:50:08.061Z</time></trkpt><trkpt lat="45.6104018" lon="9.5282612"><ele>186.0</ele><time>2026-04-10T13:50:09.061Z</time></trkpt><trkpt lat="45.6104243" lon="9.5281617"><ele>186.0</ele><time>2026-04-10T13:50:10.061Z</time></trkpt><trkpt lat="45.6104343" lon="9.5280603"><ele>186.00000000000003</ele><time>2026-04-10T13:50:11.061Z</time></trkpt><trkpt lat="45.6104481" lon="9.5279661"><ele>186.0</ele><time>2026-04-10T13:50:12.061Z</time></trkpt><trkpt lat="45.6104604" lon="9.5278664"><ele>186.0</ele><time>2026-04-10T13:50:13.061Z</time></trkpt><trkpt lat="45.6104752" lon="9.5277674"><ele>186.0</ele><time>2026-04-10T13:50:14.061Z</time></trkpt><trkpt lat="45.6104876" lon="9.5276668"><ele>186.0</ele><time>2026-04-10T13:50:15.061Z</time></trkpt><trkpt lat="45.6104952" lon="9.5275596"><ele>186.00000000000003</ele><time>2026-04-10T13:50:16.061Z</time></trkpt><trkpt lat="45.6105104" lon="9.5274556"><ele>186.0</ele><time>2026-04-10T13:50:17.061Z</time></trkpt><trkpt lat="45.6105314" lon="9.5273504"><ele>186.0</ele><time>2026-04-10T13:50:18.06Z</time></trkpt><trkpt lat="45.6105468" lon="9.5272444"><ele>186.0</ele><time>2026-04-10T13:50:19.061Z</time></trkpt><trkpt lat="45.6105729" lon="9.5271248"><ele>186.0</ele><time>2026-04-10T13:50:20.061Z</time></trkpt><trkpt lat="45.6105872" lon="9.5270201"><ele>186.0</ele><time>2026-04-10T13:50:21.061Z</time></trkpt><trkpt lat="45.6105975" lon="9.5269083"><ele>186.0</ele><time>2026-04-10T13:50:22.061Z</time></trkpt><trkpt lat="45.6106106" lon="9.5268109"><ele>186.0</ele><time>2026-04-10T13:50:23.061Z</time></trkpt><trkpt lat="45.6106317" lon="9.5266957"><ele>186.0</ele><time>2026-04-10T13:50:24.061Z</time></trkpt><trkpt lat="45.6106531" lon="9.5265754"><ele>186.0</ele><time>2026-04-10T13:50:25.061Z</time></trkpt><trkpt lat="45.6106684" lon="9.526458"><ele>186.0</ele><time>2026-04-10T13:50:26.06Z</time></trkpt><trkpt lat="45.6106822" lon="9.5263479"><ele>186.0</ele><time>2026-04-10T13:50:27.061Z</time></trkpt><trkpt lat="45.6106947" lon="9.5262386"><ele>186.0</ele><time>2026-04-10T13:50:28.061Z</time></trkpt><trkpt lat="45.6107116" lon="9.5261339"><ele>186.0</ele><time>2026-04-10T13:50:29.061Z</time></trkpt><trkpt lat="45.6107268" lon="9.5260263"><ele>185.33333333333334</ele><time>2026-04-10T13:50:30.061Z</time></trkpt><trkpt lat="45.6107476" lon="9.5259156"><ele>184.66666666666666</ele><time>2026-04-10T13:50:31.061Z</time></trkpt><trkpt lat="45.6107639" lon="9.5258088"><ele>184.0</ele><time>2026-04-10T13:50:32.061Z</time></trkpt><trkpt lat="45.6107659" lon="9.5257009"><ele>183.33333333333331</ele><time>2026-04-10T13:50:33.061Z</time></trkpt><trkpt lat="45.6107554" lon="9.525592"><ele>182.66666666666666</ele><time>2026-04-10T13:50:34.061Z</time></trkpt><trkpt lat="45.6107325" lon="9.5254859"><ele>182.0</ele><time>2026-04-10T13:50:35.06Z</time></trkpt><trkpt lat="45.6107053" lon="9.5253739"><ele>180.0</ele><time>2026-04-10T13:50:36.06Z</time></trkpt><trkpt lat="45.6106714" lon="9.5252629"><ele>178.0</ele><time>2026-04-10T13:50:37.06Z</time></trkpt><trkpt lat="45.610643" lon="9.5251481"><ele>176.0</ele><time>2026-04-10T13:50:38.06Z</time></trkpt><trkpt lat="45.6106067" lon="9.5250418"><ele>174.0</ele><time>2026-04-10T13:50:39.061Z</time></trkpt><trkpt lat="45.6105742" lon="9.5249331"><ele>172.0</ele><time>2026-04-10T13:50:40.061Z</time></trkpt><trkpt lat="45.6105437" lon="9.5248295"><ele>170.0</ele><time>2026-04-10T13:50:41.061Z</time></trkpt><trkpt lat="45.61051" lon="9.5247283"><ele>170.0</ele><time>2026-04-10T13:50:42.061Z</time></trkpt><trkpt lat="45.6104764" lon="9.5246234"><ele>170.0</ele><time>2026-04-10T13:50:43.061Z</time></trkpt><trkpt lat="45.6104391" lon="9.5245183"><ele>170.0</ele><time>2026-04-10T13:50:44.061Z</time></trkpt><trkpt lat="45.6104053" lon="9.5244118"><ele>170.0</ele><time>2026-04-10T13:50:45.061Z</time></trkpt><trkpt lat="45.6103707" lon="9.5243075"><ele>170.0</ele><time>2026-04-10T13:50:46.06Z</time></trkpt><trkpt lat="45.6103363" lon="9.5241978"><ele>170.0</ele><time>2026-04-10T13:50:47.061Z</time></trkpt><trkpt lat="45.6103031" lon="9.5240819"><ele>170.5</ele><time>2026-04-10T13:50:48.061Z</time></trkpt><trkpt lat="45.6102692" lon="9.5239663"><ele>171.0</ele><time>2026-04-10T13:50:49.061Z</time></trkpt><trkpt lat="45.6102348" lon="9.5238527"><ele>171.5</ele><time>2026-04-10T13:50:50.06Z</time></trkpt><trkpt lat="45.6101944" lon="9.523736"><ele>172.0</ele><time>2026-04-10T13:50:51.06Z</time></trkpt><trkpt lat="45.610163" lon="9.5236208"><ele>172.5</ele><time>2026-04-10T13:50:52.061Z</time></trkpt><trkpt lat="45.6101293" lon="9.5235086"><ele>173.0</ele><time>2026-04-10T13:50:53.061Z</time></trkpt><trkpt lat="45.6100815" lon="9.5234036"><ele>173.0</ele><time>2026-04-10T13:50:54.061Z</time></trkpt><trkpt lat="45.6100243" lon="9.5233115"><ele>173.0</ele><time>2026-04-10T13:50:55.061Z</time></trkpt><trkpt lat="45.6099571" lon="9.5232287"><ele>173.0</ele><time>2026-04-10T13:50:56.061Z</time></trkpt><trkpt lat="45.6098823" lon="9.5231576"><ele>173.0</ele><time>2026-04-10T13:50:57.061Z</time></trkpt><trkpt lat="45.6098052" lon="9.5230988"><ele>173.0</ele><time>2026-04-10T13:50:58.061Z</time></trkpt><trkpt lat="45.6097274" lon="9.5230377"><ele>173.0</ele><time>2026-04-10T13:50:59.06Z</time></trkpt><trkpt lat="45.6096541" lon="9.5229781"><ele>173.0</ele><time>2026-04-10T13:51:00.061Z</time></trkpt><trkpt lat="45.6095754" lon="9.5229161"><ele>173.0</ele><time>2026-04-10T13:51:01.061Z</time></trkpt><trkpt lat="45.6095028" lon="9.5228505"><ele>173.0</ele><time>2026-04-10T13:51:02.061Z</time></trkpt><trkpt lat="45.609427" lon="9.5227948"><ele>173.0</ele><time>2026-04-10T13:51:03.06Z</time></trkpt><trkpt lat="45.6093554" lon="9.5227349"><ele>173.0</ele><time>2026-04-10T13:51:04.061Z</time></trkpt><trkpt lat="45.6092918" lon="9.5226757"><ele>173.0</ele><time>2026-04-10T13:51:05.061Z</time></trkpt><trkpt lat="45.6092315" lon="9.5226257"><ele>175.5</ele><time>2026-04-10T13:51:06.061Z</time></trkpt><trkpt lat="45.6091827" lon="9.5225509"><ele>178.0</ele><time>2026-04-10T13:51:08.061Z</time></trkpt><trkpt lat="45.6092189" lon="9.5224443"><ele>180.5</ele><time>2026-04-10T13:51:10.061Z</time></trkpt><trkpt lat="45.6092362" lon="9.5223168"><ele>183.0</ele><time>2026-04-10T13:51:12.06Z</time></trkpt><trkpt lat="45.6092694" lon="9.5221812"><ele>185.5</ele><time>2026-04-10T13:51:14.06Z</time></trkpt><trkpt lat="45.6093093" lon="9.5220472"><ele>188.0</ele><time>2026-04-10T13:51:16.06Z</time></trkpt><trkpt lat="45.6093389" lon="9.5219132"><ele>188.0</ele><time>2026-04-10T13:51:18.061Z</time></trkpt><trkpt lat="45.6093845" lon="9.5218013"><ele>188.0</ele><time>2026-04-10T13:51:20.06Z</time></trkpt><trkpt lat="45.6094411" lon="9.5217109"><ele>188.0</ele><time>2026-04-10T13:51:22.06Z</time></trkpt><trkpt lat="45.6095128" lon="9.5217123"><ele>188.0</ele><time>2026-04-10T13:51:24.061Z</time></trkpt><trkpt lat="45.6096922" lon="9.5217529"><ele>188.0</ele><time>2026-04-10T13:51:27.061Z</time></trkpt><trkpt lat="45.6097754" lon="9.5217828"><ele>187.66666666666666</ele><time>2026-04-10T13:51:28.06Z</time></trkpt><trkpt lat="45.6098609" lon="9.5218258"><ele>187.33333333333331</ele><time>2026-04-10T13:51:29.061Z</time></trkpt><trkpt lat="45.6099447" lon="9.5218575"><ele>187.0</ele><time>2026-04-10T13:51:30.06Z</time></trkpt><trkpt lat="45.610027" lon="9.5218944"><ele>186.66666666666666</ele><time>2026-04-10T13:51:31.061Z</time></trkpt><trkpt lat="45.6101008" lon="9.5219384"><ele>186.33333333333334</ele><time>2026-04-10T13:51:32.061Z</time></trkpt><trkpt lat="45.6101574" lon="9.521982"><ele>186.0</ele><time>2026-04-10T13:51:33.061Z</time></trkpt><trkpt lat="45.6102163" lon="9.5220218"><ele>186.0</ele><time>2026-04-10T13:51:34.06Z</time></trkpt><trkpt lat="45.6102835" lon="9.5220583"><ele>186.0</ele><time>2026-04-10T13:51:35.061Z</time></trkpt><trkpt lat="45.6103679" lon="9.5220788"><ele>186.0</ele><time>2026-04-10T13:51:36.061Z</time></trkpt><trkpt lat="45.6104387" lon="9.522112"><ele>186.0</ele><time>2026-04-10T13:51:37.061Z</time></trkpt><trkpt lat="45.6105571" lon="9.5221377"><ele>186.0</ele><time>2026-04-10T13:51:39.06Z</time></trkpt><trkpt lat="45.6106395" lon="9.5220479"><ele>183.8</ele><time>2026-04-10T13:51:41.061Z</time></trkpt><trkpt lat="45.6106776" lon="9.5218901"><ele>181.60000000000002</ele><time>2026-04-10T13:51:43.061Z</time></trkpt><trkpt lat="45.6106924" lon="9.5217138"><ele>179.4</ele><time>2026-04-10T13:51:45.061Z</time></trkpt><trkpt lat="45.6107139" lon="9.5216191"><ele>177.2</ele><time>2026-04-10T13:51:46.061Z</time></trkpt><trkpt lat="45.6107373" lon="9.5215307"><ele>175.0</ele><time>2026-04-10T13:51:47.06Z</time></trkpt><trkpt lat="45.6107721" lon="9.5213837"><ele>175.0</ele><time>2026-04-10T13:51:49.061Z</time></trkpt><trkpt lat="45.6108512" lon="9.5212842"><ele>175.0</ele><time>2026-04-10T13:51:51.061Z</time></trkpt><trkpt lat="45.6109101" lon="9.5212398"><ele>175.0</ele><time>2026-04-10T13:51:52.061Z</time></trkpt><trkpt lat="45.6109746" lon="9.5212047"><ele>175.0</ele><time>2026-04-10T13:51:53.061Z</time></trkpt><trkpt lat="45.6110446" lon="9.5211557"><ele>175.0</ele><time>2026-04-10T13:51:54.061Z</time></trkpt><trkpt lat="45.6111145" lon="9.5211065"><ele>175.0</ele><time>2026-04-10T13:51:55.061Z</time></trkpt><trkpt lat="45.6111903" lon="9.521041"><ele>171.2</ele><time>2026-04-10T13:51:56.06Z</time></trkpt><trkpt lat="45.6112564" lon="9.5209487"><ele>167.4</ele><time>2026-04-10T13:51:57.061Z</time></trkpt><trkpt lat="45.6113222" lon="9.5208571"><ele>163.6</ele><time>2026-04-10T13:51:58.061Z</time></trkpt><trkpt lat="45.611383" lon="9.5207529"><ele>159.8</ele><time>2026-04-10T13:51:59.06Z</time></trkpt><trkpt lat="45.6114447" lon="9.5206557"><ele>156.0</ele><time>2026-04-10T13:52:00.061Z</time></trkpt><trkpt lat="45.6115058" lon="9.5205696"><ele>156.0</ele><time>2026-04-10T13:52:01.061Z</time></trkpt><trkpt lat="45.6115676" lon="9.5204651"><ele>156.0</ele><time>2026-04-10T13:52:02.061Z</time></trkpt><trkpt lat="45.6116202" lon="9.5203552"><ele>156.0</ele><time>2026-04-10T13:52:03.06Z</time></trkpt><trkpt lat="45.6116752" lon="9.5202393"><ele>156.0</ele><time>2026-04-10T13:52:04.061Z</time></trkpt><trkpt lat="45.6117286" lon="9.5201278"><ele>156.0</ele><time>2026-04-10T13:52:05.06Z</time></trkpt><trkpt lat="45.6117784" lon="9.5200145"><ele>156.66666666666666</ele><time>2026-04-10T13:52:06.061Z</time></trkpt><trkpt lat="45.6118257" lon="9.5199036"><ele>157.33333333333334</ele><time>2026-04-10T13:52:07.061Z</time></trkpt><trkpt lat="45.6118719" lon="9.519797"><ele>158.0</ele><time>2026-04-10T13:52:08.06Z</time></trkpt><trkpt lat="45.6119102" lon="9.5196839"><ele>158.66666666666669</ele><time>2026-04-10T13:52:09.061Z</time></trkpt><trkpt lat="45.6119497" lon="9.5195664"><ele>159.33333333333334</ele><time>2026-04-10T13:52:10.061Z</time></trkpt><trkpt lat="45.6119815" lon="9.5194599"><ele>160.0</ele><time>2026-04-10T13:52:11.061Z</time></trkpt><trkpt lat="45.6120083" lon="9.5193551"><ele>158.42857142857142</ele><time>2026-04-10T13:52:12.061Z</time></trkpt><trkpt lat="45.6120269" lon="9.5192483"><ele>156.85714285714286</ele><time>2026-04-10T13:52:13.06Z</time></trkpt><trkpt lat="45.6120446" lon="9.5191481"><ele>155.28571428571428</ele><time>2026-04-10T13:52:14.061Z</time></trkpt><trkpt lat="45.6120558" lon="9.5190479"><ele>153.71428571428572</ele><time>2026-04-10T13:52:15.061Z</time></trkpt><trkpt lat="45.612067" lon="9.5189492"><ele>152.14285714285714</ele><time>2026-04-10T13:52:16.061Z</time></trkpt><trkpt lat="45.6120818" lon="9.518857"><ele>150.57142857142856</ele><time>2026-04-10T13:52:17.061Z</time></trkpt><trkpt lat="45.6120972" lon="9.5187613"><ele>149.0</ele><time>2026-04-10T13:52:18.06Z</time></trkpt><trkpt lat="45.6121172" lon="9.5186636"><ele>149.0</ele><time>2026-04-10T13:52:19.061Z</time></trkpt><trkpt lat="45.6121375" lon="9.5185691"><ele>149.0</ele><time>2026-04-10T13:52:20.061Z</time></trkpt><trkpt lat="45.6121592" lon="9.5184739"><ele>149.0</ele><time>2026-04-10T13:52:21.061Z</time></trkpt><trkpt lat="45.6121809" lon="9.518387"><ele>149.0</ele><time>2026-04-10T13:52:22.061Z</time></trkpt><trkpt lat="45.6122023" lon="9.5183002"><ele>149.0</ele><time>2026-04-10T13:52:23.061Z</time></trkpt><trkpt lat="45.6122483" lon="9.5181264"><ele>149.0</ele><time>2026-04-10T13:52:25.061Z</time></trkpt><trkpt lat="45.6122755" lon="9.5180393"><ele>149.83333333333331</ele><time>2026-04-10T13:52:26.061Z</time></trkpt><trkpt lat="45.612329" lon="9.5178709"><ele>150.66666666666666</ele><time>2026-04-10T13:52:28.06Z</time></trkpt><trkpt lat="45.6123606" lon="9.5177821"><ele>151.5</ele><time>2026-04-10T13:52:29.06Z</time></trkpt><trkpt lat="45.6123997" lon="9.5177033"><ele>152.33333333333334</ele><time>2026-04-10T13:52:30.061Z</time></trkpt><trkpt lat="45.6124393" lon="9.5176212"><ele>153.16666666666669</ele><time>2026-04-10T13:52:31.06Z</time></trkpt><trkpt lat="45.6124819" lon="9.5175461"><ele>154.0</ele><time>2026-04-10T13:52:32.061Z</time></trkpt><trkpt lat="45.6125257" lon="9.5174672"><ele>154.0</ele><time>2026-04-10T13:52:33.061Z</time></trkpt><trkpt lat="45.6125704" lon="9.5174011"><ele>154.0</ele><time>2026-04-10T13:52:34.061Z</time></trkpt><trkpt lat="45.6126218" lon="9.5173273"><ele>154.0</ele><time>2026-04-10T13:52:35.061Z</time></trkpt><trkpt lat="45.6126641" lon="9.5172545"><ele>154.0</ele><time>2026-04-10T13:52:36.061Z</time></trkpt><trkpt lat="45.6127213" lon="9.5171887"><ele>154.0</ele><time>2026-04-10T13:52:37.06Z</time></trkpt><trkpt lat="45.6127729" lon="9.5171261"><ele>154.0</ele><time>2026-04-10T13:52:38.06Z</time></trkpt><trkpt lat="45.6128295" lon="9.5170705"><ele>154.0</ele><time>2026-04-10T13:52:39.061Z</time></trkpt><trkpt lat="45.6128878" lon="9.5169983"><ele>155.42857142857142</ele><time>2026-04-10T13:52:40.061Z</time></trkpt><trkpt lat="45.6129413" lon="9.5169391"><ele>156.85714285714286</ele><time>2026-04-10T13:52:41.061Z</time></trkpt><trkpt lat="45.6129955" lon="9.516886"><ele>158.28571428571428</ele><time>2026-04-10T13:52:42.06Z</time></trkpt><trkpt lat="45.6130499" lon="9.5168311"><ele>159.71428571428572</ele><time>2026-04-10T13:52:43.061Z</time></trkpt><trkpt lat="45.6131075" lon="9.516778"><ele>161.14285714285714</ele><time>2026-04-10T13:52:44.061Z</time></trkpt><trkpt lat="45.613162" lon="9.5167322"><ele>162.57142857142856</ele><time>2026-04-10T13:52:45.061Z</time></trkpt><trkpt lat="45.6132222" lon="9.516678"><ele>164.0</ele><time>2026-04-10T13:52:46.061Z</time></trkpt><trkpt lat="45.6132858" lon="9.516625"><ele>164.0</ele><time>2026-04-10T13:52:47.061Z</time></trkpt><trkpt lat="45.6134045" lon="9.5165354"><ele>164.0</ele><time>2026-04-10T13:52:49.06Z</time></trkpt><trkpt lat="45.6134703" lon="9.5164922"><ele>164.0</ele><time>2026-04-10T13:52:50.06Z</time></trkpt><trkpt lat="45.6135338" lon="9.5164477"><ele>164.0</ele><time>2026-04-10T13:52:51.061Z</time></trkpt><trkpt lat="45.6135958" lon="9.5164008"><ele>164.0</ele><time>2026-04-10T13:52:52.061Z</time></trkpt><trkpt lat="45.6136599" lon="9.5163483"><ele>164.0</ele><time>2026-04-10T13:52:53.061Z</time></trkpt><trkpt lat="45.6137247" lon="9.5162929"><ele>164.99999999999997</ele><time>2026-04-10T13:52:54.061Z</time></trkpt><trkpt lat="45.6137906" lon="9.516252"><ele>166.0</ele><time>2026-04-10T13:52:55.061Z</time></trkpt><trkpt lat="45.613859" lon="9.516217"><ele>167.0</ele><time>2026-04-10T13:52:56.061Z</time></trkpt><trkpt lat="45.613929" lon="9.5161919"><ele>168.0</ele><time>2026-04-10T13:52:57.061Z</time></trkpt><trkpt lat="45.6140051" lon="9.5161464"><ele>169.0</ele><time>2026-04-10T13:52:58.061Z</time></trkpt><trkpt lat="45.614075" lon="9.5161295"><ele>169.99999999999997</ele><time>2026-04-10T13:52:59.061Z</time></trkpt><trkpt lat="45.6141409" lon="9.5160986"><ele>171.0</ele><time>2026-04-10T13:53:00.061Z</time></trkpt><trkpt lat="45.6142117" lon="9.5160806"><ele>170.99999999999997</ele><time>2026-04-10T13:53:01.061Z</time></trkpt><trkpt lat="45.6142839" lon="9.5160549"><ele>171.0</ele><time>2026-04-10T13:53:02.061Z</time></trkpt><trkpt lat="45.6143538" lon="9.516037"><ele>171.0</ele><time>2026-04-10T13:53:03.06Z</time></trkpt><trkpt lat="45.6144265" lon="9.5160136"><ele>171.0</ele><time>2026-04-10T13:53:04.061Z</time></trkpt><trkpt lat="45.6144977" lon="9.5160025"><ele>171.0</ele><time>2026-04-10T13:53:05.061Z</time></trkpt><trkpt lat="45.6145717" lon="9.5159851"><ele>170.99999999999997</ele><time>2026-04-10T13:53:06.061Z</time></trkpt><trkpt lat="45.6146447" lon="9.515975"><ele>171.0</ele><time>2026-04-10T13:53:07.061Z</time></trkpt><trkpt lat="45.614716" lon="9.5159555"><ele>168.83333333333334</ele><time>2026-04-10T13:53:08.06Z</time></trkpt><trkpt lat="45.6147884" lon="9.5159482"><ele>166.66666666666666</ele><time>2026-04-10T13:53:09.061Z</time></trkpt><trkpt lat="45.6148594" lon="9.5159404"><ele>164.5</ele><time>2026-04-10T13:53:10.061Z</time></trkpt><trkpt lat="45.6149259" lon="9.5159434"><ele>162.33333333333331</ele><time>2026-04-10T13:53:11.061Z</time></trkpt><trkpt lat="45.6149906" lon="9.515955"><ele>160.16666666666666</ele><time>2026-04-10T13:53:12.061Z</time></trkpt><trkpt lat="45.6150894" lon="9.515913"><ele>158.0</ele><time>2026-04-10T13:53:14.061Z</time></trkpt><trkpt lat="45.61514" lon="9.5158342"><ele>158.0</ele><time>2026-04-10T13:53:16.06Z</time></trkpt><trkpt lat="45.6151532" lon="9.5157301"><ele>158.0</ele><time>2026-04-10T13:53:18.061Z</time></trkpt><trkpt lat="45.615158" lon="9.5156391"><ele>158.0</ele><time>2026-04-10T13:53:20.061Z</time></trkpt><trkpt lat="45.6151576" lon="9.5155227"><ele>158.0</ele><time>2026-04-10T13:53:23.061Z</time></trkpt><trkpt lat="45.6151639" lon="9.5154085"><ele>158.0</ele><time>2026-04-10T13:53:26.061Z</time></trkpt><trkpt lat="45.6151781" lon="9.5152989"><ele>158.0</ele><time>2026-04-10T13:53:29.061Z</time></trkpt><trkpt lat="45.6151856" lon="9.51518"><ele>160.5</ele><time>2026-04-10T13:53:33.061Z</time></trkpt><trkpt lat="45.6151999" lon="9.5150681"><ele>163.0</ele><time>2026-04-10T13:53:37.061Z</time></trkpt><trkpt lat="45.6152178" lon="9.5149652"><ele>165.5</ele><time>2026-04-10T13:53:41.06Z</time></trkpt><trkpt lat="45.6152337" lon="9.5148567"><ele>168.0</ele><time>2026-04-10T13:53:45.061Z</time></trkpt><trkpt lat="45.6152407" lon="9.5147502"><ele>170.5</ele><time>2026-04-10T13:53:49.061Z</time></trkpt><trkpt lat="45.6152562" lon="9.5146395"><ele>173.0</ele><time>2026-04-10T13:53:53.061Z</time></trkpt><trkpt lat="45.615277" lon="9.5145447"><ele>174.83333333333331</ele><time>2026-04-10T13:53:57.061Z</time></trkpt><trkpt lat="45.6152874" lon="9.5143981"><ele>176.66666666666666</ele><time>2026-04-10T13:54:03.057Z</time></trkpt><trkpt lat="45.6152887" lon="9.5142846"><ele>178.5</ele><time>2026-04-10T13:54:07.054Z</time></trkpt><trkpt lat="45.6152968" lon="9.5141728"><ele>180.33333333333334</ele><time>2026-04-10T13:54:11.054Z</time></trkpt><trkpt lat="45.615304" lon="9.5140637"><ele>182.16666666666669</ele><time>2026-04-10T13:54:15.054Z</time></trkpt><trkpt lat="45.6153005" lon="9.5139663"><ele>184.0</ele><time>2026-04-10T13:54:19.053Z</time></trkpt><trkpt lat="45.6152852" lon="9.513864"><ele>184.0</ele><time>2026-04-10T13:54:23.054Z</time></trkpt><trkpt lat="45.6152923" lon="9.5137735"><ele>184.0</ele><time>2026-04-10T13:54:27.054Z</time></trkpt><trkpt lat="45.6153222" lon="9.5136823"><ele>184.0</ele><time>2026-04-10T13:54:30.054Z</time></trkpt><trkpt lat="45.6153467" lon="9.513594"><ele>184.0</ele><time>2026-04-10T13:54:32.053Z</time></trkpt><trkpt lat="45.6153764" lon="9.5134837"><ele>184.0</ele><time>2026-04-10T13:54:35.054Z</time></trkpt><trkpt lat="45.6154128" lon="9.5133824"><ele>184.0</ele><time>2026-04-10T13:54:38.054Z</time></trkpt><trkpt lat="45.6154358" lon="9.5132796"><ele>184.0</ele><time>2026-04-10T13:54:41.054Z</time></trkpt><trkpt lat="45.6153973" lon="9.513182"><ele>184.66666666666669</ele><time>2026-04-10T13:54:44.053Z</time></trkpt><trkpt lat="45.6153265" lon="9.5131998"><ele>185.33333333333334</ele><time>2026-04-10T13:54:47.054Z</time></trkpt><trkpt lat="45.6152877" lon="9.5132985"><ele>186.0</ele><time>2026-04-10T13:54:50.053Z</time></trkpt><trkpt lat="45.6152507" lon="9.5134083"><ele>186.66666666666666</ele><time>2026-04-10T13:54:53.054Z</time></trkpt><trkpt lat="45.615218" lon="9.5135279"><ele>187.33333333333331</ele><time>2026-04-10T13:54:56.054Z</time></trkpt><trkpt lat="45.6151764" lon="9.5136204"><ele>188.0</ele><time>2026-04-10T13:54:59.053Z</time></trkpt><trkpt lat="45.6151517" lon="9.5137237"><ele>187.33333333333331</ele><time>2026-04-10T13:55:02.053Z</time></trkpt><trkpt lat="45.6151211" lon="9.513832"><ele>186.66666666666666</ele><time>2026-04-10T13:55:05.054Z</time></trkpt><trkpt lat="45.6151017" lon="9.5139429"><ele>186.0</ele><time>2026-04-10T13:55:08.053Z</time></trkpt><trkpt lat="45.6150706" lon="9.5140617"><ele>185.33333333333334</ele><time>2026-04-10T13:55:11.053Z</time></trkpt><trkpt lat="45.6150331" lon="9.5141837"><ele>184.66666666666669</ele><time>2026-04-10T13:55:14.053Z</time></trkpt><trkpt lat="45.6150045" lon="9.5142662"><ele>184.0</ele><time>2026-04-10T13:55:16.054Z</time></trkpt><trkpt lat="45.6149735" lon="9.5143472"><ele>184.0</ele><time>2026-04-10T13:55:18.054Z</time></trkpt><trkpt lat="45.6149338" lon="9.5144232"><ele>184.0</ele><time>2026-04-10T13:55:20.053Z</time></trkpt><trkpt lat="45.6148964" lon="9.5145031"><ele>184.0</ele><time>2026-04-10T13:55:22.054Z</time></trkpt><trkpt lat="45.6148354" lon="9.514604"><ele>184.0</ele><time>2026-04-10T13:55:25.053Z</time></trkpt><trkpt lat="45.6147972" lon="9.5146804"><ele>184.0</ele><time>2026-04-10T13:55:27.053Z</time></trkpt><trkpt lat="45.6147539" lon="9.514757"><ele>184.0</ele><time>2026-04-10T13:55:29.053Z</time></trkpt><trkpt lat="45.6147079" lon="9.5148205"><ele>184.0</ele><time>2026-04-10T13:55:31.054Z</time></trkpt><trkpt lat="45.6146544" lon="9.5148787"><ele>184.42857142857144</ele><time>2026-04-10T13:55:33.053Z</time></trkpt><trkpt lat="45.6145975" lon="9.5149276"><ele>184.85714285714283</ele><time>2026-04-10T13:55:35.054Z</time></trkpt><trkpt lat="45.6145359" lon="9.5149701"><ele>185.28571428571428</ele><time>2026-04-10T13:55:37.054Z</time></trkpt><trkpt lat="45.6144719" lon="9.5150114"><ele>185.71428571428572</ele><time>2026-04-10T13:55:39.054Z</time></trkpt><trkpt lat="45.6144043" lon="9.5150305"><ele>186.14285714285717</ele><time>2026-04-10T13:55:41.054Z</time></trkpt><trkpt lat="45.6143187" lon="9.515012"><ele>186.57142857142856</ele><time>2026-04-10T13:55:44.054Z</time></trkpt><trkpt lat="45.6143593" lon="9.5149099"><ele>187.0</ele><time>2026-04-10T13:55:46.054Z</time></trkpt><trkpt lat="45.6144233" lon="9.5149075"><ele>184.66666666666669</ele><time>2026-04-10T13:55:48.054Z</time></trkpt><trkpt lat="45.6145084" lon="9.5148976"><ele>182.33333333333334</ele><time>2026-04-10T13:55:51.053Z</time></trkpt><trkpt lat="45.6145747" lon="9.5148663"><ele>180.0</ele><time>2026-04-10T13:55:53.054Z</time></trkpt><trkpt lat="45.6146415" lon="9.5148379"><ele>177.66666666666666</ele><time>2026-04-10T13:55:55.053Z</time></trkpt><trkpt lat="45.6147026" lon="9.5147812"><ele>175.33333333333331</ele><time>2026-04-10T13:55:57.054Z</time></trkpt><trkpt lat="45.6147589" lon="9.5147075"><ele>173.0</ele><time>2026-04-10T13:55:59.054Z</time></trkpt><trkpt lat="45.614809" lon="9.5146043"><ele>174.83333333333331</ele><time>2026-04-10T13:56:01.054Z</time></trkpt><trkpt lat="45.6148508" lon="9.5145111"><ele>176.66666666666666</ele><time>2026-04-10T13:56:03.054Z</time></trkpt><trkpt lat="45.6148859" lon="9.5144108"><ele>178.5</ele><time>2026-04-10T13:56:05.054Z</time></trkpt><trkpt lat="45.6149205" lon="9.5143114"><ele>180.33333333333334</ele><time>2026-04-10T13:56:07.054Z</time></trkpt><trkpt lat="45.6149439" lon="9.5142002"><ele>182.16666666666669</ele><time>2026-04-10T13:56:09.054Z</time></trkpt><trkpt lat="45.6149701" lon="9.5140768"><ele>184.0</ele><time>2026-04-10T13:56:11.054Z</time></trkpt><trkpt lat="45.6150016" lon="9.5139499"><ele>184.0</ele><time>2026-04-10T13:56:13.054Z</time></trkpt><trkpt lat="45.6150256" lon="9.5138214"><ele>184.0</ele><time>2026-04-10T13:56:15.054Z</time></trkpt><trkpt lat="45.6150499" lon="9.5136864"><ele>184.0</ele><time>2026-04-10T13:56:17.053Z</time></trkpt><trkpt lat="45.6150761" lon="9.5135494"><ele>184.0</ele><time>2026-04-10T13:56:19.054Z</time></trkpt><trkpt lat="45.6150949" lon="9.5133971"><ele>184.0</ele><time>2026-04-10T13:56:21.054Z</time></trkpt><trkpt lat="45.6151162" lon="9.5132489"><ele>184.79999999999998</ele><time>2026-04-10T13:56:23.054Z</time></trkpt><trkpt lat="45.6151328" lon="9.5130974"><ele>185.6</ele><time>2026-04-10T13:56:25.054Z</time></trkpt><trkpt lat="45.6151514" lon="9.5129488"><ele>186.4</ele><time>2026-04-10T13:56:27.053Z</time></trkpt><trkpt lat="45.6151697" lon="9.5128096"><ele>187.2</ele><time>2026-04-10T13:56:29.054Z</time></trkpt><trkpt lat="45.6152023" lon="9.5126741"><ele>188.0</ele><time>2026-04-10T13:56:31.054Z</time></trkpt><trkpt lat="45.6152274" lon="9.5125239"><ele>188.0</ele><time>2026-04-10T13:56:33.054Z</time></trkpt><trkpt lat="45.6152475" lon="9.5123839"><ele>188.0</ele><time>2026-04-10T13:56:35.053Z</time></trkpt><trkpt lat="45.6152691" lon="9.512249"><ele>188.0</ele><time>2026-04-10T13:56:37.054Z</time></trkpt><trkpt lat="45.6152885" lon="9.5121599"><ele>188.0</ele><time>2026-04-10T13:56:38.054Z</time></trkpt><trkpt lat="45.6153097" lon="9.5120747"><ele>188.0</ele><time>2026-04-10T13:56:39.054Z</time></trkpt><trkpt lat="45.6153615" lon="9.5119287"><ele>188.0</ele><time>2026-04-10T13:56:41.053Z</time></trkpt><trkpt lat="45.6154381" lon="9.5115513"><ele>188.5</ele><time>2026-04-10T13:56:43.054Z</time></trkpt><trkpt lat="45.6155153" lon="9.5114222"><ele>189.0</ele><time>2026-04-10T13:56:45.053Z</time></trkpt><trkpt lat="45.6155932" lon="9.5112862"><ele>189.5</ele><time>2026-04-10T13:56:47.054Z</time></trkpt><trkpt lat="45.6156867" lon="9.5111544"><ele>190.0</ele><time>2026-04-10T13:56:49.054Z</time></trkpt><trkpt lat="45.6157547" lon="9.5110157"><ele>190.5</ele><time>2026-04-10T13:56:51.053Z</time></trkpt><trkpt lat="45.6157851" lon="9.5109208"><ele>191.0</ele><time>2026-04-10T13:56:52.054Z</time></trkpt><trkpt lat="45.615823" lon="9.5107508"><ele>191.5</ele><time>2026-04-10T13:56:54.054Z</time></trkpt><trkpt lat="45.615848" lon="9.5106334"><ele>192.0</ele><time>2026-04-10T13:56:55.054Z</time></trkpt><trkpt lat="45.6158714" lon="9.5105445"><ele>192.49999999999997</ele><time>2026-04-10T13:56:56.053Z</time></trkpt><trkpt lat="45.6159027" lon="9.5104616"><ele>193.0</ele><time>2026-04-10T13:56:57.053Z</time></trkpt><trkpt lat="45.6159559" lon="9.5104015"><ele>193.83333333333331</ele><time>2026-04-10T13:56:58.054Z</time></trkpt><trkpt lat="45.6160195" lon="9.5103902"><ele>194.66666666666666</ele><time>2026-04-10T13:56:59.054Z</time></trkpt><trkpt lat="45.616082" lon="9.5103703"><ele>195.5</ele><time>2026-04-10T13:57:00.054Z</time></trkpt><trkpt lat="45.616147" lon="9.5103703"><ele>196.33333333333331</ele><time>2026-04-10T13:57:01.054Z</time></trkpt><trkpt lat="45.6162153" lon="9.5103411"><ele>197.16666666666666</ele><time>2026-04-10T13:57:02.054Z</time></trkpt><trkpt lat="45.6163386" lon="9.5103182"><ele>198.0</ele><time>2026-04-10T13:57:04.054Z</time></trkpt><trkpt lat="45.6164015" lon="9.5103052"><ele>198.4</ele><time>2026-04-10T13:57:05.054Z</time></trkpt><trkpt lat="45.6165254" lon="9.5102606"><ele>198.8</ele><time>2026-04-10T13:57:07.054Z</time></trkpt><trkpt lat="45.6165884" lon="9.5102254"><ele>199.2</ele><time>2026-04-10T13:57:08.053Z</time></trkpt><trkpt lat="45.6166832" lon="9.5101333"><ele>199.6</ele><time>2026-04-10T13:57:10.053Z</time></trkpt><trkpt lat="45.6167957" lon="9.51006"><ele>200.0</ele><time>2026-04-10T13:57:12.054Z</time></trkpt><trkpt lat="45.6168507" lon="9.5100109"><ele>200.0</ele><time>2026-04-10T13:57:13.054Z</time></trkpt><trkpt lat="45.616954" lon="9.5099186"><ele>200.0</ele><time>2026-04-10T13:57:15.054Z</time></trkpt><trkpt lat="45.6170514" lon="9.5098465"><ele>200.0</ele><time>2026-04-10T13:57:17.054Z</time></trkpt><trkpt lat="45.6171567" lon="9.509737"><ele>200.0</ele><time>2026-04-10T13:57:19.054Z</time></trkpt><trkpt lat="45.6172138" lon="9.5096839"><ele>200.0</ele><time>2026-04-10T13:57:20.054Z</time></trkpt><trkpt lat="45.6173255" lon="9.5095781"><ele>200.75</ele><time>2026-04-10T13:57:22.054Z</time></trkpt><trkpt lat="45.617384" lon="9.5095246"><ele>201.5</ele><time>2026-04-10T13:57:23.054Z</time></trkpt><trkpt lat="45.6174956" lon="9.5094297"><ele>202.25</ele><time>2026-04-10T13:57:25.054Z</time></trkpt><trkpt lat="45.617606" lon="9.5093341"><ele>203.0</ele><time>2026-04-10T13:57:27.054Z</time></trkpt><trkpt lat="45.6177157" lon="9.5092296"><ele>203.0</ele><time>2026-04-10T13:57:29.054Z</time></trkpt><trkpt lat="45.6178184" lon="9.5091408"><ele>203.0</ele><time>2026-04-10T13:57:31.053Z</time></trkpt><trkpt lat="45.6179245" lon="9.509057"><ele>203.0</ele><time>2026-04-10T13:57:33.053Z</time></trkpt><trkpt lat="45.6180323" lon="9.5090527"><ele>203.0</ele><time>2026-04-10T13:57:35.054Z</time></trkpt><trkpt lat="45.6181243" lon="9.5091532"><ele>202.2</ele><time>2026-04-10T13:57:37.054Z</time></trkpt><trkpt lat="45.6181935" lon="9.5092871"><ele>201.4</ele><time>2026-04-10T13:57:39.054Z</time></trkpt><trkpt lat="45.6182753" lon="9.5094086"><ele>200.6</ele><time>2026-04-10T13:57:41.054Z</time></trkpt><trkpt lat="45.6183822" lon="9.5094783"><ele>199.79999999999998</ele><time>2026-04-10T13:57:43.054Z</time></trkpt><trkpt lat="45.6184459" lon="9.5094683"><ele>199.0</ele><time>2026-04-10T13:57:44.053Z</time></trkpt><trkpt lat="45.618513" lon="9.5094544"><ele>198.99999999999997</ele><time>2026-04-10T13:57:45.054Z</time></trkpt><trkpt lat="45.6185746" lon="9.5094273"><ele>199.0</ele><time>2026-04-10T13:57:46.054Z</time></trkpt><trkpt lat="45.6186362" lon="9.5093992"><ele>199.0</ele><time>2026-04-10T13:57:47.054Z</time></trkpt><trkpt lat="45.6187459" lon="9.509366"><ele>199.0</ele><time>2026-04-10T13:57:49.054Z</time></trkpt><trkpt lat="45.6188593" lon="9.5093183"><ele>198.99999999999997</ele><time>2026-04-10T13:57:51.054Z</time></trkpt><trkpt lat="45.6189196" lon="9.5092908"><ele>199.0</ele><time>2026-04-10T13:57:52.054Z</time></trkpt><trkpt lat="45.6190278" lon="9.5092321"><ele>199.0</ele><time>2026-04-10T13:57:54.054Z</time></trkpt><trkpt lat="45.6191389" lon="9.5091804"><ele>199.0</ele><time>2026-04-10T13:57:56.054Z</time></trkpt><trkpt lat="45.6192515" lon="9.5091614"><ele>199.0</ele><time>2026-04-10T13:57:58.054Z</time></trkpt><trkpt lat="45.6193587" lon="9.5092024"><ele>199.0</ele><time>2026-04-10T13:58:00.054Z</time></trkpt><trkpt lat="45.619462" lon="9.5092724"><ele>198.79999999999998</ele><time>2026-04-10T13:58:02.054Z</time></trkpt><trkpt lat="45.6195627" lon="9.509336"><ele>198.6</ele><time>2026-04-10T13:58:04.054Z</time></trkpt><trkpt lat="45.619663" lon="9.5094015"><ele>198.4</ele><time>2026-04-10T13:58:06.054Z</time></trkpt><trkpt lat="45.6197679" lon="9.5094597"><ele>198.2</ele><time>2026-04-10T13:58:08.054Z</time></trkpt><trkpt lat="45.6198704" lon="9.509528"><ele>198.0</ele><time>2026-04-10T13:58:10.053Z</time></trkpt><trkpt lat="45.6199763" lon="9.5095967"><ele>198.0</ele><time>2026-04-10T13:58:12.054Z</time></trkpt><trkpt lat="45.6200818" lon="9.5096615"><ele>198.0</ele><time>2026-04-10T13:58:14.054Z</time></trkpt><trkpt lat="45.6201406" lon="9.5096952"><ele>198.0</ele><time>2026-04-10T13:58:15.053Z</time></trkpt><trkpt lat="45.6202531" lon="9.5097582"><ele>198.0</ele><time>2026-04-10T13:58:17.054Z</time></trkpt><trkpt lat="45.6203656" lon="9.5098112"><ele>198.0</ele><time>2026-04-10T13:58:19.054Z</time></trkpt><trkpt lat="45.6204821" lon="9.5098619"><ele>198.75</ele><time>2026-04-10T13:58:21.054Z</time></trkpt><trkpt lat="45.620589" lon="9.5099178"><ele>199.5</ele><time>2026-04-10T13:58:23.054Z</time></trkpt><trkpt lat="45.6206991" lon="9.5099604"><ele>200.25</ele><time>2026-04-10T13:58:25.054Z</time></trkpt><trkpt lat="45.620809" lon="9.5100002"><ele>201.0</ele><time>2026-04-10T13:58:27.053Z</time></trkpt><trkpt lat="45.6209219" lon="9.5100328"><ele>201.0</ele><time>2026-04-10T13:58:29.054Z</time></trkpt><trkpt lat="45.6210309" lon="9.510069"><ele>201.0</ele><time>2026-04-10T13:58:31.053Z</time></trkpt><trkpt lat="45.6211457" lon="9.5100868"><ele>201.0</ele><time>2026-04-10T13:58:33.054Z</time></trkpt><trkpt lat="45.6212103" lon="9.5101026"><ele>201.0</ele><time>2026-04-10T13:58:34.054Z</time></trkpt><trkpt lat="45.6213341" lon="9.5101054"><ele>201.0</ele><time>2026-04-10T13:58:36.054Z</time></trkpt><trkpt lat="45.6214539" lon="9.5101137"><ele>201.0</ele><time>2026-04-10T13:58:38.054Z</time></trkpt><trkpt lat="45.6215783" lon="9.5100951"><ele>201.0</ele><time>2026-04-10T13:58:40.054Z</time></trkpt><trkpt lat="45.6216893" lon="9.5100264"><ele>201.0</ele><time>2026-04-10T13:58:42.053Z</time></trkpt><trkpt lat="45.621779" lon="9.5099385"><ele>201.0</ele><time>2026-04-10T13:58:44.054Z</time></trkpt><trkpt lat="45.6218779" lon="9.509848"><ele>201.0</ele><time>2026-04-10T13:58:46.054Z</time></trkpt><trkpt lat="45.621972" lon="9.5097293"><ele>201.0</ele><time>2026-04-10T13:58:48.053Z</time></trkpt><trkpt lat="45.6220179" lon="9.5096477"><ele>201.0</ele><time>2026-04-10T13:58:49.054Z</time></trkpt><trkpt lat="45.6220641" lon="9.5095758"><ele>201.0</ele><time>2026-04-10T13:58:50.053Z</time></trkpt><trkpt lat="45.6221394" lon="9.5094451"><ele>201.0</ele><time>2026-04-10T13:58:52.054Z</time></trkpt><trkpt lat="45.6221868" lon="9.5093729"><ele>202.20000000000002</ele><time>2026-04-10T13:58:53.053Z</time></trkpt><trkpt lat="45.6222777" lon="9.5092734"><ele>203.4</ele><time>2026-04-10T13:58:55.054Z</time></trkpt><trkpt lat="45.6223993" lon="9.5092268"><ele>204.6</ele><time>2026-04-10T13:58:57.054Z</time></trkpt><trkpt lat="45.6224638" lon="9.5092092"><ele>205.8</ele><time>2026-04-10T13:58:58.054Z</time></trkpt><trkpt lat="45.6225985" lon="9.5091874"><ele>207.0</ele><time>2026-04-10T13:59:00.054Z</time></trkpt><trkpt lat="45.6227215" lon="9.5091381"><ele>208.0</ele><time>2026-04-10T13:59:02.054Z</time></trkpt><trkpt lat="45.6228195" lon="9.5090973"><ele>209.0</ele><time>2026-04-10T13:59:04.054Z</time></trkpt><trkpt lat="45.6228794" lon="9.5090659"><ele>210.0</ele><time>2026-04-10T13:59:05.054Z</time></trkpt><trkpt lat="45.6229759" lon="9.5089853"><ele>211.0</ele><time>2026-04-10T13:59:07.054Z</time></trkpt><trkpt lat="45.6230787" lon="9.5088698"><ele>212.0</ele><time>2026-04-10T13:59:09.053Z</time></trkpt><trkpt lat="45.6232174" lon="9.5087178"><ele>212.0</ele><time>2026-04-10T13:59:12.053Z</time></trkpt><trkpt lat="45.6232663" lon="9.5086447"><ele>212.0</ele><time>2026-04-10T13:59:13.054Z</time></trkpt><trkpt lat="45.6233199" lon="9.5085957"><ele>212.0</ele><time>2026-04-10T13:59:14.054Z</time></trkpt><trkpt lat="45.6234155" lon="9.5085159"><ele>212.0</ele><time>2026-04-10T13:59:16.054Z</time></trkpt><trkpt lat="45.6234759" lon="9.5084849"><ele>212.0</ele><time>2026-04-10T13:59:17.054Z</time></trkpt><trkpt lat="45.623506" lon="9.5084027"><ele>212.0</ele><time>2026-04-10T13:59:18.054Z</time></trkpt><trkpt lat="45.6235527" lon="9.5083341"><ele>212.0</ele><time>2026-04-10T13:59:19.053Z</time></trkpt><trkpt lat="45.6235923" lon="9.5082596"><ele>210.0</ele><time>2026-04-10T13:59:20.054Z</time></trkpt><trkpt lat="45.6236669" lon="9.5081252"><ele>208.0</ele><time>2026-04-10T13:59:22.053Z</time></trkpt><trkpt lat="45.623741" lon="9.5079797"><ele>206.0</ele><time>2026-04-10T13:59:24.054Z</time></trkpt><trkpt lat="45.623801" lon="9.5078431"><ele>204.0</ele><time>2026-04-10T13:59:26.054Z</time></trkpt><trkpt lat="45.6238578" lon="9.5076802"><ele>204.0</ele><time>2026-04-10T13:59:28.054Z</time></trkpt><trkpt lat="45.623911" lon="9.5075409"><ele>204.0</ele><time>2026-04-10T13:59:30.054Z</time></trkpt><trkpt lat="45.6239612" lon="9.5073921"><ele>204.0</ele><time>2026-04-10T13:59:32.053Z</time></trkpt><trkpt lat="45.6240143" lon="9.507251"><ele>204.0</ele><time>2026-04-10T13:59:34.054Z</time></trkpt><trkpt lat="45.6240499" lon="9.5071733"><ele>204.0</ele><time>2026-04-10T13:59:35.054Z</time></trkpt><trkpt lat="45.6240873" lon="9.5070742"><ele>206.39999999999998</ele><time>2026-04-10T13:59:36.053Z</time></trkpt><trkpt lat="45.6241556" lon="9.5069291"><ele>208.8</ele><time>2026-04-10T13:59:38.054Z</time></trkpt><trkpt lat="45.6242242" lon="9.5067917"><ele>211.20000000000002</ele><time>2026-04-10T13:59:40.054Z</time></trkpt><trkpt lat="45.6242705" lon="9.5067296"><ele>213.60000000000002</ele><time>2026-04-10T13:59:41.054Z</time></trkpt><trkpt lat="45.6243411" lon="9.5065978"><ele>216.0</ele><time>2026-04-10T13:59:43.053Z</time></trkpt><trkpt lat="45.624417" lon="9.5064763"><ele>213.20000000000002</ele><time>2026-04-10T13:59:45.053Z</time></trkpt><trkpt lat="45.6244893" lon="9.5063389"><ele>210.40000000000003</ele><time>2026-04-10T13:59:47.053Z</time></trkpt><trkpt lat="45.6245628" lon="9.5061903"><ele>207.6</ele><time>2026-04-10T13:59:49.054Z</time></trkpt><trkpt lat="45.624602" lon="9.5061185"><ele>204.8</ele><time>2026-04-10T13:59:50.053Z</time></trkpt><trkpt lat="45.6246704" lon="9.5059734"><ele>202.0</ele><time>2026-04-10T13:59:52.054Z</time></trkpt><trkpt lat="45.6247355" lon="9.5058139"><ele>202.0</ele><time>2026-04-10T13:59:54.054Z</time></trkpt><trkpt lat="45.6247885" lon="9.5056586"><ele>202.0</ele><time>2026-04-10T13:59:56.054Z</time></trkpt><trkpt lat="45.624846" lon="9.505499"><ele>202.0</ele><time>2026-04-10T13:59:58.054Z</time></trkpt><trkpt lat="45.6248756" lon="9.5054189"><ele>202.0</ele><time>2026-04-10T13:59:59.054Z</time></trkpt><trkpt lat="45.6249393" lon="9.5052543"><ele>202.0</ele><time>2026-04-10T14:00:01.054Z</time></trkpt><trkpt lat="45.6249837" lon="9.5051385"><ele>205.5</ele><time>2026-04-10T14:00:02.054Z</time></trkpt><trkpt lat="45.6250535" lon="9.5050018"><ele>209.0</ele><time>2026-04-10T14:00:04.053Z</time></trkpt><trkpt lat="45.6251299" lon="9.504862"><ele>212.5</ele><time>2026-04-10T14:00:06.054Z</time></trkpt><trkpt lat="45.6251796" lon="9.5047183"><ele>216.0</ele><time>2026-04-10T14:00:08.053Z</time></trkpt><trkpt lat="45.6252225" lon="9.5045591"><ele>216.60000000000002</ele><time>2026-04-10T14:00:10.053Z</time></trkpt><trkpt lat="45.6252607" lon="9.5044103"><ele>217.20000000000002</ele><time>2026-04-10T14:00:12.054Z</time></trkpt><trkpt lat="45.625308" lon="9.5042628"><ele>217.79999999999998</ele><time>2026-04-10T14:00:14.054Z</time></trkpt><trkpt lat="45.6253652" lon="9.5041194"><ele>218.39999999999998</ele><time>2026-04-10T14:00:16.054Z</time></trkpt><trkpt lat="45.6253945" lon="9.5040346"><ele>219.0</ele><time>2026-04-10T14:00:17.054Z</time></trkpt><trkpt lat="45.6254619" lon="9.5038952"><ele>217.79999999999998</ele><time>2026-04-10T14:00:19.054Z</time></trkpt><trkpt lat="45.6255339" lon="9.5037516"><ele>216.59999999999997</ele><time>2026-04-10T14:00:21.054Z</time></trkpt><trkpt lat="45.6256018" lon="9.5036046"><ele>215.4</ele><time>2026-04-10T14:00:23.054Z</time></trkpt><trkpt lat="45.6256416" lon="9.503526"><ele>214.2</ele><time>2026-04-10T14:00:24.054Z</time></trkpt><trkpt lat="45.6257151" lon="9.5033957"><ele>213.0</ele><time>2026-04-10T14:00:26.054Z</time></trkpt><trkpt lat="45.6257893" lon="9.5032584"><ele>213.0</ele><time>2026-04-10T14:00:28.053Z</time></trkpt><trkpt lat="45.6258693" lon="9.5031129"><ele>213.0</ele><time>2026-04-10T14:00:30.054Z</time></trkpt><trkpt lat="45.6259654" lon="9.5029813"><ele>213.0</ele><time>2026-04-10T14:00:32.054Z</time></trkpt><trkpt lat="45.6260126" lon="9.5029128"><ele>213.0</ele><time>2026-04-10T14:00:33.054Z</time></trkpt><trkpt lat="45.626059" lon="9.5028469"><ele>213.0</ele><time>2026-04-10T14:00:34.054Z</time></trkpt><trkpt lat="45.626104" lon="9.5027646"><ele>213.85714285714283</ele><time>2026-04-10T14:00:35.054Z</time></trkpt><trkpt lat="45.6261408" lon="9.5026772"><ele>214.71428571428572</ele><time>2026-04-10T14:00:36.053Z</time></trkpt><trkpt lat="45.6261736" lon="9.502589"><ele>215.57142857142856</ele><time>2026-04-10T14:00:37.054Z</time></trkpt><trkpt lat="45.6261963" lon="9.5024964"><ele>216.42857142857142</ele><time>2026-04-10T14:00:38.054Z</time></trkpt><trkpt lat="45.6262231" lon="9.5023963"><ele>217.28571428571428</ele><time>2026-04-10T14:00:39.053Z</time></trkpt><trkpt lat="45.6262409" lon="9.5023071"><ele>218.14285714285714</ele><time>2026-04-10T14:00:40.054Z</time></trkpt><trkpt lat="45.6262727" lon="9.5022197"><ele>219.0</ele><time>2026-04-10T14:00:41.054Z</time></trkpt><trkpt lat="45.6263044" lon="9.5021406"><ele>217.71428571428572</ele><time>2026-04-10T14:00:42.054Z</time></trkpt><trkpt lat="45.6263352" lon="9.5020605"><ele>216.42857142857142</ele><time>2026-04-10T14:00:43.054Z</time></trkpt><trkpt lat="45.6263679" lon="9.5019754"><ele>215.14285714285714</ele><time>2026-04-10T14:00:44.054Z</time></trkpt><trkpt lat="45.6264007" lon="9.5018934"><ele>213.85714285714286</ele><time>2026-04-10T14:00:45.054Z</time></trkpt><trkpt lat="45.6264419" lon="9.5018166"><ele>212.57142857142856</ele><time>2026-04-10T14:00:46.054Z</time></trkpt><trkpt lat="45.6264788" lon="9.5017431"><ele>211.28571428571428</ele><time>2026-04-10T14:00:47.054Z</time></trkpt><trkpt lat="45.6265156" lon="9.5016693"><ele>210.0</ele><time>2026-04-10T14:00:48.053Z</time></trkpt><trkpt lat="45.626557" lon="9.5015973"><ele>210.0</ele><time>2026-04-10T14:00:49.053Z</time></trkpt><trkpt lat="45.6265897" lon="9.5015146"><ele>210.0</ele><time>2026-04-10T14:00:50.053Z</time></trkpt><trkpt lat="45.6266359" lon="9.5014312"><ele>210.0</ele><time>2026-04-10T14:00:51.054Z</time></trkpt><trkpt lat="45.626678" lon="9.5013516"><ele>210.0</ele><time>2026-04-10T14:00:52.054Z</time></trkpt><trkpt lat="45.6267219" lon="9.5012568"><ele>210.0</ele><time>2026-04-10T14:00:53.053Z</time></trkpt><trkpt lat="45.6267593" lon="9.5011811"><ele>210.0</ele><time>2026-04-10T14:00:54.053Z</time></trkpt><trkpt lat="45.6268308" lon="9.5010229"><ele>211.42857142857142</ele><time>2026-04-10T14:00:56.054Z</time></trkpt><trkpt lat="45.6268634" lon="9.5009367"><ele>212.85714285714286</ele><time>2026-04-10T14:00:57.054Z</time></trkpt><trkpt lat="45.6268983" lon="9.500855"><ele>214.28571428571428</ele><time>2026-04-10T14:00:58.054Z</time></trkpt><trkpt lat="45.6269341" lon="9.5007765"><ele>215.71428571428572</ele><time>2026-04-10T14:00:59.053Z</time></trkpt><trkpt lat="45.6269645" lon="9.5006913"><ele>217.14285714285714</ele><time>2026-04-10T14:01:00.054Z</time></trkpt><trkpt lat="45.6269919" lon="9.5005969"><ele>218.57142857142856</ele><time>2026-04-10T14:01:01.053Z</time></trkpt><trkpt lat="45.6270207" lon="9.5005118"><ele>220.0</ele><time>2026-04-10T14:01:02.054Z</time></trkpt><trkpt lat="45.6270456" lon="9.5004168"><ele>218.42857142857142</ele><time>2026-04-10T14:01:03.054Z</time></trkpt><trkpt lat="45.6270727" lon="9.5003322"><ele>216.85714285714286</ele><time>2026-04-10T14:01:04.054Z</time></trkpt><trkpt lat="45.6271059" lon="9.5002305"><ele>215.28571428571428</ele><time>2026-04-10T14:01:05.054Z</time></trkpt><trkpt lat="45.6271454" lon="9.5001363"><ele>213.71428571428572</ele><time>2026-04-10T14:01:06.054Z</time></trkpt><trkpt lat="45.6271836" lon="9.5000567"><ele>212.14285714285714</ele><time>2026-04-10T14:01:07.053Z</time></trkpt><trkpt lat="45.6272225" lon="9.4999667"><ele>210.57142857142856</ele><time>2026-04-10T14:01:08.054Z</time></trkpt><trkpt lat="45.6272631" lon="9.4998778"><ele>209.0</ele><time>2026-04-10T14:01:09.054Z</time></trkpt><trkpt lat="45.6273032" lon="9.4997965"><ele>209.00000000000003</ele><time>2026-04-10T14:01:10.054Z</time></trkpt><trkpt lat="45.6273447" lon="9.4997075"><ele>209.0</ele><time>2026-04-10T14:01:11.053Z</time></trkpt><trkpt lat="45.6273929" lon="9.4996269"><ele>209.0</ele><time>2026-04-10T14:01:12.054Z</time></trkpt><trkpt lat="45.627436" lon="9.4995332"><ele>209.0</ele><time>2026-04-10T14:01:13.054Z</time></trkpt><trkpt lat="45.6274789" lon="9.4994476"><ele>209.00000000000003</ele><time>2026-04-10T14:01:14.054Z</time></trkpt><trkpt lat="45.6275225" lon="9.4993521"><ele>209.0</ele><time>2026-04-10T14:01:15.054Z</time></trkpt><trkpt lat="45.6275621" lon="9.49926"><ele>208.66666666666669</ele><time>2026-04-10T14:01:16.054Z</time></trkpt><trkpt lat="45.6276071" lon="9.4991709"><ele>208.33333333333334</ele><time>2026-04-10T14:01:17.053Z</time></trkpt><trkpt lat="45.6276537" lon="9.4990785"><ele>208.0</ele><time>2026-04-10T14:01:18.054Z</time></trkpt><trkpt lat="45.6276934" lon="9.4989938"><ele>207.66666666666669</ele><time>2026-04-10T14:01:19.054Z</time></trkpt><trkpt lat="45.6277348" lon="9.4989085"><ele>207.33333333333334</ele><time>2026-04-10T14:01:20.054Z</time></trkpt><trkpt lat="45.6277729" lon="9.4988029"><ele>207.0</ele><time>2026-04-10T14:01:21.054Z</time></trkpt><trkpt lat="45.6278303" lon="9.4987009"><ele>207.0</ele><time>2026-04-10T14:01:22.054Z</time></trkpt><trkpt lat="45.6278717" lon="9.4986136"><ele>207.0</ele><time>2026-04-10T14:01:23.054Z</time></trkpt><trkpt lat="45.6279177" lon="9.4985196"><ele>207.0</ele><time>2026-04-10T14:01:24.053Z</time></trkpt><trkpt lat="45.6279554" lon="9.4984307"><ele>207.0</ele><time>2026-04-10T14:01:25.053Z</time></trkpt><trkpt lat="45.6280012" lon="9.4983348"><ele>207.0</ele><time>2026-04-10T14:01:26.054Z</time></trkpt><trkpt lat="45.6280423" lon="9.4982526"><ele>207.0</ele><time>2026-04-10T14:01:27.054Z</time></trkpt><trkpt lat="45.6280883" lon="9.4981626"><ele>207.00000000000003</ele><time>2026-04-10T14:01:28.054Z</time></trkpt><trkpt lat="45.6281373" lon="9.4980844"><ele>207.0</ele><time>2026-04-10T14:01:29.054Z</time></trkpt><trkpt lat="45.6281944" lon="9.4980054"><ele>207.0</ele><time>2026-04-10T14:01:30.053Z</time></trkpt><trkpt lat="45.6282509" lon="9.4979388"><ele>207.0</ele><time>2026-04-10T14:01:31.054Z</time></trkpt><trkpt lat="45.6283062" lon="9.4978719"><ele>207.0</ele><time>2026-04-10T14:01:32.054Z</time></trkpt><trkpt lat="45.6283614" lon="9.4978162"><ele>207.00000000000003</ele><time>2026-04-10T14:01:33.054Z</time></trkpt><trkpt lat="45.6284201" lon="9.4977609"><ele>207.0</ele><time>2026-04-10T14:01:34.054Z</time></trkpt><trkpt lat="45.6284736" lon="9.4977068"><ele>205.33333333333334</ele><time>2026-04-10T14:01:35.054Z</time></trkpt><trkpt lat="45.6285368" lon="9.4976371"><ele>203.66666666666669</ele><time>2026-04-10T14:01:36.053Z</time></trkpt><trkpt lat="45.6285991" lon="9.4975786"><ele>202.0</ele><time>2026-04-10T14:01:37.054Z</time></trkpt><trkpt lat="45.6286558" lon="9.4975066"><ele>200.33333333333334</ele><time>2026-04-10T14:01:38.054Z</time></trkpt><trkpt lat="45.6287118" lon="9.4974424"><ele>198.66666666666669</ele><time>2026-04-10T14:01:39.054Z</time></trkpt><trkpt lat="45.6287729" lon="9.4973581"><ele>197.0</ele><time>2026-04-10T14:01:40.054Z</time></trkpt><trkpt lat="45.6288295" lon="9.4972879"><ele>197.00000000000003</ele><time>2026-04-10T14:01:41.054Z</time></trkpt><trkpt lat="45.6288881" lon="9.4972205"><ele>197.0</ele><time>2026-04-10T14:01:42.054Z</time></trkpt><trkpt lat="45.6289435" lon="9.4971488"><ele>197.0</ele><time>2026-04-10T14:01:43.054Z</time></trkpt><trkpt lat="45.6290013" lon="9.4970821"><ele>197.0</ele><time>2026-04-10T14:01:44.054Z</time></trkpt><trkpt lat="45.6290567" lon="9.497014"><ele>197.00000000000003</ele><time>2026-04-10T14:01:45.054Z</time></trkpt><trkpt lat="45.6291049" lon="9.4969253"><ele>197.0</ele><time>2026-04-10T14:01:46.054Z</time></trkpt><trkpt lat="45.6291557" lon="9.4968313"><ele>201.00000000000003</ele><time>2026-04-10T14:01:47.053Z</time></trkpt><trkpt lat="45.6291995" lon="9.496748"><ele>205.0</ele><time>2026-04-10T14:01:48.054Z</time></trkpt><trkpt lat="45.6292323" lon="9.4966676"><ele>209.0</ele><time>2026-04-10T14:01:49.054Z</time></trkpt><trkpt lat="45.629275" lon="9.4965826"><ele>213.0</ele><time>2026-04-10T14:01:50.053Z</time></trkpt><trkpt lat="45.629316" lon="9.4965012"><ele>217.00000000000003</ele><time>2026-04-10T14:01:51.054Z</time></trkpt><trkpt lat="45.6293701" lon="9.4964337"><ele>221.0</ele><time>2026-04-10T14:01:52.054Z</time></trkpt><trkpt lat="45.6294327" lon="9.4962951"><ele>221.66666666666669</ele><time>2026-04-10T14:01:54.054Z</time></trkpt><trkpt lat="45.6294698" lon="9.4962061"><ele>222.33333333333334</ele><time>2026-04-10T14:01:55.054Z</time></trkpt><trkpt lat="45.6295423" lon="9.4960376"><ele>223.0</ele><time>2026-04-10T14:01:57.053Z</time></trkpt><trkpt lat="45.6295769" lon="9.4959505"><ele>223.66666666666669</ele><time>2026-04-10T14:01:58.054Z</time></trkpt><trkpt lat="45.6296138" lon="9.4958659"><ele>224.33333333333334</ele><time>2026-04-10T14:01:59.054Z</time></trkpt><trkpt lat="45.6296526" lon="9.4957768"><ele>225.0</ele><time>2026-04-10T14:02:00.053Z</time></trkpt><trkpt lat="45.6296871" lon="9.4956988"><ele>224.83333333333334</ele><time>2026-04-10T14:02:01.054Z</time></trkpt><trkpt lat="45.6297187" lon="9.4956198"><ele>224.66666666666669</ele><time>2026-04-10T14:02:02.054Z</time></trkpt><trkpt lat="45.6297932" lon="9.4954771"><ele>224.5</ele><time>2026-04-10T14:02:04.054Z</time></trkpt><trkpt lat="45.6298268" lon="9.495399"><ele>224.33333333333334</ele><time>2026-04-10T14:02:05.054Z</time></trkpt><trkpt lat="45.6298985" lon="9.4952536"><ele>224.16666666666669</ele><time>2026-04-10T14:02:07.054Z</time></trkpt><trkpt lat="45.629939" lon="9.4951722"><ele>224.0</ele><time>2026-04-10T14:02:08.053Z</time></trkpt><trkpt lat="45.6300159" lon="9.4950224"><ele>224.0</ele><time>2026-04-10T14:02:10.054Z</time></trkpt><trkpt lat="45.6300533" lon="9.494932"><ele>224.0</ele><time>2026-04-10T14:02:11.053Z</time></trkpt><trkpt lat="45.6300846" lon="9.4948465"><ele>224.0</ele><time>2026-04-10T14:02:12.054Z</time></trkpt><trkpt lat="45.6301212" lon="9.4947696"><ele>224.0</ele><time>2026-04-10T14:02:13.054Z</time></trkpt><trkpt lat="45.6301601" lon="9.4946889"><ele>224.0</ele><time>2026-04-10T14:02:14.054Z</time></trkpt><trkpt lat="45.6301962" lon="9.4946133"><ele>224.0</ele><time>2026-04-10T14:02:15.054Z</time></trkpt><trkpt lat="45.6302326" lon="9.4945295"><ele>224.0</ele><time>2026-04-10T14:02:16.054Z</time></trkpt><trkpt lat="45.6303082" lon="9.4943787"><ele>223.42857142857142</ele><time>2026-04-10T14:02:18.054Z</time></trkpt><trkpt lat="45.6303466" lon="9.4942998"><ele>222.85714285714286</ele><time>2026-04-10T14:02:19.054Z</time></trkpt><trkpt lat="45.6303912" lon="9.4942235"><ele>222.28571428571428</ele><time>2026-04-10T14:02:20.054Z</time></trkpt><trkpt lat="45.6304356" lon="9.4941378"><ele>221.71428571428572</ele><time>2026-04-10T14:02:21.054Z</time></trkpt><trkpt lat="45.6304864" lon="9.4940615"><ele>221.14285714285714</ele><time>2026-04-10T14:02:22.053Z</time></trkpt><trkpt lat="45.6305339" lon="9.4939895"><ele>220.57142857142856</ele><time>2026-04-10T14:02:23.054Z</time></trkpt><trkpt lat="45.6305835" lon="9.4939108"><ele>220.0</ele><time>2026-04-10T14:02:24.054Z</time></trkpt><trkpt lat="45.6306726" lon="9.493794"><ele>221.4</ele><time>2026-04-10T14:02:26.053Z</time></trkpt><trkpt lat="45.6307166" lon="9.4937212"><ele>222.8</ele><time>2026-04-10T14:02:27.054Z</time></trkpt><trkpt lat="45.630767" lon="9.4935778"><ele>224.2</ele><time>2026-04-10T14:02:29.053Z</time></trkpt><trkpt lat="45.6307815" lon="9.493427"><ele>225.6</ele><time>2026-04-10T14:02:31.054Z</time></trkpt><trkpt lat="45.630755" lon="9.4933046"><ele>227.0</ele><time>2026-04-10T14:02:33.054Z</time></trkpt><trkpt lat="45.6307055" lon="9.4931697"><ele>227.0</ele><time>2026-04-10T14:02:35.054Z</time></trkpt><trkpt lat="45.6306035" lon="9.4930615"><ele>227.0</ele><time>2026-04-10T14:02:37.054Z</time></trkpt><trkpt lat="45.6304892" lon="9.4929834"><ele>227.0</ele><time>2026-04-10T14:02:39.054Z</time></trkpt><trkpt lat="45.6303725" lon="9.4928929"><ele>227.0</ele><time>2026-04-10T14:02:41.053Z</time></trkpt><trkpt lat="45.6303089" lon="9.4928472"><ele>226.2857142857143</ele><time>2026-04-10T14:02:42.054Z</time></trkpt><trkpt lat="45.6302461" lon="9.4928008"><ele>225.5714285714286</ele><time>2026-04-10T14:02:43.053Z</time></trkpt><trkpt lat="45.6301824" lon="9.4927539"><ele>224.85714285714286</ele><time>2026-04-10T14:02:44.054Z</time></trkpt><trkpt lat="45.6301134" lon="9.4927124"><ele>224.14285714285717</ele><time>2026-04-10T14:02:45.054Z</time></trkpt><trkpt lat="45.6300484" lon="9.4926664"><ele>223.42857142857144</ele><time>2026-04-10T14:02:46.054Z</time></trkpt><trkpt lat="45.6299825" lon="9.4926194"><ele>222.71428571428572</ele><time>2026-04-10T14:02:47.054Z</time></trkpt><trkpt lat="45.6299219" lon="9.4925732"><ele>222.0</ele><time>2026-04-10T14:02:48.053Z</time></trkpt><trkpt lat="45.6298533" lon="9.4925281"><ele>222.0</ele><time>2026-04-10T14:02:49.054Z</time></trkpt><trkpt lat="45.6297875" lon="9.4924817"><ele>222.0</ele><time>2026-04-10T14:02:50.054Z</time></trkpt><trkpt lat="45.62972" lon="9.4924432"><ele>222.0</ele><time>2026-04-10T14:02:51.054Z</time></trkpt><trkpt lat="45.6296524" lon="9.4924009"><ele>222.0</ele><time>2026-04-10T14:02:52.053Z</time></trkpt><trkpt lat="45.6295828" lon="9.4923577"><ele>222.0</ele><time>2026-04-10T14:02:53.053Z</time></trkpt><trkpt lat="45.629517" lon="9.4923082"><ele>222.0</ele><time>2026-04-10T14:02:54.054Z</time></trkpt><trkpt lat="45.6294464" lon="9.4922639"><ele>222.0</ele><time>2026-04-10T14:02:55.054Z</time></trkpt><trkpt lat="45.6293767" lon="9.4922195"><ele>221.83333333333334</ele><time>2026-04-10T14:02:56.053Z</time></trkpt><trkpt lat="45.6293121" lon="9.4921696"><ele>221.66666666666669</ele><time>2026-04-10T14:02:57.054Z</time></trkpt><trkpt lat="45.6292468" lon="9.4921195"><ele>221.5</ele><time>2026-04-10T14:02:58.054Z</time></trkpt><trkpt lat="45.6291752" lon="9.4920772"><ele>221.33333333333334</ele><time>2026-04-10T14:02:59.054Z</time></trkpt><trkpt lat="45.6290993" lon="9.4920348"><ele>221.16666666666669</ele><time>2026-04-10T14:03:00.054Z</time></trkpt><trkpt lat="45.6290266" lon="9.4919924"><ele>221.0</ele><time>2026-04-10T14:03:01.054Z</time></trkpt><trkpt lat="45.6289596" lon="9.4919476"><ele>221.00000000000003</ele><time>2026-04-10T14:03:02.053Z</time></trkpt><trkpt lat="45.6288865" lon="9.4918969"><ele>221.0</ele><time>2026-04-10T14:03:03.054Z</time></trkpt><trkpt lat="45.6288159" lon="9.4918548"><ele>221.0</ele><time>2026-04-10T14:03:04.054Z</time></trkpt><trkpt lat="45.6287514" lon="9.4918051"><ele>221.0</ele><time>2026-04-10T14:03:05.053Z</time></trkpt><trkpt lat="45.6286827" lon="9.491759"><ele>221.00000000000003</ele><time>2026-04-10T14:03:06.054Z</time></trkpt><trkpt lat="45.6286168" lon="9.4917205"><ele>221.0</ele><time>2026-04-10T14:03:07.054Z</time></trkpt><trkpt lat="45.6285375" lon="9.4916783"><ele>220.83333333333334</ele><time>2026-04-10T14:03:08.054Z</time></trkpt><trkpt lat="45.6284731" lon="9.4916228"><ele>220.66666666666669</ele><time>2026-04-10T14:03:09.054Z</time></trkpt><trkpt lat="45.6284017" lon="9.491569"><ele>220.5</ele><time>2026-04-10T14:03:10.054Z</time></trkpt><trkpt lat="45.6283268" lon="9.4915222"><ele>220.33333333333331</ele><time>2026-04-10T14:03:11.054Z</time></trkpt><trkpt lat="45.6282623" lon="9.4914695"><ele>220.16666666666666</ele><time>2026-04-10T14:03:12.053Z</time></trkpt><trkpt lat="45.6281841" lon="9.4914224"><ele>220.0</ele><time>2026-04-10T14:03:13.054Z</time></trkpt><trkpt lat="45.6281086" lon="9.4913697"><ele>219.99999999999997</ele><time>2026-04-10T14:03:14.054Z</time></trkpt><trkpt lat="45.6280383" lon="9.491321"><ele>220.0</ele><time>2026-04-10T14:03:15.054Z</time></trkpt><trkpt lat="45.6279651" lon="9.4912705"><ele>220.0</ele><time>2026-04-10T14:03:16.053Z</time></trkpt><trkpt lat="45.6278979" lon="9.4912188"><ele>220.0</ele><time>2026-04-10T14:03:17.054Z</time></trkpt><trkpt lat="45.6278288" lon="9.491164"><ele>219.99999999999997</ele><time>2026-04-10T14:03:18.053Z</time></trkpt><trkpt lat="45.6277605" lon="9.4911131"><ele>220.0</ele><time>2026-04-10T14:03:19.054Z</time></trkpt><trkpt lat="45.6276872" lon="9.4910606"><ele>219.66666666666666</ele><time>2026-04-10T14:03:20.054Z</time></trkpt><trkpt lat="45.6276142" lon="9.4910129"><ele>219.33333333333331</ele><time>2026-04-10T14:03:21.054Z</time></trkpt><trkpt lat="45.6275439" lon="9.4909622"><ele>219.0</ele><time>2026-04-10T14:03:22.053Z</time></trkpt><trkpt lat="45.6274728" lon="9.4909159"><ele>218.66666666666669</ele><time>2026-04-10T14:03:23.054Z</time></trkpt><trkpt lat="45.6274002" lon="9.4908658"><ele>218.33333333333334</ele><time>2026-04-10T14:03:24.054Z</time></trkpt><trkpt lat="45.6273328" lon="9.4908154"><ele>218.0</ele><time>2026-04-10T14:03:25.054Z</time></trkpt><trkpt lat="45.6272644" lon="9.4907629"><ele>218.00000000000003</ele><time>2026-04-10T14:03:26.054Z</time></trkpt><trkpt lat="45.6271996" lon="9.490723"><ele>218.0</ele><time>2026-04-10T14:03:27.054Z</time></trkpt><trkpt lat="45.6271294" lon="9.4906781"><ele>218.0</ele><time>2026-04-10T14:03:28.054Z</time></trkpt><trkpt lat="45.6270603" lon="9.4906258"><ele>218.0</ele><time>2026-04-10T14:03:29.053Z</time></trkpt><trkpt lat="45.6269915" lon="9.4905736"><ele>218.00000000000003</ele><time>2026-04-10T14:03:30.053Z</time></trkpt><trkpt lat="45.6269256" lon="9.4905217"><ele>218.0</ele><time>2026-04-10T14:03:31.054Z</time></trkpt><trkpt lat="45.6268519" lon="9.4904766"><ele>218.00000000000003</ele><time>2026-04-10T14:03:32.054Z</time></trkpt><trkpt lat="45.6267802" lon="9.4904268"><ele>218.0</ele><time>2026-04-10T14:03:33.054Z</time></trkpt><trkpt lat="45.6267063" lon="9.4903845"><ele>218.0</ele><time>2026-04-10T14:03:34.054Z</time></trkpt><trkpt lat="45.6266296" lon="9.4903335"><ele>218.0</ele><time>2026-04-10T14:03:35.054Z</time></trkpt><trkpt lat="45.6265585" lon="9.4902821"><ele>218.00000000000003</ele><time>2026-04-10T14:03:36.054Z</time></trkpt><trkpt lat="45.6264888" lon="9.4902352"><ele>218.0</ele><time>2026-04-10T14:03:37.054Z</time></trkpt><trkpt lat="45.6264149" lon="9.4901848"><ele>218.00000000000003</ele><time>2026-04-10T14:03:38.054Z</time></trkpt><trkpt lat="45.62635" lon="9.4901277"><ele>218.0</ele><time>2026-04-10T14:03:39.054Z</time></trkpt><trkpt lat="45.6262851" lon="9.4900807"><ele>218.0</ele><time>2026-04-10T14:03:40.054Z</time></trkpt><trkpt lat="45.62621" lon="9.4900332"><ele>218.0</ele><time>2026-04-10T14:03:41.054Z</time></trkpt><trkpt lat="45.6261327" lon="9.4899834"><ele>218.00000000000003</ele><time>2026-04-10T14:03:42.053Z</time></trkpt><trkpt lat="45.6260581" lon="9.4899375"><ele>218.0</ele><time>2026-04-10T14:03:43.054Z</time></trkpt><trkpt lat="45.6259878" lon="9.4898865"><ele>218.00000000000003</ele><time>2026-04-10T14:03:44.053Z</time></trkpt><trkpt lat="45.6259175" lon="9.4898334"><ele>218.0</ele><time>2026-04-10T14:03:45.054Z</time></trkpt><trkpt lat="45.6258421" lon="9.4897878"><ele>218.0</ele><time>2026-04-10T14:03:46.054Z</time></trkpt><trkpt lat="45.6257697" lon="9.4897336"><ele>218.0</ele><time>2026-04-10T14:03:47.054Z</time></trkpt><trkpt lat="45.6256978" lon="9.4896806"><ele>218.00000000000003</ele><time>2026-04-10T14:03:48.054Z</time></trkpt><trkpt lat="45.6256205" lon="9.4896253"><ele>218.0</ele><time>2026-04-10T14:03:49.054Z</time></trkpt><trkpt lat="45.625546" lon="9.4895798"><ele>218.00000000000003</ele><time>2026-04-10T14:03:50.054Z</time></trkpt><trkpt lat="45.6254758" lon="9.4895234"><ele>218.0</ele><time>2026-04-10T14:03:51.054Z</time></trkpt><trkpt lat="45.6254" lon="9.489484"><ele>218.0</ele><time>2026-04-10T14:03:52.054Z</time></trkpt><trkpt lat="45.6253309" lon="9.4894386"><ele>218.0</ele><time>2026-04-10T14:03:53.054Z</time></trkpt><trkpt lat="45.6252603" lon="9.4893912"><ele>218.00000000000003</ele><time>2026-04-10T14:03:54.054Z</time></trkpt><trkpt lat="45.6251841" lon="9.4893454"><ele>218.0</ele><time>2026-04-10T14:03:55.053Z</time></trkpt><trkpt lat="45.6251092" lon="9.4892927"><ele>217.50000000000003</ele><time>2026-04-10T14:03:56.054Z</time></trkpt><trkpt lat="45.6250428" lon="9.489252"><ele>217.0</ele><time>2026-04-10T14:03:57.053Z</time></trkpt><trkpt lat="45.6249792" lon="9.4891994"><ele>216.5</ele><time>2026-04-10T14:03:58.053Z</time></trkpt><trkpt lat="45.6249018" lon="9.4891512"><ele>216.0</ele><time>2026-04-10T14:03:59.053Z</time></trkpt><trkpt lat="45.6248298" lon="9.489102"><ele>215.50000000000003</ele><time>2026-04-10T14:04:00.054Z</time></trkpt><trkpt lat="45.6247537" lon="9.4890608"><ele>215.0</ele><time>2026-04-10T14:04:01.054Z</time></trkpt><trkpt lat="45.6246837" lon="9.4890075"><ele>215.00000000000003</ele><time>2026-04-10T14:04:02.053Z</time></trkpt><trkpt lat="45.6246093" lon="9.4889572"><ele>215.0</ele><time>2026-04-10T14:04:03.054Z</time></trkpt><trkpt lat="45.6245382" lon="9.4889098"><ele>215.0</ele><time>2026-04-10T14:04:04.054Z</time></trkpt><trkpt lat="45.6244579" lon="9.488867"><ele>215.0</ele><time>2026-04-10T14:04:05.054Z</time></trkpt><trkpt lat="45.6243823" lon="9.4888159"><ele>215.00000000000003</ele><time>2026-04-10T14:04:06.053Z</time></trkpt><trkpt lat="45.624309" lon="9.4887687"><ele>215.0</ele><time>2026-04-10T14:04:07.054Z</time></trkpt><trkpt lat="45.6242373" lon="9.4887182"><ele>215.00000000000003</ele><time>2026-04-10T14:04:08.053Z</time></trkpt><trkpt lat="45.6241613" lon="9.4886705"><ele>215.0</ele><time>2026-04-10T14:04:09.054Z</time></trkpt><trkpt lat="45.6240873" lon="9.488615"><ele>215.0</ele><time>2026-04-10T14:04:10.054Z</time></trkpt><trkpt lat="45.6240099" lon="9.4885636"><ele>215.0</ele><time>2026-04-10T14:04:11.054Z</time></trkpt><trkpt lat="45.6239356" lon="9.488514"><ele>215.00000000000003</ele><time>2026-04-10T14:04:12.054Z</time></trkpt><trkpt lat="45.6238628" lon="9.4884638"><ele>215.0</ele><time>2026-04-10T14:04:13.053Z</time></trkpt><trkpt lat="45.6237894" lon="9.488411"><ele>215.00000000000003</ele><time>2026-04-10T14:04:14.054Z</time></trkpt><trkpt lat="45.6237109" lon="9.488362"><ele>215.0</ele><time>2026-04-10T14:04:15.054Z</time></trkpt><trkpt lat="45.6236367" lon="9.4883137"><ele>215.0</ele><time>2026-04-10T14:04:16.053Z</time></trkpt><trkpt lat="45.6235582" lon="9.4882678"><ele>215.0</ele><time>2026-04-10T14:04:17.053Z</time></trkpt><trkpt lat="45.6234891" lon="9.4882152"><ele>215.00000000000003</ele><time>2026-04-10T14:04:18.054Z</time></trkpt><trkpt lat="45.6234121" lon="9.4881623"><ele>215.0</ele><time>2026-04-10T14:04:19.054Z</time></trkpt><trkpt lat="45.6233334" lon="9.4881124"><ele>215.33333333333334</ele><time>2026-04-10T14:04:20.053Z</time></trkpt><trkpt lat="45.6232605" lon="9.4880576"><ele>215.66666666666669</ele><time>2026-04-10T14:04:21.054Z</time></trkpt><trkpt lat="45.6231929" lon="9.488002"><ele>216.0</ele><time>2026-04-10T14:04:22.054Z</time></trkpt><trkpt lat="45.623119" lon="9.4879488"><ele>216.33333333333331</ele><time>2026-04-10T14:04:23.054Z</time></trkpt><trkpt lat="45.6230466" lon="9.4878929"><ele>216.66666666666666</ele><time>2026-04-10T14:04:24.054Z</time></trkpt><trkpt lat="45.622969" lon="9.4878385"><ele>217.0</ele><time>2026-04-10T14:04:25.053Z</time></trkpt><trkpt lat="45.622896" lon="9.4877826"><ele>217.16666666666666</ele><time>2026-04-10T14:04:26.054Z</time></trkpt><trkpt lat="45.6228257" lon="9.4877411"><ele>217.33333333333331</ele><time>2026-04-10T14:04:27.053Z</time></trkpt><trkpt lat="45.6227574" lon="9.4876775"><ele>217.5</ele><time>2026-04-10T14:04:28.054Z</time></trkpt><trkpt lat="45.6226721" lon="9.4876279"><ele>217.66666666666669</ele><time>2026-04-10T14:04:29.053Z</time></trkpt><trkpt lat="45.622598" lon="9.4875818"><ele>217.83333333333334</ele><time>2026-04-10T14:04:30.054Z</time></trkpt><trkpt lat="45.6225269" lon="9.4875259"><ele>218.0</ele><time>2026-04-10T14:04:31.053Z</time></trkpt><trkpt lat="45.6224525" lon="9.4874745"><ele>217.16666666666669</ele><time>2026-04-10T14:04:32.054Z</time></trkpt><trkpt lat="45.6223743" lon="9.4874208"><ele>216.33333333333334</ele><time>2026-04-10T14:04:33.053Z</time></trkpt><trkpt lat="45.6223037" lon="9.4873711"><ele>215.5</ele><time>2026-04-10T14:04:34.053Z</time></trkpt><trkpt lat="45.6222261" lon="9.4873211"><ele>214.66666666666669</ele><time>2026-04-10T14:04:35.054Z</time></trkpt><trkpt lat="45.6221455" lon="9.4872666"><ele>213.83333333333334</ele><time>2026-04-10T14:04:36.054Z</time></trkpt><trkpt lat="45.6220678" lon="9.4872213"><ele>213.0</ele><time>2026-04-10T14:04:37.054Z</time></trkpt><trkpt lat="45.6219978" lon="9.4871696"><ele>213.0</ele><time>2026-04-10T14:04:38.054Z</time></trkpt><trkpt lat="45.6219277" lon="9.4871111"><ele>213.0</ele><time>2026-04-10T14:04:39.054Z</time></trkpt><trkpt lat="45.6218505" lon="9.4870641"><ele>213.0</ele><time>2026-04-10T14:04:40.054Z</time></trkpt><trkpt lat="45.6217788" lon="9.4870139"><ele>213.0</ele><time>2026-04-10T14:04:41.054Z</time></trkpt><trkpt lat="45.6217034" lon="9.4869649"><ele>213.0</ele><time>2026-04-10T14:04:42.053Z</time></trkpt><trkpt lat="45.6216297" lon="9.486914"><ele>213.0</ele><time>2026-04-10T14:04:43.054Z</time></trkpt><trkpt lat="45.6215561" lon="9.4868616"><ele>213.0</ele><time>2026-04-10T14:04:44.054Z</time></trkpt><trkpt lat="45.6214809" lon="9.486805"><ele>213.0</ele><time>2026-04-10T14:04:45.054Z</time></trkpt><trkpt lat="45.6214064" lon="9.4867526"><ele>213.0</ele><time>2026-04-10T14:04:46.054Z</time></trkpt><trkpt lat="45.6213267" lon="9.48672"><ele>213.0</ele><time>2026-04-10T14:04:47.053Z</time></trkpt><trkpt lat="45.6212415" lon="9.4866954"><ele>213.0</ele><time>2026-04-10T14:04:48.053Z</time></trkpt><trkpt lat="45.6211567" lon="9.4866762"><ele>213.0</ele><time>2026-04-10T14:04:49.054Z</time></trkpt><trkpt lat="45.6210735" lon="9.4866657"><ele>212.83333333333334</ele><time>2026-04-10T14:04:50.054Z</time></trkpt><trkpt lat="45.6209946" lon="9.4866627"><ele>212.66666666666669</ele><time>2026-04-10T14:04:51.053Z</time></trkpt><trkpt lat="45.6209114" lon="9.4866543"><ele>212.5</ele><time>2026-04-10T14:04:52.054Z</time></trkpt><trkpt lat="45.6208377" lon="9.4866439"><ele>212.33333333333334</ele><time>2026-04-10T14:04:53.054Z</time></trkpt><trkpt lat="45.6207584" lon="9.4866184"><ele>212.16666666666669</ele><time>2026-04-10T14:04:54.054Z</time></trkpt><trkpt lat="45.6206784" lon="9.4866091"><ele>212.0</ele><time>2026-04-10T14:04:55.054Z</time></trkpt><trkpt lat="45.6205949" lon="9.486598"><ele>212.00000000000003</ele><time>2026-04-10T14:04:56.053Z</time></trkpt><trkpt lat="45.6205159" lon="9.4865761"><ele>212.0</ele><time>2026-04-10T14:04:57.054Z</time></trkpt><trkpt lat="45.620434" lon="9.4865642"><ele>212.0</ele><time>2026-04-10T14:04:58.054Z</time></trkpt><trkpt lat="45.6203486" lon="9.4865503"><ele>212.0</ele><time>2026-04-10T14:04:59.054Z</time></trkpt><trkpt lat="45.6202692" lon="9.4865412"><ele>212.00000000000003</ele><time>2026-04-10T14:05:00.054Z</time></trkpt><trkpt lat="45.620186" lon="9.4865395"><ele>212.0</ele><time>2026-04-10T14:05:01.054Z</time></trkpt><trkpt lat="45.6201016" lon="9.4865335"><ele>212.00000000000003</ele><time>2026-04-10T14:05:02.054Z</time></trkpt><trkpt lat="45.6200197" lon="9.4865233"><ele>212.0</ele><time>2026-04-10T14:05:03.054Z</time></trkpt><trkpt lat="45.6199406" lon="9.4865056"><ele>212.0</ele><time>2026-04-10T14:05:04.053Z</time></trkpt><trkpt lat="45.61986" lon="9.4864897"><ele>212.0</ele><time>2026-04-10T14:05:05.054Z</time></trkpt><trkpt lat="45.6197795" lon="9.4864804"><ele>212.00000000000003</ele><time>2026-04-10T14:05:06.054Z</time></trkpt><trkpt lat="45.6196979" lon="9.4864721"><ele>212.0</ele><time>2026-04-10T14:05:07.054Z</time></trkpt><trkpt lat="45.619619" lon="9.4864636"><ele>212.00000000000003</ele><time>2026-04-10T14:05:08.053Z</time></trkpt><trkpt lat="45.6195393" lon="9.4864497"><ele>212.0</ele><time>2026-04-10T14:05:09.054Z</time></trkpt><trkpt lat="45.6194593" lon="9.486436"><ele>212.0</ele><time>2026-04-10T14:05:10.054Z</time></trkpt><trkpt lat="45.6193746" lon="9.486423"><ele>212.0</ele><time>2026-04-10T14:05:11.054Z</time></trkpt><trkpt lat="45.6192976" lon="9.4864125"><ele>212.00000000000003</ele><time>2026-04-10T14:05:12.054Z</time></trkpt><trkpt lat="45.6192195" lon="9.4864039"><ele>212.0</ele><time>2026-04-10T14:05:13.054Z</time></trkpt><trkpt lat="45.61914" lon="9.4863921"><ele>211.50000000000003</ele><time>2026-04-10T14:05:14.054Z</time></trkpt><trkpt lat="45.6190595" lon="9.4863827"><ele>211.0</ele><time>2026-04-10T14:05:15.054Z</time></trkpt><trkpt lat="45.6189796" lon="9.4863718"><ele>210.5</ele><time>2026-04-10T14:05:16.054Z</time></trkpt><trkpt lat="45.6188998" lon="9.4863629"><ele>210.0</ele><time>2026-04-10T14:05:17.054Z</time></trkpt><trkpt lat="45.6188199" lon="9.4863424"><ele>209.50000000000003</ele><time>2026-04-10T14:05:18.054Z</time></trkpt><trkpt lat="45.6187381" lon="9.4863249"><ele>209.0</ele><time>2026-04-10T14:05:19.054Z</time></trkpt><trkpt lat="45.6186583" lon="9.4863103"><ele>208.83333333333334</ele><time>2026-04-10T14:05:20.053Z</time></trkpt><trkpt lat="45.6185785" lon="9.4862988"><ele>208.66666666666669</ele><time>2026-04-10T14:05:21.054Z</time></trkpt><trkpt lat="45.6184976" lon="9.486282"><ele>208.5</ele><time>2026-04-10T14:05:22.054Z</time></trkpt><trkpt lat="45.6184217" lon="9.4862768"><ele>208.33333333333331</ele><time>2026-04-10T14:05:23.053Z</time></trkpt><trkpt lat="45.6183497" lon="9.4862689"><ele>208.16666666666666</ele><time>2026-04-10T14:05:24.053Z</time></trkpt><trkpt lat="45.618274" lon="9.486264"><ele>208.0</ele><time>2026-04-10T14:05:25.054Z</time></trkpt><trkpt lat="45.618208" lon="9.4862517"><ele>207.99999999999997</ele><time>2026-04-10T14:05:26.053Z</time></trkpt><trkpt lat="45.6181386" lon="9.4862406"><ele>208.0</ele><time>2026-04-10T14:05:27.054Z</time></trkpt><trkpt lat="45.6180695" lon="9.4862307"><ele>208.0</ele><time>2026-04-10T14:05:28.054Z</time></trkpt><trkpt lat="45.6180053" lon="9.4862118"><ele>208.0</ele><time>2026-04-10T14:05:29.054Z</time></trkpt><trkpt lat="45.6179367" lon="9.4861878"><ele>207.99999999999997</ele><time>2026-04-10T14:05:30.053Z</time></trkpt><trkpt lat="45.6178689" lon="9.4860419"><ele>208.0</ele><time>2026-04-10T14:05:32.054Z</time></trkpt><trkpt lat="45.6178621" lon="9.4859489"><ele>208.0</ele><time>2026-04-10T14:05:33.054Z</time></trkpt><trkpt lat="45.6178809" lon="9.4857788"><ele>208.0</ele><time>2026-04-10T14:05:35.054Z</time></trkpt><trkpt lat="45.6179098" lon="9.4856323"><ele>208.0</ele><time>2026-04-10T14:05:37.053Z</time></trkpt><trkpt lat="45.6178923" lon="9.4854943"><ele>208.0</ele><time>2026-04-10T14:05:39.053Z</time></trkpt><trkpt lat="45.6178192" lon="9.4853701"><ele>208.0</ele><time>2026-04-10T14:05:41.053Z</time></trkpt><trkpt lat="45.6177376" lon="9.4852438"><ele>208.14285714285714</ele><time>2026-04-10T14:05:43.054Z</time></trkpt><trkpt lat="45.6177056" lon="9.4851617"><ele>208.2857142857143</ele><time>2026-04-10T14:05:44.054Z</time></trkpt><trkpt lat="45.6176832" lon="9.4850731"><ele>208.42857142857144</ele><time>2026-04-10T14:05:45.054Z</time></trkpt><trkpt lat="45.617672" lon="9.4849738"><ele>208.57142857142856</ele><time>2026-04-10T14:05:46.054Z</time></trkpt><trkpt lat="45.6176666" lon="9.484873"><ele>208.71428571428572</ele><time>2026-04-10T14:05:47.054Z</time></trkpt><trkpt lat="45.6176586" lon="9.4847745"><ele>208.85714285714286</ele><time>2026-04-10T14:05:48.054Z</time></trkpt><trkpt lat="45.6176499" lon="9.4846807"><ele>209.0</ele><time>2026-04-10T14:05:49.053Z</time></trkpt><trkpt lat="45.6176412" lon="9.4845763"><ele>209.0</ele><time>2026-04-10T14:05:50.054Z</time></trkpt><trkpt lat="45.6176335" lon="9.4844696"><ele>209.0</ele><time>2026-04-10T14:05:51.053Z</time></trkpt><trkpt lat="45.617624" lon="9.484375"><ele>209.0</ele><time>2026-04-10T14:05:52.054Z</time></trkpt><trkpt lat="45.6176149" lon="9.4842719"><ele>209.0</ele><time>2026-04-10T14:05:53.054Z</time></trkpt><trkpt lat="45.6176043" lon="9.4841639"><ele>209.0</ele><time>2026-04-10T14:05:54.054Z</time></trkpt><trkpt lat="45.6175966" lon="9.4840642"><ele>209.0</ele><time>2026-04-10T14:05:55.054Z</time></trkpt><trkpt lat="45.6175892" lon="9.4839694"><ele>209.0</ele><time>2026-04-10T14:05:56.053Z</time></trkpt><trkpt lat="45.6175816" lon="9.4838699"><ele>209.0</ele><time>2026-04-10T14:05:57.054Z</time></trkpt><trkpt lat="45.6175759" lon="9.4837665"><ele>209.0</ele><time>2026-04-10T14:05:58.054Z</time></trkpt><trkpt lat="45.6175637" lon="9.4836674"><ele>209.0</ele><time>2026-04-10T14:05:59.054Z</time></trkpt><trkpt lat="45.6175528" lon="9.4835673"><ele>209.0</ele><time>2026-04-10T14:06:00.054Z</time></trkpt><trkpt lat="45.6175686" lon="9.4834661"><ele>209.0</ele><time>2026-04-10T14:06:01.054Z</time></trkpt><trkpt lat="45.6175728" lon="9.4833635"><ele>209.0</ele><time>2026-04-10T14:06:02.054Z</time></trkpt><trkpt lat="45.6175508" lon="9.483265"><ele>209.0</ele><time>2026-04-10T14:06:03.054Z</time></trkpt><trkpt lat="45.6175421" lon="9.483156"><ele>209.0</ele><time>2026-04-10T14:06:04.054Z</time></trkpt><trkpt lat="45.6175284" lon="9.4830468"><ele>209.0</ele><time>2026-04-10T14:06:05.054Z</time></trkpt><trkpt lat="45.6175148" lon="9.4829418"><ele>209.0</ele><time>2026-04-10T14:06:06.054Z</time></trkpt><trkpt lat="45.6175031" lon="9.4828357"><ele>209.0</ele><time>2026-04-10T14:06:07.054Z</time></trkpt><trkpt lat="45.6174943" lon="9.4827265"><ele>209.0</ele><time>2026-04-10T14:06:08.054Z</time></trkpt><trkpt lat="45.6174832" lon="9.4826257"><ele>209.0</ele><time>2026-04-10T14:06:09.054Z</time></trkpt><trkpt lat="45.6174714" lon="9.4825259"><ele>209.0</ele><time>2026-04-10T14:06:10.054Z</time></trkpt><trkpt lat="45.6174675" lon="9.4824204"><ele>208.85714285714286</ele><time>2026-04-10T14:06:11.053Z</time></trkpt><trkpt lat="45.6174561" lon="9.4823201"><ele>208.71428571428572</ele><time>2026-04-10T14:06:12.053Z</time></trkpt><trkpt lat="45.6174447" lon="9.4822161"><ele>208.57142857142856</ele><time>2026-04-10T14:06:13.053Z</time></trkpt><trkpt lat="45.6174377" lon="9.4821123"><ele>208.42857142857144</ele><time>2026-04-10T14:06:14.054Z</time></trkpt><trkpt lat="45.6174281" lon="9.4820058"><ele>208.2857142857143</ele><time>2026-04-10T14:06:15.054Z</time></trkpt><trkpt lat="45.6174187" lon="9.481904"><ele>208.14285714285714</ele><time>2026-04-10T14:06:16.054Z</time></trkpt><trkpt lat="45.6174129" lon="9.4817984"><ele>208.0</ele><time>2026-04-10T14:06:17.053Z</time></trkpt><trkpt lat="45.6174016" lon="9.481692"><ele>207.85714285714286</ele><time>2026-04-10T14:06:18.054Z</time></trkpt><trkpt lat="45.6173896" lon="9.4815875"><ele>207.71428571428572</ele><time>2026-04-10T14:06:19.053Z</time></trkpt><trkpt lat="45.6173805" lon="9.4814806"><ele>207.57142857142858</ele><time>2026-04-10T14:06:20.054Z</time></trkpt><trkpt lat="45.6173712" lon="9.48138"><ele>207.42857142857144</ele><time>2026-04-10T14:06:21.053Z</time></trkpt><trkpt lat="45.617363" lon="9.4812707"><ele>207.28571428571428</ele><time>2026-04-10T14:06:22.054Z</time></trkpt><trkpt lat="45.6173552" lon="9.4811641"><ele>207.14285714285717</ele><time>2026-04-10T14:06:23.053Z</time></trkpt><trkpt lat="45.617346" lon="9.4810552"><ele>207.0</ele><time>2026-04-10T14:06:24.054Z</time></trkpt><trkpt lat="45.6173346" lon="9.4809454"><ele>207.0</ele><time>2026-04-10T14:06:25.054Z</time></trkpt><trkpt lat="45.6173228" lon="9.4808348"><ele>207.0</ele><time>2026-04-10T14:06:26.054Z</time></trkpt><trkpt lat="45.6173114" lon="9.4807283"><ele>207.0</ele><time>2026-04-10T14:06:27.053Z</time></trkpt><trkpt lat="45.6173013" lon="9.480619"><ele>207.0</ele><time>2026-04-10T14:06:28.054Z</time></trkpt><trkpt lat="45.6172918" lon="9.4805139"><ele>207.0</ele><time>2026-04-10T14:06:29.054Z</time></trkpt><trkpt lat="45.6172861" lon="9.4804109"><ele>207.0</ele><time>2026-04-10T14:06:30.054Z</time></trkpt><trkpt lat="45.6172757" lon="9.4803022"><ele>207.0</ele><time>2026-04-10T14:06:31.054Z</time></trkpt><trkpt lat="45.6172613" lon="9.4801839"><ele>207.0</ele><time>2026-04-10T14:06:32.054Z</time></trkpt><trkpt lat="45.6172518" lon="9.4800802"><ele>207.0</ele><time>2026-04-10T14:06:33.054Z</time></trkpt><trkpt lat="45.6172407" lon="9.479974"><ele>207.0</ele><time>2026-04-10T14:06:34.054Z</time></trkpt><trkpt lat="45.6172302" lon="9.4798635"><ele>207.0</ele><time>2026-04-10T14:06:35.054Z</time></trkpt><trkpt lat="45.6172232" lon="9.4797549"><ele>207.0</ele><time>2026-04-10T14:06:36.053Z</time></trkpt><trkpt lat="45.6172102" lon="9.4796485"><ele>207.83333333333334</ele><time>2026-04-10T14:06:37.053Z</time></trkpt><trkpt lat="45.617199" lon="9.4795411"><ele>208.66666666666669</ele><time>2026-04-10T14:06:38.054Z</time></trkpt><trkpt lat="45.6171857" lon="9.4794346"><ele>209.5</ele><time>2026-04-10T14:06:39.053Z</time></trkpt><trkpt lat="45.6171785" lon="9.479321"><ele>210.33333333333334</ele><time>2026-04-10T14:06:40.053Z</time></trkpt><trkpt lat="45.6171718" lon="9.479204"><ele>211.16666666666669</ele><time>2026-04-10T14:06:41.054Z</time></trkpt><trkpt lat="45.6171562" lon="9.4790963"><ele>212.0</ele><time>2026-04-10T14:06:42.054Z</time></trkpt><trkpt lat="45.6171485" lon="9.4789815"><ele>212.00000000000003</ele><time>2026-04-10T14:06:43.054Z</time></trkpt><trkpt lat="45.6171418" lon="9.4788765"><ele>212.0</ele><time>2026-04-10T14:06:44.054Z</time></trkpt><trkpt lat="45.6171332" lon="9.4787674"><ele>212.0</ele><time>2026-04-10T14:06:45.054Z</time></trkpt><trkpt lat="45.6171224" lon="9.478653"><ele>212.0</ele><time>2026-04-10T14:06:46.054Z</time></trkpt><trkpt lat="45.617115" lon="9.4785414"><ele>212.00000000000003</ele><time>2026-04-10T14:06:47.054Z</time></trkpt><trkpt lat="45.6171056" lon="9.4784335"><ele>212.0</ele><time>2026-04-10T14:06:48.054Z</time></trkpt><trkpt lat="45.617093" lon="9.4783232"><ele>211.66666666666669</ele><time>2026-04-10T14:06:49.053Z</time></trkpt><trkpt lat="45.6170817" lon="9.4782124"><ele>211.33333333333334</ele><time>2026-04-10T14:06:50.053Z</time></trkpt><trkpt lat="45.6170731" lon="9.4780994"><ele>211.0</ele><time>2026-04-10T14:06:51.054Z</time></trkpt><trkpt lat="45.6170638" lon="9.4779855"><ele>210.66666666666669</ele><time>2026-04-10T14:06:52.053Z</time></trkpt><trkpt lat="45.6170561" lon="9.477876"><ele>210.33333333333334</ele><time>2026-04-10T14:06:53.054Z</time></trkpt><trkpt lat="45.617047" lon="9.477761"><ele>210.0</ele><time>2026-04-10T14:06:54.053Z</time></trkpt><trkpt lat="45.6170373" lon="9.4776426"><ele>210.0</ele><time>2026-04-10T14:06:55.054Z</time></trkpt><trkpt lat="45.6170314" lon="9.4775296"><ele>210.0</ele><time>2026-04-10T14:06:56.054Z</time></trkpt><trkpt lat="45.617018" lon="9.4774171"><ele>210.0</ele><time>2026-04-10T14:06:57.053Z</time></trkpt><trkpt lat="45.6170105" lon="9.4773038"><ele>210.0</ele><time>2026-04-10T14:06:58.054Z</time></trkpt><trkpt lat="45.6170003" lon="9.477187"><ele>210.0</ele><time>2026-04-10T14:06:59.054Z</time></trkpt><trkpt lat="45.6169946" lon="9.477075"><ele>210.0</ele><time>2026-04-10T14:07:00.053Z</time></trkpt><trkpt lat="45.6169877" lon="9.4769711"><ele>209.71428571428572</ele><time>2026-04-10T14:07:01.054Z</time></trkpt><trkpt lat="45.6169773" lon="9.4768587"><ele>209.42857142857144</ele><time>2026-04-10T14:07:02.054Z</time></trkpt><trkpt lat="45.6169653" lon="9.4767548"><ele>209.14285714285714</ele><time>2026-04-10T14:07:03.054Z</time></trkpt><trkpt lat="45.6169599" lon="9.4766547"><ele>208.85714285714286</ele><time>2026-04-10T14:07:04.054Z</time></trkpt><trkpt lat="45.616964" lon="9.4765529"><ele>208.57142857142858</ele><time>2026-04-10T14:07:05.053Z</time></trkpt><trkpt lat="45.6169731" lon="9.4764447"><ele>208.28571428571428</ele><time>2026-04-10T14:07:06.053Z</time></trkpt><trkpt lat="45.6169787" lon="9.4763498"><ele>208.0</ele><time>2026-04-10T14:07:07.054Z</time></trkpt><trkpt lat="45.6169654" lon="9.4762569"><ele>208.0</ele><time>2026-04-10T14:07:08.054Z</time></trkpt><trkpt lat="45.6169241" lon="9.4761887"><ele>208.0</ele><time>2026-04-10T14:07:09.054Z</time></trkpt><trkpt lat="45.6168656" lon="9.4761526"><ele>208.0</ele><time>2026-04-10T14:07:10.054Z</time></trkpt><trkpt lat="45.6168032" lon="9.4761385"><ele>208.0</ele><time>2026-04-10T14:07:11.054Z</time></trkpt><trkpt lat="45.6167333" lon="9.4761438"><ele>208.0</ele><time>2026-04-10T14:07:12.054Z</time></trkpt><trkpt lat="45.6166576" lon="9.4761515"><ele>208.0</ele><time>2026-04-10T14:07:13.054Z</time></trkpt><trkpt lat="45.6165868" lon="9.4761409"><ele>208.0</ele><time>2026-04-10T14:07:14.053Z</time></trkpt><trkpt lat="45.6165197" lon="9.4761097"><ele>208.0</ele><time>2026-04-10T14:07:15.054Z</time></trkpt><trkpt lat="45.6164516" lon="9.4760857"><ele>208.0</ele><time>2026-04-10T14:07:16.054Z</time></trkpt><trkpt lat="45.6163808" lon="9.4760501"><ele>208.0</ele><time>2026-04-10T14:07:17.054Z</time></trkpt><trkpt lat="45.6163058" lon="9.4760196"><ele>208.0</ele><time>2026-04-10T14:07:18.054Z</time></trkpt><trkpt lat="45.6162341" lon="9.4759823"><ele>208.0</ele><time>2026-04-10T14:07:19.054Z</time></trkpt><trkpt lat="45.6161639" lon="9.4759445"><ele>208.0</ele><time>2026-04-10T14:07:20.054Z</time></trkpt><trkpt lat="45.6160941" lon="9.475911"><ele>208.0</ele><time>2026-04-10T14:07:21.054Z</time></trkpt><trkpt lat="45.6160228" lon="9.4758756"><ele>207.85714285714286</ele><time>2026-04-10T14:07:22.054Z</time></trkpt><trkpt lat="45.6159523" lon="9.4758483"><ele>207.71428571428572</ele><time>2026-04-10T14:07:23.054Z</time></trkpt><trkpt lat="45.6158796" lon="9.4758136"><ele>207.57142857142858</ele><time>2026-04-10T14:07:24.053Z</time></trkpt><trkpt lat="45.6158084" lon="9.4757761"><ele>207.42857142857144</ele><time>2026-04-10T14:07:25.053Z</time></trkpt><trkpt lat="45.6157379" lon="9.4757381"><ele>207.28571428571428</ele><time>2026-04-10T14:07:26.054Z</time></trkpt><trkpt lat="45.6156671" lon="9.4757094"><ele>207.14285714285717</ele><time>2026-04-10T14:07:27.054Z</time></trkpt><trkpt lat="45.6155969" lon="9.4756778"><ele>207.0</ele><time>2026-04-10T14:07:28.054Z</time></trkpt><trkpt lat="45.6155279" lon="9.4756439"><ele>207.00000000000003</ele><time>2026-04-10T14:07:29.054Z</time></trkpt><trkpt lat="45.6154549" lon="9.4756156"><ele>207.0</ele><time>2026-04-10T14:07:30.054Z</time></trkpt><trkpt lat="45.6153861" lon="9.4755813"><ele>207.0</ele><time>2026-04-10T14:07:31.054Z</time></trkpt><trkpt lat="45.6153193" lon="9.4755505"><ele>207.0</ele><time>2026-04-10T14:07:32.054Z</time></trkpt><trkpt lat="45.6152519" lon="9.4755113"><ele>207.0</ele><time>2026-04-10T14:07:33.053Z</time></trkpt><trkpt lat="45.6151753" lon="9.4754774"><ele>207.00000000000003</ele><time>2026-04-10T14:07:34.053Z</time></trkpt><trkpt lat="45.6151002" lon="9.4754599"><ele>207.0</ele><time>2026-04-10T14:07:35.054Z</time></trkpt><trkpt lat="45.6150298" lon="9.475426"><ele>206.85714285714286</ele><time>2026-04-10T14:07:36.054Z</time></trkpt><trkpt lat="45.6149609" lon="9.475394"><ele>206.71428571428572</ele><time>2026-04-10T14:07:37.053Z</time></trkpt><trkpt lat="45.6148955" lon="9.475363"><ele>206.57142857142856</ele><time>2026-04-10T14:07:38.054Z</time></trkpt><trkpt lat="45.6148218" lon="9.4753304"><ele>206.42857142857144</ele><time>2026-04-10T14:07:39.054Z</time></trkpt><trkpt lat="45.6147511" lon="9.4752982"><ele>206.28571428571428</ele><time>2026-04-10T14:07:40.054Z</time></trkpt><trkpt lat="45.6146762" lon="9.4752688"><ele>206.14285714285714</ele><time>2026-04-10T14:07:41.054Z</time></trkpt><trkpt lat="45.6146068" lon="9.4752316"><ele>206.0</ele><time>2026-04-10T14:07:42.054Z</time></trkpt><trkpt lat="45.6145366" lon="9.4751975"><ele>205.99999999999997</ele><time>2026-04-10T14:07:43.054Z</time></trkpt><trkpt lat="45.6144655" lon="9.4751648"><ele>206.0</ele><time>2026-04-10T14:07:44.053Z</time></trkpt><trkpt lat="45.6143949" lon="9.4751302"><ele>206.0</ele><time>2026-04-10T14:07:45.053Z</time></trkpt><trkpt lat="45.6143246" lon="9.475097"><ele>206.0</ele><time>2026-04-10T14:07:46.054Z</time></trkpt><trkpt lat="45.6142566" lon="9.4750672"><ele>206.0</ele><time>2026-04-10T14:07:47.054Z</time></trkpt><trkpt lat="45.6141858" lon="9.4750328"><ele>205.99999999999997</ele><time>2026-04-10T14:07:48.053Z</time></trkpt><trkpt lat="45.6141149" lon="9.4750018"><ele>206.0</ele><time>2026-04-10T14:07:49.053Z</time></trkpt><trkpt lat="45.6140438" lon="9.4749647"><ele>206.00000000000003</ele><time>2026-04-10T14:07:50.054Z</time></trkpt><trkpt lat="45.6139734" lon="9.4749272"><ele>206.0</ele><time>2026-04-10T14:07:51.053Z</time></trkpt><trkpt lat="45.6139112" lon="9.4748796"><ele>206.0</ele><time>2026-04-10T14:07:52.054Z</time></trkpt><trkpt lat="45.613846" lon="9.4748236"><ele>206.0</ele><time>2026-04-10T14:07:53.054Z</time></trkpt><trkpt lat="45.613782" lon="9.4747669"><ele>206.00000000000003</ele><time>2026-04-10T14:07:54.054Z</time></trkpt><trkpt lat="45.6137258" lon="9.4746991"><ele>206.0</ele><time>2026-04-10T14:07:55.054Z</time></trkpt><trkpt lat="45.6136681" lon="9.4746218"><ele>205.66666666666669</ele><time>2026-04-10T14:07:56.054Z</time></trkpt><trkpt lat="45.6136139" lon="9.4745482"><ele>205.33333333333334</ele><time>2026-04-10T14:07:57.054Z</time></trkpt><trkpt lat="45.6135803" lon="9.4744541"><ele>205.0</ele><time>2026-04-10T14:07:58.054Z</time></trkpt><trkpt lat="45.6135282" lon="9.4743709"><ele>204.66666666666669</ele><time>2026-04-10T14:07:59.054Z</time></trkpt><trkpt lat="45.6134936" lon="9.4742737"><ele>204.33333333333334</ele><time>2026-04-10T14:08:00.054Z</time></trkpt><trkpt lat="45.6134509" lon="9.474174"><ele>204.0</ele><time>2026-04-10T14:08:01.053Z</time></trkpt><trkpt lat="45.6134191" lon="9.4740714"><ele>204.0</ele><time>2026-04-10T14:08:02.054Z</time></trkpt><trkpt lat="45.6133893" lon="9.4739627"><ele>204.0</ele><time>2026-04-10T14:08:03.054Z</time></trkpt><trkpt lat="45.6133604" lon="9.4738641"><ele>204.0</ele><time>2026-04-10T14:08:04.054Z</time></trkpt><trkpt lat="45.6133251" lon="9.4737679"><ele>204.0</ele><time>2026-04-10T14:08:05.054Z</time></trkpt><trkpt lat="45.613298" lon="9.4736612"><ele>204.0</ele><time>2026-04-10T14:08:06.054Z</time></trkpt><trkpt lat="45.613265" lon="9.4735605"><ele>204.0</ele><time>2026-04-10T14:08:07.054Z</time></trkpt><trkpt lat="45.6132309" lon="9.4734564"><ele>204.0</ele><time>2026-04-10T14:08:08.054Z</time></trkpt><trkpt lat="45.6132006" lon="9.4733474"><ele>204.0</ele><time>2026-04-10T14:08:09.054Z</time></trkpt><trkpt lat="45.613166" lon="9.4732473"><ele>204.0</ele><time>2026-04-10T14:08:10.054Z</time></trkpt><trkpt lat="45.6131334" lon="9.4731446"><ele>204.0</ele><time>2026-04-10T14:08:11.054Z</time></trkpt><trkpt lat="45.6131019" lon="9.4730406"><ele>204.0</ele><time>2026-04-10T14:08:12.054Z</time></trkpt><trkpt lat="45.6130789" lon="9.4729276"><ele>204.0</ele><time>2026-04-10T14:08:13.054Z</time></trkpt><trkpt lat="45.6130622" lon="9.4728154"><ele>204.16666666666666</ele><time>2026-04-10T14:08:14.054Z</time></trkpt><trkpt lat="45.6130497" lon="9.4727123"><ele>204.33333333333331</ele><time>2026-04-10T14:08:15.054Z</time></trkpt><trkpt lat="45.6130394" lon="9.4726042"><ele>204.5</ele><time>2026-04-10T14:08:16.053Z</time></trkpt><trkpt lat="45.6130369" lon="9.4724911"><ele>204.66666666666666</ele><time>2026-04-10T14:08:17.053Z</time></trkpt><trkpt lat="45.6130378" lon="9.4723835"><ele>204.83333333333331</ele><time>2026-04-10T14:08:18.054Z</time></trkpt><trkpt lat="45.6130459" lon="9.4722712"><ele>205.0</ele><time>2026-04-10T14:08:19.054Z</time></trkpt><trkpt lat="45.6130581" lon="9.4721582"><ele>204.99999999999997</ele><time>2026-04-10T14:08:20.054Z</time></trkpt><trkpt lat="45.6130758" lon="9.4720524"><ele>205.0</ele><time>2026-04-10T14:08:21.054Z</time></trkpt><trkpt lat="45.6130914" lon="9.4719507"><ele>205.0</ele><time>2026-04-10T14:08:22.054Z</time></trkpt><trkpt lat="45.6131115" lon="9.4718357"><ele>205.0</ele><time>2026-04-10T14:08:23.054Z</time></trkpt><trkpt lat="45.6131295" lon="9.4717286"><ele>204.99999999999997</ele><time>2026-04-10T14:08:24.053Z</time></trkpt><trkpt lat="45.6131416" lon="9.4716112"><ele>205.0</ele><time>2026-04-10T14:08:25.054Z</time></trkpt><trkpt lat="45.6131662" lon="9.471501"><ele>204.99999999999997</ele><time>2026-04-10T14:08:26.053Z</time></trkpt><trkpt lat="45.6131828" lon="9.4713957"><ele>205.0</ele><time>2026-04-10T14:08:27.054Z</time></trkpt><trkpt lat="45.6132007" lon="9.4712886"><ele>205.0</ele><time>2026-04-10T14:08:28.054Z</time></trkpt><trkpt lat="45.6132164" lon="9.4711805"><ele>205.0</ele><time>2026-04-10T14:08:29.053Z</time></trkpt><trkpt lat="45.6132325" lon="9.4710742"><ele>204.99999999999997</ele><time>2026-04-10T14:08:30.054Z</time></trkpt><trkpt lat="45.613256" lon="9.4709635"><ele>205.0</ele><time>2026-04-10T14:08:31.053Z</time></trkpt><trkpt lat="45.6132734" lon="9.4708575"><ele>205.16666666666666</ele><time>2026-04-10T14:08:32.054Z</time></trkpt><trkpt lat="45.6132912" lon="9.4707452"><ele>205.33333333333331</ele><time>2026-04-10T14:08:33.053Z</time></trkpt><trkpt lat="45.6133061" lon="9.4706369"><ele>205.5</ele><time>2026-04-10T14:08:34.054Z</time></trkpt><trkpt lat="45.6133233" lon="9.4705183"><ele>205.66666666666669</ele><time>2026-04-10T14:08:35.054Z</time></trkpt><trkpt lat="45.6133389" lon="9.4704152"><ele>205.83333333333334</ele><time>2026-04-10T14:08:36.054Z</time></trkpt><trkpt lat="45.6133561" lon="9.4703087"><ele>206.0</ele><time>2026-04-10T14:08:37.053Z</time></trkpt><trkpt lat="45.6133685" lon="9.4701967"><ele>206.00000000000003</ele><time>2026-04-10T14:08:38.054Z</time></trkpt><trkpt lat="45.6133882" lon="9.4700931"><ele>206.0</ele><time>2026-04-10T14:08:39.054Z</time></trkpt><trkpt lat="45.6134031" lon="9.4699792"><ele>206.0</ele><time>2026-04-10T14:08:40.054Z</time></trkpt><trkpt lat="45.6134199" lon="9.4698673"><ele>206.0</ele><time>2026-04-10T14:08:41.053Z</time></trkpt><trkpt lat="45.6134323" lon="9.4697596"><ele>206.00000000000003</ele><time>2026-04-10T14:08:42.054Z</time></trkpt><trkpt lat="45.6134436" lon="9.4696535"><ele>206.0</ele><time>2026-04-10T14:08:43.054Z</time></trkpt><trkpt lat="45.6134418" lon="9.4695462"><ele>206.00000000000003</ele><time>2026-04-10T14:08:44.054Z</time></trkpt><trkpt lat="45.6134365" lon="9.4694384"><ele>206.0</ele><time>2026-04-10T14:08:45.054Z</time></trkpt><trkpt lat="45.6134248" lon="9.4693202"><ele>206.0</ele><time>2026-04-10T14:08:46.054Z</time></trkpt><trkpt lat="45.6134068" lon="9.469204"><ele>206.0</ele><time>2026-04-10T14:08:47.054Z</time></trkpt><trkpt lat="45.613374" lon="9.4690952"><ele>206.00000000000003</ele><time>2026-04-10T14:08:48.054Z</time></trkpt><trkpt lat="45.6133351" lon="9.4690011"><ele>206.0</ele><time>2026-04-10T14:08:49.053Z</time></trkpt><trkpt lat="45.6132926" lon="9.4689082"><ele>206.00000000000003</ele><time>2026-04-10T14:08:50.054Z</time></trkpt><trkpt lat="45.6132458" lon="9.4687987"><ele>206.0</ele><time>2026-04-10T14:08:51.054Z</time></trkpt><trkpt lat="45.6131881" lon="9.4687396"><ele>206.0</ele><time>2026-04-10T14:08:52.054Z</time></trkpt><trkpt lat="45.613127" lon="9.4686673"><ele>206.0</ele><time>2026-04-10T14:08:53.054Z</time></trkpt><trkpt lat="45.6130565" lon="9.4686042"><ele>206.00000000000003</ele><time>2026-04-10T14:08:54.054Z</time></trkpt><trkpt lat="45.6129839" lon="9.4685525"><ele>206.0</ele><time>2026-04-10T14:08:55.054Z</time></trkpt><trkpt lat="45.6129051" lon="9.4685167"><ele>206.00000000000003</ele><time>2026-04-10T14:08:56.053Z</time></trkpt><trkpt lat="45.61283" lon="9.4684913"><ele>206.0</ele><time>2026-04-10T14:08:57.054Z</time></trkpt><trkpt lat="45.612758" lon="9.4684638"><ele>206.0</ele><time>2026-04-10T14:08:58.054Z</time></trkpt><trkpt lat="45.6126793" lon="9.4684472"><ele>206.0</ele><time>2026-04-10T14:08:59.054Z</time></trkpt><trkpt lat="45.6125986" lon="9.468437"><ele>206.00000000000003</ele><time>2026-04-10T14:09:00.054Z</time></trkpt><trkpt lat="45.6125176" lon="9.4684234"><ele>206.0</ele><time>2026-04-10T14:09:01.054Z</time></trkpt><trkpt lat="45.6124385" lon="9.4684105"><ele>206.00000000000003</ele><time>2026-04-10T14:09:02.054Z</time></trkpt><trkpt lat="45.6123554" lon="9.4684008"><ele>206.0</ele><time>2026-04-10T14:09:03.053Z</time></trkpt><trkpt lat="45.6122704" lon="9.4683896"><ele>206.0</ele><time>2026-04-10T14:09:04.053Z</time></trkpt><trkpt lat="45.6121861" lon="9.4683753"><ele>206.0</ele><time>2026-04-10T14:09:05.053Z</time></trkpt><trkpt lat="45.6121066" lon="9.468359"><ele>206.00000000000003</ele><time>2026-04-10T14:09:06.054Z</time></trkpt><trkpt lat="45.612028" lon="9.4683442"><ele>206.0</ele><time>2026-04-10T14:09:07.054Z</time></trkpt><trkpt lat="45.6119522" lon="9.4683318"><ele>205.66666666666669</ele><time>2026-04-10T14:09:08.054Z</time></trkpt><trkpt lat="45.6118708" lon="9.4683128"><ele>205.33333333333334</ele><time>2026-04-10T14:09:09.054Z</time></trkpt><trkpt lat="45.6117886" lon="9.4683018"><ele>205.0</ele><time>2026-04-10T14:09:10.054Z</time></trkpt><trkpt lat="45.6117056" lon="9.4682848"><ele>204.66666666666669</ele><time>2026-04-10T14:09:11.054Z</time></trkpt><trkpt lat="45.6116252" lon="9.4682694"><ele>204.33333333333334</ele><time>2026-04-10T14:09:12.054Z</time></trkpt><trkpt lat="45.6115433" lon="9.4682497"><ele>204.0</ele><time>2026-04-10T14:09:13.054Z</time></trkpt><trkpt lat="45.6114632" lon="9.4682353"><ele>204.0</ele><time>2026-04-10T14:09:14.054Z</time></trkpt><trkpt lat="45.6113858" lon="9.468228"><ele>204.0</ele><time>2026-04-10T14:09:15.054Z</time></trkpt><trkpt lat="45.6113039" lon="9.4682107"><ele>204.0</ele><time>2026-04-10T14:09:16.054Z</time></trkpt><trkpt lat="45.6112256" lon="9.4681835"><ele>204.0</ele><time>2026-04-10T14:09:17.054Z</time></trkpt><trkpt lat="45.6111449" lon="9.4681512"><ele>204.0</ele><time>2026-04-10T14:09:18.054Z</time></trkpt><trkpt lat="45.6110721" lon="9.4680989"><ele>204.0</ele><time>2026-04-10T14:09:19.053Z</time></trkpt><trkpt lat="45.6110004" lon="9.4680402"><ele>204.0</ele><time>2026-04-10T14:09:20.054Z</time></trkpt><trkpt lat="45.6109363" lon="9.4679803"><ele>204.0</ele><time>2026-04-10T14:09:21.053Z</time></trkpt><trkpt lat="45.6108643" lon="9.4679019"><ele>204.0</ele><time>2026-04-10T14:09:22.054Z</time></trkpt><trkpt lat="45.6108002" lon="9.4678265"><ele>204.0</ele><time>2026-04-10T14:09:23.053Z</time></trkpt><trkpt lat="45.6107698" lon="9.4677218"><ele>204.0</ele><time>2026-04-10T14:09:24.054Z</time></trkpt><trkpt lat="45.610727" lon="9.4676287"><ele>204.0</ele><time>2026-04-10T14:09:25.054Z</time></trkpt><trkpt lat="45.6106915" lon="9.4675171"><ele>204.0</ele><time>2026-04-10T14:09:26.054Z</time></trkpt><trkpt lat="45.6106627" lon="9.4674035"><ele>204.0</ele><time>2026-04-10T14:09:27.054Z</time></trkpt><trkpt lat="45.6106433" lon="9.4672916"><ele>204.0</ele><time>2026-04-10T14:09:28.053Z</time></trkpt><trkpt lat="45.6106245" lon="9.4671795"><ele>204.0</ele><time>2026-04-10T14:09:29.054Z</time></trkpt><trkpt lat="45.610614" lon="9.4670671"><ele>204.0</ele><time>2026-04-10T14:09:30.054Z</time></trkpt><trkpt lat="45.61061" lon="9.466951"><ele>204.0</ele><time>2026-04-10T14:09:31.054Z</time></trkpt><trkpt lat="45.6106057" lon="9.4668339"><ele>204.0</ele><time>2026-04-10T14:09:32.054Z</time></trkpt><trkpt lat="45.6105988" lon="9.4667173"><ele>204.0</ele><time>2026-04-10T14:09:33.054Z</time></trkpt><trkpt lat="45.610589" lon="9.4665991"><ele>204.0</ele><time>2026-04-10T14:09:34.054Z</time></trkpt><trkpt lat="45.6105852" lon="9.4664753"><ele>204.0</ele><time>2026-04-10T14:09:35.054Z</time></trkpt><trkpt lat="45.6105814" lon="9.4663598"><ele>204.0</ele><time>2026-04-10T14:09:36.054Z</time></trkpt><trkpt lat="45.6105754" lon="9.4662505"><ele>204.0</ele><time>2026-04-10T14:09:37.053Z</time></trkpt><trkpt lat="45.6105665" lon="9.4661323"><ele>204.0</ele><time>2026-04-10T14:09:38.054Z</time></trkpt><trkpt lat="45.610558" lon="9.466016"><ele>204.0</ele><time>2026-04-10T14:09:39.054Z</time></trkpt><trkpt lat="45.6105592" lon="9.4658922"><ele>204.0</ele><time>2026-04-10T14:09:40.054Z</time></trkpt><trkpt lat="45.6105521" lon="9.4657802"><ele>204.0</ele><time>2026-04-10T14:09:41.053Z</time></trkpt><trkpt lat="45.610543" lon="9.4656626"><ele>204.0</ele><time>2026-04-10T14:09:42.054Z</time></trkpt><trkpt lat="45.6105336" lon="9.4655494"><ele>204.0</ele><time>2026-04-10T14:09:43.054Z</time></trkpt><trkpt lat="45.6105265" lon="9.4654308"><ele>204.0</ele><time>2026-04-10T14:09:44.054Z</time></trkpt><trkpt lat="45.6105158" lon="9.4653216"><ele>204.0</ele><time>2026-04-10T14:09:45.054Z</time></trkpt><trkpt lat="45.6105122" lon="9.4652035"><ele>204.0</ele><time>2026-04-10T14:09:46.054Z</time></trkpt><trkpt lat="45.6105087" lon="9.4651013"><ele>204.0</ele><time>2026-04-10T14:09:47.054Z</time></trkpt><trkpt lat="45.6105054" lon="9.465"><ele>204.0</ele><time>2026-04-10T14:09:48.054Z</time></trkpt><trkpt lat="45.6105138" lon="9.4649004"><ele>204.0</ele><time>2026-04-10T14:09:49.054Z</time></trkpt><trkpt lat="45.6105371" lon="9.4648034"><ele>204.0</ele><time>2026-04-10T14:09:50.053Z</time></trkpt><trkpt lat="45.6105583" lon="9.4647124"><ele>204.0</ele><time>2026-04-10T14:09:51.054Z</time></trkpt><trkpt lat="45.6105677" lon="9.464613"><ele>204.0</ele><time>2026-04-10T14:09:52.053Z</time></trkpt><trkpt lat="45.6105164" lon="9.4644642"><ele>204.0</ele><time>2026-04-10T14:09:54.054Z</time></trkpt><trkpt lat="45.6104559" lon="9.4644206"><ele>204.0</ele><time>2026-04-10T14:09:55.053Z</time></trkpt><trkpt lat="45.6103314" lon="9.4643772"><ele>204.0</ele><time>2026-04-10T14:09:57.054Z</time></trkpt><trkpt lat="45.6102699" lon="9.4643515"><ele>204.0</ele><time>2026-04-10T14:09:58.054Z</time></trkpt><trkpt lat="45.6102114" lon="9.4643077"><ele>204.28571428571428</ele><time>2026-04-10T14:09:59.054Z</time></trkpt><trkpt lat="45.6101572" lon="9.4642549"><ele>204.57142857142858</ele><time>2026-04-10T14:10:00.054Z</time></trkpt><trkpt lat="45.6100934" lon="9.4642108"><ele>204.85714285714283</ele><time>2026-04-10T14:10:01.054Z</time></trkpt><trkpt lat="45.6100364" lon="9.4641695"><ele>205.14285714285714</ele><time>2026-04-10T14:10:02.053Z</time></trkpt><trkpt lat="45.6099696" lon="9.4641349"><ele>205.42857142857142</ele><time>2026-04-10T14:10:03.054Z</time></trkpt><trkpt lat="45.6099021" lon="9.4641007"><ele>205.7142857142857</ele><time>2026-04-10T14:10:04.054Z</time></trkpt><trkpt lat="45.609835" lon="9.4640686"><ele>206.0</ele><time>2026-04-10T14:10:05.054Z</time></trkpt><trkpt lat="45.6097635" lon="9.4640374"><ele>205.99999999999997</ele><time>2026-04-10T14:10:06.054Z</time></trkpt><trkpt lat="45.6096943" lon="9.4639992"><ele>206.0</ele><time>2026-04-10T14:10:07.054Z</time></trkpt><trkpt lat="45.6096292" lon="9.4639616"><ele>206.0</ele><time>2026-04-10T14:10:08.054Z</time></trkpt><trkpt lat="45.6095563" lon="9.4639274"><ele>206.0</ele><time>2026-04-10T14:10:09.053Z</time></trkpt><trkpt lat="45.6094895" lon="9.4638884"><ele>206.0</ele><time>2026-04-10T14:10:10.054Z</time></trkpt><trkpt lat="45.6094186" lon="9.4638516"><ele>205.99999999999997</ele><time>2026-04-10T14:10:11.054Z</time></trkpt><trkpt lat="45.6093487" lon="9.4638164"><ele>206.0</ele><time>2026-04-10T14:10:12.054Z</time></trkpt><trkpt lat="45.6092769" lon="9.4637884"><ele>205.50000000000003</ele><time>2026-04-10T14:10:13.054Z</time></trkpt><trkpt lat="45.6091952" lon="9.4637543"><ele>205.0</ele><time>2026-04-10T14:10:14.054Z</time></trkpt><trkpt lat="45.6091169" lon="9.4637316"><ele>204.5</ele><time>2026-04-10T14:10:15.054Z</time></trkpt><trkpt lat="45.609038" lon="9.463712"><ele>204.0</ele><time>2026-04-10T14:10:16.054Z</time></trkpt><trkpt lat="45.6089635" lon="9.4636854"><ele>203.50000000000003</ele><time>2026-04-10T14:10:17.054Z</time></trkpt><trkpt lat="45.608895" lon="9.4636627"><ele>203.0</ele><time>2026-04-10T14:10:18.053Z</time></trkpt><trkpt lat="45.608823" lon="9.4636347"><ele>203.00000000000003</ele><time>2026-04-10T14:10:19.054Z</time></trkpt><trkpt lat="45.6087498" lon="9.463617"><ele>203.0</ele><time>2026-04-10T14:10:20.053Z</time></trkpt><trkpt lat="45.608678" lon="9.4635919"><ele>203.0</ele><time>2026-04-10T14:10:21.054Z</time></trkpt><trkpt lat="45.6085985" lon="9.4635745"><ele>203.0</ele><time>2026-04-10T14:10:22.054Z</time></trkpt><trkpt lat="45.6085184" lon="9.4635545"><ele>203.00000000000003</ele><time>2026-04-10T14:10:23.054Z</time></trkpt><trkpt lat="45.6084433" lon="9.4635354"><ele>203.0</ele><time>2026-04-10T14:10:24.053Z</time></trkpt><trkpt lat="45.6083691" lon="9.463518"><ele>202.85714285714286</ele><time>2026-04-10T14:10:25.054Z</time></trkpt><trkpt lat="45.6082891" lon="9.463513"><ele>202.71428571428572</ele><time>2026-04-10T14:10:26.054Z</time></trkpt><trkpt lat="45.6082159" lon="9.4635087"><ele>202.57142857142856</ele><time>2026-04-10T14:10:27.054Z</time></trkpt><trkpt lat="45.6081375" lon="9.4635161"><ele>202.42857142857144</ele><time>2026-04-10T14:10:28.054Z</time></trkpt><trkpt lat="45.6080653" lon="9.4635141"><ele>202.28571428571428</ele><time>2026-04-10T14:10:29.054Z</time></trkpt><trkpt lat="45.607999" lon="9.463483"><ele>202.14285714285714</ele><time>2026-04-10T14:10:30.054Z</time></trkpt><trkpt lat="45.6079416" lon="9.4634239"><ele>202.0</ele><time>2026-04-10T14:10:31.053Z</time></trkpt><trkpt lat="45.6078899" lon="9.4632704"><ele>202.0</ele><time>2026-04-10T14:10:33.054Z</time></trkpt><trkpt lat="45.6078859" lon="9.4631751"><ele>202.0</ele><time>2026-04-10T14:10:34.053Z</time></trkpt><trkpt lat="45.6078961" lon="9.4630765"><ele>202.0</ele><time>2026-04-10T14:10:35.053Z</time></trkpt><trkpt lat="45.6079067" lon="9.462987"><ele>202.0</ele><time>2026-04-10T14:10:36.054Z</time></trkpt><trkpt lat="45.6079203" lon="9.4628952"><ele>202.0</ele><time>2026-04-10T14:10:37.053Z</time></trkpt><trkpt lat="45.6079333" lon="9.4627922"><ele>202.0</ele><time>2026-04-10T14:10:38.054Z</time></trkpt><trkpt lat="45.6079463" lon="9.4626952"><ele>202.0</ele><time>2026-04-10T14:10:39.054Z</time></trkpt><trkpt lat="45.6079609" lon="9.4625942"><ele>202.0</ele><time>2026-04-10T14:10:40.053Z</time></trkpt><trkpt lat="45.607973" lon="9.4624922"><ele>202.0</ele><time>2026-04-10T14:10:41.053Z</time></trkpt><trkpt lat="45.6079808" lon="9.4623898"><ele>202.0</ele><time>2026-04-10T14:10:42.053Z</time></trkpt><trkpt lat="45.6080026" lon="9.4622831"><ele>202.0</ele><time>2026-04-10T14:10:43.054Z</time></trkpt><trkpt lat="45.6080123" lon="9.4621814"><ele>202.0</ele><time>2026-04-10T14:10:44.053Z</time></trkpt><trkpt lat="45.6080243" lon="9.4620775"><ele>202.0</ele><time>2026-04-10T14:10:45.054Z</time></trkpt><trkpt lat="45.6080339" lon="9.4619773"><ele>202.0</ele><time>2026-04-10T14:10:46.054Z</time></trkpt><trkpt lat="45.6080633" lon="9.4618839"><ele>201.66666666666666</ele><time>2026-04-10T14:10:47.054Z</time></trkpt><trkpt lat="45.6080623" lon="9.4617557"><ele>201.33333333333331</ele><time>2026-04-10T14:10:48.053Z</time></trkpt><trkpt lat="45.6080756" lon="9.4616534"><ele>201.0</ele><time>2026-04-10T14:10:49.054Z</time></trkpt><trkpt lat="45.6080873" lon="9.461553"><ele>200.66666666666669</ele><time>2026-04-10T14:10:50.054Z</time></trkpt><trkpt lat="45.6081029" lon="9.4614466"><ele>200.33333333333334</ele><time>2026-04-10T14:10:51.054Z</time></trkpt><trkpt lat="45.6081119" lon="9.4613418"><ele>200.0</ele><time>2026-04-10T14:10:52.054Z</time></trkpt><trkpt lat="45.608125" lon="9.461237"><ele>200.00000000000003</ele><time>2026-04-10T14:10:53.054Z</time></trkpt><trkpt lat="45.6081382" lon="9.4611311"><ele>200.0</ele><time>2026-04-10T14:10:54.054Z</time></trkpt><trkpt lat="45.6081482" lon="9.4610286"><ele>200.0</ele><time>2026-04-10T14:10:55.053Z</time></trkpt><trkpt lat="45.6081647" lon="9.4609227"><ele>200.0</ele><time>2026-04-10T14:10:56.054Z</time></trkpt><trkpt lat="45.6081759" lon="9.4608224"><ele>200.0</ele><time>2026-04-10T14:10:57.054Z</time></trkpt><trkpt lat="45.6081874" lon="9.4607237"><ele>200.00000000000003</ele><time>2026-04-10T14:10:58.054Z</time></trkpt><trkpt lat="45.6082027" lon="9.460621"><ele>200.0</ele><time>2026-04-10T14:10:59.054Z</time></trkpt><trkpt lat="45.6082156" lon="9.4605188"><ele>199.83333333333334</ele><time>2026-04-10T14:11:00.054Z</time></trkpt><trkpt lat="45.6082324" lon="9.4604213"><ele>199.66666666666669</ele><time>2026-04-10T14:11:01.054Z</time></trkpt><trkpt lat="45.6082507" lon="9.4603141"><ele>199.5</ele><time>2026-04-10T14:11:02.053Z</time></trkpt><trkpt lat="45.608273" lon="9.4602105"><ele>199.33333333333331</ele><time>2026-04-10T14:11:03.054Z</time></trkpt><trkpt lat="45.6083112" lon="9.46002"><ele>199.16666666666666</ele><time>2026-04-10T14:11:05.056Z</time></trkpt><trkpt lat="45.6083355" lon="9.4599362"><ele>199.0</ele><time>2026-04-10T14:11:06.053Z</time></trkpt><trkpt lat="45.6083607" lon="9.4598436"><ele>199.0</ele><time>2026-04-10T14:11:07.054Z</time></trkpt><trkpt lat="45.6084037" lon="9.459685"><ele>199.0</ele><time>2026-04-10T14:11:09.056Z</time></trkpt><trkpt lat="45.6084341" lon="9.4595655"><ele>199.0</ele><time>2026-04-10T14:11:11.054Z</time></trkpt><trkpt lat="45.6084454" lon="9.4594592"><ele>199.0</ele><time>2026-04-10T14:11:18.053Z</time></trkpt><trkpt lat="45.6084091" lon="9.4593271"><ele>199.0</ele><time>2026-04-10T14:11:21.053Z</time></trkpt><trkpt lat="45.6083351" lon="9.4593042"><ele>199.16666666666666</ele><time>2026-04-10T14:11:22.053Z</time></trkpt><trkpt lat="45.6082221" lon="9.4592826"><ele>199.33333333333331</ele><time>2026-04-10T14:11:24.053Z</time></trkpt><trkpt lat="45.6081013" lon="9.4592533"><ele>199.5</ele><time>2026-04-10T14:11:26.054Z</time></trkpt><trkpt lat="45.608039" lon="9.4592309"><ele>199.66666666666669</ele><time>2026-04-10T14:11:27.053Z</time></trkpt><trkpt lat="45.6079725" lon="9.4592112"><ele>199.83333333333334</ele><time>2026-04-10T14:11:28.054Z</time></trkpt><trkpt lat="45.6079057" lon="9.4591873"><ele>200.0</ele><time>2026-04-10T14:11:29.053Z</time></trkpt><trkpt lat="45.6078379" lon="9.4591659"><ele>200.00000000000003</ele><time>2026-04-10T14:11:30.054Z</time></trkpt><trkpt lat="45.6077708" lon="9.4591413"><ele>200.0</ele><time>2026-04-10T14:11:31.054Z</time></trkpt><trkpt lat="45.6077039" lon="9.4591136"><ele>200.0</ele><time>2026-04-10T14:11:32.054Z</time></trkpt><trkpt lat="45.6076297" lon="9.4590956"><ele>200.0</ele><time>2026-04-10T14:11:33.053Z</time></trkpt><trkpt lat="45.607558" lon="9.4590818"><ele>200.0</ele><time>2026-04-10T14:11:34.054Z</time></trkpt><trkpt lat="45.6074891" lon="9.459057"><ele>200.00000000000003</ele><time>2026-04-10T14:11:35.053Z</time></trkpt><trkpt lat="45.6074185" lon="9.459034"><ele>200.0</ele><time>2026-04-10T14:11:36.054Z</time></trkpt><trkpt lat="45.6073457" lon="9.459014"><ele>200.00000000000003</ele><time>2026-04-10T14:11:37.054Z</time></trkpt><trkpt lat="45.6072747" lon="9.4589877"><ele>200.0</ele><time>2026-04-10T14:11:38.054Z</time></trkpt><trkpt lat="45.6072016" lon="9.458974"><ele>200.0</ele><time>2026-04-10T14:11:39.054Z</time></trkpt><trkpt lat="45.6071253" lon="9.4589496"><ele>200.0</ele><time>2026-04-10T14:11:40.054Z</time></trkpt><trkpt lat="45.6070493" lon="9.4589331"><ele>200.00000000000003</ele><time>2026-04-10T14:11:41.054Z</time></trkpt><trkpt lat="45.6069704" lon="9.4589137"><ele>200.0</ele><time>2026-04-10T14:11:42.054Z</time></trkpt><trkpt lat="45.6068919" lon="9.4588877"><ele>199.66666666666669</ele><time>2026-04-10T14:11:43.054Z</time></trkpt><trkpt lat="45.6068181" lon="9.4588601"><ele>199.33333333333334</ele><time>2026-04-10T14:11:44.054Z</time></trkpt><trkpt lat="45.606741" lon="9.4588369"><ele>199.0</ele><time>2026-04-10T14:11:45.054Z</time></trkpt><trkpt lat="45.6066658" lon="9.4588155"><ele>198.66666666666669</ele><time>2026-04-10T14:11:46.054Z</time></trkpt><trkpt lat="45.6065858" lon="9.4587934"><ele>198.33333333333334</ele><time>2026-04-10T14:11:47.054Z</time></trkpt><trkpt lat="45.6065062" lon="9.458768"><ele>198.0</ele><time>2026-04-10T14:11:48.054Z</time></trkpt><trkpt lat="45.6064342" lon="9.4587458"><ele>197.83333333333334</ele><time>2026-04-10T14:11:49.053Z</time></trkpt><trkpt lat="45.6063552" lon="9.4587176"><ele>197.66666666666669</ele><time>2026-04-10T14:11:50.054Z</time></trkpt><trkpt lat="45.6062756" lon="9.4586874"><ele>197.5</ele><time>2026-04-10T14:11:51.054Z</time></trkpt><trkpt lat="45.6062022" lon="9.4586496"><ele>197.33333333333334</ele><time>2026-04-10T14:11:52.054Z</time></trkpt><trkpt lat="45.6061316" lon="9.4586074"><ele>197.16666666666669</ele><time>2026-04-10T14:11:53.054Z</time></trkpt><trkpt lat="45.6060638" lon="9.4585457"><ele>197.0</ele><time>2026-04-10T14:11:54.053Z</time></trkpt><trkpt lat="45.6060006" lon="9.4584753"><ele>197.00000000000003</ele><time>2026-04-10T14:11:55.054Z</time></trkpt><trkpt lat="45.605938" lon="9.4583984"><ele>197.0</ele><time>2026-04-10T14:11:56.053Z</time></trkpt><trkpt lat="45.6058827" lon="9.4583165"><ele>197.0</ele><time>2026-04-10T14:11:57.054Z</time></trkpt><trkpt lat="45.6058311" lon="9.458221"><ele>197.0</ele><time>2026-04-10T14:11:58.054Z</time></trkpt><trkpt lat="45.6057904" lon="9.4581265"><ele>197.00000000000003</ele><time>2026-04-10T14:11:59.054Z</time></trkpt><trkpt lat="45.6057579" lon="9.458021"><ele>197.0</ele><time>2026-04-10T14:12:00.054Z</time></trkpt><trkpt lat="45.6057316" lon="9.4579118"><ele>196.66666666666669</ele><time>2026-04-10T14:12:01.053Z</time></trkpt><trkpt lat="45.605717" lon="9.4578007"><ele>196.33333333333334</ele><time>2026-04-10T14:12:02.054Z</time></trkpt><trkpt lat="45.6057067" lon="9.457685"><ele>196.0</ele><time>2026-04-10T14:12:03.053Z</time></trkpt><trkpt lat="45.6056969" lon="9.4575763"><ele>195.66666666666669</ele><time>2026-04-10T14:12:04.053Z</time></trkpt><trkpt lat="45.6056971" lon="9.4574562"><ele>195.33333333333334</ele><time>2026-04-10T14:12:05.053Z</time></trkpt><trkpt lat="45.6056924" lon="9.4573459"><ele>195.0</ele><time>2026-04-10T14:12:06.053Z</time></trkpt><trkpt lat="45.6056928" lon="9.4572376"><ele>195.0</ele><time>2026-04-10T14:12:07.054Z</time></trkpt><trkpt lat="45.6057026" lon="9.4571222"><ele>195.0</ele><time>2026-04-10T14:12:08.054Z</time></trkpt><trkpt lat="45.6057042" lon="9.4570035"><ele>195.0</ele><time>2026-04-10T14:12:09.054Z</time></trkpt><trkpt lat="45.6057094" lon="9.4568954"><ele>195.0</ele><time>2026-04-10T14:12:10.054Z</time></trkpt><trkpt lat="45.6057087" lon="9.4567868"><ele>195.0</ele><time>2026-04-10T14:12:11.054Z</time></trkpt><trkpt lat="45.605703" lon="9.4566764"><ele>195.0</ele><time>2026-04-10T14:12:12.054Z</time></trkpt><trkpt lat="45.6057058" lon="9.4565599"><ele>195.16666666666666</ele><time>2026-04-10T14:12:13.054Z</time></trkpt><trkpt lat="45.6057078" lon="9.4564489"><ele>195.33333333333331</ele><time>2026-04-10T14:12:14.054Z</time></trkpt><trkpt lat="45.6057128" lon="9.4563329"><ele>195.5</ele><time>2026-04-10T14:12:15.054Z</time></trkpt><trkpt lat="45.6057247" lon="9.4562067"><ele>195.66666666666666</ele><time>2026-04-10T14:12:16.054Z</time></trkpt><trkpt lat="45.6057237" lon="9.4560908"><ele>195.83333333333331</ele><time>2026-04-10T14:12:17.054Z</time></trkpt><trkpt lat="45.605726" lon="9.4559762"><ele>196.0</ele><time>2026-04-10T14:12:18.053Z</time></trkpt><trkpt lat="45.6057256" lon="9.4558601"><ele>196.16666666666666</ele><time>2026-04-10T14:12:19.053Z</time></trkpt><trkpt lat="45.605734" lon="9.455742"><ele>196.33333333333331</ele><time>2026-04-10T14:12:20.054Z</time></trkpt><trkpt lat="45.6057336" lon="9.4556323"><ele>196.5</ele><time>2026-04-10T14:12:21.054Z</time></trkpt><trkpt lat="45.6057382" lon="9.4555231"><ele>196.66666666666669</ele><time>2026-04-10T14:12:22.054Z</time></trkpt><trkpt lat="45.6057424" lon="9.4554039"><ele>196.83333333333334</ele><time>2026-04-10T14:12:23.054Z</time></trkpt><trkpt lat="45.6057473" lon="9.4552927"><ele>197.0</ele><time>2026-04-10T14:12:24.054Z</time></trkpt><trkpt lat="45.6057484" lon="9.4551752"><ele>197.00000000000003</ele><time>2026-04-10T14:12:25.054Z</time></trkpt><trkpt lat="45.6057476" lon="9.4550536"><ele>197.0</ele><time>2026-04-10T14:12:26.053Z</time></trkpt><trkpt lat="45.6057487" lon="9.4549358"><ele>197.0</ele><time>2026-04-10T14:12:27.054Z</time></trkpt><trkpt lat="45.6057449" lon="9.4548263"><ele>197.0</ele><time>2026-04-10T14:12:28.054Z</time></trkpt><trkpt lat="45.6057409" lon="9.4547083"><ele>197.00000000000003</ele><time>2026-04-10T14:12:29.054Z</time></trkpt><trkpt lat="45.6057307" lon="9.4545921"><ele>197.0</ele><time>2026-04-10T14:12:30.054Z</time></trkpt><trkpt lat="45.60571" lon="9.4544763"><ele>196.83333333333334</ele><time>2026-04-10T14:12:31.054Z</time></trkpt><trkpt lat="45.6056844" lon="9.4543584"><ele>196.66666666666669</ele><time>2026-04-10T14:12:32.054Z</time></trkpt><trkpt lat="45.6056503" lon="9.4542516"><ele>196.5</ele><time>2026-04-10T14:12:33.054Z</time></trkpt><trkpt lat="45.6056206" lon="9.4541445"><ele>196.33333333333331</ele><time>2026-04-10T14:12:34.054Z</time></trkpt><trkpt lat="45.6055795" lon="9.4540366"><ele>196.16666666666666</ele><time>2026-04-10T14:12:35.054Z</time></trkpt><trkpt lat="45.6055303" lon="9.4539421"><ele>196.0</ele><time>2026-04-10T14:12:36.054Z</time></trkpt><trkpt lat="45.6054819" lon="9.4538505"><ele>195.8</ele><time>2026-04-10T14:12:37.054Z</time></trkpt><trkpt lat="45.6054171" lon="9.4537606"><ele>195.60000000000002</ele><time>2026-04-10T14:12:38.054Z</time></trkpt><trkpt lat="45.6053492" lon="9.4536779"><ele>195.4</ele><time>2026-04-10T14:12:39.054Z</time></trkpt><trkpt lat="45.6052789" lon="9.4535965"><ele>195.2</ele><time>2026-04-10T14:12:40.054Z</time></trkpt><trkpt lat="45.6052018" lon="9.4535359"><ele>195.0</ele><time>2026-04-10T14:12:41.054Z</time></trkpt><trkpt lat="45.6051193" lon="9.4534724"><ele>195.0</ele><time>2026-04-10T14:12:42.054Z</time></trkpt><trkpt lat="45.6050354" lon="9.4534344"><ele>195.0</ele><time>2026-04-10T14:12:43.054Z</time></trkpt><trkpt lat="45.6049509" lon="9.4533953"><ele>195.0</ele><time>2026-04-10T14:12:44.053Z</time></trkpt><trkpt lat="45.604864" lon="9.4533717"><ele>195.0</ele><time>2026-04-10T14:12:45.053Z</time></trkpt><trkpt lat="45.6047791" lon="9.4533543"><ele>195.0</ele><time>2026-04-10T14:12:46.054Z</time></trkpt><trkpt lat="45.6046894" lon="9.4533434"><ele>195.0</ele><time>2026-04-10T14:12:47.054Z</time></trkpt><trkpt lat="45.6046007" lon="9.4533356"><ele>195.0</ele><time>2026-04-10T14:12:48.054Z</time></trkpt><trkpt lat="45.604513" lon="9.4533323"><ele>195.0</ele><time>2026-04-10T14:12:49.053Z</time></trkpt><trkpt lat="45.6044237" lon="9.4533317"><ele>195.0</ele><time>2026-04-10T14:12:50.054Z</time></trkpt><trkpt lat="45.6043352" lon="9.4533248"><ele>195.0</ele><time>2026-04-10T14:12:51.054Z</time></trkpt><trkpt lat="45.6042412" lon="9.4533266"><ele>195.0</ele><time>2026-04-10T14:12:52.053Z</time></trkpt><trkpt lat="45.6041523" lon="9.4533234"><ele>195.0</ele><time>2026-04-10T14:12:53.054Z</time></trkpt><trkpt lat="45.6040641" lon="9.453323"><ele>195.0</ele><time>2026-04-10T14:12:54.053Z</time></trkpt><trkpt lat="45.6039764" lon="9.4533168"><ele>195.0</ele><time>2026-04-10T14:12:55.054Z</time></trkpt><trkpt lat="45.6038903" lon="9.4533128"><ele>195.0</ele><time>2026-04-10T14:12:56.054Z</time></trkpt><trkpt lat="45.603803" lon="9.4533062"><ele>195.0</ele><time>2026-04-10T14:12:57.054Z</time></trkpt><trkpt lat="45.6037144" lon="9.4533078"><ele>195.0</ele><time>2026-04-10T14:12:58.054Z</time></trkpt><trkpt lat="45.6036287" lon="9.453303"><ele>195.0</ele><time>2026-04-10T14:12:59.053Z</time></trkpt><trkpt lat="45.6035453" lon="9.4532947"><ele>195.0</ele><time>2026-04-10T14:13:00.054Z</time></trkpt><trkpt lat="45.6034612" lon="9.4532598"><ele>195.0</ele><time>2026-04-10T14:13:01.053Z</time></trkpt><trkpt lat="45.6033832" lon="9.4532206"><ele>195.0</ele><time>2026-04-10T14:13:02.054Z</time></trkpt><trkpt lat="45.6033033" lon="9.4532008"><ele>195.0</ele><time>2026-04-10T14:13:03.054Z</time></trkpt><trkpt lat="45.6032267" lon="9.4532062"><ele>195.0</ele><time>2026-04-10T14:13:04.054Z</time></trkpt><trkpt lat="45.6031472" lon="9.4532413"><ele>195.0</ele><time>2026-04-10T14:13:05.054Z</time></trkpt><trkpt lat="45.6030645" lon="9.4532754"><ele>195.0</ele><time>2026-04-10T14:13:06.053Z</time></trkpt><trkpt lat="45.602985" lon="9.4533045"><ele>195.0</ele><time>2026-04-10T14:13:07.054Z</time></trkpt><trkpt lat="45.6029001" lon="9.4533214"><ele>195.0</ele><time>2026-04-10T14:13:08.054Z</time></trkpt><trkpt lat="45.6028254" lon="9.4533283"><ele>195.0</ele><time>2026-04-10T14:13:09.054Z</time></trkpt><trkpt lat="45.6027495" lon="9.4533369"><ele>195.0</ele><time>2026-04-10T14:13:10.054Z</time></trkpt><trkpt lat="45.6026701" lon="9.4533438"><ele>195.0</ele><time>2026-04-10T14:13:11.054Z</time></trkpt><trkpt lat="45.6025567" lon="9.4533366"><ele>194.8</ele><time>2026-04-10T14:13:13.054Z</time></trkpt><trkpt lat="45.6024589" lon="9.4532683"><ele>194.6</ele><time>2026-04-10T14:13:15.054Z</time></trkpt><trkpt lat="45.6023958" lon="9.4531529"><ele>194.39999999999998</ele><time>2026-04-10T14:13:17.054Z</time></trkpt><trkpt lat="45.6023947" lon="9.4530555"><ele>194.2</ele><time>2026-04-10T14:13:18.054Z</time></trkpt><trkpt lat="45.6023701" lon="9.4528803"><ele>194.0</ele><time>2026-04-10T14:13:20.053Z</time></trkpt><trkpt lat="45.6023583" lon="9.4527859"><ele>194.00000000000003</ele><time>2026-04-10T14:13:21.053Z</time></trkpt><trkpt lat="45.6023481" lon="9.4526925"><ele>194.0</ele><time>2026-04-10T14:13:22.054Z</time></trkpt><trkpt lat="45.6023313" lon="9.4525038"><ele>194.0</ele><time>2026-04-10T14:13:24.054Z</time></trkpt><trkpt lat="45.6023203" lon="9.4524108"><ele>194.0</ele><time>2026-04-10T14:13:25.054Z</time></trkpt><trkpt lat="45.6023175" lon="9.4523137"><ele>194.00000000000003</ele><time>2026-04-10T14:13:26.054Z</time></trkpt><trkpt lat="45.6023004" lon="9.4522198"><ele>194.0</ele><time>2026-04-10T14:13:27.054Z</time></trkpt><trkpt lat="45.6022863" lon="9.4521242"><ele>194.0</ele><time>2026-04-10T14:13:28.054Z</time></trkpt><trkpt lat="45.6022777" lon="9.4520261"><ele>194.0</ele><time>2026-04-10T14:13:29.054Z</time></trkpt><trkpt lat="45.6022655" lon="9.4519282"><ele>194.0</ele><time>2026-04-10T14:13:30.054Z</time></trkpt><trkpt lat="45.6022542" lon="9.4518307"><ele>194.0</ele><time>2026-04-10T14:13:31.054Z</time></trkpt><trkpt lat="45.6022385" lon="9.4517395"><ele>194.0</ele><time>2026-04-10T14:13:32.053Z</time></trkpt><trkpt lat="45.6022232" lon="9.4516317"><ele>194.0</ele><time>2026-04-10T14:13:33.054Z</time></trkpt><trkpt lat="45.602214" lon="9.4515288"><ele>194.0</ele><time>2026-04-10T14:13:34.054Z</time></trkpt><trkpt lat="45.6021966" lon="9.4514325"><ele>194.0</ele><time>2026-04-10T14:13:35.054Z</time></trkpt><trkpt lat="45.6021884" lon="9.451331"><ele>194.0</ele><time>2026-04-10T14:13:36.053Z</time></trkpt><trkpt lat="45.6021758" lon="9.4512337"><ele>194.0</ele><time>2026-04-10T14:13:37.054Z</time></trkpt><trkpt lat="45.602166" lon="9.4511259"><ele>194.0</ele><time>2026-04-10T14:13:38.054Z</time></trkpt><trkpt lat="45.6021546" lon="9.4510207"><ele>194.0</ele><time>2026-04-10T14:13:39.054Z</time></trkpt><trkpt lat="45.6021427" lon="9.450913"><ele>194.0</ele><time>2026-04-10T14:13:40.054Z</time></trkpt><trkpt lat="45.6021328" lon="9.4508099"><ele>194.0</ele><time>2026-04-10T14:13:41.054Z</time></trkpt><trkpt lat="45.6021237" lon="9.4507038"><ele>194.00000000000003</ele><time>2026-04-10T14:13:42.053Z</time></trkpt><trkpt lat="45.6021174" lon="9.4505978"><ele>194.0</ele><time>2026-04-10T14:13:43.054Z</time></trkpt><trkpt lat="45.6021057" lon="9.4504897"><ele>194.0</ele><time>2026-04-10T14:13:44.054Z</time></trkpt><trkpt lat="45.6020969" lon="9.4503779"><ele>194.0</ele><time>2026-04-10T14:13:45.054Z</time></trkpt><trkpt lat="45.602081" lon="9.4502761"><ele>194.00000000000003</ele><time>2026-04-10T14:13:46.054Z</time></trkpt><trkpt lat="45.6020692" lon="9.450165"><ele>194.0</ele><time>2026-04-10T14:13:47.054Z</time></trkpt><trkpt lat="45.6020556" lon="9.4500559"><ele>194.0</ele><time>2026-04-10T14:13:48.054Z</time></trkpt><trkpt lat="45.6020447" lon="9.449963"><ele>194.0</ele><time>2026-04-10T14:13:49.054Z</time></trkpt><trkpt lat="45.6020275" lon="9.4498621"><ele>194.0</ele><time>2026-04-10T14:13:50.054Z</time></trkpt><trkpt lat="45.6020163" lon="9.4497655"><ele>194.0</ele><time>2026-04-10T14:13:51.054Z</time></trkpt><trkpt lat="45.6020008" lon="9.4496641"><ele>194.0</ele><time>2026-04-10T14:13:52.054Z</time></trkpt><trkpt lat="45.6019838" lon="9.4495669"><ele>194.0</ele><time>2026-04-10T14:13:53.054Z</time></trkpt><trkpt lat="45.6019638" lon="9.4494589"><ele>194.0</ele><time>2026-04-10T14:13:54.054Z</time></trkpt><trkpt lat="45.601949" lon="9.449361"><ele>193.85714285714286</ele><time>2026-04-10T14:13:55.054Z</time></trkpt><trkpt lat="45.6019358" lon="9.4492609"><ele>193.71428571428572</ele><time>2026-04-10T14:13:56.054Z</time></trkpt><trkpt lat="45.6019267" lon="9.4491578"><ele>193.57142857142858</ele><time>2026-04-10T14:13:57.054Z</time></trkpt><trkpt lat="45.6019222" lon="9.4490539"><ele>193.42857142857144</ele><time>2026-04-10T14:13:58.054Z</time></trkpt><trkpt lat="45.6019121" lon="9.4489518"><ele>193.28571428571428</ele><time>2026-04-10T14:13:59.054Z</time></trkpt><trkpt lat="45.6018962" lon="9.4488553"><ele>193.14285714285717</ele><time>2026-04-10T14:14:00.054Z</time></trkpt><trkpt lat="45.601887" lon="9.4487611"><ele>193.0</ele><time>2026-04-10T14:14:01.054Z</time></trkpt><trkpt lat="45.6018194" lon="9.4486267"><ele>192.8</ele><time>2026-04-10T14:14:03.054Z</time></trkpt><trkpt lat="45.6017441" lon="9.4485257"><ele>192.60000000000002</ele><time>2026-04-10T14:14:05.054Z</time></trkpt><trkpt lat="45.6016665" lon="9.4484268"><ele>192.39999999999998</ele><time>2026-04-10T14:14:07.054Z</time></trkpt><trkpt lat="45.6015572" lon="9.4484305"><ele>192.2</ele><time>2026-04-10T14:14:09.054Z</time></trkpt><trkpt lat="45.6014564" lon="9.4485264"><ele>192.0</ele><time>2026-04-10T14:14:11.054Z</time></trkpt><trkpt lat="45.6013982" lon="9.448572"><ele>191.99999999999997</ele><time>2026-04-10T14:14:12.053Z</time></trkpt><trkpt lat="45.6013322" lon="9.4485983"><ele>192.0</ele><time>2026-04-10T14:14:13.054Z</time></trkpt><trkpt lat="45.6012696" lon="9.4486085"><ele>192.0</ele><time>2026-04-10T14:14:14.054Z</time></trkpt><trkpt lat="45.6012027" lon="9.4486143"><ele>192.0</ele><time>2026-04-10T14:14:15.054Z</time></trkpt><trkpt lat="45.6011362" lon="9.4486154"><ele>192.0</ele><time>2026-04-10T14:14:16.054Z</time></trkpt><trkpt lat="45.6010655" lon="9.4486151"><ele>191.99999999999997</ele><time>2026-04-10T14:14:17.053Z</time></trkpt><trkpt lat="45.6009946" lon="9.4486189"><ele>192.0</ele><time>2026-04-10T14:14:18.054Z</time></trkpt><trkpt lat="45.6009237" lon="9.4486222"><ele>191.85714285714283</ele><time>2026-04-10T14:14:19.054Z</time></trkpt><trkpt lat="45.6008537" lon="9.4486282"><ele>191.71428571428572</ele><time>2026-04-10T14:14:20.054Z</time></trkpt><trkpt lat="45.6007802" lon="9.4486374"><ele>191.57142857142856</ele><time>2026-04-10T14:14:21.054Z</time></trkpt><trkpt lat="45.6007099" lon="9.4486426"><ele>191.42857142857142</ele><time>2026-04-10T14:14:22.054Z</time></trkpt><trkpt lat="45.6006389" lon="9.4486462"><ele>191.28571428571428</ele><time>2026-04-10T14:14:23.053Z</time></trkpt><trkpt lat="45.6005729" lon="9.4486431"><ele>191.14285714285714</ele><time>2026-04-10T14:14:24.054Z</time></trkpt><trkpt lat="45.6005078" lon="9.4486252"><ele>191.0</ele><time>2026-04-10T14:14:25.054Z</time></trkpt><trkpt lat="45.6004464" lon="9.4486028"><ele>191.0</ele><time>2026-04-10T14:14:26.053Z</time></trkpt><trkpt lat="45.6003857" lon="9.4485643"><ele>191.0</ele><time>2026-04-10T14:14:27.054Z</time></trkpt><trkpt lat="45.6003228" lon="9.4485294"><ele>191.0</ele><time>2026-04-10T14:14:28.054Z</time></trkpt><trkpt lat="45.6002952" lon="9.4484388"><ele>191.0</ele><time>2026-04-10T14:14:29.053Z</time></trkpt><trkpt lat="45.6002881" lon="9.4483291"><ele>191.0</ele><time>2026-04-10T14:14:30.054Z</time></trkpt><trkpt lat="45.6002832" lon="9.4482318"><ele>191.0</ele><time>2026-04-10T14:14:31.054Z</time></trkpt><trkpt lat="45.6002769" lon="9.4481402"><ele>191.0</ele><time>2026-04-10T14:14:32.054Z</time></trkpt><trkpt lat="45.6002591" lon="9.4480457"><ele>191.0</ele><time>2026-04-10T14:14:33.054Z</time></trkpt><trkpt lat="45.6002409" lon="9.4479412"><ele>191.0</ele><time>2026-04-10T14:14:34.054Z</time></trkpt><trkpt lat="45.600228" lon="9.447829"><ele>191.0</ele><time>2026-04-10T14:14:35.054Z</time></trkpt><trkpt lat="45.6002089" lon="9.4477363"><ele>191.0</ele><time>2026-04-10T14:14:36.054Z</time></trkpt><trkpt lat="45.6001861" lon="9.4476438"><ele>191.0</ele><time>2026-04-10T14:14:37.053Z</time></trkpt><trkpt lat="45.6001734" lon="9.4475357"><ele>191.0</ele><time>2026-04-10T14:14:38.054Z</time></trkpt><trkpt lat="45.6001552" lon="9.4474325"><ele>191.0</ele><time>2026-04-10T14:14:39.054Z</time></trkpt><trkpt lat="45.6001401" lon="9.4473303"><ele>191.0</ele><time>2026-04-10T14:14:40.054Z</time></trkpt><trkpt lat="45.6001156" lon="9.4472382"><ele>191.0</ele><time>2026-04-10T14:14:41.054Z</time></trkpt><trkpt lat="45.6000994" lon="9.4471326"><ele>191.0</ele><time>2026-04-10T14:14:42.054Z</time></trkpt><trkpt lat="45.6000784" lon="9.4470177"><ele>191.0</ele><time>2026-04-10T14:14:43.053Z</time></trkpt><trkpt lat="45.6000608" lon="9.4469121"><ele>191.0</ele><time>2026-04-10T14:14:44.054Z</time></trkpt><trkpt lat="45.6000412" lon="9.446801"><ele>191.0</ele><time>2026-04-10T14:14:45.054Z</time></trkpt><trkpt lat="45.6000219" lon="9.4467012"><ele>191.16666666666666</ele><time>2026-04-10T14:14:46.054Z</time></trkpt><trkpt lat="45.5999927" lon="9.446591"><ele>191.33333333333331</ele><time>2026-04-10T14:14:47.054Z</time></trkpt><trkpt lat="45.5999718" lon="9.4464809"><ele>191.5</ele><time>2026-04-10T14:14:48.054Z</time></trkpt><trkpt lat="45.599959" lon="9.4463718"><ele>191.66666666666666</ele><time>2026-04-10T14:14:49.053Z</time></trkpt><trkpt lat="45.5999355" lon="9.4462564"><ele>191.83333333333334</ele><time>2026-04-10T14:14:50.054Z</time></trkpt><trkpt lat="45.599915" lon="9.4461267"><ele>192.0</ele><time>2026-04-10T14:14:51.053Z</time></trkpt><trkpt lat="45.5998963" lon="9.4460017"><ele>191.39999999999998</ele><time>2026-04-10T14:14:52.054Z</time></trkpt><trkpt lat="45.5998733" lon="9.4458792"><ele>190.79999999999998</ele><time>2026-04-10T14:14:53.054Z</time></trkpt><trkpt lat="45.5998456" lon="9.4457525"><ele>190.2</ele><time>2026-04-10T14:14:54.054Z</time></trkpt><trkpt lat="45.5998181" lon="9.4456143"><ele>189.6</ele><time>2026-04-10T14:14:55.054Z</time></trkpt><trkpt lat="45.5998035" lon="9.4454788"><ele>189.0</ele><time>2026-04-10T14:14:56.053Z</time></trkpt><trkpt lat="45.5997834" lon="9.4453557"><ele>188.66666666666666</ele><time>2026-04-10T14:14:57.053Z</time></trkpt><trkpt lat="45.5997581" lon="9.4452292"><ele>188.33333333333334</ele><time>2026-04-10T14:14:58.053Z</time></trkpt><trkpt lat="45.5997382" lon="9.4451026"><ele>188.0</ele><time>2026-04-10T14:14:59.054Z</time></trkpt><trkpt lat="45.5997127" lon="9.4449767"><ele>187.66666666666669</ele><time>2026-04-10T14:15:00.053Z</time></trkpt><trkpt lat="45.5996955" lon="9.4448602"><ele>187.33333333333334</ele><time>2026-04-10T14:15:01.054Z</time></trkpt><trkpt lat="45.5996736" lon="9.4447455"><ele>187.0</ele><time>2026-04-10T14:15:02.054Z</time></trkpt><trkpt lat="45.5996547" lon="9.4446501"><ele>187.16666666666669</ele><time>2026-04-10T14:15:03.054Z</time></trkpt><trkpt lat="45.5996343" lon="9.4445245"><ele>187.33333333333334</ele><time>2026-04-10T14:15:05.054Z</time></trkpt><trkpt lat="45.5996493" lon="9.4444283"><ele>187.5</ele><time>2026-04-10T14:15:10.054Z</time></trkpt><trkpt lat="45.5997155" lon="9.4444344"><ele>187.66666666666666</ele><time>2026-04-10T14:15:15.054Z</time></trkpt><trkpt lat="45.5998014" lon="9.4444301"><ele>187.83333333333331</ele><time>2026-04-10T14:15:19.054Z</time></trkpt><trkpt lat="45.5998909" lon="9.4443954"><ele>188.0</ele><time>2026-04-10T14:15:22.054Z</time></trkpt><trkpt lat="45.5999682" lon="9.4443551"><ele>188.0</ele><time>2026-04-10T14:15:24.054Z</time></trkpt><trkpt lat="45.6000426" lon="9.4443114"><ele>188.0</ele><time>2026-04-10T14:15:26.054Z</time></trkpt><trkpt lat="45.6001154" lon="9.4442513"><ele>188.0</ele><time>2026-04-10T14:15:28.054Z</time></trkpt><trkpt lat="45.600186" lon="9.4441579"><ele>188.0</ele><time>2026-04-10T14:15:30.054Z</time></trkpt><trkpt lat="45.6002225" lon="9.4440745"><ele>188.0</ele><time>2026-04-10T14:15:31.054Z</time></trkpt><trkpt lat="45.6002615" lon="9.443929"><ele>188.0</ele><time>2026-04-10T14:15:33.054Z</time></trkpt><trkpt lat="45.6002737" lon="9.4437942"><ele>188.2</ele><time>2026-04-10T14:15:35.054Z</time></trkpt><trkpt lat="45.6003015" lon="9.4436682"><ele>188.4</ele><time>2026-04-10T14:15:37.054Z</time></trkpt><trkpt lat="45.6003543" lon="9.443566"><ele>188.6</ele><time>2026-04-10T14:15:39.054Z</time></trkpt><trkpt lat="45.6003944" lon="9.4434587"><ele>188.79999999999998</ele><time>2026-04-10T14:15:41.054Z</time></trkpt><trkpt lat="45.6004612" lon="9.4433593"><ele>189.0</ele><time>2026-04-10T14:15:43.053Z</time></trkpt><trkpt lat="45.6005095" lon="9.4432373"><ele>189.0</ele><time>2026-04-10T14:15:45.054Z</time></trkpt><trkpt lat="45.6005606" lon="9.4431238"><ele>189.0</ele><time>2026-04-10T14:15:47.054Z</time></trkpt><trkpt lat="45.6005994" lon="9.4430302"><ele>189.0</ele><time>2026-04-10T14:15:49.054Z</time></trkpt><trkpt lat="45.6006403" lon="9.4428991"><ele>189.0</ele><time>2026-04-10T14:15:51.054Z</time></trkpt><trkpt lat="45.6006951" lon="9.4427523"><ele>189.0</ele><time>2026-04-10T14:15:53.054Z</time></trkpt><trkpt lat="45.6007722" lon="9.4426516"><ele>189.0</ele><time>2026-04-10T14:15:55.054Z</time></trkpt><trkpt lat="45.6008526" lon="9.4425625"><ele>189.0</ele><time>2026-04-10T14:15:57.053Z</time></trkpt><trkpt lat="45.6009559" lon="9.4425137"><ele>189.0</ele><time>2026-04-10T14:15:59.054Z</time></trkpt><trkpt lat="45.6010498" lon="9.4424878"><ele>189.0</ele><time>2026-04-10T14:16:01.054Z</time></trkpt><trkpt lat="45.6011347" lon="9.4425053"><ele>189.0</ele><time>2026-04-10T14:16:03.054Z</time></trkpt><trkpt lat="45.6012331" lon="9.4425279"><ele>189.39999999999998</ele><time>2026-04-10T14:16:05.053Z</time></trkpt><trkpt lat="45.6013437" lon="9.4425301"><ele>189.8</ele><time>2026-04-10T14:16:07.053Z</time></trkpt><trkpt lat="45.6014216" lon="9.4425347"><ele>190.2</ele><time>2026-04-10T14:16:09.053Z</time></trkpt><trkpt lat="45.6014887" lon="9.4425811"><ele>190.60000000000002</ele><time>2026-04-10T14:16:11.054Z</time></trkpt><trkpt lat="45.6014931" lon="9.4426912"><ele>191.0</ele><time>2026-04-10T14:16:14.054Z</time></trkpt><trkpt lat="45.6016105" lon="9.4427066"><ele>191.0</ele><time>2026-04-10T14:16:18.054Z</time></trkpt><trkpt lat="45.6016603" lon="9.4427632"><ele>191.0</ele><time>2026-04-10T14:16:20.054Z</time></trkpt><trkpt lat="45.6017366" lon="9.4427763"><ele>191.0</ele><time>2026-04-10T14:16:22.053Z</time></trkpt><trkpt lat="45.6018209" lon="9.442775"><ele>191.0</ele><time>2026-04-10T14:16:24.054Z</time></trkpt><trkpt lat="45.6018725" lon="9.442716"><ele>191.0</ele><time>2026-04-10T14:16:33.054Z</time></trkpt><trkpt lat="45.6019483" lon="9.4427102"><ele>191.0</ele><time>2026-04-10T14:16:37.054Z</time></trkpt><trkpt lat="45.6020207" lon="9.4426733"><ele>191.0</ele><time>2026-04-10T14:16:39.054Z</time></trkpt><trkpt lat="45.6021065" lon="9.4426364"><ele>191.0</ele><time>2026-04-10T14:16:41.054Z</time></trkpt><trkpt lat="45.6021833" lon="9.4425691"><ele>191.0</ele><time>2026-04-10T14:16:43.054Z</time></trkpt><trkpt lat="45.6022357" lon="9.4425139"><ele>191.0</ele><time>2026-04-10T14:16:45.053Z</time></trkpt><trkpt lat="45.6023022" lon="9.4424838"><ele>191.0</ele><time>2026-04-10T14:16:48.053Z</time></trkpt><trkpt lat="45.6023762" lon="9.4424769"><ele>191.0</ele><time>2026-04-10T14:16:52.053Z</time></trkpt><trkpt lat="45.6024633" lon="9.4424443"><ele>191.0</ele><time>2026-04-10T14:16:54.054Z</time></trkpt><trkpt lat="45.6025529" lon="9.4423971"><ele>191.0</ele><time>2026-04-10T14:16:56.053Z</time></trkpt><trkpt lat="45.6026305" lon="9.4423738"><ele>191.0</ele><time>2026-04-10T14:16:58.054Z</time></trkpt><trkpt lat="45.6027092" lon="9.4423191"><ele>191.0</ele><time>2026-04-10T14:17:00.054Z</time></trkpt><trkpt lat="45.6027662" lon="9.4422409"><ele>191.0</ele><time>2026-04-10T14:17:02.054Z</time></trkpt><trkpt lat="45.6028464" lon="9.4421438"><ele>191.0</ele><time>2026-04-10T14:17:04.054Z</time></trkpt><trkpt lat="45.6029369" lon="9.4420888"><ele>191.0</ele><time>2026-04-10T14:17:06.054Z</time></trkpt><trkpt lat="45.6030269" lon="9.4420417"><ele>191.20000000000002</ele><time>2026-04-10T14:17:08.054Z</time></trkpt><trkpt lat="45.603112" lon="9.4420057"><ele>191.4</ele><time>2026-04-10T14:17:10.054Z</time></trkpt><trkpt lat="45.6032067" lon="9.4419645"><ele>191.6</ele><time>2026-04-10T14:17:12.054Z</time></trkpt><trkpt lat="45.6033026" lon="9.4419515"><ele>191.8</ele><time>2026-04-10T14:17:14.053Z</time></trkpt><trkpt lat="45.6033914" lon="9.4419296"><ele>192.0</ele><time>2026-04-10T14:17:16.053Z</time></trkpt><trkpt lat="45.6034391" lon="9.4418447"><ele>192.0</ele><time>2026-04-10T14:17:19.053Z</time></trkpt><trkpt lat="45.6035273" lon="9.4417939"><ele>192.0</ele><time>2026-04-10T14:17:22.054Z</time></trkpt><trkpt lat="45.6036007" lon="9.441778"><ele>192.0</ele><time>2026-04-10T14:17:24.053Z</time></trkpt><trkpt lat="45.6036772" lon="9.4417465"><ele>192.0</ele><time>2026-04-10T14:17:26.054Z</time></trkpt><trkpt lat="45.603749" lon="9.4416792"><ele>192.0</ele><time>2026-04-10T14:17:28.054Z</time></trkpt><trkpt lat="45.6038157" lon="9.4416137"><ele>192.0</ele><time>2026-04-10T14:17:30.054Z</time></trkpt><trkpt lat="45.6038626" lon="9.4415032"><ele>192.33333333333334</ele><time>2026-04-10T14:17:32.054Z</time></trkpt><trkpt lat="45.6039203" lon="9.4414495"><ele>192.66666666666669</ele><time>2026-04-10T14:17:36.054Z</time></trkpt><trkpt lat="45.6039768" lon="9.4413935"><ele>193.0</ele><time>2026-04-10T14:17:39.054Z</time></trkpt><trkpt lat="45.6040325" lon="9.4413133"><ele>193.33333333333334</ele><time>2026-04-10T14:17:42.054Z</time></trkpt><trkpt lat="45.6040746" lon="9.4411922"><ele>193.66666666666669</ele><time>2026-04-10T14:17:45.053Z</time></trkpt><trkpt lat="45.6041034" lon="9.4410827"><ele>194.0</ele><time>2026-04-10T14:17:47.054Z</time></trkpt><trkpt lat="45.6041289" lon="9.4409633"><ele>194.16666666666669</ele><time>2026-04-10T14:17:49.053Z</time></trkpt><trkpt lat="45.6041548" lon="9.4408237"><ele>194.33333333333334</ele><time>2026-04-10T14:17:51.054Z</time></trkpt><trkpt lat="45.6041711" lon="9.4406972"><ele>194.5</ele><time>2026-04-10T14:17:53.054Z</time></trkpt><trkpt lat="45.604198" lon="9.4405832"><ele>194.66666666666669</ele><time>2026-04-10T14:17:55.053Z</time></trkpt><trkpt lat="45.6042421" lon="9.4404933"><ele>194.83333333333334</ele><time>2026-04-10T14:17:57.054Z</time></trkpt><trkpt lat="45.6043119" lon="9.4404434"><ele>195.0</ele><time>2026-04-10T14:17:59.054Z</time></trkpt><trkpt lat="45.6043909" lon="9.4404125"><ele>194.66666666666666</ele><time>2026-04-10T14:18:01.054Z</time></trkpt><trkpt lat="45.6044736" lon="9.4403842"><ele>194.33333333333331</ele><time>2026-04-10T14:18:03.054Z</time></trkpt><trkpt lat="45.6045605" lon="9.4403533"><ele>194.0</ele><time>2026-04-10T14:18:05.054Z</time></trkpt><trkpt lat="45.6046514" lon="9.4403084"><ele>193.66666666666666</ele><time>2026-04-10T14:18:07.054Z</time></trkpt><trkpt lat="45.6047447" lon="9.4402803"><ele>193.33333333333331</ele><time>2026-04-10T14:18:09.053Z</time></trkpt><trkpt lat="45.6048146" lon="9.4402876"><ele>193.0</ele><time>2026-04-10T14:18:13.054Z</time></trkpt><trkpt lat="45.6048936" lon="9.4402676"><ele>193.0</ele><time>2026-04-10T14:18:16.054Z</time></trkpt><trkpt lat="45.6049717" lon="9.4402491"><ele>193.0</ele><time>2026-04-10T14:18:19.054Z</time></trkpt><trkpt lat="45.6050273" lon="9.4401711"><ele>193.0</ele><time>2026-04-10T14:18:22.054Z</time></trkpt><trkpt lat="45.6053472" lon="9.4398007"><ele>193.4</ele><time>2026-04-10T14:18:25.054Z</time></trkpt><trkpt lat="45.6053689" lon="9.4396379"><ele>193.8</ele><time>2026-04-10T14:18:27.053Z</time></trkpt><trkpt lat="45.6053879" lon="9.4394918"><ele>194.2</ele><time>2026-04-10T14:18:29.054Z</time></trkpt><trkpt lat="45.6054016" lon="9.4393366"><ele>194.6</ele><time>2026-04-10T14:18:31.054Z</time></trkpt><trkpt lat="45.6054118" lon="9.4392473"><ele>195.0</ele><time>2026-04-10T14:18:32.054Z</time></trkpt><trkpt lat="45.6054386" lon="9.4390934"><ele>195.0</ele><time>2026-04-10T14:18:34.054Z</time></trkpt><trkpt lat="45.6054894" lon="9.4389569"><ele>195.0</ele><time>2026-04-10T14:18:36.054Z</time></trkpt><trkpt lat="45.6055193" lon="9.4387849"><ele>195.0</ele><time>2026-04-10T14:18:38.054Z</time></trkpt><trkpt lat="45.6055471" lon="9.4386373"><ele>195.0</ele><time>2026-04-10T14:18:40.054Z</time></trkpt><trkpt lat="45.6055731" lon="9.4384797"><ele>195.0</ele><time>2026-04-10T14:18:42.054Z</time></trkpt><trkpt lat="45.6056033" lon="9.4383139"><ele>195.0</ele><time>2026-04-10T14:18:44.054Z</time></trkpt><trkpt lat="45.6056271" lon="9.4381554"><ele>195.0</ele><time>2026-04-10T14:18:46.053Z</time></trkpt><trkpt lat="45.6056588" lon="9.4379981"><ele>195.0</ele><time>2026-04-10T14:18:48.054Z</time></trkpt><trkpt lat="45.605691" lon="9.4378293"><ele>195.0</ele><time>2026-04-10T14:18:50.054Z</time></trkpt><trkpt lat="45.6057047" lon="9.4377406"><ele>195.0</ele><time>2026-04-10T14:18:51.054Z</time></trkpt><trkpt lat="45.6057267" lon="9.4375749"><ele>195.0</ele><time>2026-04-10T14:18:53.054Z</time></trkpt><trkpt lat="45.6057579" lon="9.4374145"><ele>195.0</ele><time>2026-04-10T14:18:55.054Z</time></trkpt><trkpt lat="45.6058055" lon="9.4372674"><ele>195.0</ele><time>2026-04-10T14:18:57.054Z</time></trkpt><trkpt lat="45.6058888" lon="9.4371733"><ele>195.0</ele><time>2026-04-10T14:18:59.054Z</time></trkpt><trkpt lat="45.6059988" lon="9.4371384"><ele>195.0</ele><time>2026-04-10T14:19:01.053Z</time></trkpt><trkpt lat="45.6061142" lon="9.4370819"><ele>195.0</ele><time>2026-04-10T14:19:03.053Z</time></trkpt><trkpt lat="45.6062015" lon="9.4369857"><ele>195.0</ele><time>2026-04-10T14:19:05.054Z</time></trkpt><trkpt lat="45.6062656" lon="9.4368453"><ele>195.0</ele><time>2026-04-10T14:19:07.054Z</time></trkpt><trkpt lat="45.6063227" lon="9.4367066"><ele>195.0</ele><time>2026-04-10T14:19:09.053Z</time></trkpt><trkpt lat="45.6063818" lon="9.4365575"><ele>195.0</ele><time>2026-04-10T14:19:11.054Z</time></trkpt><trkpt lat="45.6064423" lon="9.4364109"><ele>195.0</ele><time>2026-04-10T14:19:13.053Z</time></trkpt><trkpt lat="45.6064975" lon="9.4362672"><ele>195.0</ele><time>2026-04-10T14:19:15.054Z</time></trkpt><trkpt lat="45.6065549" lon="9.4361156"><ele>195.0</ele><time>2026-04-10T14:19:17.053Z</time></trkpt><trkpt lat="45.6066092" lon="9.4359683"><ele>195.0</ele><time>2026-04-10T14:19:19.053Z</time></trkpt><trkpt lat="45.6066379" lon="9.4358795"><ele>195.0</ele><time>2026-04-10T14:19:20.054Z</time></trkpt><trkpt lat="45.6066921" lon="9.4357287"><ele>195.0</ele><time>2026-04-10T14:19:22.054Z</time></trkpt><trkpt lat="45.6067183" lon="9.4356437"><ele>195.0</ele><time>2026-04-10T14:19:23.054Z</time></trkpt><trkpt lat="45.6067679" lon="9.4354912"><ele>195.0</ele><time>2026-04-10T14:19:25.053Z</time></trkpt><trkpt lat="45.6068231" lon="9.435344"><ele>195.0</ele><time>2026-04-10T14:19:27.054Z</time></trkpt><trkpt lat="45.6068539" lon="9.4352648"><ele>195.0</ele><time>2026-04-10T14:19:28.054Z</time></trkpt><trkpt lat="45.6068875" lon="9.4351828"><ele>195.0</ele><time>2026-04-10T14:19:29.054Z</time></trkpt><trkpt lat="45.6069192" lon="9.4350932"><ele>195.0</ele><time>2026-04-10T14:19:30.053Z</time></trkpt><trkpt lat="45.6069522" lon="9.435016"><ele>195.4</ele><time>2026-04-10T14:19:31.054Z</time></trkpt><trkpt lat="45.6070029" lon="9.4349525"><ele>195.8</ele><time>2026-04-10T14:19:32.054Z</time></trkpt><trkpt lat="45.6070494" lon="9.4348915"><ele>196.2</ele><time>2026-04-10T14:19:33.053Z</time></trkpt><trkpt lat="45.6071427" lon="9.4347957"><ele>196.6</ele><time>2026-04-10T14:19:35.053Z</time></trkpt><trkpt lat="45.6072397" lon="9.4346736"><ele>197.0</ele><time>2026-04-10T14:19:37.054Z</time></trkpt><trkpt lat="45.6073242" lon="9.4345652"><ele>197.00000000000003</ele><time>2026-04-10T14:19:39.054Z</time></trkpt><trkpt lat="45.6073785" lon="9.4345117"><ele>197.0</ele><time>2026-04-10T14:19:40.054Z</time></trkpt><trkpt lat="45.6074359" lon="9.4344589"><ele>197.0</ele><time>2026-04-10T14:19:41.053Z</time></trkpt><trkpt lat="45.6074894" lon="9.4344107"><ele>197.0</ele><time>2026-04-10T14:19:42.053Z</time></trkpt><trkpt lat="45.6075506" lon="9.4343691"><ele>197.00000000000003</ele><time>2026-04-10T14:19:43.054Z</time></trkpt><trkpt lat="45.607667" lon="9.434293"><ele>197.0</ele><time>2026-04-10T14:19:45.053Z</time></trkpt><trkpt lat="45.6077241" lon="9.4342482"><ele>197.33333333333334</ele><time>2026-04-10T14:19:46.054Z</time></trkpt><trkpt lat="45.6078277" lon="9.4341685"><ele>197.66666666666669</ele><time>2026-04-10T14:19:48.054Z</time></trkpt><trkpt lat="45.6078874" lon="9.4341201"><ele>198.0</ele><time>2026-04-10T14:19:49.054Z</time></trkpt><trkpt lat="45.607949" lon="9.4340586"><ele>198.33333333333331</ele><time>2026-04-10T14:19:50.054Z</time></trkpt><trkpt lat="45.6080101" lon="9.4339991"><ele>198.66666666666666</ele><time>2026-04-10T14:19:51.054Z</time></trkpt><trkpt lat="45.6080595" lon="9.4339394"><ele>199.0</ele><time>2026-04-10T14:19:52.054Z</time></trkpt><trkpt lat="45.6081022" lon="9.4338631"><ele>198.6</ele><time>2026-04-10T14:19:53.054Z</time></trkpt><trkpt lat="45.6081788" lon="9.4337312"><ele>198.2</ele><time>2026-04-10T14:19:55.054Z</time></trkpt><trkpt lat="45.6082292" lon="9.4335817"><ele>197.79999999999998</ele><time>2026-04-10T14:19:57.054Z</time></trkpt><trkpt lat="45.6082452" lon="9.4334872"><ele>197.39999999999998</ele><time>2026-04-10T14:19:58.053Z</time></trkpt><trkpt lat="45.608276" lon="9.4333136"><ele>197.0</ele><time>2026-04-10T14:20:00.054Z</time></trkpt><trkpt lat="45.6082852" lon="9.4332164"><ele>197.0</ele><time>2026-04-10T14:20:01.054Z</time></trkpt><trkpt lat="45.6082975" lon="9.4331212"><ele>197.0</ele><time>2026-04-10T14:20:02.054Z</time></trkpt><trkpt lat="45.6083153" lon="9.4330168"><ele>197.0</ele><time>2026-04-10T14:20:03.054Z</time></trkpt><trkpt lat="45.6083331" lon="9.432913"><ele>197.0</ele><time>2026-04-10T14:20:04.054Z</time></trkpt><trkpt lat="45.608348" lon="9.4328195"><ele>197.0</ele><time>2026-04-10T14:20:05.053Z</time></trkpt><trkpt lat="45.608363" lon="9.4327199"><ele>197.0</ele><time>2026-04-10T14:20:06.054Z</time></trkpt><trkpt lat="45.6083779" lon="9.4326273"><ele>197.0</ele><time>2026-04-10T14:20:07.054Z</time></trkpt><trkpt lat="45.6083971" lon="9.4325356"><ele>197.0</ele><time>2026-04-10T14:20:08.054Z</time></trkpt><trkpt lat="45.6084106" lon="9.432447"><ele>197.0</ele><time>2026-04-10T14:20:09.054Z</time></trkpt><trkpt lat="45.6084551" lon="9.4322873"><ele>197.0</ele><time>2026-04-10T14:20:11.053Z</time></trkpt><trkpt lat="45.6085273" lon="9.4321898"><ele>197.0</ele><time>2026-04-10T14:20:13.053Z</time></trkpt><trkpt lat="45.6086253" lon="9.4321885"><ele>197.0</ele><time>2026-04-10T14:20:15.054Z</time></trkpt><trkpt lat="45.608738" lon="9.4321971"><ele>196.8</ele><time>2026-04-10T14:20:17.054Z</time></trkpt><trkpt lat="45.6087927" lon="9.4322419"><ele>196.6</ele><time>2026-04-10T14:20:18.054Z</time></trkpt><trkpt lat="45.6088576" lon="9.4322672"><ele>196.4</ele><time>2026-04-10T14:20:19.053Z</time></trkpt><trkpt lat="45.6089619" lon="9.432307"><ele>196.20000000000002</ele><time>2026-04-10T14:20:21.054Z</time></trkpt><trkpt lat="45.6090778" lon="9.4323725"><ele>196.0</ele><time>2026-04-10T14:20:23.054Z</time></trkpt><trkpt lat="45.6091905" lon="9.4324396"><ele>196.0</ele><time>2026-04-10T14:20:25.054Z</time></trkpt><trkpt lat="45.6092985" lon="9.4325029"><ele>196.0</ele><time>2026-04-10T14:20:27.054Z</time></trkpt><trkpt lat="45.6093701" lon="9.4325312"><ele>196.0</ele><time>2026-04-10T14:20:28.054Z</time></trkpt><trkpt lat="45.6094421" lon="9.4325609"><ele>196.0</ele><time>2026-04-10T14:20:29.054Z</time></trkpt><trkpt lat="45.6095588" lon="9.4326081"><ele>196.0</ele><time>2026-04-10T14:20:31.054Z</time></trkpt><trkpt lat="45.6096645" lon="9.4326519"><ele>196.0</ele><time>2026-04-10T14:20:33.053Z</time></trkpt><trkpt lat="45.6097282" lon="9.4326689"><ele>196.0</ele><time>2026-04-10T14:20:34.053Z</time></trkpt><trkpt lat="45.6097914" lon="9.4326852"><ele>196.0</ele><time>2026-04-10T14:20:35.054Z</time></trkpt><trkpt lat="45.6099041" lon="9.4326988"><ele>196.0</ele><time>2026-04-10T14:20:37.054Z</time></trkpt><trkpt lat="45.6100062" lon="9.4326713"><ele>196.0</ele><time>2026-04-10T14:20:39.053Z</time></trkpt><trkpt lat="45.6101029" lon="9.4326125"><ele>195.99999999999997</ele><time>2026-04-10T14:20:41.054Z</time></trkpt><trkpt lat="45.6101802" lon="9.4325374"><ele>196.0</ele><time>2026-04-10T14:20:43.054Z</time></trkpt><trkpt lat="45.6102468" lon="9.4324373"><ele>196.0</ele><time>2026-04-10T14:20:45.054Z</time></trkpt><trkpt lat="45.6102476" lon="9.4323275"><ele>196.0</ele><time>2026-04-10T14:20:47.054Z</time></trkpt><trkpt lat="45.6101845" lon="9.4322504"><ele>195.99999999999997</ele><time>2026-04-10T14:20:49.053Z</time></trkpt><trkpt lat="45.6100958" lon="9.4322349"><ele>196.0</ele><time>2026-04-10T14:20:51.054Z</time></trkpt><trkpt lat="45.6099804" lon="9.4322775"><ele>196.0</ele><time>2026-04-10T14:20:53.053Z</time></trkpt><trkpt lat="45.6098712" lon="9.4322999"><ele>196.0</ele><time>2026-04-10T14:20:55.054Z</time></trkpt><trkpt lat="45.6097635" lon="9.4322667"><ele>196.0</ele><time>2026-04-10T14:20:57.053Z</time></trkpt><trkpt lat="45.6097012" lon="9.432241"><ele>196.0</ele><time>2026-04-10T14:20:58.054Z</time></trkpt><trkpt lat="45.60958" lon="9.4322187"><ele>196.0</ele><time>2026-04-10T14:21:00.054Z</time></trkpt><trkpt lat="45.6094692" lon="9.4321745"><ele>195.99999999999997</ele><time>2026-04-10T14:21:02.054Z</time></trkpt><trkpt lat="45.6094064" lon="9.4321459"><ele>196.0</ele><time>2026-04-10T14:21:03.054Z</time></trkpt><trkpt lat="45.6093412" lon="9.4321128"><ele>196.0</ele><time>2026-04-10T14:21:04.054Z</time></trkpt><trkpt lat="45.6092744" lon="9.4320961"><ele>196.0</ele><time>2026-04-10T14:21:05.053Z</time></trkpt><trkpt lat="45.6091545" lon="9.4320509"><ele>195.99999999999997</ele><time>2026-04-10T14:21:07.053Z</time></trkpt><trkpt lat="45.6090414" lon="9.4319902"><ele>196.0</ele><time>2026-04-10T14:21:09.054Z</time></trkpt><trkpt lat="45.6089778" lon="9.431964"><ele>195.8</ele><time>2026-04-10T14:21:10.054Z</time></trkpt><trkpt lat="45.6088544" lon="9.4318951"><ele>195.60000000000002</ele><time>2026-04-10T14:21:12.054Z</time></trkpt><trkpt lat="45.6087902" lon="9.4318732"><ele>195.4</ele><time>2026-04-10T14:21:13.054Z</time></trkpt><trkpt lat="45.6086668" lon="9.4318265"><ele>195.2</ele><time>2026-04-10T14:21:15.053Z</time></trkpt><trkpt lat="45.6085989" lon="9.4317996"><ele>195.0</ele><time>2026-04-10T14:21:16.053Z</time></trkpt><trkpt lat="45.6085336" lon="9.4317655"><ele>195.6</ele><time>2026-04-10T14:21:17.054Z</time></trkpt><trkpt lat="45.608456" lon="9.4317792"><ele>196.2</ele><time>2026-04-10T14:21:18.054Z</time></trkpt><trkpt lat="45.6083369" lon="9.4318069"><ele>196.8</ele><time>2026-04-10T14:21:20.054Z</time></trkpt><trkpt lat="45.608228" lon="9.4318865"><ele>197.4</ele><time>2026-04-10T14:21:22.053Z</time></trkpt><trkpt lat="45.6081323" lon="9.431969"><ele>198.0</ele><time>2026-04-10T14:21:24.054Z</time></trkpt><trkpt lat="45.608031" lon="9.4320251"><ele>198.0</ele><time>2026-04-10T14:21:26.054Z</time></trkpt><trkpt lat="45.6079134" lon="9.4319983"><ele>198.0</ele><time>2026-04-10T14:21:28.054Z</time></trkpt><trkpt lat="45.6078467" lon="9.4319622"><ele>198.0</ele><time>2026-04-10T14:21:29.054Z</time></trkpt><trkpt lat="45.6077809" lon="9.4319255"><ele>198.0</ele><time>2026-04-10T14:21:30.054Z</time></trkpt><trkpt lat="45.6076566" lon="9.4319069"><ele>198.0</ele><time>2026-04-10T14:21:32.053Z</time></trkpt><trkpt lat="45.6075363" lon="9.4318858"><ele>197.8</ele><time>2026-04-10T14:21:34.053Z</time></trkpt><trkpt lat="45.6074547" lon="9.4318059"><ele>197.60000000000002</ele><time>2026-04-10T14:21:36.054Z</time></trkpt><trkpt lat="45.6073963" lon="9.4317032"><ele>197.39999999999998</ele><time>2026-04-10T14:21:38.054Z</time></trkpt><trkpt lat="45.6073728" lon="9.4315797"><ele>197.2</ele><time>2026-04-10T14:21:40.054Z</time></trkpt><trkpt lat="45.607341" lon="9.4314318"><ele>197.0</ele><time>2026-04-10T14:21:42.053Z</time></trkpt><trkpt lat="45.6072409" lon="9.4313485"><ele>197.0</ele><time>2026-04-10T14:21:44.054Z</time></trkpt><trkpt lat="45.6071252" lon="9.4313153"><ele>197.0</ele><time>2026-04-10T14:21:46.054Z</time></trkpt><trkpt lat="45.6070295" lon="9.4312491"><ele>197.0</ele><time>2026-04-10T14:21:48.053Z</time></trkpt><trkpt lat="45.6069775" lon="9.4311277"><ele>197.0</ele><time>2026-04-10T14:21:50.054Z</time></trkpt><trkpt lat="45.6069977" lon="9.4309967"><ele>197.0</ele><time>2026-04-10T14:21:52.054Z</time></trkpt><trkpt lat="45.607026" lon="9.4308326"><ele>197.0</ele><time>2026-04-10T14:21:54.053Z</time></trkpt><trkpt lat="45.6070291" lon="9.430657"><ele>197.0</ele><time>2026-04-10T14:21:56.054Z</time></trkpt><trkpt lat="45.6070391" lon="9.4304877"><ele>197.0</ele><time>2026-04-10T14:21:58.054Z</time></trkpt><trkpt lat="45.6070825" lon="9.4303503"><ele>197.0</ele><time>2026-04-10T14:22:00.054Z</time></trkpt><trkpt lat="45.6071664" lon="9.4302646"><ele>196.8</ele><time>2026-04-10T14:22:02.054Z</time></trkpt><trkpt lat="45.6072458" lon="9.4301829"><ele>196.6</ele><time>2026-04-10T14:22:04.054Z</time></trkpt><trkpt lat="45.6072984" lon="9.4300526"><ele>196.4</ele><time>2026-04-10T14:22:06.054Z</time></trkpt><trkpt lat="45.6073185" lon="9.4299105"><ele>196.20000000000002</ele><time>2026-04-10T14:22:08.053Z</time></trkpt><trkpt lat="45.6073236" lon="9.4298202"><ele>196.0</ele><time>2026-04-10T14:22:09.054Z</time></trkpt><trkpt lat="45.6073208" lon="9.4296367"><ele>195.8</ele><time>2026-04-10T14:22:11.053Z</time></trkpt><trkpt lat="45.6073228" lon="9.4295465"><ele>195.60000000000002</ele><time>2026-04-10T14:22:12.053Z</time></trkpt><trkpt lat="45.6073187" lon="9.4293936"><ele>195.4</ele><time>2026-04-10T14:22:14.054Z</time></trkpt><trkpt lat="45.6073153" lon="9.4292994"><ele>195.2</ele><time>2026-04-10T14:22:15.054Z</time></trkpt><trkpt lat="45.6073168" lon="9.4291203"><ele>195.0</ele><time>2026-04-10T14:22:17.054Z</time></trkpt><trkpt lat="45.6073326" lon="9.4289597"><ele>195.0</ele><time>2026-04-10T14:22:19.053Z</time></trkpt><trkpt lat="45.6073346" lon="9.4288675"><ele>195.0</ele><time>2026-04-10T14:22:20.054Z</time></trkpt><trkpt lat="45.6073342" lon="9.4287719"><ele>195.0</ele><time>2026-04-10T14:22:21.054Z</time></trkpt><trkpt lat="45.6073346" lon="9.4285938"><ele>195.0</ele><time>2026-04-10T14:22:23.054Z</time></trkpt><trkpt lat="45.6073392" lon="9.4284088"><ele>195.0</ele><time>2026-04-10T14:22:25.054Z</time></trkpt><trkpt lat="45.6073433" lon="9.4283169"><ele>195.0</ele><time>2026-04-10T14:22:26.054Z</time></trkpt><trkpt lat="45.6073452" lon="9.4282209"><ele>195.0</ele><time>2026-04-10T14:22:27.054Z</time></trkpt><trkpt lat="45.6073553" lon="9.4281218"><ele>195.0</ele><time>2026-04-10T14:22:28.054Z</time></trkpt><trkpt lat="45.6073516" lon="9.4280305"><ele>195.0</ele><time>2026-04-10T14:22:29.053Z</time></trkpt><trkpt lat="45.6073469" lon="9.4279398"><ele>195.0</ele><time>2026-04-10T14:22:30.054Z</time></trkpt><trkpt lat="45.6073452" lon="9.4278483"><ele>195.0</ele><time>2026-04-10T14:22:31.054Z</time></trkpt><trkpt lat="45.6073651" lon="9.4276656"><ele>195.0</ele><time>2026-04-10T14:22:33.053Z</time></trkpt><trkpt lat="45.6073633" lon="9.4275745"><ele>195.0</ele><time>2026-04-10T14:22:34.054Z</time></trkpt><trkpt lat="45.607362" lon="9.4274778"><ele>195.0</ele><time>2026-04-10T14:22:35.054Z</time></trkpt><trkpt lat="45.6073622" lon="9.4273751"><ele>195.0</ele><time>2026-04-10T14:22:36.054Z</time></trkpt><trkpt lat="45.6073655" lon="9.4272684"><ele>195.0</ele><time>2026-04-10T14:22:37.054Z</time></trkpt><trkpt lat="45.6073675" lon="9.4271762"><ele>195.0</ele><time>2026-04-10T14:22:38.054Z</time></trkpt><trkpt lat="45.6073618" lon="9.4270014"><ele>195.0</ele><time>2026-04-10T14:22:40.053Z</time></trkpt><trkpt lat="45.6073579" lon="9.4269047"><ele>195.0</ele><time>2026-04-10T14:22:41.054Z</time></trkpt><trkpt lat="45.6073594" lon="9.4267269"><ele>195.0</ele><time>2026-04-10T14:22:43.054Z</time></trkpt><trkpt lat="45.607361" lon="9.4266336"><ele>195.0</ele><time>2026-04-10T14:22:44.054Z</time></trkpt><trkpt lat="45.6073604" lon="9.4265373"><ele>195.0</ele><time>2026-04-10T14:22:45.054Z</time></trkpt><trkpt lat="45.6073643" lon="9.4264471"><ele>195.0</ele><time>2026-04-10T14:22:46.053Z</time></trkpt><trkpt lat="45.607364" lon="9.4262716"><ele>195.0</ele><time>2026-04-10T14:22:48.054Z</time></trkpt><trkpt lat="45.6073731" lon="9.4261144"><ele>195.0</ele><time>2026-04-10T14:22:50.054Z</time></trkpt><trkpt lat="45.607407" lon="9.4259915"><ele>195.0</ele><time>2026-04-10T14:22:52.054Z</time></trkpt><trkpt lat="45.6074914" lon="9.4259607"><ele>195.0</ele><time>2026-04-10T14:22:54.054Z</time></trkpt><trkpt lat="45.6075835" lon="9.4259719"><ele>195.0</ele><time>2026-04-10T14:22:56.053Z</time></trkpt><trkpt lat="45.6076874" lon="9.4259803"><ele>195.0</ele><time>2026-04-10T14:22:58.053Z</time></trkpt><trkpt lat="45.607797" lon="9.42599"><ele>195.0</ele><time>2026-04-10T14:23:00.054Z</time></trkpt><trkpt lat="45.60791" lon="9.425989"><ele>195.0</ele><time>2026-04-10T14:23:02.054Z</time></trkpt><trkpt lat="45.608026" lon="9.4259946"><ele>195.0</ele><time>2026-04-10T14:23:04.054Z</time></trkpt><trkpt lat="45.6081437" lon="9.425992"><ele>195.25</ele><time>2026-04-10T14:23:06.054Z</time></trkpt><trkpt lat="45.6082575" lon="9.425997"><ele>195.5</ele><time>2026-04-10T14:23:08.054Z</time></trkpt><trkpt lat="45.6083805" lon="9.4260023"><ele>195.75</ele><time>2026-04-10T14:23:10.054Z</time></trkpt><trkpt lat="45.6084993" lon="9.4260099"><ele>196.0</ele><time>2026-04-10T14:23:12.054Z</time></trkpt><trkpt lat="45.6086157" lon="9.4260156"><ele>196.75</ele><time>2026-04-10T14:23:14.054Z</time></trkpt><trkpt lat="45.6087355" lon="9.4260213"><ele>197.5</ele><time>2026-04-10T14:23:16.053Z</time></trkpt><trkpt lat="45.6088545" lon="9.4260245"><ele>198.25</ele><time>2026-04-10T14:23:18.054Z</time></trkpt><trkpt lat="45.6089766" lon="9.4260304"><ele>199.0</ele><time>2026-04-10T14:23:20.054Z</time></trkpt><trkpt lat="45.6091012" lon="9.4260403"><ele>199.0</ele><time>2026-04-10T14:23:22.054Z</time></trkpt><trkpt lat="45.6092255" lon="9.4260439"><ele>199.0</ele><time>2026-04-10T14:23:24.054Z</time></trkpt><trkpt lat="45.6093392" lon="9.4260545"><ele>199.0</ele><time>2026-04-10T14:23:26.054Z</time></trkpt><trkpt lat="45.6094511" lon="9.426054"><ele>199.0</ele><time>2026-04-10T14:23:28.053Z</time></trkpt><trkpt lat="45.6095479" lon="9.4260626"><ele>199.0</ele><time>2026-04-10T14:23:30.054Z</time></trkpt><trkpt lat="45.6096218" lon="9.4260453"><ele>199.49999999999997</ele><time>2026-04-10T14:23:32.053Z</time></trkpt><trkpt lat="45.609688" lon="9.4259909"><ele>200.0</ele><time>2026-04-10T14:24:33.053Z</time></trkpt><trkpt lat="45.6097027" lon="9.4260976"><ele>200.5</ele><time>2026-04-10T14:24:39.054Z</time></trkpt><trkpt lat="45.6096857" lon="9.4262325"><ele>201.0</ele><time>2026-04-10T14:24:42.054Z</time></trkpt><trkpt lat="45.6096787" lon="9.4263484"><ele>201.49999999999997</ele><time>2026-04-10T14:24:44.054Z</time></trkpt><trkpt lat="45.609684" lon="9.4264927"><ele>202.0</ele><time>2026-04-10T14:24:46.054Z</time></trkpt><trkpt lat="45.6096744" lon="9.4266288"><ele>201.99999999999997</ele><time>2026-04-10T14:24:48.054Z</time></trkpt><trkpt lat="45.6096655" lon="9.4267499"><ele>202.0</ele><time>2026-04-10T14:24:50.054Z</time></trkpt><trkpt lat="45.6096666" lon="9.4268546"><ele>202.0</ele><time>2026-04-10T14:24:52.054Z</time></trkpt><trkpt lat="45.6096462" lon="9.4269501"><ele>202.0</ele><time>2026-04-10T14:24:54.053Z</time></trkpt><trkpt lat="45.609633" lon="9.4270529"><ele>201.99999999999997</ele><time>2026-04-10T14:24:56.054Z</time></trkpt><trkpt lat="45.6096637" lon="9.4271464"><ele>202.0</ele><time>2026-04-10T14:24:58.054Z</time></trkpt><trkpt lat="45.6097956" lon="9.4272549"><ele>200.0</ele><time>2026-04-10T14:25:03.061Z</time></trkpt><trkpt lat="45.6099087" lon="9.4272179"><ele>200.0</ele><time>2026-04-10T14:27:54.451Z</time></trkpt><trkpt lat="45.6099825" lon="9.427176"><ele>200.0</ele><time>2026-04-10T14:28:04.046Z</time></trkpt><trkpt lat="45.6100069" lon="9.4270887"><ele>202.0</ele><time>2026-04-10T14:29:31.992Z</time></trkpt><trkpt lat="45.6100069" lon="9.4270887"><ele>202.0</ele><time>2026-04-10T14:29:31.992Z</time></trkpt><trkpt lat="45.6100069" lon="9.4270887"><ele>202.0</ele><time>2026-04-10T14:29:31.992Z</time></trkpt></trkseg></trk></gpx>